<?xml version='1.0' encoding='UTF-8'?><gpx version="1.1" creator="JPX - https://github.com/jenetics/jpx" xmlns="http://www.topografix.com/GPX/1/1"><trk><trkseg><trkpt lat="44.996764806691644" lon="8.566628671876398"><ele>245.00000000000003</ele><time>2026-04-19T06:11:33.138Z</time></trkpt><trkpt lat="44.99671049702945" lon="8.56669016676578"><ele>245.0</ele><time>2026-04-19T06:11:57.995Z</time></trkpt><trkpt lat="44.99664555273615" lon="8.566726605791116"><ele>245.0</ele><time>2026-04-19T06:12:00.996Z</time></trkpt><trkpt lat="44.99660823030827" lon="8.566615689697834"><ele>245.0</ele><time>2026-04-19T06:12:02.997Z</time></trkpt><trkpt lat="44.996654505857904" lon="8.566491790384536"><ele>245.00000000000003</ele><time>2026-04-19T06:12:04.997Z</time></trkpt><trkpt lat="44.996664206717824" lon="8.566388976552773"><ele>245.0</ele><time>2026-04-19T06:12:07.998Z</time></trkpt><trkpt lat="44.99659947968253" lon="8.56640024020712"><ele>243.2</ele><time>2026-04-19T06:12:15.999Z</time></trkpt><trkpt lat="44.996555539717335" lon="8.566507500584036"><ele>241.4</ele><time>2026-04-19T06:12:18.999Z</time></trkpt><trkpt lat="44.99650855443111" lon="8.566660259632926"><ele>239.60000000000002</ele><time>2026-04-19T06:12:20.999Z</time></trkpt><trkpt lat="44.996435787326185" lon="8.566804563017424"><ele>237.8</ele><time>2026-04-19T06:12:22.999Z</time></trkpt><trkpt lat="44.996415408818656" lon="8.566899341438546"><ele>236.0</ele><time>2026-04-19T06:12:23.999Z</time></trkpt><trkpt lat="44.996402635527794" lon="8.566996237280069"><ele>235.50000000000003</ele><time>2026-04-19T06:12:25Z</time></trkpt><trkpt lat="44.996395338672826" lon="8.567090919920746"><ele>235.0</ele><time>2026-04-19T06:12:26Z</time></trkpt><trkpt lat="44.996405181093444" lon="8.567181936808575"><ele>234.5</ele><time>2026-04-19T06:12:27Z</time></trkpt><trkpt lat="44.99641380329128" lon="8.567346304996631"><ele>234.0</ele><time>2026-04-19T06:12:29Z</time></trkpt><trkpt lat="44.99643448397069" lon="8.567438071186375"><ele>233.50000000000003</ele><time>2026-04-19T06:12:31Z</time></trkpt><trkpt lat="44.99646464385622" lon="8.567534366058112"><ele>233.0</ele><time>2026-04-19T06:12:34Z</time></trkpt><trkpt lat="44.99656380267427" lon="8.567625051033867"><ele>233.0</ele><time>2026-04-19T06:12:36Z</time></trkpt><trkpt lat="44.99665667043343" lon="8.56772747911045"><ele>233.0</ele><time>2026-04-19T06:12:38Z</time></trkpt><trkpt lat="44.99675146709953" lon="8.56782917007862"><ele>233.0</ele><time>2026-04-19T06:12:40Z</time></trkpt><trkpt lat="44.99684962775034" lon="8.56793446854229"><ele>233.0</ele><time>2026-04-19T06:12:42Z</time></trkpt><trkpt lat="44.99690883486311" lon="8.568002747641437"><ele>233.0</ele><time>2026-04-19T06:12:43Z</time></trkpt><trkpt lat="44.99696206115688" lon="8.568072931606943"><ele>231.00000000000003</ele><time>2026-04-19T06:12:44Z</time></trkpt><trkpt lat="44.99700969051131" lon="8.568142058037099"><ele>229.0</ele><time>2026-04-19T06:12:45Z</time></trkpt><trkpt lat="44.997091208309335" lon="8.568308923329685"><ele>227.0</ele><time>2026-04-19T06:12:47Z</time></trkpt><trkpt lat="44.99714814557361" lon="8.56836270201448"><ele>225.0</ele><time>2026-04-19T06:12:48Z</time></trkpt><trkpt lat="44.99718847838953" lon="8.568462154947833"><ele>223.00000000000003</ele><time>2026-04-19T06:12:49Z</time></trkpt><trkpt lat="44.99723582747754" lon="8.568555265063587"><ele>221.0</ele><time>2026-04-19T06:12:50Z</time></trkpt><trkpt lat="44.99727514925149" lon="8.568653434578625"><ele>221.4</ele><time>2026-04-19T06:12:51Z</time></trkpt><trkpt lat="44.99730586292852" lon="8.568750934837126"><ele>221.8</ele><time>2026-04-19T06:12:52Z</time></trkpt><trkpt lat="44.997331794762104" lon="8.568845221739965"><ele>222.20000000000002</ele><time>2026-04-19T06:12:53Z</time></trkpt><trkpt lat="44.99736341835739" lon="8.569059648554607"><ele>222.60000000000002</ele><time>2026-04-19T06:12:55Z</time></trkpt><trkpt lat="44.99738425827561" lon="8.569195404673449"><ele>223.0</ele><time>2026-04-19T06:12:56Z</time></trkpt><trkpt lat="44.99740597123127" lon="8.569350654656834"><ele>223.0</ele><time>2026-04-19T06:12:58Z</time></trkpt><trkpt lat="44.9974245768444" lon="8.569496263813287"><ele>223.0</ele><time>2026-04-19T06:13:00Z</time></trkpt><trkpt lat="44.99743897799045" lon="8.569607171895433"><ele>223.0</ele><time>2026-04-19T06:13:01Z</time></trkpt><trkpt lat="44.997457595525304" lon="8.569747920451505"><ele>223.0</ele><time>2026-04-19T06:13:02Z</time></trkpt><trkpt lat="44.99747807228848" lon="8.569894852295317"><ele>223.0</ele><time>2026-04-19T06:13:03Z</time></trkpt><trkpt lat="44.997494533385705" lon="8.570008972966418"><ele>218.4</ele><time>2026-04-19T06:13:04Z</time></trkpt><trkpt lat="44.99750956871212" lon="8.570108468014526"><ele>213.8</ele><time>2026-04-19T06:13:05Z</time></trkpt><trkpt lat="44.997523012503365" lon="8.570197431153725"><ele>209.2</ele><time>2026-04-19T06:13:06Z</time></trkpt><trkpt lat="44.997538147209184" lon="8.57031167745043"><ele>204.6</ele><time>2026-04-19T06:13:07Z</time></trkpt><trkpt lat="44.99755692695985" lon="8.570468647078933"><ele>200.0</ele><time>2026-04-19T06:13:08Z</time></trkpt><trkpt lat="44.99757712255139" lon="8.570652798838852"><ele>200.00000000000003</ele><time>2026-04-19T06:13:09Z</time></trkpt><trkpt lat="44.99758831580659" lon="8.570790055564643"><ele>200.0</ele><time>2026-04-19T06:13:10Z</time></trkpt><trkpt lat="44.99759166761986" lon="8.570902767590331"><ele>200.0</ele><time>2026-04-19T06:13:11Z</time></trkpt><trkpt lat="44.99757632178004" lon="8.571002196276757"><ele>200.0</ele><time>2026-04-19T06:13:12Z</time></trkpt><trkpt lat="44.99755224919897" lon="8.571125745550656"><ele>200.00000000000003</ele><time>2026-04-19T06:13:13Z</time></trkpt><trkpt lat="44.99751436750821" lon="8.5712585692151"><ele>200.0</ele><time>2026-04-19T06:13:14Z</time></trkpt><trkpt lat="44.997465341647676" lon="8.571409471148465"><ele>202.4</ele><time>2026-04-19T06:13:15Z</time></trkpt><trkpt lat="44.99742054147168" lon="8.571561241092295"><ele>204.8</ele><time>2026-04-19T06:13:16Z</time></trkpt><trkpt lat="44.997382106392784" lon="8.571692056796335"><ele>207.2</ele><time>2026-04-19T06:13:17Z</time></trkpt><trkpt lat="44.99734785952373" lon="8.571796293481519"><ele>209.6</ele><time>2026-04-19T06:13:18Z</time></trkpt><trkpt lat="44.99731322364133" lon="8.571902348834206"><ele>212.0</ele><time>2026-04-19T06:13:19Z</time></trkpt><trkpt lat="44.99728421160496" lon="8.571999947243901"><ele>210.39999999999998</ele><time>2026-04-19T06:13:20Z</time></trkpt><trkpt lat="44.99727388333832" lon="8.572096782125675"><ele>208.79999999999998</ele><time>2026-04-19T06:13:21Z</time></trkpt><trkpt lat="44.997234256612806" lon="8.572201448767757"><ele>207.2</ele><time>2026-04-19T06:13:22Z</time></trkpt><trkpt lat="44.99719215211792" lon="8.572336342400547"><ele>205.6</ele><time>2026-04-19T06:13:23Z</time></trkpt><trkpt lat="44.997155266045105" lon="8.572488540945495"><ele>204.0</ele><time>2026-04-19T06:13:24Z</time></trkpt><trkpt lat="44.997141183299895" lon="8.57261451276436"><ele>204.0</ele><time>2026-04-19T06:13:25Z</time></trkpt><trkpt lat="44.99711288494353" lon="8.572720669921395"><ele>204.0</ele><time>2026-04-19T06:13:26Z</time></trkpt><trkpt lat="44.99710703882671" lon="8.57282595912483"><ele>204.0</ele><time>2026-04-19T06:13:27Z</time></trkpt><trkpt lat="44.99709258514595" lon="8.572914208647349"><ele>204.0</ele><time>2026-04-19T06:13:28Z</time></trkpt><trkpt lat="44.997068391156006" lon="8.573042184802418"><ele>204.0</ele><time>2026-04-19T06:13:30Z</time></trkpt><trkpt lat="44.99703495320755" lon="8.573120208165212"><ele>204.0</ele><time>2026-04-19T06:13:33Z</time></trkpt><trkpt lat="44.997051649657074" lon="8.573279773572832"><ele>204.0</ele><time>2026-04-19T06:13:47.001Z</time></trkpt><trkpt lat="44.99710127504577" lon="8.573426150251002"><ele>204.0</ele><time>2026-04-19T06:13:49.001Z</time></trkpt><trkpt lat="44.997129762609454" lon="8.573516025902087"><ele>204.0</ele><time>2026-04-19T06:13:50.001Z</time></trkpt><trkpt lat="44.99717377564518" lon="8.57362879610251"><ele>204.0</ele><time>2026-04-19T06:13:51.001Z</time></trkpt><trkpt lat="44.997208988627754" lon="8.573737291213588"><ele>204.0</ele><time>2026-04-19T06:13:52.001Z</time></trkpt><trkpt lat="44.997247863289424" lon="8.573881881421284"><ele>205.2</ele><time>2026-04-19T06:13:53.001Z</time></trkpt><trkpt lat="44.99728971532803" lon="8.574021186938744"><ele>206.39999999999998</ele><time>2026-04-19T06:13:54.001Z</time></trkpt><trkpt lat="44.997335968432516" lon="8.574169620602046"><ele>207.6</ele><time>2026-04-19T06:13:55.001Z</time></trkpt><trkpt lat="44.997377723365176" lon="8.574307849006356"><ele>208.8</ele><time>2026-04-19T06:13:56.001Z</time></trkpt><trkpt lat="44.99741658976125" lon="8.574450957918769"><ele>210.0</ele><time>2026-04-19T06:13:57.001Z</time></trkpt><trkpt lat="44.99746479520222" lon="8.574621937583514"><ele>207.0</ele><time>2026-04-19T06:13:58.001Z</time></trkpt><trkpt lat="44.99751500420136" lon="8.574753301621788"><ele>204.0</ele><time>2026-04-19T06:13:59.001Z</time></trkpt><trkpt lat="44.99755152056587" lon="8.574908944933192"><ele>201.0</ele><time>2026-04-19T06:14:00.001Z</time></trkpt><trkpt lat="44.99760196803954" lon="8.575036197982055"><ele>198.0</ele><time>2026-04-19T06:14:01.001Z</time></trkpt><trkpt lat="44.99764275673594" lon="8.575173592316753"><ele>195.0</ele><time>2026-04-19T06:14:02.001Z</time></trkpt><trkpt lat="44.997706873041814" lon="8.575308418043814"><ele>197.5</ele><time>2026-04-19T06:14:03.001Z</time></trkpt><trkpt lat="44.997782267091466" lon="8.575437287613521"><ele>200.0</ele><time>2026-04-19T06:14:04Z</time></trkpt><trkpt lat="44.997874425078656" lon="8.575553181031689"><ele>202.5</ele><time>2026-04-19T06:14:05Z</time></trkpt><trkpt lat="44.99797759122026" lon="8.575659306103585"><ele>205.0</ele><time>2026-04-19T06:14:06Z</time></trkpt><trkpt lat="44.99807582218309" lon="8.575756498331142"><ele>205.0</ele><time>2026-04-19T06:14:07Z</time></trkpt><trkpt lat="44.99816130332561" lon="8.575844559024379"><ele>205.0</ele><time>2026-04-19T06:14:08Z</time></trkpt><trkpt lat="44.99825608472088" lon="8.575942083115748"><ele>205.0</ele><time>2026-04-19T06:14:09Z</time></trkpt><trkpt lat="44.99836459861283" lon="8.576051388334202"><ele>205.0</ele><time>2026-04-19T06:14:10Z</time></trkpt><trkpt lat="44.99845717321184" lon="8.57614147596"><ele>205.4</ele><time>2026-04-19T06:14:11Z</time></trkpt><trkpt lat="44.998544620380294" lon="8.576225798320593"><ele>205.8</ele><time>2026-04-19T06:14:12Z</time></trkpt><trkpt lat="44.99861388933893" lon="8.576299328839875"><ele>206.2</ele><time>2026-04-19T06:14:13Z</time></trkpt><trkpt lat="44.99867602139978" lon="8.576364050121935"><ele>206.6</ele><time>2026-04-19T06:14:14Z</time></trkpt><trkpt lat="44.99872606699154" lon="8.576423306015199"><ele>207.0</ele><time>2026-04-19T06:14:15Z</time></trkpt><trkpt lat="44.99881414062645" lon="8.57655116932092"><ele>207.0</ele><time>2026-04-19T06:14:17Z</time></trkpt><trkpt lat="44.99892085505509" lon="8.576552801463105"><ele>207.0</ele><time>2026-04-19T06:14:18Z</time></trkpt><trkpt lat="44.998992202765095" lon="8.576588615207351"><ele>207.0</ele><time>2026-04-19T06:14:19Z</time></trkpt><trkpt lat="44.99906989153871" lon="8.576637954063319"><ele>207.0</ele><time>2026-04-19T06:14:20Z</time></trkpt><trkpt lat="44.99916541295155" lon="8.576698948531421"><ele>207.0</ele><time>2026-04-19T06:14:21Z</time></trkpt><trkpt lat="44.99925676038671" lon="8.576746261886145"><ele>208.5</ele><time>2026-04-19T06:14:22Z</time></trkpt><trkpt lat="44.9993256218966" lon="8.57679629056174"><ele>210.0</ele><time>2026-04-19T06:14:23Z</time></trkpt><trkpt lat="44.99936142301716" lon="8.576888041871728"><ele>211.5</ele><time>2026-04-19T06:14:24Z</time></trkpt><trkpt lat="44.99939877868589" lon="8.576978049659404"><ele>213.0</ele><time>2026-04-19T06:14:25Z</time></trkpt><trkpt lat="44.99943763301789" lon="8.577100333588634"><ele>214.5</ele><time>2026-04-19T06:14:26Z</time></trkpt><trkpt lat="44.9994788462677" lon="8.577236405191485"><ele>216.0</ele><time>2026-04-19T06:14:27Z</time></trkpt><trkpt lat="44.9995234347327" lon="8.577360848915355"><ele>216.0</ele><time>2026-04-19T06:14:28Z</time></trkpt><trkpt lat="44.999568857096975" lon="8.577469228646365"><ele>216.00000000000003</ele><time>2026-04-19T06:14:29Z</time></trkpt><trkpt lat="44.99962433217595" lon="8.577571683516746"><ele>216.00000000000003</ele><time>2026-04-19T06:14:30Z</time></trkpt><trkpt lat="44.99969582137095" lon="8.577648533101907"><ele>216.0</ele><time>2026-04-19T06:14:31Z</time></trkpt><trkpt lat="44.99978106288763" lon="8.577732903809212"><ele>216.0</ele><time>2026-04-19T06:14:32Z</time></trkpt><trkpt lat="44.99987660491187" lon="8.57779096251089"><ele>216.0</ele><time>2026-04-19T06:14:33Z</time></trkpt><trkpt lat="44.99993771665759" lon="8.577851537233713"><ele>216.0</ele><time>2026-04-19T06:14:34Z</time></trkpt><trkpt lat="45.00002674702812" lon="8.57795027391471"><ele>216.0</ele><time>2026-04-19T06:14:36Z</time></trkpt><trkpt lat="45.00008815594551" lon="8.577987551353706"><ele>216.0</ele><time>2026-04-19T06:14:37Z</time></trkpt><trkpt lat="45.00021521542577" lon="8.578000614560898"><ele>216.0</ele><time>2026-04-19T06:14:39Z</time></trkpt><trkpt lat="45.000280732089074" lon="8.577998982208515"><ele>216.0</ele><time>2026-04-19T06:14:40Z</time></trkpt><trkpt lat="45.00037020579127" lon="8.577980896061632"><ele>216.0</ele><time>2026-04-19T06:14:41Z</time></trkpt><trkpt lat="45.00046945484636" lon="8.577946569945565"><ele>216.00000000000003</ele><time>2026-04-19T06:14:42Z</time></trkpt><trkpt lat="45.00055055127179" lon="8.577917548180103"><ele>216.00000000000003</ele><time>2026-04-19T06:14:43Z</time></trkpt><trkpt lat="45.000635583981044" lon="8.577873451456064"><ele>216.0</ele><time>2026-04-19T06:14:44Z</time></trkpt><trkpt lat="45.000733604309815" lon="8.577855510271105"><ele>216.0</ele><time>2026-04-19T06:14:45Z</time></trkpt><trkpt lat="45.0008243962317" lon="8.577815669213843"><ele>213.20000000000002</ele><time>2026-04-19T06:14:46Z</time></trkpt><trkpt lat="45.000907278287684" lon="8.577857986105254"><ele>210.40000000000003</ele><time>2026-04-19T06:14:47Z</time></trkpt><trkpt lat="45.000980663547736" lon="8.577899475378238"><ele>207.6</ele><time>2026-04-19T06:14:48Z</time></trkpt><trkpt lat="45.00107089491891" lon="8.577969402597702"><ele>204.8</ele><time>2026-04-19T06:14:49Z</time></trkpt><trkpt lat="45.00115745572764" lon="8.578055964623731"><ele>202.0</ele><time>2026-04-19T06:14:50Z</time></trkpt><trkpt lat="45.00125902572987" lon="8.578124362607001"><ele>202.0</ele><time>2026-04-19T06:14:51Z</time></trkpt><trkpt lat="45.001373666263895" lon="8.578151894746334"><ele>202.0</ele><time>2026-04-19T06:14:52Z</time></trkpt><trkpt lat="45.00147219462652" lon="8.57820272945928"><ele>202.0</ele><time>2026-04-19T06:14:53Z</time></trkpt><trkpt lat="45.00156274929004" lon="8.578258262030161"><ele>202.0</ele><time>2026-04-19T06:14:54Z</time></trkpt><trkpt lat="45.00164829437801" lon="8.578316031383943"><ele>202.0</ele><time>2026-04-19T06:14:55Z</time></trkpt><trkpt lat="45.00171884571818" lon="8.578364718389254"><ele>202.33333333333331</ele><time>2026-04-19T06:14:56Z</time></trkpt><trkpt lat="45.00176335325372" lon="8.578467599221417"><ele>202.66666666666666</ele><time>2026-04-19T06:14:57Z</time></trkpt><trkpt lat="45.00180743108897" lon="8.578540358824274"><ele>203.0</ele><time>2026-04-19T06:14:58Z</time></trkpt><trkpt lat="45.00189372217506" lon="8.578672298011629"><ele>203.33333333333331</ele><time>2026-04-19T06:15:00Z</time></trkpt><trkpt lat="45.00196040865263" lon="8.578735291601543"><ele>203.66666666666666</ele><time>2026-04-19T06:15:01Z</time></trkpt><trkpt lat="45.00201486959672" lon="8.57879849000625"><ele>204.0</ele><time>2026-04-19T06:15:02Z</time></trkpt><trkpt lat="45.00211783851695" lon="8.57889135972938"><ele>201.79999999999998</ele><time>2026-04-19T06:15:04Z</time></trkpt><trkpt lat="45.00219032973211" lon="8.578905491085408"><ele>199.6</ele><time>2026-04-19T06:15:05Z</time></trkpt><trkpt lat="45.00227848094726" lon="8.578935960492895"><ele>197.4</ele><time>2026-04-19T06:15:06Z</time></trkpt><trkpt lat="45.00239973887335" lon="8.57893796795105"><ele>195.2</ele><time>2026-04-19T06:15:07Z</time></trkpt><trkpt lat="45.002513533276385" lon="8.578916724275365"><ele>193.0</ele><time>2026-04-19T06:15:08Z</time></trkpt><trkpt lat="45.00259554408331" lon="8.57891295967114"><ele>193.0</ele><time>2026-04-19T06:15:09Z</time></trkpt><trkpt lat="45.002670034046865" lon="8.578885076784191"><ele>193.0</ele><time>2026-04-19T06:15:10Z</time></trkpt><trkpt lat="45.002763062723766" lon="8.578851457811632"><ele>193.0</ele><time>2026-04-19T06:15:11Z</time></trkpt><trkpt lat="45.00284135420503" lon="8.578810270597447"><ele>193.0</ele><time>2026-04-19T06:15:12Z</time></trkpt><trkpt lat="45.00291216361896" lon="8.578759558949232"><ele>193.0</ele><time>2026-04-19T06:15:13Z</time></trkpt><trkpt lat="45.00301672964024" lon="8.578655468011048"><ele>193.33333333333331</ele><time>2026-04-19T06:15:15Z</time></trkpt><trkpt lat="45.00307772183826" lon="8.578630196399127"><ele>193.66666666666666</ele><time>2026-04-19T06:15:16Z</time></trkpt><trkpt lat="45.003136058322845" lon="8.578578604685426"><ele>194.0</ele><time>2026-04-19T06:15:17Z</time></trkpt><trkpt lat="45.00319296252053" lon="8.578498286787116"><ele>194.33333333333331</ele><time>2026-04-19T06:15:18Z</time></trkpt><trkpt lat="45.00326372848171" lon="8.578435523368173"><ele>194.66666666666666</ele><time>2026-04-19T06:15:19.999Z</time></trkpt><trkpt lat="45.00337619897081" lon="8.578381622102325"><ele>195.0</ele><time>2026-04-19T06:15:21.999Z</time></trkpt><trkpt lat="45.003468735234456" lon="8.578377583319021"><ele>195.0</ele><time>2026-04-19T06:15:22.999Z</time></trkpt><trkpt lat="45.00355580264063" lon="8.57841397267865"><ele>195.0</ele><time>2026-04-19T06:15:23.999Z</time></trkpt><trkpt lat="45.003462492774105" lon="8.578390162938174"><ele>195.0</ele><time>2026-04-19T06:15:24.999Z</time></trkpt><trkpt lat="45.003567267997155" lon="8.578414259031145"><ele>195.0</ele><time>2026-04-19T06:15:38.999Z</time></trkpt><trkpt lat="45.00365008836022" lon="8.578453418545545"><ele>195.0</ele><time>2026-04-19T06:15:39.999Z</time></trkpt><trkpt lat="45.00372556666452" lon="8.578494364949218"><ele>195.0</ele><time>2026-04-19T06:15:40.999Z</time></trkpt><trkpt lat="45.00385571710816" lon="8.578567704181053"><ele>195.0</ele><time>2026-04-19T06:15:42.999Z</time></trkpt><trkpt lat="45.00393803216407" lon="8.578600301650384"><ele>195.0</ele><time>2026-04-19T06:15:44.999Z</time></trkpt><trkpt lat="45.00401237419849" lon="8.578685021106942"><ele>195.0</ele><time>2026-04-19T06:16:16Z</time></trkpt><trkpt lat="45.004071763717484" lon="8.578718938478168"><ele>195.0</ele><time>2026-04-19T06:16:17Z</time></trkpt><trkpt lat="45.00418569061066" lon="8.578751393939559"><ele>192.83333333333334</ele><time>2026-04-19T06:16:18Z</time></trkpt><trkpt lat="45.00429622393467" lon="8.57884947512066"><ele>190.66666666666666</ele><time>2026-04-19T06:16:19Z</time></trkpt><trkpt lat="45.00437008597709" lon="8.578916455648827"><ele>188.5</ele><time>2026-04-19T06:16:20Z</time></trkpt><trkpt lat="45.00443663922768" lon="8.578979470003826"><ele>186.33333333333331</ele><time>2026-04-19T06:16:21Z</time></trkpt><trkpt lat="45.00449406309557" lon="8.57904956172706"><ele>184.16666666666666</ele><time>2026-04-19T06:16:22Z</time></trkpt><trkpt lat="45.00453887791536" lon="8.579116993416173"><ele>182.0</ele><time>2026-04-19T06:16:23Z</time></trkpt><trkpt lat="45.00458220070745" lon="8.579188669862372"><ele>182.0</ele><time>2026-04-19T06:16:24Z</time></trkpt><trkpt lat="45.00464229503692" lon="8.579284551418217"><ele>182.0</ele><time>2026-04-19T06:16:25Z</time></trkpt><trkpt lat="45.004709541625026" lon="8.579383593916756"><ele>182.0</ele><time>2026-04-19T06:16:26Z</time></trkpt><trkpt lat="45.0047782310421" lon="8.579480965991003"><ele>182.0</ele><time>2026-04-19T06:16:27Z</time></trkpt><trkpt lat="45.004849529786796" lon="8.579578360262111"><ele>182.0</ele><time>2026-04-19T06:16:28Z</time></trkpt><trkpt lat="45.00492872063576" lon="8.57967604688195"><ele>182.5</ele><time>2026-04-19T06:16:29Z</time></trkpt><trkpt lat="45.00503159029154" lon="8.579764580503182"><ele>183.0</ele><time>2026-04-19T06:16:30Z</time></trkpt><trkpt lat="45.005119353420994" lon="8.579871671063936"><ele>183.5</ele><time>2026-04-19T06:16:31Z</time></trkpt><trkpt lat="45.0052141802983" lon="8.579967495145747"><ele>184.0</ele><time>2026-04-19T06:16:32Z</time></trkpt><trkpt lat="45.005300208448894" lon="8.58005413299002"><ele>184.0</ele><time>2026-04-19T06:16:33Z</time></trkpt><trkpt lat="45.00537551521339" lon="8.580130256621164"><ele>184.0</ele><time>2026-04-19T06:16:34Z</time></trkpt><trkpt lat="45.00546370605004" lon="8.580218829219515"><ele>184.0</ele><time>2026-04-19T06:16:35Z</time></trkpt><trkpt lat="45.00553961433062" lon="8.58029167906044"><ele>184.0</ele><time>2026-04-19T06:16:36Z</time></trkpt><trkpt lat="45.005607060671466" lon="8.580366033380074"><ele>184.0</ele><time>2026-04-19T06:16:37Z</time></trkpt><trkpt lat="45.005666056216754" lon="8.58040966267889"><ele>184.0</ele><time>2026-04-19T06:16:38Z</time></trkpt><trkpt lat="45.00572777122048" lon="8.5804542741115"><ele>182.83333333333334</ele><time>2026-04-19T06:16:39Z</time></trkpt><trkpt lat="45.00580531270271" lon="8.580489026169838"><ele>181.66666666666669</ele><time>2026-04-19T06:16:40Z</time></trkpt><trkpt lat="45.005906270313844" lon="8.580507771159958"><ele>180.5</ele><time>2026-04-19T06:16:41Z</time></trkpt><trkpt lat="45.00600233371336" lon="8.580520164946783"><ele>179.33333333333334</ele><time>2026-04-19T06:16:42Z</time></trkpt><trkpt lat="45.006073310790384" lon="8.58054051447828"><ele>178.16666666666666</ele><time>2026-04-19T06:16:43Z</time></trkpt><trkpt lat="45.0061587875279" lon="8.580558634210414"><ele>177.0</ele><time>2026-04-19T06:16:44Z</time></trkpt><trkpt lat="45.00625711998127" lon="8.58060499395637"><ele>177.0</ele><time>2026-04-19T06:16:45Z</time></trkpt><trkpt lat="45.00635210377533" lon="8.580642927329984"><ele>177.0</ele><time>2026-04-19T06:16:46Z</time></trkpt><trkpt lat="45.00645279016668" lon="8.580677686110429"><ele>177.0</ele><time>2026-04-19T06:16:48Z</time></trkpt><trkpt lat="45.006682150707846" lon="8.580725152607702"><ele>177.0</ele><time>2026-04-19T06:16:50Z</time></trkpt><trkpt lat="45.00678179946567" lon="8.580780548688512"><ele>175.6</ele><time>2026-04-19T06:16:51Z</time></trkpt><trkpt lat="45.00688360898051" lon="8.580826125624245"><ele>174.2</ele><time>2026-04-19T06:16:52Z</time></trkpt><trkpt lat="45.006969093833284" lon="8.580872896070487"><ele>172.8</ele><time>2026-04-19T06:16:53Z</time></trkpt><trkpt lat="45.00705014447717" lon="8.580928343839876"><ele>171.4</ele><time>2026-04-19T06:16:54Z</time></trkpt><trkpt lat="45.00713853703407" lon="8.580997007224296"><ele>170.0</ele><time>2026-04-19T06:16:55Z</time></trkpt><trkpt lat="45.00723617048791" lon="8.581081729803579"><ele>170.0</ele><time>2026-04-19T06:16:56Z</time></trkpt><trkpt lat="45.00733777526539" lon="8.5811722216244"><ele>170.0</ele><time>2026-04-19T06:16:57Z</time></trkpt><trkpt lat="45.00743347849894" lon="8.581253720082465"><ele>170.0</ele><time>2026-04-19T06:16:58Z</time></trkpt><trkpt lat="45.00753955589642" lon="8.581325304998332"><ele>170.0</ele><time>2026-04-19T06:16:59Z</time></trkpt><trkpt lat="45.0076331210336" lon="8.581403588522766"><ele>168.5</ele><time>2026-04-19T06:17:00Z</time></trkpt><trkpt lat="45.00773948955181" lon="8.581470591386731"><ele>167.0</ele><time>2026-04-19T06:17:01Z</time></trkpt><trkpt lat="45.007849168047656" lon="8.581537120930985"><ele>165.5</ele><time>2026-04-19T06:17:02Z</time></trkpt><trkpt lat="45.00797893025756" lon="8.58160505495034"><ele>164.0</ele><time>2026-04-19T06:17:03Z</time></trkpt><trkpt lat="45.00809013915163" lon="8.581662344621934"><ele>164.0</ele><time>2026-04-19T06:17:04Z</time></trkpt><trkpt lat="45.008182483790826" lon="8.581697156299757"><ele>164.0</ele><time>2026-04-19T06:17:05Z</time></trkpt><trkpt lat="45.00826908921699" lon="8.581723648407468"><ele>164.0</ele><time>2026-04-19T06:17:06Z</time></trkpt><trkpt lat="45.00837858271727" lon="8.58175481928482"><ele>164.0</ele><time>2026-04-19T06:17:07Z</time></trkpt><trkpt lat="45.00849852845075" lon="8.581788913112318"><ele>164.0</ele><time>2026-04-19T06:17:08Z</time></trkpt><trkpt lat="45.008609227851935" lon="8.581819014145001"><ele>163.5</ele><time>2026-04-19T06:17:09Z</time></trkpt><trkpt lat="45.00872067978141" lon="8.581852814738484"><ele>163.0</ele><time>2026-04-19T06:17:09.999Z</time></trkpt><trkpt lat="45.00883898811924" lon="8.581896345166184"><ele>162.5</ele><time>2026-04-19T06:17:10.999Z</time></trkpt><trkpt lat="45.008947017309275" lon="8.581926012156366"><ele>162.0</ele><time>2026-04-19T06:17:11.999Z</time></trkpt><trkpt lat="45.0090457858244" lon="8.581989992742205"><ele>162.0</ele><time>2026-04-19T06:17:12.999Z</time></trkpt><trkpt lat="45.00915057571813" lon="8.582042526402685"><ele>162.0</ele><time>2026-04-19T06:17:13.999Z</time></trkpt><trkpt lat="45.00924159634195" lon="8.582102390054278"><ele>162.0</ele><time>2026-04-19T06:17:14.999Z</time></trkpt><trkpt lat="45.009311050443486" lon="8.582174095622987"><ele>162.0</ele><time>2026-04-19T06:17:15.999Z</time></trkpt><trkpt lat="45.0093740618719" lon="8.582256836742056"><ele>162.0</ele><time>2026-04-19T06:17:16.999Z</time></trkpt><trkpt lat="45.00940151571373" lon="8.582368336751847"><ele>162.0</ele><time>2026-04-19T06:17:17.999Z</time></trkpt><trkpt lat="45.00944400161896" lon="8.58249986959435"><ele>162.0</ele><time>2026-04-19T06:17:18.999Z</time></trkpt><trkpt lat="45.009489249042836" lon="8.582648177864279"><ele>162.0</ele><time>2026-04-19T06:17:19.999Z</time></trkpt><trkpt lat="45.009531816454086" lon="8.58279267474891"><ele>162.0</ele><time>2026-04-19T06:17:20.999Z</time></trkpt><trkpt lat="45.009566491666284" lon="8.582910381218207"><ele>162.0</ele><time>2026-04-19T06:17:21.999Z</time></trkpt><trkpt lat="45.00959667853157" lon="8.583010037248531"><ele>161.0</ele><time>2026-04-19T06:17:22.999Z</time></trkpt><trkpt lat="45.00963022715787" lon="8.58311873503448"><ele>160.0</ele><time>2026-04-19T06:17:23.999Z</time></trkpt><trkpt lat="45.00967081402799" lon="8.5832481189969"><ele>159.0</ele><time>2026-04-19T06:17:24.999Z</time></trkpt><trkpt lat="45.00970862035637" lon="8.583368639086874"><ele>158.0</ele><time>2026-04-19T06:17:25.999Z</time></trkpt><trkpt lat="45.009759813127026" lon="8.583475216781016"><ele>157.0</ele><time>2026-04-19T06:17:26.999Z</time></trkpt><trkpt lat="45.00979736778101" lon="8.583608965642583"><ele>156.0</ele><time>2026-04-19T06:17:27.999Z</time></trkpt><trkpt lat="45.009837986318765" lon="8.58373695453168"><ele>155.0</ele><time>2026-04-19T06:17:28.999Z</time></trkpt><trkpt lat="45.00987851450517" lon="8.583885175139265"><ele>154.0</ele><time>2026-04-19T06:17:29.999Z</time></trkpt><trkpt lat="45.009930724375316" lon="8.584040352069646"><ele>153.0</ele><time>2026-04-19T06:17:30.999Z</time></trkpt><trkpt lat="45.0099759826431" lon="8.584184964749952"><ele>152.0</ele><time>2026-04-19T06:17:31.999Z</time></trkpt><trkpt lat="45.0100271770575" lon="8.584322151422684"><ele>152.0</ele><time>2026-04-19T06:17:32.999Z</time></trkpt><trkpt lat="45.01008533460883" lon="8.584463472374537"><ele>152.0</ele><time>2026-04-19T06:17:33.999Z</time></trkpt><trkpt lat="45.0101369168445" lon="8.584596617866989"><ele>152.0</ele><time>2026-04-19T06:17:34.999Z</time></trkpt><trkpt lat="45.010200224664686" lon="8.584733930676132"><ele>152.0</ele><time>2026-04-19T06:17:35.999Z</time></trkpt><trkpt lat="45.010269009330294" lon="8.584865566611269"><ele>151.75</ele><time>2026-04-19T06:17:36.999Z</time></trkpt><trkpt lat="45.010341820548255" lon="8.584993037475225"><ele>151.5</ele><time>2026-04-19T06:17:37.999Z</time></trkpt><trkpt lat="45.010415036262465" lon="8.585128513902694"><ele>151.25</ele><time>2026-04-19T06:17:38.999Z</time></trkpt><trkpt lat="45.01050069287355" lon="8.585277337740507"><ele>151.0</ele><time>2026-04-19T06:17:39.999Z</time></trkpt><trkpt lat="45.01056494598695" lon="8.58539553482664"><ele>150.6</ele><time>2026-04-19T06:17:40.999Z</time></trkpt><trkpt lat="45.01062534853714" lon="8.585514775432312"><ele>150.2</ele><time>2026-04-19T06:17:41.999Z</time></trkpt><trkpt lat="45.01068857644583" lon="8.585630995223507"><ele>149.8</ele><time>2026-04-19T06:17:42.999Z</time></trkpt><trkpt lat="45.0107452818311" lon="8.58574159949026"><ele>149.4</ele><time>2026-04-19T06:17:43.999Z</time></trkpt><trkpt lat="45.01078837766416" lon="8.585849629772172"><ele>149.0</ele><time>2026-04-19T06:17:44.999Z</time></trkpt><trkpt lat="45.0108436180946" lon="8.585951841764393"><ele>149.0</ele><time>2026-04-19T06:17:45.999Z</time></trkpt><trkpt lat="45.01089513688071" lon="8.58604427736659"><ele>149.0</ele><time>2026-04-19T06:17:46.999Z</time></trkpt><trkpt lat="45.01095866276807" lon="8.586120667994987"><ele>149.0</ele><time>2026-04-19T06:17:47.999Z</time></trkpt><trkpt lat="45.01101012933263" lon="8.586194732327629"><ele>149.0</ele><time>2026-04-19T06:17:48.999Z</time></trkpt><trkpt lat="45.01110377057619" lon="8.586297275371608"><ele>149.0</ele><time>2026-04-19T06:17:50.999Z</time></trkpt><trkpt lat="45.01120904295757" lon="8.58637886668588"><ele>148.83333333333331</ele><time>2026-04-19T06:17:52.999Z</time></trkpt><trkpt lat="45.01127013128564" lon="8.586458079665755"><ele>148.66666666666666</ele><time>2026-04-19T06:17:53.999Z</time></trkpt><trkpt lat="45.01133144961933" lon="8.58651121987599"><ele>148.5</ele><time>2026-04-19T06:17:55Z</time></trkpt><trkpt lat="45.011398430254175" lon="8.586569266983844"><ele>148.33333333333334</ele><time>2026-04-19T06:17:56Z</time></trkpt><trkpt lat="45.01147277602495" lon="8.586632443807499"><ele>148.16666666666669</ele><time>2026-04-19T06:17:57Z</time></trkpt><trkpt lat="45.0115418664818" lon="8.586690940741036"><ele>148.0</ele><time>2026-04-19T06:17:58Z</time></trkpt><trkpt lat="45.01161549981152" lon="8.586730115139105"><ele>146.8</ele><time>2026-04-19T06:17:59Z</time></trkpt><trkpt lat="45.01172343701818" lon="8.586833479769357"><ele>145.60000000000002</ele><time>2026-04-19T06:18:01Z</time></trkpt><trkpt lat="45.01178523587314" lon="8.586881981061435"><ele>144.39999999999998</ele><time>2026-04-19T06:18:02Z</time></trkpt><trkpt lat="45.01185747316698" lon="8.586929600948435"><ele>143.2</ele><time>2026-04-19T06:18:03Z</time></trkpt><trkpt lat="45.01195465428052" lon="8.587023751832046"><ele>142.0</ele><time>2026-04-19T06:18:05Z</time></trkpt><trkpt lat="45.01205761166779" lon="8.587100349428246"><ele>141.83333333333334</ele><time>2026-04-19T06:18:07Z</time></trkpt><trkpt lat="45.012145230126976" lon="8.587161412347962"><ele>141.66666666666669</ele><time>2026-04-19T06:18:09Z</time></trkpt><trkpt lat="45.0122207441834" lon="8.587200902090556"><ele>141.5</ele><time>2026-04-19T06:18:11Z</time></trkpt><trkpt lat="45.01228343833666" lon="8.587236667858413"><ele>141.33333333333334</ele><time>2026-04-19T06:18:13Z</time></trkpt><trkpt lat="45.01227780183129" lon="8.587333022433794"><ele>141.16666666666666</ele><time>2026-04-19T06:18:14Z</time></trkpt><trkpt lat="45.01231555060116" lon="8.587428685934421"><ele>141.0</ele><time>2026-04-19T06:18:15Z</time></trkpt><trkpt lat="45.012354104817376" lon="8.587526391741699"><ele>141.0</ele><time>2026-04-19T06:18:16Z</time></trkpt><trkpt lat="45.01240170832003" lon="8.58764352281481"><ele>141.0</ele><time>2026-04-19T06:18:17Z</time></trkpt><trkpt lat="45.01244950703518" lon="8.587760345579657"><ele>141.0</ele><time>2026-04-19T06:18:18Z</time></trkpt><trkpt lat="45.01249803999338" lon="8.587878962861252"><ele>141.0</ele><time>2026-04-19T06:18:19Z</time></trkpt><trkpt lat="45.01255365444192" lon="8.587985563852042"><ele>141.0</ele><time>2026-04-19T06:18:20Z</time></trkpt><trkpt lat="45.012588545330125" lon="8.588114706893492"><ele>139.33333333333334</ele><time>2026-04-19T06:18:21Z</time></trkpt><trkpt lat="45.01262569817193" lon="8.588239868081022"><ele>137.66666666666666</ele><time>2026-04-19T06:18:22Z</time></trkpt><trkpt lat="45.012655215319995" lon="8.588365744136254"><ele>136.0</ele><time>2026-04-19T06:18:23Z</time></trkpt><trkpt lat="45.012677383417056" lon="8.588477086827998"><ele>134.33333333333331</ele><time>2026-04-19T06:18:24Z</time></trkpt><trkpt lat="45.01269411694697" lon="8.58856558921255"><ele>132.66666666666666</ele><time>2026-04-19T06:18:25Z</time></trkpt><trkpt lat="45.012703691880716" lon="8.58870658731955"><ele>131.0</ele><time>2026-04-19T06:18:27Z</time></trkpt><trkpt lat="45.01271079773541" lon="8.588827009584037"><ele>130.0</ele><time>2026-04-19T06:18:29Z</time></trkpt><trkpt lat="45.012788409554204" lon="8.588893820776777"><ele>129.0</ele><time>2026-04-19T06:18:30Z</time></trkpt><trkpt lat="45.01285582978679" lon="8.588966620213583"><ele>128.0</ele><time>2026-04-19T06:18:31Z</time></trkpt><trkpt lat="45.01293463181731" lon="8.589041190361046"><ele>127.0</ele><time>2026-04-19T06:18:32Z</time></trkpt><trkpt lat="45.01301180410717" lon="8.589099010116193"><ele>126.0</ele><time>2026-04-19T06:18:33Z</time></trkpt><trkpt lat="45.01309559655699" lon="8.589168522953154"><ele>126.0</ele><time>2026-04-19T06:18:34Z</time></trkpt><trkpt lat="45.013157991503604" lon="8.58923737797979"><ele>126.0</ele><time>2026-04-19T06:18:35Z</time></trkpt><trkpt lat="45.013219179605706" lon="8.589323922068463"><ele>126.0</ele><time>2026-04-19T06:18:36Z</time></trkpt><trkpt lat="45.01327043183157" lon="8.58942748412313"><ele>126.0</ele><time>2026-04-19T06:18:37Z</time></trkpt><trkpt lat="45.013302678660175" lon="8.589565770484642"><ele>126.0</ele><time>2026-04-19T06:18:38Z</time></trkpt><trkpt lat="45.0133485428952" lon="8.58975104775885"><ele>126.16666666666667</ele><time>2026-04-19T06:18:39Z</time></trkpt><trkpt lat="45.01338392952583" lon="8.589896825281329"><ele>126.33333333333334</ele><time>2026-04-19T06:18:40Z</time></trkpt><trkpt lat="45.01341370131017" lon="8.590019958339415"><ele>126.5</ele><time>2026-04-19T06:18:41Z</time></trkpt><trkpt lat="45.013440439911484" lon="8.59012319674778"><ele>126.66666666666667</ele><time>2026-04-19T06:18:42Z</time></trkpt><trkpt lat="45.01347908496358" lon="8.590213101502375"><ele>126.83333333333334</ele><time>2026-04-19T06:18:43Z</time></trkpt><trkpt lat="45.01354400977236" lon="8.590298877850447"><ele>127.0</ele><time>2026-04-19T06:18:44Z</time></trkpt><trkpt lat="45.013657110109385" lon="8.590310140110105"><ele>127.0</ele><time>2026-04-19T06:18:45Z</time></trkpt><trkpt lat="45.01375950240251" lon="8.590359760515778"><ele>126.99999999999999</ele><time>2026-04-19T06:18:46Z</time></trkpt><trkpt lat="45.01387491414061" lon="8.590373013168064"><ele>126.99999999999999</ele><time>2026-04-19T06:18:47Z</time></trkpt><trkpt lat="45.01398085532629" lon="8.590426451143971"><ele>127.0</ele><time>2026-04-19T06:18:48Z</time></trkpt><trkpt lat="45.014086616949974" lon="8.590456941771139"><ele>127.0</ele><time>2026-04-19T06:18:49Z</time></trkpt><trkpt lat="45.01416941548639" lon="8.590480812192377"><ele>126.8</ele><time>2026-04-19T06:18:50Z</time></trkpt><trkpt lat="45.01424889436994" lon="8.590508236326801"><ele>126.6</ele><time>2026-04-19T06:18:51Z</time></trkpt><trkpt lat="45.01434148674456" lon="8.590542562472276"><ele>126.39999999999999</ele><time>2026-04-19T06:18:52Z</time></trkpt><trkpt lat="45.01443267632274" lon="8.59058445836297"><ele>126.19999999999999</ele><time>2026-04-19T06:18:53Z</time></trkpt><trkpt lat="45.01452672459234" lon="8.590615351625608"><ele>126.0</ele><time>2026-04-19T06:18:54Z</time></trkpt><trkpt lat="45.014608342834826" lon="8.590657639412326"><ele>126.0</ele><time>2026-04-19T06:18:55Z</time></trkpt><trkpt lat="45.014681632867074" lon="8.590701824610543"><ele>126.0</ele><time>2026-04-19T06:18:56Z</time></trkpt><trkpt lat="45.014752327433946" lon="8.590729936297555"><ele>126.0</ele><time>2026-04-19T06:18:57Z</time></trkpt><trkpt lat="45.014822520745824" lon="8.590765257862314"><ele>126.0</ele><time>2026-04-19T06:18:58Z</time></trkpt><trkpt lat="45.014897499945576" lon="8.590775317343796"><ele>126.0</ele><time>2026-04-19T06:18:59Z</time></trkpt><trkpt lat="45.014959789493865" lon="8.59078875837845"><ele>126.0</ele><time>2026-04-19T06:19:00Z</time></trkpt><trkpt lat="45.01502850573401" lon="8.590893657219365"><ele>125.66666666666667</ele><time>2026-04-19T06:19:01Z</time></trkpt><trkpt lat="45.015094518585634" lon="8.590941063849066"><ele>125.33333333333334</ele><time>2026-04-19T06:19:02Z</time></trkpt><trkpt lat="45.015169260607266" lon="8.59097610417435"><ele>125.0</ele><time>2026-04-19T06:19:03Z</time></trkpt><trkpt lat="45.0152328979995" lon="8.59101492414637"><ele>124.66666666666667</ele><time>2026-04-19T06:19:04Z</time></trkpt><trkpt lat="45.015295252051494" lon="8.5910362880955"><ele>124.33333333333334</ele><time>2026-04-19T06:19:05Z</time></trkpt><trkpt lat="45.01540427353783" lon="8.59108108273757"><ele>124.0</ele><time>2026-04-19T06:19:07Z</time></trkpt><trkpt lat="45.01553123603603" lon="8.59112829712605"><ele>124.00000000000001</ele><time>2026-04-19T06:19:09Z</time></trkpt><trkpt lat="45.01560782306683" lon="8.59114453006865"><ele>124.0</ele><time>2026-04-19T06:19:10Z</time></trkpt><trkpt lat="45.01568593185016" lon="8.591165467112896"><ele>124.0</ele><time>2026-04-19T06:19:11Z</time></trkpt><trkpt lat="45.015761333193396" lon="8.591178496056916"><ele>124.0</ele><time>2026-04-19T06:19:12Z</time></trkpt><trkpt lat="45.015823571505955" lon="8.59120657531122"><ele>124.00000000000001</ele><time>2026-04-19T06:19:13.999Z</time></trkpt><trkpt lat="45.01589526794601" lon="8.591232565409051"><ele>124.0</ele><time>2026-04-19T06:19:14.999Z</time></trkpt><trkpt lat="45.01598739058565" lon="8.591275695171952"><ele>124.00000000000001</ele><time>2026-04-19T06:19:16.999Z</time></trkpt><trkpt lat="45.01607870490481" lon="8.591266912373674"><ele>124.0</ele><time>2026-04-19T06:19:18.999Z</time></trkpt><trkpt lat="45.01619303127029" lon="8.591283164490923"><ele>124.0</ele><time>2026-04-19T06:19:20.999Z</time></trkpt><trkpt lat="45.016265466089656" lon="8.591300411057091"><ele>124.0</ele><time>2026-04-19T06:19:21.999Z</time></trkpt><trkpt lat="45.01633339783537" lon="8.59131596046088"><ele>124.00000000000001</ele><time>2026-04-19T06:19:22.999Z</time></trkpt><trkpt lat="45.01640037563007" lon="8.591334147935427"><ele>124.0</ele><time>2026-04-19T06:19:23.999Z</time></trkpt><trkpt lat="45.016476133914786" lon="8.591351954558569"><ele>124.0</ele><time>2026-04-19T06:19:24.999Z</time></trkpt><trkpt lat="45.0165421491325" lon="8.591366557412085"><ele>124.0</ele><time>2026-04-19T06:19:25.999Z</time></trkpt><trkpt lat="45.016645473482804" lon="8.591388035736712"><ele>124.0</ele><time>2026-04-19T06:19:27.999Z</time></trkpt><trkpt lat="45.01676226688333" lon="8.591403583839583"><ele>124.0</ele><time>2026-04-19T06:19:29.999Z</time></trkpt><trkpt lat="45.01687565561792" lon="8.591417636238045"><ele>124.0</ele><time>2026-04-19T06:19:31.999Z</time></trkpt><trkpt lat="45.01698464445165" lon="8.591438002006358"><ele>124.0</ele><time>2026-04-19T06:19:33.999Z</time></trkpt><trkpt lat="45.0171051351518" lon="8.591440021151534"><ele>124.0</ele><time>2026-04-19T06:19:35.999Z</time></trkpt><trkpt lat="45.01722785661463" lon="8.59142932889741"><ele>124.0</ele><time>2026-04-19T06:19:37.999Z</time></trkpt><trkpt lat="45.01729109001222" lon="8.591423453650162"><ele>124.0</ele><time>2026-04-19T06:19:38.999Z</time></trkpt><trkpt lat="45.01738740026181" lon="8.591413157819215"><ele>124.0</ele><time>2026-04-19T06:19:40.999Z</time></trkpt><trkpt lat="45.017467342298275" lon="8.59138327720196"><ele>123.66666666666667</ele><time>2026-04-19T06:19:41.999Z</time></trkpt><trkpt lat="45.01754209740306" lon="8.591369968351916"><ele>123.33333333333334</ele><time>2026-04-19T06:19:42.999Z</time></trkpt><trkpt lat="45.01762756208786" lon="8.591408876460626"><ele>123.0</ele><time>2026-04-19T06:19:44.999Z</time></trkpt><trkpt lat="45.01772984286132" lon="8.591424636064428"><ele>122.66666666666666</ele><time>2026-04-19T06:19:46.999Z</time></trkpt><trkpt lat="45.01782530382337" lon="8.591442828637508"><ele>122.33333333333333</ele><time>2026-04-19T06:19:48.999Z</time></trkpt><trkpt lat="45.017892112520485" lon="8.591454924175203"><ele>122.0</ele><time>2026-04-19T06:19:49.999Z</time></trkpt><trkpt lat="45.01797724279743" lon="8.591463594693037"><ele>122.0</ele><time>2026-04-19T06:19:51.999Z</time></trkpt><trkpt lat="45.01806236153514" lon="8.591448881292509"><ele>121.99999999999999</ele><time>2026-04-19T06:19:54.999Z</time></trkpt><trkpt lat="45.01816299908537" lon="8.591468089429487"><ele>121.99999999999999</ele><time>2026-04-19T06:19:56.999Z</time></trkpt><trkpt lat="45.01828302260009" lon="8.59148853327078"><ele>122.0</ele><time>2026-04-19T06:19:58.999Z</time></trkpt><trkpt lat="45.01839765307429" lon="8.591503968363611"><ele>122.0</ele><time>2026-04-19T06:20:01Z</time></trkpt><trkpt lat="45.01851836704696" lon="8.591518885657509"><ele>122.0</ele><time>2026-04-19T06:20:03Z</time></trkpt><trkpt lat="45.01860290386898" lon="8.591541887225338"><ele>121.99999999999999</ele><time>2026-04-19T06:20:05Z</time></trkpt><trkpt lat="45.01871091765796" lon="8.591555544691829"><ele>121.99999999999999</ele><time>2026-04-19T06:20:07Z</time></trkpt><trkpt lat="45.0188447039848" lon="8.591590793944258"><ele>122.0</ele><time>2026-04-19T06:20:09Z</time></trkpt><trkpt lat="45.018944832677455" lon="8.591602480444264"><ele>122.0</ele><time>2026-04-19T06:20:11Z</time></trkpt><trkpt lat="45.01900797147416" lon="8.591616295859247"><ele>121.99999999999999</ele><time>2026-04-19T06:20:12Z</time></trkpt><trkpt lat="45.019074249260804" lon="8.59163016399314"><ele>122.0</ele><time>2026-04-19T06:20:13Z</time></trkpt><trkpt lat="45.019139727908204" lon="8.591653002255411"><ele>122.0</ele><time>2026-04-19T06:20:14Z</time></trkpt><trkpt lat="45.01920910103379" lon="8.591673288185563"><ele>122.0</ele><time>2026-04-19T06:20:15Z</time></trkpt><trkpt lat="45.01928743990909" lon="8.591696239292963"><ele>121.99999999999999</ele><time>2026-04-19T06:20:16Z</time></trkpt><trkpt lat="45.019352734126954" lon="8.591719480440853"><ele>122.0</ele><time>2026-04-19T06:20:17Z</time></trkpt><trkpt lat="45.01946230620649" lon="8.591762212500473"><ele>121.99999999999999</ele><time>2026-04-19T06:20:19Z</time></trkpt><trkpt lat="45.01957696611717" lon="8.591802158490607"><ele>122.0</ele><time>2026-04-19T06:20:21Z</time></trkpt><trkpt lat="45.019643835576524" lon="8.591830955657962"><ele>122.0</ele><time>2026-04-19T06:20:22Z</time></trkpt><trkpt lat="45.01970973698328" lon="8.59186266217922"><ele>122.0</ele><time>2026-04-19T06:20:23Z</time></trkpt><trkpt lat="45.01982219320176" lon="8.591900928506993"><ele>121.99999999999999</ele><time>2026-04-19T06:20:25Z</time></trkpt><trkpt lat="45.01989634764911" lon="8.591922658757975"><ele>122.0</ele><time>2026-04-19T06:20:26Z</time></trkpt><trkpt lat="45.019984246778826" lon="8.591963895631848"><ele>122.0</ele><time>2026-04-19T06:20:27Z</time></trkpt><trkpt lat="45.020084216229" lon="8.592004479162163"><ele>121.99999999999999</ele><time>2026-04-19T06:20:28Z</time></trkpt><trkpt lat="45.02015745170519" lon="8.592027518692706"><ele>121.99999999999999</ele><time>2026-04-19T06:20:30Z</time></trkpt><trkpt lat="45.02026663952332" lon="8.592062401118431"><ele>122.0</ele><time>2026-04-19T06:20:32Z</time></trkpt><trkpt lat="45.02036143648952" lon="8.592101632697027"><ele>122.0</ele><time>2026-04-19T06:20:34Z</time></trkpt><trkpt lat="45.02042342181484" lon="8.592128061323171"><ele>121.99999999999999</ele><time>2026-04-19T06:20:35Z</time></trkpt><trkpt lat="45.020487186545736" lon="8.592149194634203"><ele>122.0</ele><time>2026-04-19T06:20:36Z</time></trkpt><trkpt lat="45.02060699369028" lon="8.592173322039761"><ele>122.0</ele><time>2026-04-19T06:20:38Z</time></trkpt><trkpt lat="45.020670832609035" lon="8.592189180088377"><ele>122.0</ele><time>2026-04-19T06:20:39Z</time></trkpt><trkpt lat="45.02073878952074" lon="8.592214667032845"><ele>121.99999999999999</ele><time>2026-04-19T06:20:40Z</time></trkpt><trkpt lat="45.02084884926499" lon="8.592274578084194"><ele>122.0</ele><time>2026-04-19T06:20:42Z</time></trkpt><trkpt lat="45.02094574770327" lon="8.592317652970326"><ele>121.83333333333333</ele><time>2026-04-19T06:20:44Z</time></trkpt><trkpt lat="45.02105356946601" lon="8.592364791444892"><ele>121.66666666666666</ele><time>2026-04-19T06:20:46Z</time></trkpt><trkpt lat="45.021116269386155" lon="8.592411480212041"><ele>121.5</ele><time>2026-04-19T06:20:47Z</time></trkpt><trkpt lat="45.0211794097163" lon="8.592452731987414"><ele>121.33333333333334</ele><time>2026-04-19T06:20:48Z</time></trkpt><trkpt lat="45.02124292852637" lon="8.592489428427804"><ele>121.16666666666667</ele><time>2026-04-19T06:20:49Z</time></trkpt><trkpt lat="45.02131152628709" lon="8.592531937799977"><ele>121.0</ele><time>2026-04-19T06:20:50Z</time></trkpt><trkpt lat="45.021384541395435" lon="8.59255983592109"><ele>121.00000000000001</ele><time>2026-04-19T06:20:51Z</time></trkpt><trkpt lat="45.021451952242444" lon="8.592594926582294"><ele>121.0</ele><time>2026-04-19T06:20:52Z</time></trkpt><trkpt lat="45.0215677931259" lon="8.592682578798684"><ele>121.0</ele><time>2026-04-19T06:20:54Z</time></trkpt><trkpt lat="45.02163043493071" lon="8.592718892362122"><ele>121.0</ele><time>2026-04-19T06:20:55Z</time></trkpt><trkpt lat="45.02169166777966" lon="8.592744689112703"><ele>121.00000000000001</ele><time>2026-04-19T06:20:56Z</time></trkpt><trkpt lat="45.021749834170926" lon="8.592787701799187"><ele>121.0</ele><time>2026-04-19T06:20:57Z</time></trkpt><trkpt lat="45.02185422998202" lon="8.592842515635322"><ele>120.50000000000001</ele><time>2026-04-19T06:20:59Z</time></trkpt><trkpt lat="45.0219225371264" lon="8.592889334479427"><ele>120.0</ele><time>2026-04-19T06:21:00Z</time></trkpt><trkpt lat="45.02198196029056" lon="8.592931041954035"><ele>119.5</ele><time>2026-04-19T06:21:01Z</time></trkpt><trkpt lat="45.02204807709775" lon="8.592957825813276"><ele>119.0</ele><time>2026-04-19T06:21:02Z</time></trkpt><trkpt lat="45.02213213545067" lon="8.593019334580031"><ele>118.50000000000001</ele><time>2026-04-19T06:21:03Z</time></trkpt><trkpt lat="45.02219280433701" lon="8.593060102551087"><ele>118.0</ele><time>2026-04-19T06:21:04Z</time></trkpt><trkpt lat="45.022333142514846" lon="8.593171820058085"><ele>118.0</ele><time>2026-04-19T06:21:06Z</time></trkpt><trkpt lat="45.02239758262727" lon="8.593223786208672"><ele>118.00000000000001</ele><time>2026-04-19T06:21:07Z</time></trkpt><trkpt lat="45.02247274618047" lon="8.593290929209324"><ele>118.00000000000001</ele><time>2026-04-19T06:21:08Z</time></trkpt><trkpt lat="45.02252563723945" lon="8.593340582055784"><ele>118.0</ele><time>2026-04-19T06:21:09Z</time></trkpt><trkpt lat="45.02268800842768" lon="8.593463365582707"><ele>118.0</ele><time>2026-04-19T06:21:11Z</time></trkpt><trkpt lat="45.02276410650126" lon="8.593523684629726"><ele>118.00000000000001</ele><time>2026-04-19T06:21:12Z</time></trkpt><trkpt lat="45.022833407866315" lon="8.593573618847538"><ele>118.0</ele><time>2026-04-19T06:21:13Z</time></trkpt><trkpt lat="45.02290119691898" lon="8.593621320333328"><ele>118.0</ele><time>2026-04-19T06:21:14Z</time></trkpt><trkpt lat="45.0229763117324" lon="8.593671166687802"><ele>118.0</ele><time>2026-04-19T06:21:15Z</time></trkpt><trkpt lat="45.02305565409497" lon="8.5937313305548"><ele>118.00000000000001</ele><time>2026-04-19T06:21:16Z</time></trkpt><trkpt lat="45.02314714021127" lon="8.593785719314509"><ele>118.0</ele><time>2026-04-19T06:21:17Z</time></trkpt><trkpt lat="45.0232285787101" lon="8.593840725393973"><ele>118.0</ele><time>2026-04-19T06:21:17.999Z</time></trkpt><trkpt lat="45.02331460261673" lon="8.593890249321769"><ele>118.00000000000001</ele><time>2026-04-19T06:21:18.999Z</time></trkpt><trkpt lat="45.02339590878505" lon="8.593944712271124"><ele>118.00000000000001</ele><time>2026-04-19T06:21:19.999Z</time></trkpt><trkpt lat="45.02348139397725" lon="8.59399496415786"><ele>118.0</ele><time>2026-04-19T06:21:20.999Z</time></trkpt><trkpt lat="45.023562514014706" lon="8.594048444709484"><ele>118.0</ele><time>2026-04-19T06:21:21.999Z</time></trkpt><trkpt lat="45.023644484075184" lon="8.59410220425982"><ele>118.0</ele><time>2026-04-19T06:21:22.999Z</time></trkpt><trkpt lat="45.023725867340346" lon="8.59415851545753"><ele>118.00000000000001</ele><time>2026-04-19T06:21:23.999Z</time></trkpt><trkpt lat="45.023805196862305" lon="8.594211050767314"><ele>118.00000000000001</ele><time>2026-04-19T06:21:24.999Z</time></trkpt><trkpt lat="45.02388399549457" lon="8.594257307619264"><ele>118.0</ele><time>2026-04-19T06:21:25.999Z</time></trkpt><trkpt lat="45.023959891227065" lon="8.594310473934657"><ele>118.0</ele><time>2026-04-19T06:21:26.999Z</time></trkpt><trkpt lat="45.02405453696735" lon="8.594374894013104"><ele>118.0</ele><time>2026-04-19T06:21:27.999Z</time></trkpt><trkpt lat="45.02415395957385" lon="8.594440019048854"><ele>118.00000000000001</ele><time>2026-04-19T06:21:28.999Z</time></trkpt><trkpt lat="45.02422369163588" lon="8.594483961743343"><ele>118.00000000000001</ele><time>2026-04-19T06:21:29.999Z</time></trkpt><trkpt lat="45.02429227293616" lon="8.594525319881837"><ele>118.0</ele><time>2026-04-19T06:21:30.999Z</time></trkpt><trkpt lat="45.02437890710114" lon="8.594578056802506"><ele>118.0</ele><time>2026-04-19T06:21:31.999Z</time></trkpt><trkpt lat="45.02448302535359" lon="8.59465169749837"><ele>118.0</ele><time>2026-04-19T06:21:32.999Z</time></trkpt><trkpt lat="45.02457931589707" lon="8.594720798830567"><ele>118.00000000000001</ele><time>2026-04-19T06:21:33.999Z</time></trkpt><trkpt lat="45.02465257047162" lon="8.594776918874436"><ele>118.00000000000001</ele><time>2026-04-19T06:21:34.999Z</time></trkpt><trkpt lat="45.02472823997862" lon="8.59482187940046"><ele>118.0</ele><time>2026-04-19T06:21:35.999Z</time></trkpt><trkpt lat="45.02481131062946" lon="8.594876271128772"><ele>118.0</ele><time>2026-04-19T06:21:36.999Z</time></trkpt><trkpt lat="45.02489012045754" lon="8.594924911583067"><ele>118.00000000000001</ele><time>2026-04-19T06:21:37.999Z</time></trkpt><trkpt lat="45.02497507463709" lon="8.594975150729773"><ele>118.0</ele><time>2026-04-19T06:21:38.999Z</time></trkpt><trkpt lat="45.025063566731745" lon="8.595021023954276"><ele>118.0</ele><time>2026-04-19T06:21:39.999Z</time></trkpt><trkpt lat="45.025148754270674" lon="8.59506937265819"><ele>118.0</ele><time>2026-04-19T06:21:40.999Z</time></trkpt><trkpt lat="45.02522796267883" lon="8.595114206489097"><ele>118.00000000000001</ele><time>2026-04-19T06:21:41.999Z</time></trkpt><trkpt lat="45.02530854169782" lon="8.595156331818718"><ele>118.0</ele><time>2026-04-19T06:21:42.999Z</time></trkpt><trkpt lat="45.02537791211447" lon="8.59520375827455"><ele>118.00000000000001</ele><time>2026-04-19T06:21:43.999Z</time></trkpt><trkpt lat="45.02545427752849" lon="8.595247306709052"><ele>118.0</ele><time>2026-04-19T06:21:44.999Z</time></trkpt><trkpt lat="45.0255243030544" lon="8.595291292568264"><ele>118.0</ele><time>2026-04-19T06:21:45.999Z</time></trkpt><trkpt lat="45.02561356413922" lon="8.595348972640291"><ele>118.0</ele><time>2026-04-19T06:21:46.999Z</time></trkpt><trkpt lat="45.02569847438352" lon="8.595404528969008"><ele>118.00000000000001</ele><time>2026-04-19T06:21:47.999Z</time></trkpt><trkpt lat="45.02578554133263" lon="8.595470690433242"><ele>118.0</ele><time>2026-04-19T06:21:48.999Z</time></trkpt><trkpt lat="45.0258761244933" lon="8.595536105720708"><ele>118.50000000000001</ele><time>2026-04-19T06:21:49.999Z</time></trkpt><trkpt lat="45.025949637555684" lon="8.595588829380745"><ele>119.0</ele><time>2026-04-19T06:21:50.999Z</time></trkpt><trkpt lat="45.026012070276174" lon="8.59563840134466"><ele>119.5</ele><time>2026-04-19T06:21:51.999Z</time></trkpt><trkpt lat="45.026075110270256" lon="8.59568404649441"><ele>120.0</ele><time>2026-04-19T06:21:52.999Z</time></trkpt><trkpt lat="45.02614801049109" lon="8.595751886884058"><ele>120.50000000000001</ele><time>2026-04-19T06:21:54.999Z</time></trkpt><trkpt lat="45.026245072047566" lon="8.595804753148913"><ele>121.0</ele><time>2026-04-19T06:21:57.999Z</time></trkpt><trkpt lat="45.0263339716229" lon="8.5958501860693"><ele>121.0</ele><time>2026-04-19T06:21:59.999Z</time></trkpt><trkpt lat="45.02643562671347" lon="8.595889120349344"><ele>121.0</ele><time>2026-04-19T06:22:01.999Z</time></trkpt><trkpt lat="45.02654199243386" lon="8.59593149772399"><ele>121.0</ele><time>2026-04-19T06:22:03.999Z</time></trkpt><trkpt lat="45.0266419891343" lon="8.595969221387191"><ele>121.0</ele><time>2026-04-19T06:22:06Z</time></trkpt><trkpt lat="45.026729980758596" lon="8.596006999846214"><ele>121.0</ele><time>2026-04-19T06:22:08Z</time></trkpt><trkpt lat="45.026888325620476" lon="8.596033216624411"><ele>121.19999999999999</ele><time>2026-04-19T06:22:10Z</time></trkpt><trkpt lat="45.02699578356008" lon="8.596031918120897"><ele>121.39999999999999</ele><time>2026-04-19T06:22:11Z</time></trkpt><trkpt lat="45.02692875907484" lon="8.596093999796816"><ele>121.6</ele><time>2026-04-19T06:22:12Z</time></trkpt><trkpt lat="45.02703562561438" lon="8.596130896420743"><ele>121.8</ele><time>2026-04-19T06:22:14Z</time></trkpt><trkpt lat="45.027141116150126" lon="8.596179453111963"><ele>122.0</ele><time>2026-04-19T06:22:16Z</time></trkpt><trkpt lat="45.02724287377231" lon="8.59622652657066"><ele>122.0</ele><time>2026-04-19T06:22:18Z</time></trkpt><trkpt lat="45.027335406895055" lon="8.596260702721734"><ele>121.99999999999999</ele><time>2026-04-19T06:22:20Z</time></trkpt><trkpt lat="45.027439374772285" lon="8.596303971509922"><ele>121.99999999999999</ele><time>2026-04-19T06:22:22Z</time></trkpt><trkpt lat="45.027526021264485" lon="8.596330280379211"><ele>122.0</ele><time>2026-04-19T06:22:24Z</time></trkpt><trkpt lat="45.02762763681073" lon="8.596380874716123"><ele>122.0</ele><time>2026-04-19T06:22:26Z</time></trkpt><trkpt lat="45.027722323597175" lon="8.596427803973317"><ele>122.0</ele><time>2026-04-19T06:22:28Z</time></trkpt><trkpt lat="45.02781319786745" lon="8.596458582544374"><ele>121.99999999999999</ele><time>2026-04-19T06:22:30Z</time></trkpt><trkpt lat="45.02790073065697" lon="8.596506531638212"><ele>121.99999999999999</ele><time>2026-04-19T06:22:32Z</time></trkpt><trkpt lat="45.02799764030197" lon="8.596540410971926"><ele>122.0</ele><time>2026-04-19T06:22:34Z</time></trkpt><trkpt lat="45.0281064729533" lon="8.596583604919209"><ele>122.0</ele><time>2026-04-19T06:22:36Z</time></trkpt><trkpt lat="45.028195349765326" lon="8.596623925359866"><ele>122.0</ele><time>2026-04-19T06:22:38Z</time></trkpt><trkpt lat="45.02829552412186" lon="8.596660794870493"><ele>121.99999999999999</ele><time>2026-04-19T06:22:40Z</time></trkpt><trkpt lat="45.028388988015905" lon="8.596689041509652"><ele>121.99999999999999</ele><time>2026-04-19T06:22:42Z</time></trkpt><trkpt lat="45.02849033039352" lon="8.596737156330715"><ele>122.0</ele><time>2026-04-19T06:22:44Z</time></trkpt><trkpt lat="45.02856262658121" lon="8.596776685144262"><ele>122.0</ele><time>2026-04-19T06:22:46Z</time></trkpt><trkpt lat="45.02862392824934" lon="8.596828235077059"><ele>121.33333333333333</ele><time>2026-04-19T06:22:48Z</time></trkpt><trkpt lat="45.028678332803" lon="8.596876569224369"><ele>120.66666666666666</ele><time>2026-04-19T06:22:50Z</time></trkpt><trkpt lat="45.02876287347448" lon="8.596938615709668"><ele>120.0</ele><time>2026-04-19T06:22:52Z</time></trkpt><trkpt lat="45.028844411947" lon="8.596989066889856"><ele>119.33333333333334</ele><time>2026-04-19T06:22:54Z</time></trkpt><trkpt lat="45.02890914324162" lon="8.597047577591567"><ele>118.66666666666667</ele><time>2026-04-19T06:22:56Z</time></trkpt><trkpt lat="45.02899529407395" lon="8.597096859234801"><ele>118.0</ele><time>2026-04-19T06:22:59Z</time></trkpt><trkpt lat="45.02907984837834" lon="8.597162026129455"><ele>117.66666666666667</ele><time>2026-04-19T06:23:01Z</time></trkpt><trkpt lat="45.02917804662648" lon="8.597238609090324"><ele>117.33333333333334</ele><time>2026-04-19T06:23:03Z</time></trkpt><trkpt lat="45.02924781775841" lon="8.597299872997032"><ele>117.0</ele><time>2026-04-19T06:23:05Z</time></trkpt><trkpt lat="45.02932211388585" lon="8.59735107457202"><ele>116.66666666666666</ele><time>2026-04-19T06:23:07Z</time></trkpt><trkpt lat="45.02940536759077" lon="8.597414253157503"><ele>116.33333333333333</ele><time>2026-04-19T06:23:09Z</time></trkpt><trkpt lat="45.02947170792715" lon="8.597464273137495"><ele>116.0</ele><time>2026-04-19T06:23:11Z</time></trkpt><trkpt lat="45.02952049903782" lon="8.597527648178133"><ele>115.99999999999999</ele><time>2026-04-19T06:23:14Z</time></trkpt><trkpt lat="45.02954219450271" lon="8.59763103714189"><ele>116.0</ele><time>2026-04-19T06:23:17Z</time></trkpt><trkpt lat="45.029553727639694" lon="8.597746545705613"><ele>116.0</ele><time>2026-04-19T06:23:19Z</time></trkpt><trkpt lat="45.02956474019339" lon="8.597873779724969"><ele>116.0</ele><time>2026-04-19T06:23:21.999Z</time></trkpt><trkpt lat="45.02958206396548" lon="8.597980329989296"><ele>115.99999999999999</ele><time>2026-04-19T06:23:23.999Z</time></trkpt><trkpt lat="45.02959679705715" lon="8.598102920779642"><ele>116.0</ele><time>2026-04-19T06:23:25.999Z</time></trkpt><trkpt lat="45.029605677601005" lon="8.598215932938981"><ele>115.83333333333333</ele><time>2026-04-19T06:23:27.999Z</time></trkpt><trkpt lat="45.02960157146008" lon="8.598335137818125"><ele>115.66666666666666</ele><time>2026-04-19T06:23:29.999Z</time></trkpt><trkpt lat="45.029612595183664" lon="8.59842591593963"><ele>115.5</ele><time>2026-04-19T06:23:31.999Z</time></trkpt><trkpt lat="45.029636944951406" lon="8.598518109209738"><ele>115.33333333333334</ele><time>2026-04-19T06:23:34.999Z</time></trkpt><trkpt lat="45.029653877912544" lon="8.59861297954338"><ele>115.16666666666667</ele><time>2026-04-19T06:23:36.999Z</time></trkpt><trkpt lat="45.0296547792602" lon="8.598718936562287"><ele>115.0</ele><time>2026-04-19T06:23:38.999Z</time></trkpt><trkpt lat="45.02965126841809" lon="8.598847275728813"><ele>114.83333333333334</ele><time>2026-04-19T06:23:40.999Z</time></trkpt><trkpt lat="45.02964869790072" lon="8.598994273550764"><ele>114.66666666666667</ele><time>2026-04-19T06:23:42.999Z</time></trkpt><trkpt lat="45.02965417814275" lon="8.599092515369259"><ele>114.5</ele><time>2026-04-19T06:23:43.999Z</time></trkpt><trkpt lat="45.029661008205856" lon="8.599204093996454"><ele>114.33333333333334</ele><time>2026-04-19T06:23:44.999Z</time></trkpt><trkpt lat="45.029658919247105" lon="8.599312383400273"><ele>114.16666666666667</ele><time>2026-04-19T06:23:46.999Z</time></trkpt><trkpt lat="45.029673180822535" lon="8.599451699921929"><ele>114.0</ele><time>2026-04-19T06:23:48.999Z</time></trkpt><trkpt lat="45.029688601836625" lon="8.599615853203128"><ele>114.0</ele><time>2026-04-19T06:23:50.999Z</time></trkpt><trkpt lat="45.02970795314229" lon="8.599754785253564"><ele>114.0</ele><time>2026-04-19T06:23:52.999Z</time></trkpt><trkpt lat="45.02972864647521" lon="8.599925969771911"><ele>114.0</ele><time>2026-04-19T06:23:54.999Z</time></trkpt><trkpt lat="45.02974135932959" lon="8.600014954022432"><ele>114.0</ele><time>2026-04-19T06:23:55.999Z</time></trkpt><trkpt lat="45.02975147136245" lon="8.600108153178892"><ele>114.0</ele><time>2026-04-19T06:23:56.999Z</time></trkpt><trkpt lat="45.02975780452713" lon="8.60020466520955"><ele>114.0</ele><time>2026-04-19T06:23:57.999Z</time></trkpt><trkpt lat="45.02978615217834" lon="8.600381471216437"><ele>114.0</ele><time>2026-04-19T06:23:59.999Z</time></trkpt><trkpt lat="45.02979908719518" lon="8.600480588229342"><ele>113.99999999999999</ele><time>2026-04-19T06:24:00.999Z</time></trkpt><trkpt lat="45.02982599134356" lon="8.600568219103346"><ele>114.0</ele><time>2026-04-19T06:24:02.999Z</time></trkpt><trkpt lat="45.02984914034828" lon="8.600659518521137"><ele>114.0</ele><time>2026-04-19T06:24:04.999Z</time></trkpt><trkpt lat="45.02986293444312" lon="8.6007585807057"><ele>113.99999999999999</ele><time>2026-04-19T06:24:06.999Z</time></trkpt><trkpt lat="45.02985601784259" lon="8.600858901926799"><ele>114.0</ele><time>2026-04-19T06:24:09.999Z</time></trkpt><trkpt lat="45.02989826375033" lon="8.60093566985307"><ele>114.0</ele><time>2026-04-19T06:24:13Z</time></trkpt><trkpt lat="45.03001373860087" lon="8.601056286407037"><ele>114.0</ele><time>2026-04-19T06:24:15Z</time></trkpt><trkpt lat="45.03007503335372" lon="8.601147439744267"><ele>114.0</ele><time>2026-04-19T06:24:16Z</time></trkpt><trkpt lat="45.03011735056254" lon="8.601222172042014"><ele>114.0</ele><time>2026-04-19T06:24:17Z</time></trkpt><trkpt lat="45.03017143942146" lon="8.601310366898822"><ele>114.0</ele><time>2026-04-19T06:24:18Z</time></trkpt><trkpt lat="45.03023948026102" lon="8.601412947324294"><ele>114.0</ele><time>2026-04-19T06:24:19Z</time></trkpt><trkpt lat="45.03030340977625" lon="8.6015387542997"><ele>114.0</ele><time>2026-04-19T06:24:20Z</time></trkpt><trkpt lat="45.03037848910946" lon="8.601656787317252"><ele>114.0</ele><time>2026-04-19T06:24:21Z</time></trkpt><trkpt lat="45.03045705535264" lon="8.601772214578205"><ele>114.0</ele><time>2026-04-19T06:24:22Z</time></trkpt><trkpt lat="45.030546026442835" lon="8.60188953453668"><ele>114.0</ele><time>2026-04-19T06:24:23Z</time></trkpt><trkpt lat="45.03063463369278" lon="8.602023965500761"><ele>114.0</ele><time>2026-04-19T06:24:24Z</time></trkpt><trkpt lat="45.030715340358896" lon="8.602163743558961"><ele>114.2</ele><time>2026-04-19T06:24:25Z</time></trkpt><trkpt lat="45.03079416139396" lon="8.602276534518714"><ele>114.4</ele><time>2026-04-19T06:24:26Z</time></trkpt><trkpt lat="45.030841276409504" lon="8.602398804947331"><ele>114.6</ele><time>2026-04-19T06:24:27Z</time></trkpt><trkpt lat="45.03091295369991" lon="8.602525567771035"><ele>114.8</ele><time>2026-04-19T06:24:28Z</time></trkpt><trkpt lat="45.03098844590848" lon="8.602664757356361"><ele>115.0</ele><time>2026-04-19T06:24:29Z</time></trkpt><trkpt lat="45.03106347011927" lon="8.6028086857586"><ele>114.75</ele><time>2026-04-19T06:24:30Z</time></trkpt><trkpt lat="45.03113809993935" lon="8.602955802850135"><ele>114.5</ele><time>2026-04-19T06:24:31Z</time></trkpt><trkpt lat="45.03121071068118" lon="8.603102557015035"><ele>114.25</ele><time>2026-04-19T06:24:32Z</time></trkpt><trkpt lat="45.031281410652845" lon="8.60324611903712"><ele>114.0</ele><time>2026-04-19T06:24:33Z</time></trkpt><trkpt lat="45.03134509757328" lon="8.603382407076131"><ele>114.0</ele><time>2026-04-19T06:24:34Z</time></trkpt><trkpt lat="45.031401106726676" lon="8.603513521330534"><ele>114.0</ele><time>2026-04-19T06:24:35Z</time></trkpt><trkpt lat="45.03145413519081" lon="8.60365940942046"><ele>114.0</ele><time>2026-04-19T06:24:36Z</time></trkpt><trkpt lat="45.03150147423246" lon="8.603809987804889"><ele>114.0</ele><time>2026-04-19T06:24:37Z</time></trkpt><trkpt lat="45.03154597856133" lon="8.60395755449368"><ele>114.0</ele><time>2026-04-19T06:24:38Z</time></trkpt><trkpt lat="45.03159093663677" lon="8.604106933539311"><ele>114.0</ele><time>2026-04-19T06:24:39Z</time></trkpt><trkpt lat="45.0316382481832" lon="8.604264132307826"><ele>114.0</ele><time>2026-04-19T06:24:40Z</time></trkpt><trkpt lat="45.031681267429505" lon="8.604412248809115"><ele>114.0</ele><time>2026-04-19T06:24:41Z</time></trkpt><trkpt lat="45.031728270722354" lon="8.604577633090328"><ele>113.5</ele><time>2026-04-19T06:24:42Z</time></trkpt><trkpt lat="45.03177530822823" lon="8.604753344132803"><ele>113.0</ele><time>2026-04-19T06:24:43Z</time></trkpt><trkpt lat="45.03181758464153" lon="8.604904756551306"><ele>112.5</ele><time>2026-04-19T06:24:44Z</time></trkpt><trkpt lat="45.03186458225495" lon="8.605051639982115"><ele>112.0</ele><time>2026-04-19T06:24:45Z</time></trkpt><trkpt lat="45.03191174025546" lon="8.605177689308327"><ele>112.0</ele><time>2026-04-19T06:24:46Z</time></trkpt><trkpt lat="45.03197222277206" lon="8.60528723853327"><ele>111.99999999999999</ele><time>2026-04-19T06:24:47Z</time></trkpt><trkpt lat="45.03201210483276" lon="8.605395461887708"><ele>111.99999999999999</ele><time>2026-04-19T06:24:48Z</time></trkpt><trkpt lat="45.03207045648823" lon="8.605503844822024"><ele>112.0</ele><time>2026-04-19T06:24:49Z</time></trkpt><trkpt lat="45.032124413453445" lon="8.605591245957914"><ele>112.0</ele><time>2026-04-19T06:24:50Z</time></trkpt><trkpt lat="45.03218957144608" lon="8.6056767988244"><ele>111.8</ele><time>2026-04-19T06:24:51Z</time></trkpt><trkpt lat="45.03225648542528" lon="8.605736486340788"><ele>111.6</ele><time>2026-04-19T06:24:52Z</time></trkpt><trkpt lat="45.032320899308004" lon="8.605801623987709"><ele>111.39999999999999</ele><time>2026-04-19T06:24:53Z</time></trkpt><trkpt lat="45.032409352243896" lon="8.605851877355022"><ele>111.19999999999999</ele><time>2026-04-19T06:24:54Z</time></trkpt><trkpt lat="45.03251833910368" lon="8.605930901061082"><ele>111.0</ele><time>2026-04-19T06:24:55Z</time></trkpt><trkpt lat="45.03261624203839" lon="8.606005009975686"><ele>111.83333333333333</ele><time>2026-04-19T06:24:56Z</time></trkpt><trkpt lat="45.03268634476715" lon="8.606102054018107"><ele>112.66666666666666</ele><time>2026-04-19T06:24:57Z</time></trkpt><trkpt lat="45.03275355154398" lon="8.606197939793715"><ele>113.5</ele><time>2026-04-19T06:24:58Z</time></trkpt><trkpt lat="45.032807298420096" lon="8.606302983068826"><ele>114.33333333333333</ele><time>2026-04-19T06:24:59Z</time></trkpt><trkpt lat="45.0328342959229" lon="8.606404685129512"><ele>115.16666666666666</ele><time>2026-04-19T06:25:00Z</time></trkpt><trkpt lat="45.032826616089146" lon="8.606516786372914"><ele>116.0</ele><time>2026-04-19T06:25:01Z</time></trkpt><trkpt lat="45.032817909611744" lon="8.606675453369292"><ele>116.19999999999999</ele><time>2026-04-19T06:25:02Z</time></trkpt><trkpt lat="45.03280863529439" lon="8.606815613132976"><ele>116.39999999999999</ele><time>2026-04-19T06:25:03Z</time></trkpt><trkpt lat="45.03280591857208" lon="8.606911803766284"><ele>116.6</ele><time>2026-04-19T06:25:04Z</time></trkpt><trkpt lat="45.03283948791473" lon="8.607058138634388"><ele>116.8</ele><time>2026-04-19T06:25:07Z</time></trkpt><trkpt lat="45.03283943415017" lon="8.607182929543436"><ele>117.0</ele><time>2026-04-19T06:25:08Z</time></trkpt><trkpt lat="45.0328174939798" lon="8.607317535398437"><ele>117.25</ele><time>2026-04-19T06:25:09Z</time></trkpt><trkpt lat="45.03281925196928" lon="8.607482948518975"><ele>117.5</ele><time>2026-04-19T06:25:10Z</time></trkpt><trkpt lat="45.03279637347616" lon="8.607677286650912"><ele>117.75</ele><time>2026-04-19T06:25:11Z</time></trkpt><trkpt lat="45.03277848614129" lon="8.607893306906838"><ele>118.0</ele><time>2026-04-19T06:25:12Z</time></trkpt><trkpt lat="45.03275803424093" lon="8.608128588554141"><ele>118.0</ele><time>2026-04-19T06:25:13Z</time></trkpt><trkpt lat="45.03273918850022" lon="8.608379784479334"><ele>118.0</ele><time>2026-04-19T06:25:14Z</time></trkpt><trkpt lat="45.03271565736804" lon="8.60863503389357"><ele>118.0</ele><time>2026-04-19T06:25:15Z</time></trkpt><trkpt lat="45.032696352085864" lon="8.608848615004412"><ele>118.0</ele><time>2026-04-19T06:25:16Z</time></trkpt><trkpt lat="45.0326793258061" lon="8.60906475279494"><ele>118.0</ele><time>2026-04-19T06:25:17Z</time></trkpt><trkpt lat="45.032656515416654" lon="8.609287865204402"><ele>118.0</ele><time>2026-04-19T06:25:18Z</time></trkpt><trkpt lat="45.03263210071017" lon="8.609525287574595"><ele>117.66666666666667</ele><time>2026-04-19T06:25:19Z</time></trkpt><trkpt lat="45.03261384706129" lon="8.609760408346443"><ele>117.33333333333334</ele><time>2026-04-19T06:25:20Z</time></trkpt><trkpt lat="45.032598643321144" lon="8.609997966208653"><ele>117.0</ele><time>2026-04-19T06:25:21Z</time></trkpt><trkpt lat="45.03257810732844" lon="8.610234849225169"><ele>116.66666666666666</ele><time>2026-04-19T06:25:22Z</time></trkpt><trkpt lat="45.03255213493523" lon="8.610482050550416"><ele>116.33333333333333</ele><time>2026-04-19T06:25:23Z</time></trkpt><trkpt lat="45.032535000528696" lon="8.610718289496551"><ele>116.0</ele><time>2026-04-19T06:25:24Z</time></trkpt><trkpt lat="45.03251559569528" lon="8.61095426469465"><ele>116.0</ele><time>2026-04-19T06:25:25Z</time></trkpt><trkpt lat="45.03249540185378" lon="8.611195321363438"><ele>116.0</ele><time>2026-04-19T06:25:26Z</time></trkpt><trkpt lat="45.0324762409834" lon="8.611437561726756"><ele>116.0</ele><time>2026-04-19T06:25:27Z</time></trkpt><trkpt lat="45.03245333219442" lon="8.611693988917267"><ele>115.33333333333333</ele><time>2026-04-19T06:25:27.999Z</time></trkpt><trkpt lat="45.032434735296064" lon="8.611938541257757"><ele>114.66666666666666</ele><time>2026-04-19T06:25:28.999Z</time></trkpt><trkpt lat="45.032411427925794" lon="8.612196793474267"><ele>114.0</ele><time>2026-04-19T06:25:29.999Z</time></trkpt><trkpt lat="45.03238101876493" lon="8.612465975589172"><ele>114.0</ele><time>2026-04-19T06:25:30.999Z</time></trkpt><trkpt lat="45.032359424681175" lon="8.612704409998956"><ele>114.0</ele><time>2026-04-19T06:25:31.999Z</time></trkpt><trkpt lat="45.03233906200744" lon="8.612925247603906"><ele>114.0</ele><time>2026-04-19T06:25:32.999Z</time></trkpt><trkpt lat="45.03231886543626" lon="8.613155249363308"><ele>113.66666666666666</ele><time>2026-04-19T06:25:33.999Z</time></trkpt><trkpt lat="45.03229985286754" lon="8.61339236828702"><ele>113.33333333333333</ele><time>2026-04-19T06:25:34.999Z</time></trkpt><trkpt lat="45.03228269100012" lon="8.613630136932356"><ele>113.0</ele><time>2026-04-19T06:25:35.999Z</time></trkpt><trkpt lat="45.0322643562844" lon="8.613837268594606"><ele>113.0</ele><time>2026-04-19T06:25:36.999Z</time></trkpt><trkpt lat="45.032249503178825" lon="8.61402074049698"><ele>113.0</ele><time>2026-04-19T06:25:37.999Z</time></trkpt><trkpt lat="45.03223541292942" lon="8.614199156770235"><ele>113.0</ele><time>2026-04-19T06:25:38.999Z</time></trkpt><trkpt lat="45.032227255118684" lon="8.614354679682465"><ele>113.0</ele><time>2026-04-19T06:25:39.999Z</time></trkpt><trkpt lat="45.03221466666911" lon="8.614514605601657"><ele>113.75</ele><time>2026-04-19T06:25:40.999Z</time></trkpt><trkpt lat="45.03220059648898" lon="8.614694698256443"><ele>114.5</ele><time>2026-04-19T06:25:41.999Z</time></trkpt><trkpt lat="45.032173128711214" lon="8.614913140693266"><ele>115.25</ele><time>2026-04-19T06:25:42.999Z</time></trkpt><trkpt lat="45.03211300446727" lon="8.615101800004933"><ele>116.0</ele><time>2026-04-19T06:25:43.999Z</time></trkpt><trkpt lat="45.03205939942153" lon="8.615285393126083"><ele>116.5</ele><time>2026-04-19T06:25:44.999Z</time></trkpt><trkpt lat="45.03199947972013" lon="8.615474706566527"><ele>117.0</ele><time>2026-04-19T06:25:45.999Z</time></trkpt><trkpt lat="45.03192778791784" lon="8.615671195120902"><ele>117.5</ele><time>2026-04-19T06:25:46.999Z</time></trkpt><trkpt lat="45.03186124425347" lon="8.61582570461275"><ele>118.0</ele><time>2026-04-19T06:25:47.999Z</time></trkpt><trkpt lat="45.03178118660655" lon="8.615966614050572"><ele>118.0</ele><time>2026-04-19T06:25:48.999Z</time></trkpt><trkpt lat="45.031675747190484" lon="8.616079664141505"><ele>118.0</ele><time>2026-04-19T06:25:49.999Z</time></trkpt><trkpt lat="45.031546731084866" lon="8.61618605237923"><ele>118.0</ele><time>2026-04-19T06:25:50.999Z</time></trkpt><trkpt lat="45.03142355228805" lon="8.616279306012089"><ele>118.0</ele><time>2026-04-19T06:25:51.999Z</time></trkpt><trkpt lat="45.031307775131474" lon="8.616359820882359"><ele>117.5</ele><time>2026-04-19T06:25:52.999Z</time></trkpt><trkpt lat="45.031197383631515" lon="8.616429389140057"><ele>117.0</ele><time>2026-04-19T06:25:53.999Z</time></trkpt><trkpt lat="45.031091109530315" lon="8.616495843046051"><ele>116.5</ele><time>2026-04-19T06:25:54.999Z</time></trkpt><trkpt lat="45.0309802641403" lon="8.616565155408955"><ele>116.0</ele><time>2026-04-19T06:25:55.999Z</time></trkpt><trkpt lat="45.03086640231001" lon="8.616633799910636"><ele>114.8</ele><time>2026-04-19T06:25:56.999Z</time></trkpt><trkpt lat="45.03076726021011" lon="8.616692873632529"><ele>113.6</ele><time>2026-04-19T06:25:57.999Z</time></trkpt><trkpt lat="45.03067170080833" lon="8.616743215302614"><ele>112.4</ele><time>2026-04-19T06:25:58.999Z</time></trkpt><trkpt lat="45.03057278990788" lon="8.61677873151615"><ele>111.2</ele><time>2026-04-19T06:25:59.999Z</time></trkpt><trkpt lat="45.03045148641792" lon="8.616797620090791"><ele>110.0</ele><time>2026-04-19T06:26:00.999Z</time></trkpt><trkpt lat="45.030318796941685" lon="8.616777199179957"><ele>110.0</ele><time>2026-04-19T06:26:01.999Z</time></trkpt><trkpt lat="45.03018459133974" lon="8.616745713830788"><ele>110.0</ele><time>2026-04-19T06:26:02.999Z</time></trkpt><trkpt lat="45.030058348435695" lon="8.61671077712475"><ele>110.0</ele><time>2026-04-19T06:26:03.999Z</time></trkpt><trkpt lat="45.02994468200449" lon="8.616683770597739"><ele>110.0</ele><time>2026-04-19T06:26:04.999Z</time></trkpt><trkpt lat="45.02982924739474" lon="8.616698137480201"><ele>107.25</ele><time>2026-04-19T06:26:05.999Z</time></trkpt><trkpt lat="45.0297082731183" lon="8.6167387837261"><ele>104.5</ele><time>2026-04-19T06:26:06.999Z</time></trkpt><trkpt lat="45.02958260999227" lon="8.616826369196643"><ele>101.75</ele><time>2026-04-19T06:26:07.999Z</time></trkpt><trkpt lat="45.02945099386094" lon="8.616939734691906"><ele>99.0</ele><time>2026-04-19T06:26:08.999Z</time></trkpt><trkpt lat="45.02932701958666" lon="8.617034178246687"><ele>99.0</ele><time>2026-04-19T06:26:09.999Z</time></trkpt><trkpt lat="45.02923060092217" lon="8.617173322250624"><ele>99.0</ele><time>2026-04-19T06:26:10.999Z</time></trkpt><trkpt lat="45.029150915255414" lon="8.617309007906174"><ele>99.0</ele><time>2026-04-19T06:26:11.999Z</time></trkpt><trkpt lat="45.02910372235952" lon="8.617469043830855"><ele>99.0</ele><time>2026-04-19T06:26:12.999Z</time></trkpt><trkpt lat="45.02908781990452" lon="8.617649713010294"><ele>98.25</ele><time>2026-04-19T06:26:13.999Z</time></trkpt><trkpt lat="45.029087734195244" lon="8.61784834706857"><ele>97.5</ele><time>2026-04-19T06:26:14.999Z</time></trkpt><trkpt lat="45.029093653356924" lon="8.618059524424272"><ele>96.75</ele><time>2026-04-19T06:26:15.999Z</time></trkpt><trkpt lat="45.02907101261101" lon="8.618279061645678"><ele>96.0</ele><time>2026-04-19T06:26:16.999Z</time></trkpt><trkpt lat="45.029057840835264" lon="8.61850668917196"><ele>96.0</ele><time>2026-04-19T06:26:18Z</time></trkpt><trkpt lat="45.02900584114154" lon="8.618720881072266"><ele>96.0</ele><time>2026-04-19T06:26:19Z</time></trkpt><trkpt lat="45.028911642029485" lon="8.618906116483581"><ele>96.0</ele><time>2026-04-19T06:26:20Z</time></trkpt><trkpt lat="45.02882247525806" lon="8.61909444205061"><ele>96.0</ele><time>2026-04-19T06:26:21Z</time></trkpt><trkpt lat="45.02871986600839" lon="8.619296068414645"><ele>96.0</ele><time>2026-04-19T06:26:22Z</time></trkpt><trkpt lat="45.02861410207946" lon="8.619474254077439"><ele>96.0</ele><time>2026-04-19T06:26:23Z</time></trkpt><trkpt lat="45.02849871018031" lon="8.619656640048206"><ele>96.0</ele><time>2026-04-19T06:26:24Z</time></trkpt><trkpt lat="45.02838209138846" lon="8.61983497380551"><ele>96.0</ele><time>2026-04-19T06:26:25Z</time></trkpt><trkpt lat="45.02826750695917" lon="8.62000831856835"><ele>96.0</ele><time>2026-04-19T06:26:26Z</time></trkpt><trkpt lat="45.02815438059634" lon="8.620178544182293"><ele>100.0</ele><time>2026-04-19T06:26:27Z</time></trkpt><trkpt lat="45.028057505816264" lon="8.62035520386106"><ele>104.0</ele><time>2026-04-19T06:26:28Z</time></trkpt><trkpt lat="45.02794041158767" lon="8.620525385388827"><ele>108.0</ele><time>2026-04-19T06:26:29Z</time></trkpt><trkpt lat="45.02782660828924" lon="8.620688040535638"><ele>108.0</ele><time>2026-04-19T06:26:30Z</time></trkpt><trkpt lat="45.0276943841274" lon="8.620844299523343"><ele>108.0</ele><time>2026-04-19T06:26:31Z</time></trkpt><trkpt lat="45.027564012523506" lon="8.620993810057632"><ele>108.0</ele><time>2026-04-19T06:26:32Z</time></trkpt><trkpt lat="45.02742778255717" lon="8.62113617280927"><ele>111.33333333333334</ele><time>2026-04-19T06:26:33Z</time></trkpt><trkpt lat="45.027291459411266" lon="8.621259109572629"><ele>114.66666666666667</ele><time>2026-04-19T06:26:34Z</time></trkpt><trkpt lat="45.02714064270687" lon="8.621363167824882"><ele>118.0</ele><time>2026-04-19T06:26:35Z</time></trkpt><trkpt lat="45.026982142500756" lon="8.621460857381507"><ele>118.0</ele><time>2026-04-19T06:26:36Z</time></trkpt><trkpt lat="45.02682786996662" lon="8.621554641419197"><ele>118.0</ele><time>2026-04-19T06:26:37Z</time></trkpt><trkpt lat="45.02667346007346" lon="8.621646791549107"><ele>118.0</ele><time>2026-04-19T06:26:38Z</time></trkpt><trkpt lat="45.02653239085224" lon="8.62174120813762"><ele>118.66666666666667</ele><time>2026-04-19T06:26:39Z</time></trkpt><trkpt lat="45.02639432102575" lon="8.62186277481506"><ele>119.33333333333334</ele><time>2026-04-19T06:26:40Z</time></trkpt><trkpt lat="45.02625819420799" lon="8.621973161688778"><ele>120.0</ele><time>2026-04-19T06:26:41Z</time></trkpt><trkpt lat="45.02612767976429" lon="8.622101960219695"><ele>120.0</ele><time>2026-04-19T06:26:42Z</time></trkpt><trkpt lat="45.026007488524506" lon="8.622247134750427"><ele>120.0</ele><time>2026-04-19T06:26:43Z</time></trkpt><trkpt lat="45.02591612747839" lon="8.622386785055774"><ele>120.0</ele><time>2026-04-19T06:26:44Z</time></trkpt><trkpt lat="45.02583873184217" lon="8.622539451336921"><ele>120.0</ele><time>2026-04-19T06:26:45Z</time></trkpt><trkpt lat="45.025759152182495" lon="8.622710063413903"><ele>120.0</ele><time>2026-04-19T06:26:46Z</time></trkpt><trkpt lat="45.025671208318705" lon="8.622889410258669"><ele>120.0</ele><time>2026-04-19T06:26:47Z</time></trkpt><trkpt lat="45.025584741406014" lon="8.623080205063783"><ele>120.0</ele><time>2026-04-19T06:26:48Z</time></trkpt><trkpt lat="45.025488883396605" lon="8.623290057031204"><ele>120.0</ele><time>2026-04-19T06:26:49Z</time></trkpt><trkpt lat="45.02539573175009" lon="8.623488387374417"><ele>120.0</ele><time>2026-04-19T06:26:50Z</time></trkpt><trkpt lat="45.025322168135716" lon="8.623658029452761"><ele>120.0</ele><time>2026-04-19T06:26:51Z</time></trkpt><trkpt lat="45.02522679434548" lon="8.623813823595409"><ele>120.0</ele><time>2026-04-19T06:26:52Z</time></trkpt><trkpt lat="45.0251589932775" lon="8.623969323130185"><ele>120.0</ele><time>2026-04-19T06:26:53Z</time></trkpt><trkpt lat="45.02510074963537" lon="8.624109107800276"><ele>120.0</ele><time>2026-04-19T06:26:54Z</time></trkpt><trkpt lat="45.02505875226234" lon="8.624252313484753"><ele>120.0</ele><time>2026-04-19T06:26:55Z</time></trkpt><trkpt lat="45.02500304968011" lon="8.624369391545393"><ele>119.5</ele><time>2026-04-19T06:26:56Z</time></trkpt><trkpt lat="45.02495637188524" lon="8.624488412680655"><ele>119.0</ele><time>2026-04-19T06:26:57Z</time></trkpt><trkpt lat="45.02491425703957" lon="8.624596125858737"><ele>118.5</ele><time>2026-04-19T06:26:58Z</time></trkpt><trkpt lat="45.024873529008225" lon="8.62469902465438"><ele>118.0</ele><time>2026-04-19T06:26:59Z</time></trkpt><trkpt lat="45.02483536279375" lon="8.624780677439729"><ele>117.5</ele><time>2026-04-19T06:27:00Z</time></trkpt><trkpt lat="45.02480135647204" lon="8.624859413856909"><ele>117.0</ele><time>2026-04-19T06:27:01Z</time></trkpt><trkpt lat="45.024738558997946" lon="8.624983979826391"><ele>117.0</ele><time>2026-04-19T06:27:03Z</time></trkpt><trkpt lat="45.024693282938806" lon="8.625082458530517"><ele>116.99999999999999</ele><time>2026-04-19T06:27:14Z</time></trkpt><trkpt lat="45.0248156032522" lon="8.625208932729683"><ele>116.99999999999999</ele><time>2026-04-19T06:27:16Z</time></trkpt><trkpt lat="45.02492022356844" lon="8.62523275244007"><ele>117.0</ele><time>2026-04-19T06:27:17Z</time></trkpt><trkpt lat="45.02502902400913" lon="8.62522711136627"><ele>117.0</ele><time>2026-04-19T06:27:18Z</time></trkpt><trkpt lat="45.02513107081562" lon="8.625228059773375"><ele>117.16666666666667</ele><time>2026-04-19T06:27:19Z</time></trkpt><trkpt lat="45.02522054921274" lon="8.625223065708381"><ele>117.33333333333334</ele><time>2026-04-19T06:27:20Z</time></trkpt><trkpt lat="45.02530487281214" lon="8.625221078466678"><ele>117.5</ele><time>2026-04-19T06:27:21Z</time></trkpt><trkpt lat="45.02538008923991" lon="8.625243647996506"><ele>117.66666666666667</ele><time>2026-04-19T06:27:22Z</time></trkpt><trkpt lat="45.025444302441336" lon="8.625297648354465"><ele>117.83333333333334</ele><time>2026-04-19T06:27:23Z</time></trkpt><trkpt lat="45.02548877033802" lon="8.625393495106408"><ele>118.0</ele><time>2026-04-19T06:27:24Z</time></trkpt><trkpt lat="45.025492315486225" lon="8.625525670583672"><ele>117.00000000000001</ele><time>2026-04-19T06:27:25Z</time></trkpt><trkpt lat="45.02552241779509" lon="8.625678953053955"><ele>116.0</ele><time>2026-04-19T06:27:26Z</time></trkpt><trkpt lat="45.025534673497056" lon="8.625807345058451"><ele>115.0</ele><time>2026-04-19T06:27:27Z</time></trkpt><trkpt lat="45.02552362000355" lon="8.625913791436254"><ele>114.0</ele><time>2026-04-19T06:27:28Z</time></trkpt><trkpt lat="45.025509771610885" lon="8.626014547353549"><ele>113.00000000000001</ele><time>2026-04-19T06:27:29Z</time></trkpt><trkpt lat="45.02543759668154" lon="8.626105760191809"><ele>112.0</ele><time>2026-04-19T06:27:30Z</time></trkpt><trkpt lat="45.02534232924913" lon="8.626146829513722"><ele>112.00000000000001</ele><time>2026-04-19T06:27:31Z</time></trkpt><trkpt lat="45.02523121116829" lon="8.6261122033484"><ele>112.0</ele><time>2026-04-19T06:27:31.999Z</time></trkpt><trkpt lat="45.02513567760101" lon="8.62613825341453"><ele>112.0</ele><time>2026-04-19T06:27:32.999Z</time></trkpt><trkpt lat="45.025051884656705" lon="8.626140783000308"><ele>112.0</ele><time>2026-04-19T06:27:33.999Z</time></trkpt><trkpt lat="45.024973727336224" lon="8.626130436970657"><ele>112.00000000000001</ele><time>2026-04-19T06:27:34.999Z</time></trkpt><trkpt lat="45.02490725748136" lon="8.626109960434233"><ele>112.0</ele><time>2026-04-19T06:27:35.999Z</time></trkpt><trkpt lat="45.02480942732308" lon="8.626017874452582"><ele>111.8</ele><time>2026-04-19T06:27:37.999Z</time></trkpt><trkpt lat="45.02474900496715" lon="8.625964504956622"><ele>111.6</ele><time>2026-04-19T06:27:40.999Z</time></trkpt><trkpt lat="45.024670636079996" lon="8.625954194875655"><ele>111.39999999999999</ele><time>2026-04-19T06:27:58.999Z</time></trkpt><trkpt lat="45.02452698311013" lon="8.625984216265332"><ele>111.19999999999999</ele><time>2026-04-19T06:28:00.999Z</time></trkpt><trkpt lat="45.02442673595522" lon="8.62595164213141"><ele>111.0</ele><time>2026-04-19T06:28:01.999Z</time></trkpt><trkpt lat="45.0243190256586" lon="8.625955513236958"><ele>111.0</ele><time>2026-04-19T06:28:02.999Z</time></trkpt><trkpt lat="45.02419977766986" lon="8.625959774634033"><ele>111.0</ele><time>2026-04-19T06:28:03.999Z</time></trkpt><trkpt lat="45.02407948367022" lon="8.625977634799103"><ele>111.0</ele><time>2026-04-19T06:28:04.999Z</time></trkpt><trkpt lat="45.02395881481639" lon="8.626004302904096"><ele>111.0</ele><time>2026-04-19T06:28:05.999Z</time></trkpt><trkpt lat="45.023779627831765" lon="8.626119884746945"><ele>110.25</ele><time>2026-04-19T06:28:06.999Z</time></trkpt><trkpt lat="45.02363434348578" lon="8.626204623666357"><ele>109.5</ele><time>2026-04-19T06:28:07.999Z</time></trkpt><trkpt lat="45.02350292853852" lon="8.626266452178603"><ele>108.75</ele><time>2026-04-19T06:28:08.999Z</time></trkpt><trkpt lat="45.02339342520185" lon="8.626400994648842"><ele>108.0</ele><time>2026-04-19T06:28:09.999Z</time></trkpt><trkpt lat="45.023286595778785" lon="8.62653008877579"><ele>107.75</ele><time>2026-04-19T06:28:10.999Z</time></trkpt><trkpt lat="45.023187924644425" lon="8.626677875512978"><ele>107.5</ele><time>2026-04-19T06:28:11.999Z</time></trkpt><trkpt lat="45.023107397421626" lon="8.626852239727695"><ele>107.25</ele><time>2026-04-19T06:28:12.999Z</time></trkpt><trkpt lat="45.02304404740175" lon="8.627047597592197"><ele>107.0</ele><time>2026-04-19T06:28:13.999Z</time></trkpt><trkpt lat="45.02298165914781" lon="8.62726379376281"><ele>106.0</ele><time>2026-04-19T06:28:14.999Z</time></trkpt><trkpt lat="45.02293479982045" lon="8.627455532519381"><ele>105.0</ele><time>2026-04-19T06:28:15.999Z</time></trkpt><trkpt lat="45.0228790456627" lon="8.627659559265977"><ele>104.0</ele><time>2026-04-19T06:28:16.999Z</time></trkpt><trkpt lat="45.022818382653526" lon="8.627858815047787"><ele>104.0</ele><time>2026-04-19T06:28:17.999Z</time></trkpt><trkpt lat="45.0227419146996" lon="8.628067162779622"><ele>104.0</ele><time>2026-04-19T06:28:18.999Z</time></trkpt><trkpt lat="45.02265596637491" lon="8.628290314302593"><ele>104.0</ele><time>2026-04-19T06:28:19.999Z</time></trkpt><trkpt lat="45.022570262613414" lon="8.628512170221692"><ele>103.66666666666666</ele><time>2026-04-19T06:28:20.999Z</time></trkpt><trkpt lat="45.02248191259361" lon="8.628743844243942"><ele>103.33333333333334</ele><time>2026-04-19T06:28:21.999Z</time></trkpt><trkpt lat="45.022396110531965" lon="8.628993160139274"><ele>103.0</ele><time>2026-04-19T06:28:23Z</time></trkpt><trkpt lat="45.02229798323436" lon="8.62924897057727"><ele>104.33333333333334</ele><time>2026-04-19T06:28:24Z</time></trkpt><trkpt lat="45.02218760415917" lon="8.629525337288877"><ele>105.66666666666666</ele><time>2026-04-19T06:28:25Z</time></trkpt><trkpt lat="45.02209106562681" lon="8.629778422110379"><ele>107.0</ele><time>2026-04-19T06:28:26Z</time></trkpt><trkpt lat="45.02200428702489" lon="8.630027654288606"><ele>107.0</ele><time>2026-04-19T06:28:27Z</time></trkpt><trkpt lat="45.02191573304948" lon="8.630254814906788"><ele>107.0</ele><time>2026-04-19T06:28:28Z</time></trkpt><trkpt lat="45.02183396794923" lon="8.630473583146417"><ele>107.0</ele><time>2026-04-19T06:28:29Z</time></trkpt><trkpt lat="45.02173763862785" lon="8.630701632174706"><ele>106.33333333333333</ele><time>2026-04-19T06:28:30Z</time></trkpt><trkpt lat="45.02163277208319" lon="8.630925364240188"><ele>105.66666666666666</ele><time>2026-04-19T06:28:31Z</time></trkpt><trkpt lat="45.02152159839272" lon="8.631134711405142"><ele>105.0</ele><time>2026-04-19T06:28:32Z</time></trkpt><trkpt lat="45.02141073343499" lon="8.631335608720033"><ele>107.66666666666666</ele><time>2026-04-19T06:28:33Z</time></trkpt><trkpt lat="45.021276322283214" lon="8.63154804104997"><ele>110.33333333333333</ele><time>2026-04-19T06:28:34Z</time></trkpt><trkpt lat="45.02114925098759" lon="8.631740829574191"><ele>113.0</ele><time>2026-04-19T06:28:35Z</time></trkpt><trkpt lat="45.02101719219064" lon="8.63194274396286"><ele>113.75</ele><time>2026-04-19T06:28:36Z</time></trkpt><trkpt lat="45.020935696336224" lon="8.632054332196825"><ele>114.5</ele><time>2026-04-19T06:28:37Z</time></trkpt><trkpt lat="45.020814318795324" lon="8.63221647900071"><ele>115.25</ele><time>2026-04-19T06:28:38Z</time></trkpt><trkpt lat="45.02069901342824" lon="8.632389540779517"><ele>116.0</ele><time>2026-04-19T06:28:39Z</time></trkpt><trkpt lat="45.020571039315286" lon="8.632589265453285"><ele>116.0</ele><time>2026-04-19T06:28:40Z</time></trkpt><trkpt lat="45.02047266348923" lon="8.63274053535221"><ele>116.0</ele><time>2026-04-19T06:28:41Z</time></trkpt><trkpt lat="45.02037053866916" lon="8.632882342483219"><ele>116.0</ele><time>2026-04-19T06:28:42Z</time></trkpt><trkpt lat="45.020290859638784" lon="8.633003606889726"><ele>116.0</ele><time>2026-04-19T06:28:43Z</time></trkpt><trkpt lat="45.02020595934937" lon="8.633129610875311"><ele>117.33333333333333</ele><time>2026-04-19T06:28:44Z</time></trkpt><trkpt lat="45.02011176861496" lon="8.633284515283615"><ele>118.66666666666666</ele><time>2026-04-19T06:28:45Z</time></trkpt><trkpt lat="45.02001906870027" lon="8.633492506824153"><ele>120.0</ele><time>2026-04-19T06:28:46Z</time></trkpt><trkpt lat="45.01996759487086" lon="8.63371819798721"><ele>121.0</ele><time>2026-04-19T06:28:47Z</time></trkpt><trkpt lat="45.019860027506255" lon="8.633886401279119"><ele>122.0</ele><time>2026-04-19T06:28:48Z</time></trkpt><trkpt lat="45.01976128649115" lon="8.634012941374865"><ele>123.0</ele><time>2026-04-19T06:28:49Z</time></trkpt><trkpt lat="45.019675615151826" lon="8.634127918180521"><ele>124.0</ele><time>2026-04-19T06:28:50Z</time></trkpt><trkpt lat="45.01961055059952" lon="8.63423683738902"><ele>124.0</ele><time>2026-04-19T06:28:51Z</time></trkpt><trkpt lat="45.01954864505637" lon="8.634334568796058"><ele>124.0</ele><time>2026-04-19T06:28:52Z</time></trkpt><trkpt lat="45.01948524000545" lon="8.634435421912897"><ele>124.0</ele><time>2026-04-19T06:28:53Z</time></trkpt><trkpt lat="45.01941090931864" lon="8.634568905721496"><ele>124.0</ele><time>2026-04-19T06:28:54Z</time></trkpt><trkpt lat="45.019309233328606" lon="8.634726397126476"><ele>123.66666666666667</ele><time>2026-04-19T06:28:55Z</time></trkpt><trkpt lat="45.0191930248867" lon="8.634881608058446"><ele>123.33333333333334</ele><time>2026-04-19T06:28:56Z</time></trkpt><trkpt lat="45.01907215956873" lon="8.635036947468496"><ele>123.0</ele><time>2026-04-19T06:28:57Z</time></trkpt><trkpt lat="45.018955887883806" lon="8.635204520139968"><ele>123.0</ele><time>2026-04-19T06:28:58Z</time></trkpt><trkpt lat="45.0188423855445" lon="8.635375038554242"><ele>123.0</ele><time>2026-04-19T06:28:59Z</time></trkpt><trkpt lat="45.018745597577755" lon="8.635522422588677"><ele>123.0</ele><time>2026-04-19T06:29:00Z</time></trkpt><trkpt lat="45.01865421942546" lon="8.635654657918767"><ele>123.0</ele><time>2026-04-19T06:29:01Z</time></trkpt><trkpt lat="45.01856403377344" lon="8.635791348006025"><ele>123.0</ele><time>2026-04-19T06:29:02Z</time></trkpt><trkpt lat="45.01846988637057" lon="8.63593187103373"><ele>123.0</ele><time>2026-04-19T06:29:03Z</time></trkpt><trkpt lat="45.018370104698946" lon="8.636071338546792"><ele>123.0</ele><time>2026-04-19T06:29:04Z</time></trkpt><trkpt lat="45.01827594497318" lon="8.636219332524602"><ele>123.0</ele><time>2026-04-19T06:29:05Z</time></trkpt><trkpt lat="45.01817739204752" lon="8.636371494129133"><ele>123.25</ele><time>2026-04-19T06:29:06Z</time></trkpt><trkpt lat="45.01808079337718" lon="8.63652364949745"><ele>123.5</ele><time>2026-04-19T06:29:07Z</time></trkpt><trkpt lat="45.01797964624447" lon="8.636668882441684"><ele>123.75</ele><time>2026-04-19T06:29:08Z</time></trkpt><trkpt lat="45.017889041160636" lon="8.636804515655758"><ele>124.0</ele><time>2026-04-19T06:29:09Z</time></trkpt><trkpt lat="45.01779887155382" lon="8.636939312904882"><ele>123.75</ele><time>2026-04-19T06:29:10Z</time></trkpt><trkpt lat="45.01771422079384" lon="8.637060665080208"><ele>123.5</ele><time>2026-04-19T06:29:11Z</time></trkpt><trkpt lat="45.017628530834216" lon="8.637195720758971"><ele>123.25</ele><time>2026-04-19T06:29:12Z</time></trkpt><trkpt lat="45.01753187071223" lon="8.637340134431206"><ele>123.0</ele><time>2026-04-19T06:29:13Z</time></trkpt><trkpt lat="45.01743535555409" lon="8.63748291380944"><ele>123.25</ele><time>2026-04-19T06:29:14Z</time></trkpt><trkpt lat="45.017337062807044" lon="8.637630964914019"><ele>123.5</ele><time>2026-04-19T06:29:15Z</time></trkpt><trkpt lat="45.01724694859684" lon="8.637775509037418"><ele>123.75</ele><time>2026-04-19T06:29:16Z</time></trkpt><trkpt lat="45.01716069134118" lon="8.637905644295618"><ele>124.0</ele><time>2026-04-19T06:29:17Z</time></trkpt><trkpt lat="45.01707998589591" lon="8.63802835321191"><ele>124.0</ele><time>2026-04-19T06:29:18Z</time></trkpt><trkpt lat="45.01699340151474" lon="8.638149042857059"><ele>124.0</ele><time>2026-04-19T06:29:19Z</time></trkpt><trkpt lat="45.01690386947192" lon="8.638276993820357"><ele>124.0</ele><time>2026-04-19T06:29:20Z</time></trkpt><trkpt lat="45.01682522345833" lon="8.638393331953843"><ele>124.0</ele><time>2026-04-19T06:29:21Z</time></trkpt><trkpt lat="45.016749239901806" lon="8.638509954449237"><ele>124.0</ele><time>2026-04-19T06:29:22Z</time></trkpt><trkpt lat="45.01667186881148" lon="8.638631256673278"><ele>124.0</ele><time>2026-04-19T06:29:23Z</time></trkpt><trkpt lat="45.01660064273896" lon="8.638734492130911"><ele>124.0</ele><time>2026-04-19T06:29:24Z</time></trkpt><trkpt lat="45.016534453334444" lon="8.638830669020647"><ele>124.0</ele><time>2026-04-19T06:29:25Z</time></trkpt><trkpt lat="45.016469429644125" lon="8.638936995556685"><ele>124.0</ele><time>2026-04-19T06:29:26Z</time></trkpt><trkpt lat="45.01641074566789" lon="8.639020348612187"><ele>123.83333333333334</ele><time>2026-04-19T06:29:27Z</time></trkpt><trkpt lat="45.01635263302234" lon="8.639103971466788"><ele>123.66666666666667</ele><time>2026-04-19T06:29:28Z</time></trkpt><trkpt lat="45.016307072962235" lon="8.639176591743604"><ele>123.5</ele><time>2026-04-19T06:29:29Z</time></trkpt><trkpt lat="45.0162622557875" lon="8.639243178014558"><ele>123.33333333333334</ele><time>2026-04-19T06:29:30Z</time></trkpt><trkpt lat="45.01618793565057" lon="8.639362583286333"><ele>123.16666666666667</ele><time>2026-04-19T06:29:32Z</time></trkpt><trkpt lat="45.016139458138696" lon="8.639425866425078"><ele>123.0</ele><time>2026-04-19T06:29:33Z</time></trkpt><trkpt lat="45.0160814852341" lon="8.63952301266835"><ele>122.80000000000001</ele><time>2026-04-19T06:29:34Z</time></trkpt><trkpt lat="45.01599979740758" lon="8.639652884702812"><ele>122.60000000000001</ele><time>2026-04-19T06:29:35Z</time></trkpt><trkpt lat="45.01590367082958" lon="8.639768971355435"><ele>122.39999999999999</ele><time>2026-04-19T06:29:36Z</time></trkpt><trkpt lat="45.0158336755466" lon="8.639861934198592"><ele>122.19999999999999</ele><time>2026-04-19T06:29:37Z</time></trkpt><trkpt lat="45.01576917104173" lon="8.639965747352935"><ele>122.0</ele><time>2026-04-19T06:29:38Z</time></trkpt><trkpt lat="45.015697259209595" lon="8.64008302819498"><ele>122.0</ele><time>2026-04-19T06:29:39Z</time></trkpt><trkpt lat="45.01561472864289" lon="8.640202325038906"><ele>122.0</ele><time>2026-04-19T06:29:39.999Z</time></trkpt><trkpt lat="45.01552465286131" lon="8.64033237678598"><ele>122.0</ele><time>2026-04-19T06:29:40.999Z</time></trkpt><trkpt lat="45.01543525324603" lon="8.640475028996944"><ele>122.0</ele><time>2026-04-19T06:29:41.999Z</time></trkpt><trkpt lat="45.015339753950364" lon="8.64059738530509"><ele>122.75</ele><time>2026-04-19T06:29:42.999Z</time></trkpt><trkpt lat="45.0152605194564" lon="8.640721729624543"><ele>123.5</ele><time>2026-04-19T06:29:43.999Z</time></trkpt><trkpt lat="45.0151961084381" lon="8.640856563057202"><ele>124.25</ele><time>2026-04-19T06:29:44.999Z</time></trkpt><trkpt lat="45.01511454357297" lon="8.64097011817257"><ele>125.0</ele><time>2026-04-19T06:29:45.999Z</time></trkpt><trkpt lat="45.015031592692395" lon="8.641097330348446"><ele>125.2</ele><time>2026-04-19T06:29:46.999Z</time></trkpt><trkpt lat="45.01494958385412" lon="8.64119611593777"><ele>125.4</ele><time>2026-04-19T06:29:47.999Z</time></trkpt><trkpt lat="45.014890558512825" lon="8.641310874611829"><ele>125.6</ele><time>2026-04-19T06:29:48.999Z</time></trkpt><trkpt lat="45.014824416894875" lon="8.641397849246056"><ele>125.8</ele><time>2026-04-19T06:29:49.999Z</time></trkpt><trkpt lat="45.01477362344733" lon="8.64148957545123"><ele>126.0</ele><time>2026-04-19T06:29:50.999Z</time></trkpt><trkpt lat="45.014722714956214" lon="8.641567036937433"><ele>126.0</ele><time>2026-04-19T06:29:51.999Z</time></trkpt><trkpt lat="45.01467935254946" lon="8.64163207625239"><ele>126.0</ele><time>2026-04-19T06:29:52.999Z</time></trkpt><trkpt lat="45.014601339523146" lon="8.641760604693323"><ele>126.0</ele><time>2026-04-19T06:29:54.999Z</time></trkpt><trkpt lat="45.01455930340198" lon="8.641911092601513"><ele>126.0</ele><time>2026-04-19T06:29:56.999Z</time></trkpt><trkpt lat="45.014666356495184" lon="8.642008880061226"><ele>126.0</ele><time>2026-04-19T06:29:58.999Z</time></trkpt><trkpt lat="45.01474911744065" lon="8.64199386133788"><ele>126.0</ele><time>2026-04-19T06:29:59.999Z</time></trkpt><trkpt lat="45.01482593460471" lon="8.641883739634315"><ele>126.0</ele><time>2026-04-19T06:30:00.999Z</time></trkpt><trkpt lat="45.01493420974773" lon="8.64185895720663"><ele>126.0</ele><time>2026-04-19T06:30:01.999Z</time></trkpt><trkpt lat="45.01503576701502" lon="8.641834189626678"><ele>126.0</ele><time>2026-04-19T06:30:02.999Z</time></trkpt><trkpt lat="45.015134018844165" lon="8.641808972034728"><ele>126.0</ele><time>2026-04-19T06:30:03.999Z</time></trkpt><trkpt lat="45.01521968071691" lon="8.641797800375919"><ele>125.5</ele><time>2026-04-19T06:30:04.999Z</time></trkpt><trkpt lat="45.0152900021597" lon="8.64175509210201"><ele>125.0</ele><time>2026-04-19T06:30:05.999Z</time></trkpt><trkpt lat="45.015360201419796" lon="8.64174886130915"><ele>124.5</ele><time>2026-04-19T06:30:06.999Z</time></trkpt><trkpt lat="45.01552064547609" lon="8.641935257355126"><ele>124.0</ele><time>2026-04-19T06:30:08.999Z</time></trkpt><trkpt lat="45.01561046580541" lon="8.64207902523527"><ele>123.75</ele><time>2026-04-19T06:30:09.999Z</time></trkpt><trkpt lat="45.01572214574901" lon="8.642210281959988"><ele>123.5</ele><time>2026-04-19T06:30:10.999Z</time></trkpt><trkpt lat="45.01583214139262" lon="8.642350997447627"><ele>123.25</ele><time>2026-04-19T06:30:11.999Z</time></trkpt><trkpt lat="45.01594524793847" lon="8.642491957474224"><ele>123.0</ele><time>2026-04-19T06:30:12.999Z</time></trkpt><trkpt lat="45.01605907878041" lon="8.642629429178744"><ele>123.0</ele><time>2026-04-19T06:30:13.999Z</time></trkpt><trkpt lat="45.0161802011401" lon="8.642777412386183"><ele>123.0</ele><time>2026-04-19T06:30:14.999Z</time></trkpt><trkpt lat="45.016290499007575" lon="8.642923508561244"><ele>123.0</ele><time>2026-04-19T06:30:15.999Z</time></trkpt><trkpt lat="45.01640074930244" lon="8.643054062351148"><ele>122.75</ele><time>2026-04-19T06:30:16.999Z</time></trkpt><trkpt lat="45.016496146579094" lon="8.643163703368955"><ele>122.5</ele><time>2026-04-19T06:30:17.999Z</time></trkpt><trkpt lat="45.016593428984926" lon="8.64328365823848"><ele>122.25</ele><time>2026-04-19T06:30:18.999Z</time></trkpt><trkpt lat="45.01669180181495" lon="8.643409798375146"><ele>122.0</ele><time>2026-04-19T06:30:19.999Z</time></trkpt><trkpt lat="45.016789766424274" lon="8.643547503686083"><ele>122.75</ele><time>2026-04-19T06:30:20.999Z</time></trkpt><trkpt lat="45.01687452816823" lon="8.643684588850073"><ele>123.5</ele><time>2026-04-19T06:30:21.999Z</time></trkpt><trkpt lat="45.01695883928641" lon="8.643820773400705"><ele>124.25</ele><time>2026-04-19T06:30:22.999Z</time></trkpt><trkpt lat="45.01703851283692" lon="8.643951710221346"><ele>125.0</ele><time>2026-04-19T06:30:23.999Z</time></trkpt><trkpt lat="45.01710779239789" lon="8.64406245803162"><ele>125.0</ele><time>2026-04-19T06:30:24.999Z</time></trkpt><trkpt lat="45.017166249328646" lon="8.644186647370727"><ele>125.0</ele><time>2026-04-19T06:30:25.999Z</time></trkpt><trkpt lat="45.01721362217347" lon="8.644332005574253"><ele>125.0</ele><time>2026-04-19T06:30:26.999Z</time></trkpt><trkpt lat="45.01725378255951" lon="8.644474761849402"><ele>125.0</ele><time>2026-04-19T06:30:27.999Z</time></trkpt><trkpt lat="45.01729723477759" lon="8.644591947664328"><ele>125.0</ele><time>2026-04-19T06:30:29Z</time></trkpt><trkpt lat="45.01732396119994" lon="8.644694114465276"><ele>124.6</ele><time>2026-04-19T06:30:30Z</time></trkpt><trkpt lat="45.01733558745853" lon="8.64481167209839"><ele>124.2</ele><time>2026-04-19T06:30:31Z</time></trkpt><trkpt lat="45.01731147962531" lon="8.644960002700968"><ele>123.80000000000001</ele><time>2026-04-19T06:30:32Z</time></trkpt><trkpt lat="45.01726053953128" lon="8.64511977559268"><ele>123.4</ele><time>2026-04-19T06:30:33Z</time></trkpt><trkpt lat="45.01719604246792" lon="8.64525205986147"><ele>123.0</ele><time>2026-04-19T06:30:34Z</time></trkpt><trkpt lat="45.01713447704752" lon="8.645367195592911"><ele>123.33333333333333</ele><time>2026-04-19T06:30:35Z</time></trkpt><trkpt lat="45.01706415745448" lon="8.645445870939778"><ele>123.66666666666666</ele><time>2026-04-19T06:30:36Z</time></trkpt><trkpt lat="45.01698559034265" lon="8.64548940217407"><ele>124.0</ele><time>2026-04-19T06:30:37Z</time></trkpt><trkpt lat="45.01690323137054" lon="8.645466764337026"><ele>124.33333333333333</ele><time>2026-04-19T06:30:38Z</time></trkpt><trkpt lat="45.01681330614381" lon="8.645443035715594"><ele>124.66666666666666</ele><time>2026-04-19T06:30:39Z</time></trkpt><trkpt lat="45.0167299888346" lon="8.645428042431595"><ele>125.0</ele><time>2026-04-19T06:30:40Z</time></trkpt><trkpt lat="45.016598533391985" lon="8.645400048104323"><ele>125.0</ele><time>2026-04-19T06:30:42Z</time></trkpt><trkpt lat="45.01648065375635" lon="8.645411465669506"><ele>125.0</ele><time>2026-04-19T06:30:44Z</time></trkpt><trkpt lat="45.01644364416673" lon="8.645500962381275"><ele>125.0</ele><time>2026-04-19T06:30:45Z</time></trkpt><trkpt lat="45.01666814596609" lon="8.64565255178244"><ele>125.0</ele><time>2026-04-19T06:30:47Z</time></trkpt><trkpt lat="45.01676989848889" lon="8.64572968809892"><ele>123.8</ele><time>2026-04-19T06:30:48Z</time></trkpt><trkpt lat="45.01687798135469" lon="8.645793892488255"><ele>122.6</ele><time>2026-04-19T06:30:49Z</time></trkpt><trkpt lat="45.01694425850819" lon="8.645822671945941"><ele>121.4</ele><time>2026-04-19T06:30:50Z</time></trkpt><trkpt lat="45.01700172209516" lon="8.645947283134037"><ele>120.2</ele><time>2026-04-19T06:30:52Z</time></trkpt><trkpt lat="45.017002475670495" lon="8.646055676280293"><ele>119.0</ele><time>2026-04-19T06:30:53Z</time></trkpt><trkpt lat="45.01696639659357" lon="8.64617342983606"><ele>118.2</ele><time>2026-04-19T06:30:54Z</time></trkpt><trkpt lat="45.01692065940338" lon="8.64629686272907"><ele>117.4</ele><time>2026-04-19T06:30:55Z</time></trkpt><trkpt lat="45.016895744355075" lon="8.646391707350844"><ele>116.6</ele><time>2026-04-19T06:30:56Z</time></trkpt><trkpt lat="45.016880678333536" lon="8.646517111131969"><ele>115.8</ele><time>2026-04-19T06:30:57Z</time></trkpt><trkpt lat="45.01682154803861" lon="8.646643264517474"><ele>115.0</ele><time>2026-04-19T06:30:58Z</time></trkpt><trkpt lat="45.016943011867795" lon="8.646816079645749"><ele>115.0</ele><time>2026-04-19T06:30:59Z</time></trkpt><trkpt lat="45.016993783882704" lon="8.646959822221215"><ele>115.0</ele><time>2026-04-19T06:31:00Z</time></trkpt><trkpt lat="45.01699610361467" lon="8.647089654162054"><ele>115.0</ele><time>2026-04-19T06:31:01Z</time></trkpt><trkpt lat="45.016989535876526" lon="8.64721094160555"><ele>115.0</ele><time>2026-04-19T06:31:02Z</time></trkpt><trkpt lat="45.01696772601352" lon="8.647350831391057"><ele>115.0</ele><time>2026-04-19T06:31:03Z</time></trkpt><trkpt lat="45.01694135068888" lon="8.647507712446094"><ele>113.75</ele><time>2026-04-19T06:31:04Z</time></trkpt><trkpt lat="45.016916153402065" lon="8.647695845096678"><ele>112.5</ele><time>2026-04-19T06:31:05Z</time></trkpt><trkpt lat="45.016881570595594" lon="8.647904845586599"><ele>111.25</ele><time>2026-04-19T06:31:06Z</time></trkpt><trkpt lat="45.016842838590314" lon="8.648083791902435"><ele>110.0</ele><time>2026-04-19T06:31:07Z</time></trkpt><trkpt lat="45.01681810868825" lon="8.64824056737069"><ele>107.6</ele><time>2026-04-19T06:31:08Z</time></trkpt><trkpt lat="45.016791031291554" lon="8.648387504691405"><ele>105.2</ele><time>2026-04-19T06:31:09Z</time></trkpt><trkpt lat="45.016767211058166" lon="8.648521023664738"><ele>102.80000000000001</ele><time>2026-04-19T06:31:10Z</time></trkpt><trkpt lat="45.01674183041625" lon="8.648645900886367"><ele>100.4</ele><time>2026-04-19T06:31:11Z</time></trkpt><trkpt lat="45.016725566405604" lon="8.648741702950064"><ele>98.0</ele><time>2026-04-19T06:31:12Z</time></trkpt><trkpt lat="45.0166981259374" lon="8.64886609882873"><ele>98.0</ele><time>2026-04-19T06:31:14Z</time></trkpt><trkpt lat="45.016826575774" lon="8.648844210955195"><ele>98.0</ele><time>2026-04-19T06:31:17Z</time></trkpt><trkpt lat="45.01687949080733" lon="8.648697213479936"><ele>98.0</ele><time>2026-04-19T06:31:19Z</time></trkpt><trkpt lat="45.01691724474403" lon="8.648568410750135"><ele>98.0</ele><time>2026-04-19T06:31:20Z</time></trkpt><trkpt lat="45.016979874175526" lon="8.648389478613304"><ele>97.99999999999999</ele><time>2026-04-19T06:31:21Z</time></trkpt><trkpt lat="45.017017456980305" lon="8.648236534654878"><ele>98.0</ele><time>2026-04-19T06:31:22Z</time></trkpt><trkpt lat="45.01706983239547" lon="8.648159611949106"><ele>98.0</ele><time>2026-04-19T06:31:23Z</time></trkpt><trkpt lat="45.0171162138529" lon="8.648082759328862"><ele>98.0</ele><time>2026-04-19T06:31:24Z</time></trkpt><trkpt lat="45.01714857924183" lon="8.647981854222497"><ele>97.99999999999999</ele><time>2026-04-19T06:31:25Z</time></trkpt><trkpt lat="45.01724980622332" lon="8.647955895840894"><ele>98.0</ele><time>2026-04-19T06:31:27Z</time></trkpt><trkpt lat="45.01730853501772" lon="8.648051069805499"><ele>97.99999999999999</ele><time>2026-04-19T06:31:28Z</time></trkpt><trkpt lat="45.01735191578226" lon="8.648145780234614"><ele>98.0</ele><time>2026-04-19T06:31:29Z</time></trkpt><trkpt lat="45.017316782557735" lon="8.648244643324231"><ele>98.0</ele><time>2026-04-19T06:31:30Z</time></trkpt><trkpt lat="45.017328710270476" lon="8.64837344878"><ele>98.0</ele><time>2026-04-19T06:31:31Z</time></trkpt><trkpt lat="45.017355431546314" lon="8.648486041658257"><ele>97.99999999999999</ele><time>2026-04-19T06:31:32Z</time></trkpt><trkpt lat="45.017381043173565" lon="8.648586075295878"><ele>98.0</ele><time>2026-04-19T06:31:33Z</time></trkpt><trkpt lat="45.017422786884424" lon="8.648684337192043"><ele>95.66666666666666</ele><time>2026-04-19T06:31:34Z</time></trkpt><trkpt lat="45.01749515665291" lon="8.64878561176396"><ele>93.33333333333333</ele><time>2026-04-19T06:31:35Z</time></trkpt><trkpt lat="45.0175677066564" lon="8.648864726475306"><ele>91.0</ele><time>2026-04-19T06:31:36Z</time></trkpt><trkpt lat="45.017613608861495" lon="8.648942953805845"><ele>88.66666666666666</ele><time>2026-04-19T06:31:37Z</time></trkpt><trkpt lat="45.01766802447817" lon="8.649010782370407"><ele>86.33333333333333</ele><time>2026-04-19T06:31:38Z</time></trkpt><trkpt lat="45.017732471384" lon="8.649067157711674"><ele>84.0</ele><time>2026-04-19T06:31:39Z</time></trkpt><trkpt lat="45.017811045605846" lon="8.649211859686847"><ele>84.0</ele><time>2026-04-19T06:31:41Z</time></trkpt><trkpt lat="45.01785464118458" lon="8.64930333827491"><ele>84.0</ele><time>2026-04-19T06:31:42Z</time></trkpt><trkpt lat="45.01790364570364" lon="8.64939867596689"><ele>84.0</ele><time>2026-04-19T06:31:43Z</time></trkpt><trkpt lat="45.01793509166131" lon="8.649514060927164"><ele>84.0</ele><time>2026-04-19T06:31:44Z</time></trkpt><trkpt lat="45.01798266092433" lon="8.649589980149493"><ele>84.0</ele><time>2026-04-19T06:31:45Z</time></trkpt><trkpt lat="45.01801064296087" lon="8.649670070766076"><ele>84.0</ele><time>2026-04-19T06:31:46Z</time></trkpt><trkpt lat="45.01804110280147" lon="8.649801696210824"><ele>84.0</ele><time>2026-04-19T06:31:47.999Z</time></trkpt><trkpt lat="45.01807134834299" lon="8.649897505961373"><ele>84.0</ele><time>2026-04-19T06:31:49.999Z</time></trkpt><trkpt lat="45.01811434387314" lon="8.650044936311401"><ele>84.0</ele><time>2026-04-19T06:31:51.999Z</time></trkpt><trkpt lat="45.018159879979834" lon="8.650187455265073"><ele>84.0</ele><time>2026-04-19T06:31:53.999Z</time></trkpt><trkpt lat="45.01818853909211" lon="8.65026767382713"><ele>84.0</ele><time>2026-04-19T06:31:54.999Z</time></trkpt><trkpt lat="45.01823338861612" lon="8.650416180344536"><ele>84.0</ele><time>2026-04-19T06:31:56.999Z</time></trkpt><trkpt lat="45.01826841859772" lon="8.650495478124807"><ele>84.0</ele><time>2026-04-19T06:31:57.999Z</time></trkpt><trkpt lat="45.01830934968446" lon="8.650575032517132"><ele>84.0</ele><time>2026-04-19T06:31:58.999Z</time></trkpt><trkpt lat="45.018358080704836" lon="8.650642485501878"><ele>84.0</ele><time>2026-04-19T06:31:59.999Z</time></trkpt><trkpt lat="45.01842461346696" lon="8.650751492615367"><ele>84.0</ele><time>2026-04-19T06:32:01.999Z</time></trkpt><trkpt lat="45.01851792278384" lon="8.650810852005517"><ele>84.0</ele><time>2026-04-19T06:32:03.999Z</time></trkpt><trkpt lat="45.018589671772716" lon="8.650869828442078"><ele>84.0</ele><time>2026-04-19T06:32:05.999Z</time></trkpt><trkpt lat="45.01868718966954" lon="8.6509251832757"><ele>84.0</ele><time>2026-04-19T06:32:07.999Z</time></trkpt><trkpt lat="45.01877180277755" lon="8.65094830051569"><ele>84.0</ele><time>2026-04-19T06:32:09.999Z</time></trkpt><trkpt lat="45.018845510431184" lon="8.650982671060417"><ele>84.0</ele><time>2026-04-19T06:32:11.999Z</time></trkpt><trkpt lat="45.018932656953275" lon="8.651031134963754"><ele>84.0</ele><time>2026-04-19T06:32:13.999Z</time></trkpt><trkpt lat="45.019001686674294" lon="8.651062604942098"><ele>84.0</ele><time>2026-04-19T06:32:15.999Z</time></trkpt><trkpt lat="45.01908709471971" lon="8.651077918864196"><ele>84.16666666666667</ele><time>2026-04-19T06:32:18.999Z</time></trkpt><trkpt lat="45.01915239479881" lon="8.65108260996277"><ele>84.33333333333333</ele><time>2026-04-19T06:32:20.999Z</time></trkpt><trkpt lat="45.01921662451745" lon="8.651088767660687"><ele>84.5</ele><time>2026-04-19T06:32:22.999Z</time></trkpt><trkpt lat="45.01931685755648" lon="8.651102318244687"><ele>84.66666666666666</ele><time>2026-04-19T06:32:24.999Z</time></trkpt><trkpt lat="45.01938892424833" lon="8.65110882552423"><ele>84.83333333333333</ele><time>2026-04-19T06:32:25.999Z</time></trkpt><trkpt lat="45.01945423078326" lon="8.651116256692443"><ele>85.0</ele><time>2026-04-19T06:32:26.999Z</time></trkpt><trkpt lat="45.01958540880584" lon="8.651153727442434"><ele>85.0</ele><time>2026-04-19T06:32:28.999Z</time></trkpt><trkpt lat="45.01967579569565" lon="8.651193514472803"><ele>85.0</ele><time>2026-04-19T06:32:29.999Z</time></trkpt><trkpt lat="45.01981708857731" lon="8.651249424387888"><ele>85.0</ele><time>2026-04-19T06:32:31.999Z</time></trkpt><trkpt lat="45.01988997550259" lon="8.651324458808435"><ele>85.0</ele><time>2026-04-19T06:32:32.999Z</time></trkpt><trkpt lat="45.019981046308445" lon="8.651361692286196"><ele>85.0</ele><time>2026-04-19T06:32:33.999Z</time></trkpt><trkpt lat="45.02005719628748" lon="8.651435203607335"><ele>85.4</ele><time>2026-04-19T06:32:35Z</time></trkpt><trkpt lat="45.02014033842531" lon="8.651489326938522"><ele>85.8</ele><time>2026-04-19T06:32:36Z</time></trkpt><trkpt lat="45.02023401261448" lon="8.651550306357873"><ele>86.19999999999999</ele><time>2026-04-19T06:32:37Z</time></trkpt><trkpt lat="45.0203254818169" lon="8.651611086229384"><ele>86.6</ele><time>2026-04-19T06:32:38Z</time></trkpt><trkpt lat="45.02042046990881" lon="8.651675985872295"><ele>87.0</ele><time>2026-04-19T06:32:39Z</time></trkpt><trkpt lat="45.02051868929806" lon="8.651743093250227"><ele>87.0</ele><time>2026-04-19T06:32:40Z</time></trkpt><trkpt lat="45.02061603299296" lon="8.651807087845567"><ele>87.0</ele><time>2026-04-19T06:32:41Z</time></trkpt><trkpt lat="45.02069561783477" lon="8.6518781016269"><ele>87.0</ele><time>2026-04-19T06:32:42Z</time></trkpt><trkpt lat="45.02077795251623" lon="8.651952809622871"><ele>87.0</ele><time>2026-04-19T06:32:43Z</time></trkpt><trkpt lat="45.02087726178167" lon="8.65201086187656"><ele>87.0</ele><time>2026-04-19T06:32:44Z</time></trkpt><trkpt lat="45.02097112504336" lon="8.652113693534755"><ele>87.6</ele><time>2026-04-19T06:32:45Z</time></trkpt><trkpt lat="45.02105681821809" lon="8.65218392389148"><ele>88.19999999999999</ele><time>2026-04-19T06:32:46Z</time></trkpt><trkpt lat="45.02114758909499" lon="8.652258315757146"><ele>88.8</ele><time>2026-04-19T06:32:47Z</time></trkpt><trkpt lat="45.021243049704246" lon="8.652338873031745"><ele>89.4</ele><time>2026-04-19T06:32:48Z</time></trkpt><trkpt lat="45.021335460066794" lon="8.652418468901226"><ele>90.0</ele><time>2026-04-19T06:32:49Z</time></trkpt><trkpt lat="45.02141735716758" lon="8.652489493873555"><ele>90.0</ele><time>2026-04-19T06:32:50Z</time></trkpt><trkpt lat="45.021496513907046" lon="8.652558142226738"><ele>90.0</ele><time>2026-04-19T06:32:51Z</time></trkpt><trkpt lat="45.02158719428374" lon="8.652636784406482"><ele>90.0</ele><time>2026-04-19T06:32:52Z</time></trkpt><trkpt lat="45.02166773061246" lon="8.652706629229602"><ele>90.0</ele><time>2026-04-19T06:32:53Z</time></trkpt><trkpt lat="45.021751936848986" lon="8.652779656709873"><ele>90.0</ele><time>2026-04-19T06:32:54Z</time></trkpt><trkpt lat="45.02182103089591" lon="8.65283752428628"><ele>90.0</ele><time>2026-04-19T06:32:55Z</time></trkpt><trkpt lat="45.02189837472987" lon="8.652873959380985"><ele>90.0</ele><time>2026-04-19T06:32:56Z</time></trkpt><trkpt lat="45.021960663610756" lon="8.65292097645931"><ele>90.0</ele><time>2026-04-19T06:32:57Z</time></trkpt><trkpt lat="45.02201307504649" lon="8.652975223740693"><ele>90.0</ele><time>2026-04-19T06:32:58Z</time></trkpt><trkpt lat="45.02207845882892" lon="8.653029197847713"><ele>90.0</ele><time>2026-04-19T06:32:59Z</time></trkpt><trkpt lat="45.02215108897433" lon="8.65310827110558"><ele>90.0</ele><time>2026-04-19T06:33:00Z</time></trkpt><trkpt lat="45.0222222426236" lon="8.65316968398381"><ele>90.0</ele><time>2026-04-19T06:33:01Z</time></trkpt><trkpt lat="45.02232429149618" lon="8.653230379242405"><ele>90.0</ele><time>2026-04-19T06:33:03Z</time></trkpt><trkpt lat="45.0223724684746" lon="8.653299344544592"><ele>90.0</ele><time>2026-04-19T06:33:05Z</time></trkpt><trkpt lat="45.022482784794974" lon="8.65312931634592"><ele>90.0</ele><time>2026-04-19T06:33:10Z</time></trkpt><trkpt lat="45.02250664823662" lon="8.652989625916298"><ele>90.0</ele><time>2026-04-19T06:33:12Z</time></trkpt><trkpt lat="45.02252748350395" lon="8.652839407155563"><ele>90.0</ele><time>2026-04-19T06:33:14Z</time></trkpt><trkpt lat="45.02253899291798" lon="8.6527417624983"><ele>90.0</ele><time>2026-04-19T06:33:15Z</time></trkpt><trkpt lat="45.022545429225346" lon="8.652866690129205"><ele>90.0</ele><time>2026-04-19T06:34:21.999Z</time></trkpt><trkpt lat="45.02253007243996" lon="8.652972712886896"><ele>90.0</ele><time>2026-04-19T06:34:25.999Z</time></trkpt><trkpt lat="45.0225159195275" lon="8.653097291296284"><ele>90.0</ele><time>2026-04-19T06:34:28.999Z</time></trkpt><trkpt lat="45.02247767067586" lon="8.653196616136647"><ele>90.0</ele><time>2026-04-19T06:34:31.999Z</time></trkpt><trkpt lat="45.022433551390044" lon="8.653261986444642"><ele>89.16666666666667</ele><time>2026-04-19T06:34:34.999Z</time></trkpt><trkpt lat="45.02248765797676" lon="8.653158443484406"><ele>88.33333333333333</ele><time>2026-04-19T06:34:49Z</time></trkpt><trkpt lat="45.02251624478368" lon="8.65306940102499"><ele>87.5</ele><time>2026-04-19T06:34:51Z</time></trkpt><trkpt lat="45.02251901467597" lon="8.65293901796659"><ele>86.66666666666666</ele><time>2026-04-19T06:34:54Z</time></trkpt><trkpt lat="45.022533236687345" lon="8.6528329501025"><ele>85.83333333333333</ele><time>2026-04-19T06:34:57Z</time></trkpt><trkpt lat="45.0225530004394" lon="8.652727208077588"><ele>85.0</ele><time>2026-04-19T06:35:01Z</time></trkpt><trkpt lat="45.022557740395925" lon="8.65262366311165"><ele>85.0</ele><time>2026-04-19T06:35:05Z</time></trkpt><trkpt lat="45.02258194873729" lon="8.652527632265148"><ele>85.0</ele><time>2026-04-19T06:35:09Z</time></trkpt><trkpt lat="45.022581950893404" lon="8.652437486187871"><ele>85.0</ele><time>2026-04-19T06:35:13Z</time></trkpt><trkpt lat="45.022645669115754" lon="8.652409968793052"><ele>85.0</ele><time>2026-04-19T06:35:35Z</time></trkpt><trkpt lat="45.02263526961233" lon="8.652499310425444"><ele>85.0</ele><time>2026-04-19T06:35:37Z</time></trkpt><trkpt lat="45.02259465301975" lon="8.652583758794263"><ele>85.0</ele><time>2026-04-19T06:35:38Z</time></trkpt><trkpt lat="45.02255302576722" lon="8.652713698239888"><ele>85.0</ele><time>2026-04-19T06:35:40Z</time></trkpt><trkpt lat="45.022547034759114" lon="8.652821779425201"><ele>85.0</ele><time>2026-04-19T06:35:41Z</time></trkpt><trkpt lat="45.02253274430918" lon="8.652913567232154"><ele>85.0</ele><time>2026-04-19T06:35:42Z</time></trkpt><trkpt lat="45.02251302623267" lon="8.653061399364823"><ele>85.0</ele><time>2026-04-19T06:35:44Z</time></trkpt><trkpt lat="45.02247531796071" lon="8.653202384988665"><ele>85.0</ele><time>2026-04-19T06:35:46Z</time></trkpt><trkpt lat="45.02241893608317" lon="8.653256037416822"><ele>85.0</ele><time>2026-04-19T06:35:48Z</time></trkpt><trkpt lat="45.022355756725545" lon="8.653254260589273"><ele>85.0</ele><time>2026-04-19T06:35:50Z</time></trkpt><trkpt lat="45.02230873732048" lon="8.65318486571221"><ele>86.0</ele><time>2026-04-19T06:35:52Z</time></trkpt><trkpt lat="45.022210793435995" lon="8.65311726541492"><ele>87.0</ele><time>2026-04-19T06:35:54Z</time></trkpt><trkpt lat="45.02213006734889" lon="8.653064847432804"><ele>88.0</ele><time>2026-04-19T06:35:56Z</time></trkpt><trkpt lat="45.02202808821018" lon="8.652988610426767"><ele>89.0</ele><time>2026-04-19T06:35:58Z</time></trkpt><trkpt lat="45.021942382995036" lon="8.65291851809463"><ele>90.0</ele><time>2026-04-19T06:36:00Z</time></trkpt><trkpt lat="45.021860814270475" lon="8.652831439094024"><ele>90.0</ele><time>2026-04-19T06:36:02Z</time></trkpt><trkpt lat="45.02175703511382" lon="8.652765265625765"><ele>90.0</ele><time>2026-04-19T06:36:04Z</time></trkpt><trkpt lat="45.0216654248813" lon="8.652681923718228"><ele>90.0</ele><time>2026-04-19T06:36:05.999Z</time></trkpt><trkpt lat="45.021580170108855" lon="8.652613216511222"><ele>90.0</ele><time>2026-04-19T06:36:07.999Z</time></trkpt><trkpt lat="45.02150179638327" lon="8.652536702605056"><ele>90.0</ele><time>2026-04-19T06:36:09.999Z</time></trkpt><trkpt lat="45.021399683433934" lon="8.652468563896127"><ele>90.0</ele><time>2026-04-19T06:36:11.999Z</time></trkpt><trkpt lat="45.021322857103065" lon="8.652403152340128"><ele>90.0</ele><time>2026-04-19T06:36:13.999Z</time></trkpt><trkpt lat="45.021251154618696" lon="8.65233675023511"><ele>90.0</ele><time>2026-04-19T06:36:15.999Z</time></trkpt><trkpt lat="45.021184613742435" lon="8.652234814225956"><ele>90.0</ele><time>2026-04-19T06:36:17.999Z</time></trkpt><trkpt lat="45.02112064453125" lon="8.652201698341862"><ele>90.0</ele><time>2026-04-19T06:36:19.999Z</time></trkpt><trkpt lat="45.02105710416308" lon="8.65212986217163"><ele>90.0</ele><time>2026-04-19T06:36:21.999Z</time></trkpt><trkpt lat="45.02098617954798" lon="8.652071735474738"><ele>90.0</ele><time>2026-04-19T06:36:23.999Z</time></trkpt><trkpt lat="45.020921138098814" lon="8.652018430339272"><ele>90.0</ele><time>2026-04-19T06:36:25.999Z</time></trkpt><trkpt lat="45.020853739627704" lon="8.651982811695808"><ele>90.0</ele><time>2026-04-19T06:36:28.999Z</time></trkpt><trkpt lat="45.02078801852543" lon="8.651931285841375"><ele>90.0</ele><time>2026-04-19T06:37:12Z</time></trkpt><trkpt lat="45.020698148189915" lon="8.651824575092656"><ele>90.0</ele><time>2026-04-19T06:37:14Z</time></trkpt><trkpt lat="45.020634406156226" lon="8.65177001273516"><ele>90.0</ele><time>2026-04-19T06:37:15Z</time></trkpt><trkpt lat="45.020573994543604" lon="8.651727983489415"><ele>89.5</ele><time>2026-04-19T06:37:16Z</time></trkpt><trkpt lat="45.02050116155304" lon="8.65170300024273"><ele>89.0</ele><time>2026-04-19T06:37:17Z</time></trkpt><trkpt lat="45.02043860175921" lon="8.651636211163645"><ele>88.5</ele><time>2026-04-19T06:37:18Z</time></trkpt><trkpt lat="45.020373055595236" lon="8.65159142739246"><ele>88.0</ele><time>2026-04-19T06:37:19Z</time></trkpt><trkpt lat="45.02029744660427" lon="8.651539896502081"><ele>87.5</ele><time>2026-04-19T06:37:20Z</time></trkpt><trkpt lat="45.02017245828786" lon="8.651458532418257"><ele>87.0</ele><time>2026-04-19T06:37:22Z</time></trkpt><trkpt lat="45.02009931555908" lon="8.651410918412687"><ele>87.0</ele><time>2026-04-19T06:37:23Z</time></trkpt><trkpt lat="45.0200241999682" lon="8.651362020148518"><ele>87.0</ele><time>2026-04-19T06:37:24Z</time></trkpt><trkpt lat="45.019951552121306" lon="8.651314522691484"><ele>87.0</ele><time>2026-04-19T06:37:25Z</time></trkpt><trkpt lat="45.01988305548938" lon="8.651267496721397"><ele>87.0</ele><time>2026-04-19T06:37:26Z</time></trkpt><trkpt lat="45.01980282175746" lon="8.651237957914057"><ele>87.0</ele><time>2026-04-19T06:37:27Z</time></trkpt><trkpt lat="45.01972514256129" lon="8.651185793959622"><ele>87.0</ele><time>2026-04-19T06:37:28Z</time></trkpt><trkpt lat="45.01965568186811" lon="8.651146002661623"><ele>86.83333333333333</ele><time>2026-04-19T06:37:29Z</time></trkpt><trkpt lat="45.01958728027885" lon="8.65111228017243"><ele>86.66666666666667</ele><time>2026-04-19T06:37:30Z</time></trkpt><trkpt lat="45.019513625224945" lon="8.651081157093937"><ele>86.5</ele><time>2026-04-19T06:37:31Z</time></trkpt><trkpt lat="45.01943438685844" lon="8.65106613881391"><ele>86.33333333333334</ele><time>2026-04-19T06:37:32Z</time></trkpt><trkpt lat="45.01935328541801" lon="8.651058571319842"><ele>86.16666666666667</ele><time>2026-04-19T06:37:33Z</time></trkpt><trkpt lat="45.01926576941639" lon="8.651048435271564"><ele>86.0</ele><time>2026-04-19T06:37:34Z</time></trkpt><trkpt lat="45.01917643755815" lon="8.651036010199686"><ele>85.66666666666667</ele><time>2026-04-19T06:37:35Z</time></trkpt><trkpt lat="45.019103951883416" lon="8.651032483870496"><ele>85.33333333333334</ele><time>2026-04-19T06:37:36Z</time></trkpt><trkpt lat="45.01903352555688" lon="8.65102234004689"><ele>85.0</ele><time>2026-04-19T06:37:37Z</time></trkpt><trkpt lat="45.01894698715394" lon="8.651002525591302"><ele>84.66666666666667</ele><time>2026-04-19T06:37:38Z</time></trkpt><trkpt lat="45.01886132228055" lon="8.65096705014027"><ele>84.33333333333333</ele><time>2026-04-19T06:37:39Z</time></trkpt><trkpt lat="45.01878417253401" lon="8.650925517288453"><ele>84.0</ele><time>2026-04-19T06:37:40Z</time></trkpt><trkpt lat="45.01869558692489" lon="8.650879417229051"><ele>84.0</ele><time>2026-04-19T06:37:41Z</time></trkpt><trkpt lat="45.0186151449922" lon="8.650834336927808"><ele>84.0</ele><time>2026-04-19T06:37:42Z</time></trkpt><trkpt lat="45.01854643818299" lon="8.650791116594112"><ele>84.0</ele><time>2026-04-19T06:37:43Z</time></trkpt><trkpt lat="45.01846044814769" lon="8.65074759423707"><ele>84.0</ele><time>2026-04-19T06:37:44Z</time></trkpt><trkpt lat="45.018408162834056" lon="8.650692329269244"><ele>84.0</ele><time>2026-04-19T06:37:45Z</time></trkpt><trkpt lat="45.018356087555404" lon="8.650632540291166"><ele>84.0</ele><time>2026-04-19T06:37:46Z</time></trkpt><trkpt lat="45.018329653201356" lon="8.650540126633919"><ele>84.0</ele><time>2026-04-19T06:37:47Z</time></trkpt><trkpt lat="45.01829072662148" lon="8.650466720174718"><ele>84.0</ele><time>2026-04-19T06:37:48Z</time></trkpt><trkpt lat="45.01825856834839" lon="8.650389442135682"><ele>84.0</ele><time>2026-04-19T06:37:49Z</time></trkpt><trkpt lat="45.018205175484006" lon="8.650227235283799"><ele>84.0</ele><time>2026-04-19T06:37:51Z</time></trkpt><trkpt lat="45.01816278309164" lon="8.65013582525792"><ele>84.0</ele><time>2026-04-19T06:37:52Z</time></trkpt><trkpt lat="45.01815011868977" lon="8.650044359700454"><ele>84.0</ele><time>2026-04-19T06:37:53Z</time></trkpt><trkpt lat="45.01811890739431" lon="8.64993686250413"><ele>84.0</ele><time>2026-04-19T06:37:55Z</time></trkpt><trkpt lat="45.01822425609462" lon="8.649848235824141"><ele>84.0</ele><time>2026-04-19T06:37:58Z</time></trkpt><trkpt lat="45.01829881915395" lon="8.649833666668846"><ele>84.0</ele><time>2026-04-19T06:38:00Z</time></trkpt><trkpt lat="45.01836907949561" lon="8.64980897491673"><ele>84.0</ele><time>2026-04-19T06:38:01Z</time></trkpt><trkpt lat="45.01845204898181" lon="8.649756863395211"><ele>84.0</ele><time>2026-04-19T06:38:02Z</time></trkpt><trkpt lat="45.01854338800333" lon="8.649704497028786"><ele>84.25</ele><time>2026-04-19T06:38:03Z</time></trkpt><trkpt lat="45.0186626475688" lon="8.649649216230175"><ele>84.5</ele><time>2026-04-19T06:38:04Z</time></trkpt><trkpt lat="45.018782834530036" lon="8.6495829619149"><ele>84.75</ele><time>2026-04-19T06:38:05Z</time></trkpt><trkpt lat="45.0188804699982" lon="8.649514708077305"><ele>85.0</ele><time>2026-04-19T06:38:05.999Z</time></trkpt><trkpt lat="45.01898910976747" lon="8.64946487412238"><ele>85.0</ele><time>2026-04-19T06:38:06.999Z</time></trkpt><trkpt lat="45.01909862868011" lon="8.649448061157896"><ele>85.0</ele><time>2026-04-19T06:38:07.999Z</time></trkpt><trkpt lat="45.01919213388594" lon="8.649396275045623"><ele>85.0</ele><time>2026-04-19T06:38:08.999Z</time></trkpt><trkpt lat="45.01928657518053" lon="8.649363997409854"><ele>85.0</ele><time>2026-04-19T06:38:09.999Z</time></trkpt><trkpt lat="45.019387587933196" lon="8.649358366125302"><ele>85.0</ele><time>2026-04-19T06:38:10.999Z</time></trkpt><trkpt lat="45.01946546956166" lon="8.649324301732527"><ele>85.4</ele><time>2026-04-19T06:38:11.999Z</time></trkpt><trkpt lat="45.01956752925217" lon="8.649329773169349"><ele>85.8</ele><time>2026-04-19T06:38:12.999Z</time></trkpt><trkpt lat="45.01965284452632" lon="8.649353344183076"><ele>86.19999999999999</ele><time>2026-04-19T06:38:13.999Z</time></trkpt><trkpt lat="45.01976237083896" lon="8.649361835408875"><ele>86.6</ele><time>2026-04-19T06:38:14.999Z</time></trkpt><trkpt lat="45.01986446438482" lon="8.649390339002935"><ele>87.0</ele><time>2026-04-19T06:38:15.999Z</time></trkpt><trkpt lat="45.0199812686483" lon="8.649404558719567"><ele>86.8</ele><time>2026-04-19T06:38:16.999Z</time></trkpt><trkpt lat="45.02010258655172" lon="8.649425887270644"><ele>86.6</ele><time>2026-04-19T06:38:17.999Z</time></trkpt><trkpt lat="45.02020463671563" lon="8.649441079971208"><ele>86.39999999999999</ele><time>2026-04-19T06:38:18.999Z</time></trkpt><trkpt lat="45.02028281753194" lon="8.649450130395492"><ele>86.19999999999999</ele><time>2026-04-19T06:38:19.999Z</time></trkpt><trkpt lat="45.020387725768074" lon="8.649462009868001"><ele>86.0</ele><time>2026-04-19T06:38:20.999Z</time></trkpt><trkpt lat="45.020482219692504" lon="8.649470553898134"><ele>86.0</ele><time>2026-04-19T06:38:21.999Z</time></trkpt><trkpt lat="45.02056344742245" lon="8.649472347462636"><ele>86.0</ele><time>2026-04-19T06:38:22.999Z</time></trkpt><trkpt lat="45.02065497488218" lon="8.649478680731429"><ele>86.0</ele><time>2026-04-19T06:38:23.999Z</time></trkpt><trkpt lat="45.02072987311167" lon="8.649478557188955"><ele>86.0</ele><time>2026-04-19T06:38:24.999Z</time></trkpt><trkpt lat="45.02086878581782" lon="8.649468953791162"><ele>86.0</ele><time>2026-04-19T06:38:26.999Z</time></trkpt><trkpt lat="45.02095945378117" lon="8.649448315800399"><ele>86.5</ele><time>2026-04-19T06:38:27.999Z</time></trkpt><trkpt lat="45.02103806738976" lon="8.649427820382487"><ele>87.0</ele><time>2026-04-19T06:38:28.999Z</time></trkpt><trkpt lat="45.02111610980132" lon="8.649424730460561"><ele>87.5</ele><time>2026-04-19T06:38:29.999Z</time></trkpt><trkpt lat="45.02119330317707" lon="8.649391764237878"><ele>88.0</ele><time>2026-04-19T06:38:30.999Z</time></trkpt><trkpt lat="45.021260478243136" lon="8.649348592985131"><ele>88.5</ele><time>2026-04-19T06:38:31.999Z</time></trkpt><trkpt lat="45.02133869990391" lon="8.649289341334818"><ele>89.0</ele><time>2026-04-19T06:38:32.999Z</time></trkpt><trkpt lat="45.021390301540386" lon="8.649235505282679"><ele>89.0</ele><time>2026-04-19T06:38:33.999Z</time></trkpt><trkpt lat="45.02146056420098" lon="8.6491554373716"><ele>89.0</ele><time>2026-04-19T06:38:34.999Z</time></trkpt><trkpt lat="45.02152332432287" lon="8.649066480816922"><ele>89.0</ele><time>2026-04-19T06:38:35.999Z</time></trkpt><trkpt lat="45.02159955338732" lon="8.648945496743771"><ele>89.0</ele><time>2026-04-19T06:38:36.999Z</time></trkpt><trkpt lat="45.02167271600558" lon="8.648845026420942"><ele>89.0</ele><time>2026-04-19T06:38:37.999Z</time></trkpt><trkpt lat="45.0217340055" lon="8.648757412739029"><ele>88.33333333333334</ele><time>2026-04-19T06:38:38.999Z</time></trkpt><trkpt lat="45.02179224848396" lon="8.648663944922736"><ele>87.66666666666667</ele><time>2026-04-19T06:38:39.999Z</time></trkpt><trkpt lat="45.021859605554575" lon="8.648590345797503"><ele>87.0</ele><time>2026-04-19T06:38:40.999Z</time></trkpt><trkpt lat="45.02191318348428" lon="8.648505717505879"><ele>86.33333333333333</ele><time>2026-04-19T06:38:41.999Z</time></trkpt><trkpt lat="45.0219699289195" lon="8.648420422276821"><ele>85.66666666666666</ele><time>2026-04-19T06:38:42.999Z</time></trkpt><trkpt lat="45.02202712344942" lon="8.648316004854768"><ele>85.0</ele><time>2026-04-19T06:38:43.999Z</time></trkpt><trkpt lat="45.022100773065645" lon="8.648215348545532"><ele>85.0</ele><time>2026-04-19T06:38:44.999Z</time></trkpt><trkpt lat="45.022180539978514" lon="8.648099589130803"><ele>85.0</ele><time>2026-04-19T06:38:45.999Z</time></trkpt><trkpt lat="45.02225876166021" lon="8.648013100678549"><ele>85.0</ele><time>2026-04-19T06:38:46.999Z</time></trkpt><trkpt lat="45.02231475242196" lon="8.647928797859866"><ele>85.0</ele><time>2026-04-19T06:38:47.999Z</time></trkpt><trkpt lat="45.02236093930123" lon="8.647848204268996"><ele>85.0</ele><time>2026-04-19T06:38:48.999Z</time></trkpt><trkpt lat="45.022406519317634" lon="8.647754399695042"><ele>85.0</ele><time>2026-04-19T06:38:49.999Z</time></trkpt><trkpt lat="45.02245062456229" lon="8.64764760154502"><ele>85.0</ele><time>2026-04-19T06:38:50.999Z</time></trkpt><trkpt lat="45.02248840541068" lon="8.647547220313452"><ele>85.0</ele><time>2026-04-19T06:38:52Z</time></trkpt><trkpt lat="45.02253354785602" lon="8.64741775128492"><ele>85.0</ele><time>2026-04-19T06:38:53Z</time></trkpt><trkpt lat="45.02257318708005" lon="8.647304065532843"><ele>85.0</ele><time>2026-04-19T06:38:54Z</time></trkpt><trkpt lat="45.02261201724638" lon="8.647192700168784"><ele>85.0</ele><time>2026-04-19T06:38:55Z</time></trkpt><trkpt lat="45.02264894139414" lon="8.647086801268687"><ele>85.0</ele><time>2026-04-19T06:38:56Z</time></trkpt><trkpt lat="45.02268378001895" lon="8.646983164975188"><ele>85.4</ele><time>2026-04-19T06:38:57Z</time></trkpt><trkpt lat="45.022703597738854" lon="8.646873406098882"><ele>85.8</ele><time>2026-04-19T06:38:58Z</time></trkpt><trkpt lat="45.022759875494316" lon="8.646746230020998"><ele>86.19999999999999</ele><time>2026-04-19T06:39:00Z</time></trkpt><trkpt lat="45.02279720568264" lon="8.646614380602136"><ele>86.6</ele><time>2026-04-19T06:39:02Z</time></trkpt><trkpt lat="45.02285974198687" lon="8.646476781586944"><ele>87.0</ele><time>2026-04-19T06:39:04Z</time></trkpt><trkpt lat="45.02290424983068" lon="8.64638321406427"><ele>87.0</ele><time>2026-04-19T06:39:05Z</time></trkpt><trkpt lat="45.02294393772813" lon="8.646294500287135"><ele>87.0</ele><time>2026-04-19T06:39:06Z</time></trkpt><trkpt lat="45.022986282687484" lon="8.646207840343507"><ele>87.0</ele><time>2026-04-19T06:39:07Z</time></trkpt><trkpt lat="45.02302848529051" lon="8.646117649907538"><ele>87.0</ele><time>2026-04-19T06:39:08Z</time></trkpt><trkpt lat="45.02306664548237" lon="8.646034995826204"><ele>87.0</ele><time>2026-04-19T06:39:09Z</time></trkpt><trkpt lat="45.02314494383435" lon="8.64589917377006"><ele>87.0</ele><time>2026-04-19T06:39:11Z</time></trkpt><trkpt lat="45.02321864662346" lon="8.64573396646832"><ele>87.83333333333333</ele><time>2026-04-19T06:39:13Z</time></trkpt><trkpt lat="45.023246079808814" lon="8.645627641366232"><ele>88.66666666666667</ele><time>2026-04-19T06:39:14Z</time></trkpt><trkpt lat="45.02329617549918" lon="8.645541619311677"><ele>89.5</ele><time>2026-04-19T06:39:15Z</time></trkpt><trkpt lat="45.023340284591455" lon="8.645425814717548"><ele>90.33333333333334</ele><time>2026-04-19T06:39:16Z</time></trkpt><trkpt lat="45.02337980653937" lon="8.645319153374116"><ele>91.16666666666667</ele><time>2026-04-19T06:39:17Z</time></trkpt><trkpt lat="45.02340935915893" lon="8.645239397100726"><ele>92.0</ele><time>2026-04-19T06:39:18Z</time></trkpt><trkpt lat="45.02344233377501" lon="8.645150405605973"><ele>92.66666666666667</ele><time>2026-04-19T06:39:19Z</time></trkpt><trkpt lat="45.02347505327702" lon="8.6450621026244"><ele>93.33333333333334</ele><time>2026-04-19T06:39:20Z</time></trkpt><trkpt lat="45.023507542140024" lon="8.644976169072585"><ele>94.0</ele><time>2026-04-19T06:39:21Z</time></trkpt><trkpt lat="45.02355656601448" lon="8.644849296648616"><ele>94.66666666666667</ele><time>2026-04-19T06:39:22Z</time></trkpt><trkpt lat="45.023597907708066" lon="8.64471653471519"><ele>95.33333333333333</ele><time>2026-04-19T06:39:23Z</time></trkpt><trkpt lat="45.02365287554731" lon="8.644605893621922"><ele>96.0</ele><time>2026-04-19T06:39:24Z</time></trkpt><trkpt lat="45.02370725058208" lon="8.644496138666424"><ele>96.16666666666667</ele><time>2026-04-19T06:39:25Z</time></trkpt><trkpt lat="45.02375512610833" lon="8.64441212604817"><ele>96.33333333333334</ele><time>2026-04-19T06:39:26Z</time></trkpt><trkpt lat="45.02382901517664" lon="8.644298992739577"><ele>96.5</ele><time>2026-04-19T06:39:28Z</time></trkpt><trkpt lat="45.02388250368773" lon="8.644174189274128"><ele>96.66666666666667</ele><time>2026-04-19T06:39:30Z</time></trkpt><trkpt lat="45.02393708378258" lon="8.644078832036461"><ele>96.83333333333334</ele><time>2026-04-19T06:39:32Z</time></trkpt><trkpt lat="45.02398050267791" lon="8.643993345892714"><ele>97.0</ele><time>2026-04-19T06:39:33Z</time></trkpt><trkpt lat="45.02404215401365" lon="8.643844216539547"><ele>97.0</ele><time>2026-04-19T06:39:35Z</time></trkpt><trkpt lat="45.024087912641384" lon="8.643703808239925"><ele>97.0</ele><time>2026-04-19T06:39:37Z</time></trkpt><trkpt lat="45.02409965605913" lon="8.643545790173635"><ele>97.0</ele><time>2026-04-19T06:39:39Z</time></trkpt><trkpt lat="45.02414718638548" lon="8.643362816380078"><ele>97.0</ele><time>2026-04-19T06:39:41Z</time></trkpt><trkpt lat="45.02416805352452" lon="8.643261596501768"><ele>97.0</ele><time>2026-04-19T06:39:42Z</time></trkpt><trkpt lat="45.024177095876915" lon="8.643144332247292"><ele>96.00000000000001</ele><time>2026-04-19T06:39:43Z</time></trkpt><trkpt lat="45.02421722983905" lon="8.643035947346338"><ele>95.0</ele><time>2026-04-19T06:39:44Z</time></trkpt><trkpt lat="45.0242304637287" lon="8.64291410427657"><ele>94.0</ele><time>2026-04-19T06:39:45Z</time></trkpt><trkpt lat="45.02425740086421" lon="8.642813199224367"><ele>93.0</ele><time>2026-04-19T06:39:46Z</time></trkpt><trkpt lat="45.024282141764196" lon="8.642702571724959"><ele>92.0</ele><time>2026-04-19T06:39:47Z</time></trkpt><trkpt lat="45.024326444267295" lon="8.642588431564699"><ele>91.0</ele><time>2026-04-19T06:39:48Z</time></trkpt><trkpt lat="45.02434710804529" lon="8.642453200782723"><ele>90.19999999999999</ele><time>2026-04-19T06:39:49Z</time></trkpt><trkpt lat="45.0243887959201" lon="8.64231958623584"><ele>89.39999999999999</ele><time>2026-04-19T06:39:50Z</time></trkpt><trkpt lat="45.02444927264474" lon="8.642200327475841"><ele>88.6</ele><time>2026-04-19T06:39:51Z</time></trkpt><trkpt lat="45.024474149853944" lon="8.642087862440667"><ele>87.8</ele><time>2026-04-19T06:39:52Z</time></trkpt><trkpt lat="45.024526606953074" lon="8.641983250399438"><ele>87.0</ele><time>2026-04-19T06:39:53Z</time></trkpt><trkpt lat="45.024565196680115" lon="8.641870978009948"><ele>87.0</ele><time>2026-04-19T06:39:54Z</time></trkpt><trkpt lat="45.02459230545349" lon="8.641742503850049"><ele>87.0</ele><time>2026-04-19T06:39:55Z</time></trkpt><trkpt lat="45.024637025119176" lon="8.641631229610391"><ele>87.0</ele><time>2026-04-19T06:39:56Z</time></trkpt><trkpt lat="45.02468567742107" lon="8.641497582796704"><ele>87.0</ele><time>2026-04-19T06:39:57Z</time></trkpt><trkpt lat="45.024737119907755" lon="8.641348301258452"><ele>87.0</ele><time>2026-04-19T06:39:58Z</time></trkpt><trkpt lat="45.024779182881346" lon="8.641219117095789"><ele>87.0</ele><time>2026-04-19T06:39:59Z</time></trkpt><trkpt lat="45.0248344100719" lon="8.641066263471565"><ele>87.0</ele><time>2026-04-19T06:40:00Z</time></trkpt><trkpt lat="45.02487657669477" lon="8.640948913731258"><ele>87.0</ele><time>2026-04-19T06:40:01Z</time></trkpt><trkpt lat="45.02492523047681" lon="8.64081058349241"><ele>87.0</ele><time>2026-04-19T06:40:02Z</time></trkpt><trkpt lat="45.02498544557877" lon="8.640689850168714"><ele>87.0</ele><time>2026-04-19T06:40:03Z</time></trkpt><trkpt lat="45.02502758054803" lon="8.640538629158609"><ele>87.0</ele><time>2026-04-19T06:40:04Z</time></trkpt><trkpt lat="45.02504181255621" lon="8.640387406049006"><ele>87.0</ele><time>2026-04-19T06:40:05Z</time></trkpt><trkpt lat="45.025069201268636" lon="8.640212469209992"><ele>87.0</ele><time>2026-04-19T06:40:06Z</time></trkpt><trkpt lat="45.0250965005499" lon="8.640079282213376"><ele>87.0</ele><time>2026-04-19T06:40:06.999Z</time></trkpt><trkpt lat="45.025097032081405" lon="8.639942597960436"><ele>87.0</ele><time>2026-04-19T06:40:07.999Z</time></trkpt><trkpt lat="45.02510980859087" lon="8.639818596530278"><ele>87.0</ele><time>2026-04-19T06:40:08.999Z</time></trkpt><trkpt lat="45.02514039186877" lon="8.63967600240407"><ele>87.0</ele><time>2026-04-19T06:40:09.999Z</time></trkpt><trkpt lat="45.025138100276344" lon="8.639532518224"><ele>87.0</ele><time>2026-04-19T06:40:10.999Z</time></trkpt><trkpt lat="45.025172291687745" lon="8.639370553462582"><ele>87.0</ele><time>2026-04-19T06:40:11.999Z</time></trkpt><trkpt lat="45.025185881364145" lon="8.639246258832369"><ele>87.0</ele><time>2026-04-19T06:40:12.999Z</time></trkpt><trkpt lat="45.025183563795025" lon="8.6391137147295"><ele>87.0</ele><time>2026-04-19T06:40:13.999Z</time></trkpt><trkpt lat="45.025201283124765" lon="8.638966201507609"><ele>87.0</ele><time>2026-04-19T06:40:14.999Z</time></trkpt><trkpt lat="45.02523449126302" lon="8.638790624541558"><ele>87.0</ele><time>2026-04-19T06:40:15.999Z</time></trkpt><trkpt lat="45.02525030520788" lon="8.638636029177796"><ele>87.0</ele><time>2026-04-19T06:40:16.999Z</time></trkpt><trkpt lat="45.02524820913932" lon="8.638514672684165"><ele>87.0</ele><time>2026-04-19T06:40:17.999Z</time></trkpt><trkpt lat="45.025272912449125" lon="8.638418029143237"><ele>87.0</ele><time>2026-04-19T06:40:18.999Z</time></trkpt><trkpt lat="45.02528543519472" lon="8.63824972986139"><ele>87.0</ele><time>2026-04-19T06:40:20.999Z</time></trkpt><trkpt lat="45.025294415096795" lon="8.638131065048261"><ele>87.0</ele><time>2026-04-19T06:40:21.999Z</time></trkpt><trkpt lat="45.025319661754686" lon="8.638029231668503"><ele>87.0</ele><time>2026-04-19T06:40:22.999Z</time></trkpt><trkpt lat="45.02533795531802" lon="8.637931781219864"><ele>87.0</ele><time>2026-04-19T06:40:23.999Z</time></trkpt><trkpt lat="45.02538432938949" lon="8.637761845836895"><ele>87.19999999999999</ele><time>2026-04-19T06:40:25.999Z</time></trkpt><trkpt lat="45.02541897510496" lon="8.637662068498543"><ele>87.4</ele><time>2026-04-19T06:40:27.999Z</time></trkpt><trkpt lat="45.02547386034885" lon="8.63755057592781"><ele>87.6</ele><time>2026-04-19T06:40:29.999Z</time></trkpt><trkpt lat="45.025555452683406" lon="8.63739233759541"><ele>87.80000000000001</ele><time>2026-04-19T06:40:31.999Z</time></trkpt><trkpt lat="45.025621925191324" lon="8.637302147935584"><ele>88.0</ele><time>2026-04-19T06:40:32.999Z</time></trkpt><trkpt lat="45.0256810385126" lon="8.637218853129282"><ele>88.0</ele><time>2026-04-19T06:40:33.999Z</time></trkpt><trkpt lat="45.02575261672297" lon="8.637140289327592"><ele>88.0</ele><time>2026-04-19T06:40:34.999Z</time></trkpt><trkpt lat="45.025813449294475" lon="8.637049314584608"><ele>88.0</ele><time>2026-04-19T06:40:35.999Z</time></trkpt><trkpt lat="45.02587341967762" lon="8.636930993188628"><ele>88.0</ele><time>2026-04-19T06:40:36.999Z</time></trkpt><trkpt lat="45.02596219898512" lon="8.63682686033018"><ele>88.0</ele><time>2026-04-19T06:40:37.999Z</time></trkpt><trkpt lat="45.02602109051758" lon="8.636711200786708"><ele>88.33333333333333</ele><time>2026-04-19T06:40:38.999Z</time></trkpt><trkpt lat="45.02608672264987" lon="8.63661350896511"><ele>88.66666666666666</ele><time>2026-04-19T06:40:39.999Z</time></trkpt><trkpt lat="45.026134746310866" lon="8.636536284764617"><ele>89.0</ele><time>2026-04-19T06:40:40.999Z</time></trkpt><trkpt lat="45.02618911680048" lon="8.636487506101917"><ele>89.33333333333333</ele><time>2026-04-19T06:40:41.999Z</time></trkpt><trkpt lat="45.026273151972234" lon="8.636361832064797"><ele>89.66666666666667</ele><time>2026-04-19T06:40:43.999Z</time></trkpt><trkpt lat="45.02630826205028" lon="8.636273726304944"><ele>90.0</ele><time>2026-04-19T06:40:44.999Z</time></trkpt><trkpt lat="45.02636537723911" lon="8.636196328587932"><ele>89.83333333333333</ele><time>2026-04-19T06:40:45.999Z</time></trkpt><trkpt lat="45.02641244572221" lon="8.636117715301692"><ele>89.66666666666667</ele><time>2026-04-19T06:40:46.999Z</time></trkpt><trkpt lat="45.0264773714539" lon="8.636008577051767"><ele>89.5</ele><time>2026-04-19T06:40:47.999Z</time></trkpt><trkpt lat="45.02654877863974" lon="8.635917887938147"><ele>89.33333333333334</ele><time>2026-04-19T06:40:48.999Z</time></trkpt><trkpt lat="45.02660086857576" lon="8.635830473845754"><ele>89.16666666666667</ele><time>2026-04-19T06:40:49.999Z</time></trkpt><trkpt lat="45.026644075827946" lon="8.635720634149907"><ele>89.0</ele><time>2026-04-19T06:40:50.999Z</time></trkpt><trkpt lat="45.02670363532784" lon="8.63564825393556"><ele>88.80000000000001</ele><time>2026-04-19T06:40:51.999Z</time></trkpt><trkpt lat="45.02674176923923" lon="8.635540426751183"><ele>88.60000000000001</ele><time>2026-04-19T06:40:52.999Z</time></trkpt><trkpt lat="45.026788615845476" lon="8.635457826584299"><ele>88.4</ele><time>2026-04-19T06:40:53.999Z</time></trkpt><trkpt lat="45.02685508637968" lon="8.635284198724369"><ele>88.2</ele><time>2026-04-19T06:40:54.999Z</time></trkpt><trkpt lat="45.02689082302404" lon="8.635203214766525"><ele>88.0</ele><time>2026-04-19T06:40:55.999Z</time></trkpt><trkpt lat="45.02698302676664" lon="8.635081827044939"><ele>88.0</ele><time>2026-04-19T06:40:58Z</time></trkpt><trkpt lat="45.0270490506204" lon="8.63502267537444"><ele>88.0</ele><time>2026-04-19T06:40:59Z</time></trkpt><trkpt lat="45.02710841381851" lon="8.634957508099045"><ele>88.0</ele><time>2026-04-19T06:41:00Z</time></trkpt><trkpt lat="45.02716387109483" lon="8.63487282055598"><ele>88.0</ele><time>2026-04-19T06:41:01Z</time></trkpt><trkpt lat="45.02723414373755" lon="8.6348045586862"><ele>88.0</ele><time>2026-04-19T06:41:02Z</time></trkpt><trkpt lat="45.02731712112826" lon="8.634723997268354"><ele>88.0</ele><time>2026-04-19T06:41:03Z</time></trkpt><trkpt lat="45.02739873281076" lon="8.634629533064544"><ele>88.2</ele><time>2026-04-19T06:41:04Z</time></trkpt><trkpt lat="45.027491823396495" lon="8.63454418563746"><ele>88.4</ele><time>2026-04-19T06:41:05Z</time></trkpt><trkpt lat="45.027583498267184" lon="8.634440697162749"><ele>88.60000000000001</ele><time>2026-04-19T06:41:06Z</time></trkpt><trkpt lat="45.02766679925377" lon="8.63435943087815"><ele>88.80000000000001</ele><time>2026-04-19T06:41:07Z</time></trkpt><trkpt lat="45.02775312076556" lon="8.634292315603842"><ele>89.0</ele><time>2026-04-19T06:41:08Z</time></trkpt><trkpt lat="45.027839093511815" lon="8.634216149375538"><ele>89.0</ele><time>2026-04-19T06:41:09Z</time></trkpt><trkpt lat="45.02795869224823" lon="8.634156719250244"><ele>89.0</ele><time>2026-04-19T06:41:10Z</time></trkpt><trkpt lat="45.028045192090275" lon="8.634069671237906"><ele>89.0</ele><time>2026-04-19T06:41:11Z</time></trkpt><trkpt lat="45.02813329802838" lon="8.634034755565699"><ele>89.0</ele><time>2026-04-19T06:41:12Z</time></trkpt><trkpt lat="45.028202646387946" lon="8.633966683641393"><ele>89.0</ele><time>2026-04-19T06:41:13Z</time></trkpt><trkpt lat="45.02828225055101" lon="8.633926033957986"><ele>88.0</ele><time>2026-04-19T06:41:14Z</time></trkpt><trkpt lat="45.028372807142205" lon="8.633839801114233"><ele>87.0</ele><time>2026-04-19T06:41:16Z</time></trkpt><trkpt lat="45.02842982432781" lon="8.633750829221967"><ele>86.0</ele><time>2026-04-19T06:41:18Z</time></trkpt><trkpt lat="45.02846343598221" lon="8.6336702105227"><ele>85.0</ele><time>2026-04-19T06:41:20Z</time></trkpt><trkpt lat="45.02862481378425" lon="8.633785492039367"><ele>84.0</ele><time>2026-04-19T06:41:43Z</time></trkpt><trkpt lat="45.02870911573226" lon="8.633846720780083"><ele>84.0</ele><time>2026-04-19T06:41:44Z</time></trkpt><trkpt lat="45.0287999686619" lon="8.633912707511664"><ele>84.0</ele><time>2026-04-19T06:41:45Z</time></trkpt><trkpt lat="45.02888881473877" lon="8.633957633923545"><ele>84.0</ele><time>2026-04-19T06:41:46Z</time></trkpt><trkpt lat="45.02897662193726" lon="8.634036755411296"><ele>84.0</ele><time>2026-04-19T06:41:47Z</time></trkpt><trkpt lat="45.029081287892474" lon="8.634086081651223"><ele>84.0</ele><time>2026-04-19T06:41:48Z</time></trkpt><trkpt lat="45.02917201023371" lon="8.63414170004707"><ele>84.16666666666667</ele><time>2026-04-19T06:41:49Z</time></trkpt><trkpt lat="45.029253780064" lon="8.63419199226429"><ele>84.33333333333333</ele><time>2026-04-19T06:41:50Z</time></trkpt><trkpt lat="45.029323300838186" lon="8.634235820322171"><ele>84.5</ele><time>2026-04-19T06:41:51Z</time></trkpt><trkpt lat="45.02941439988745" lon="8.634269733892049"><ele>84.66666666666666</ele><time>2026-04-19T06:41:52Z</time></trkpt><trkpt lat="45.02950486485638" lon="8.63430773370259"><ele>84.83333333333333</ele><time>2026-04-19T06:41:53Z</time></trkpt><trkpt lat="45.029590866076084" lon="8.634343730856521"><ele>85.0</ele><time>2026-04-19T06:41:54Z</time></trkpt><trkpt lat="45.02970681661053" lon="8.634376415970234"><ele>85.0</ele><time>2026-04-19T06:41:55Z</time></trkpt><trkpt lat="45.02980623674931" lon="8.634421194026945"><ele>85.0</ele><time>2026-04-19T06:41:56Z</time></trkpt><trkpt lat="45.02990194311873" lon="8.63448255195453"><ele>85.0</ele><time>2026-04-19T06:41:57Z</time></trkpt><trkpt lat="45.03000555882499" lon="8.63452640841272"><ele>85.0</ele><time>2026-04-19T06:41:58Z</time></trkpt><trkpt lat="45.03011281519649" lon="8.634571805803978"><ele>85.0</ele><time>2026-04-19T06:41:59Z</time></trkpt><trkpt lat="45.03022508319718" lon="8.634595148615691"><ele>84.75</ele><time>2026-04-19T06:42:00Z</time></trkpt><trkpt lat="45.0303306968254" lon="8.634639464792052"><ele>84.5</ele><time>2026-04-19T06:42:01Z</time></trkpt><trkpt lat="45.030438419677125" lon="8.634679502477479"><ele>84.25</ele><time>2026-04-19T06:42:02Z</time></trkpt><trkpt lat="45.03055128014985" lon="8.63472338808567"><ele>84.0</ele><time>2026-04-19T06:42:03Z</time></trkpt><trkpt lat="45.030664875874976" lon="8.634772487714645"><ele>84.0</ele><time>2026-04-19T06:42:04Z</time></trkpt><trkpt lat="45.03079599403318" lon="8.634822203594668"><ele>84.0</ele><time>2026-04-19T06:42:05Z</time></trkpt><trkpt lat="45.030911580755635" lon="8.634867452308564"><ele>84.0</ele><time>2026-04-19T06:42:06Z</time></trkpt><trkpt lat="45.031036058857346" lon="8.634920434128613"><ele>84.0</ele><time>2026-04-19T06:42:07Z</time></trkpt><trkpt lat="45.03116846108178" lon="8.634974060120443"><ele>84.6</ele><time>2026-04-19T06:42:08Z</time></trkpt><trkpt lat="45.03128878044203" lon="8.635022461330013"><ele>85.2</ele><time>2026-04-19T06:42:09Z</time></trkpt><trkpt lat="45.03139097513136" lon="8.635066617616204"><ele>85.8</ele><time>2026-04-19T06:42:10Z</time></trkpt><trkpt lat="45.031482997992946" lon="8.635106431018654"><ele>86.39999999999999</ele><time>2026-04-19T06:42:11Z</time></trkpt><trkpt lat="45.031579028358024" lon="8.63514600019754"><ele>87.0</ele><time>2026-04-19T06:42:12Z</time></trkpt><trkpt lat="45.03167143670403" lon="8.635175898196426"><ele>87.25</ele><time>2026-04-19T06:42:13Z</time></trkpt><trkpt lat="45.03177158245344" lon="8.635170288619351"><ele>87.5</ele><time>2026-04-19T06:42:14Z</time></trkpt><trkpt lat="45.03189464391073" lon="8.635137819959615"><ele>87.75</ele><time>2026-04-19T06:42:15Z</time></trkpt><trkpt lat="45.03204909312998" lon="8.635102476422501"><ele>88.0</ele><time>2026-04-19T06:42:16Z</time></trkpt><trkpt lat="45.03218648434218" lon="8.635065836977146"><ele>88.0</ele><time>2026-04-19T06:42:17Z</time></trkpt><trkpt lat="45.03232226787605" lon="8.635026555384814"><ele>88.0</ele><time>2026-04-19T06:42:17.999Z</time></trkpt><trkpt lat="45.03243661527589" lon="8.634998687924613"><ele>88.0</ele><time>2026-04-19T06:42:18.999Z</time></trkpt><trkpt lat="45.03254823594716" lon="8.634967533483666"><ele>88.0</ele><time>2026-04-19T06:42:19.999Z</time></trkpt><trkpt lat="45.03265210514761" lon="8.634963907361945"><ele>88.0</ele><time>2026-04-19T06:42:20.999Z</time></trkpt><trkpt lat="45.0327402801106" lon="8.634944192443735"><ele>88.0</ele><time>2026-04-19T06:42:21.999Z</time></trkpt><trkpt lat="45.032814745978406" lon="8.634936203024033"><ele>88.0</ele><time>2026-04-19T06:42:22.999Z</time></trkpt><trkpt lat="45.032879733571804" lon="8.634952769847128"><ele>88.0</ele><time>2026-04-19T06:42:24.999Z</time></trkpt><trkpt lat="45.0329431747523" lon="8.634946182594016"><ele>88.0</ele><time>2026-04-19T06:42:33.999Z</time></trkpt><trkpt lat="45.03299938834503" lon="8.63489385523161"><ele>88.0</ele><time>2026-04-19T06:42:35.999Z</time></trkpt><trkpt lat="45.03308505819913" lon="8.634848030071682"><ele>88.0</ele><time>2026-04-19T06:42:38.999Z</time></trkpt><trkpt lat="45.03315731227531" lon="8.634787409765382"><ele>88.0</ele><time>2026-04-19T06:42:42.999Z</time></trkpt><trkpt lat="45.033215379393795" lon="8.63473869214954"><ele>88.0</ele><time>2026-04-19T06:42:44.999Z</time></trkpt><trkpt lat="45.0333366836347" lon="8.634917664936093"><ele>88.0</ele><time>2026-04-19T06:42:47.999Z</time></trkpt><trkpt lat="45.03342025984976" lon="8.634923201454116"><ele>88.0</ele><time>2026-04-19T06:42:50.999Z</time></trkpt><trkpt lat="45.03348243592932" lon="8.634964254559272"><ele>88.0</ele><time>2026-04-19T06:42:52.999Z</time></trkpt><trkpt lat="45.033553763669026" lon="8.635060140623983"><ele>88.0</ele><time>2026-04-19T06:42:54.999Z</time></trkpt><trkpt lat="45.03362107462743" lon="8.635201135412693"><ele>88.0</ele><time>2026-04-19T06:42:56.999Z</time></trkpt><trkpt lat="45.03365631545163" lon="8.63528828764949"><ele>88.0</ele><time>2026-04-19T06:42:57.999Z</time></trkpt><trkpt lat="45.03371907151573" lon="8.63539862655619"><ele>88.0</ele><time>2026-04-19T06:42:59.999Z</time></trkpt><trkpt lat="45.0338047100412" lon="8.63543164371827"><ele>88.0</ele><time>2026-04-19T06:43:02.999Z</time></trkpt><trkpt lat="45.03386507193449" lon="8.63539894331805"><ele>88.0</ele><time>2026-04-19T06:43:05Z</time></trkpt><trkpt lat="45.03392536620112" lon="8.635308364771245"><ele>88.0</ele><time>2026-04-19T06:43:07Z</time></trkpt><trkpt lat="45.03401668746853" lon="8.635214640492935"><ele>88.0</ele><time>2026-04-19T06:43:09Z</time></trkpt><trkpt lat="45.034107414483344" lon="8.635148630332182"><ele>88.0</ele><time>2026-04-19T06:43:11Z</time></trkpt><trkpt lat="45.034065650750925" lon="8.635063488253394"><ele>88.0</ele><time>2026-04-19T06:43:15Z</time></trkpt><trkpt lat="45.03401488566217" lon="8.635127609832603"><ele>88.0</ele><time>2026-04-19T06:43:18Z</time></trkpt><trkpt lat="45.03393826229235" lon="8.635225047036004"><ele>88.0</ele><time>2026-04-19T06:43:21Z</time></trkpt><trkpt lat="45.0338419369138" lon="8.635303349504934"><ele>88.0</ele><time>2026-04-19T06:43:23Z</time></trkpt><trkpt lat="45.03376639830356" lon="8.63536860676202"><ele>88.0</ele><time>2026-04-19T06:43:25Z</time></trkpt><trkpt lat="45.03369346702964" lon="8.635385054332815"><ele>88.0</ele><time>2026-04-19T06:43:27Z</time></trkpt><trkpt lat="45.033626569224595" lon="8.635307573983539"><ele>88.0</ele><time>2026-04-19T06:43:29Z</time></trkpt><trkpt lat="45.033583939685855" lon="8.635219641565497"><ele>88.0</ele><time>2026-04-19T06:43:30Z</time></trkpt><trkpt lat="45.03355164280919" lon="8.635139334810182"><ele>88.0</ele><time>2026-04-19T06:43:31Z</time></trkpt><trkpt lat="45.033482216528675" lon="8.635006164207493"><ele>88.0</ele><time>2026-04-19T06:43:33Z</time></trkpt><trkpt lat="45.033429387461894" lon="8.634954451313734"><ele>88.0</ele><time>2026-04-19T06:43:34Z</time></trkpt><trkpt lat="45.03336408579781" lon="8.634906259337377"><ele>88.0</ele><time>2026-04-19T06:43:35Z</time></trkpt><trkpt lat="45.033241817653256" lon="8.634895066603356"><ele>88.0</ele><time>2026-04-19T06:43:37Z</time></trkpt><trkpt lat="45.03316857099847" lon="8.634868631536813"><ele>88.0</ele><time>2026-04-19T06:43:38Z</time></trkpt><trkpt lat="45.03310423686632" lon="8.634848831362287"><ele>88.0</ele><time>2026-04-19T06:43:39Z</time></trkpt><trkpt lat="45.03301028476338" lon="8.634871191600066"><ele>88.0</ele><time>2026-04-19T06:43:41Z</time></trkpt><trkpt lat="45.0329501803381" lon="8.634956945189655"><ele>88.0</ele><time>2026-04-19T06:43:43Z</time></trkpt><trkpt lat="45.03294916313392" lon="8.634831229305309"><ele>88.0</ele><time>2026-04-19T06:43:47Z</time></trkpt><trkpt lat="45.033004063109495" lon="8.634682128606162"><ele>88.0</ele><time>2026-04-19T06:43:49Z</time></trkpt><trkpt lat="45.033022753833855" lon="8.634586376564572"><ele>88.0</ele><time>2026-04-19T06:43:50Z</time></trkpt><trkpt lat="45.033068592187746" lon="8.634416045792578"><ele>88.0</ele><time>2026-04-19T06:43:52Z</time></trkpt><trkpt lat="45.03309045933725" lon="8.634320607624641"><ele>88.0</ele><time>2026-04-19T06:43:53Z</time></trkpt><trkpt lat="45.03311780966525" lon="8.634228990254307"><ele>88.0</ele><time>2026-04-19T06:43:54Z</time></trkpt><trkpt lat="45.033171856666634" lon="8.634078039248013"><ele>87.66666666666666</ele><time>2026-04-19T06:43:56Z</time></trkpt><trkpt lat="45.03321551691843" lon="8.634011932670294"><ele>87.33333333333333</ele><time>2026-04-19T06:43:57Z</time></trkpt><trkpt lat="45.03328589203938" lon="8.633927401853354"><ele>87.0</ele><time>2026-04-19T06:43:58Z</time></trkpt><trkpt lat="45.033339063155154" lon="8.633850238348693"><ele>86.66666666666667</ele><time>2026-04-19T06:43:59Z</time></trkpt><trkpt lat="45.03340681035091" lon="8.633771014676977"><ele>86.33333333333334</ele><time>2026-04-19T06:44:00Z</time></trkpt><trkpt lat="45.033481400761424" lon="8.633678016614432"><ele>86.0</ele><time>2026-04-19T06:44:01Z</time></trkpt><trkpt lat="45.03354810829286" lon="8.633586564229935"><ele>85.85714285714286</ele><time>2026-04-19T06:44:02Z</time></trkpt><trkpt lat="45.03361171538951" lon="8.63350735921899"><ele>85.71428571428572</ele><time>2026-04-19T06:44:03Z</time></trkpt><trkpt lat="45.033664908659084" lon="8.633437286213178"><ele>85.57142857142858</ele><time>2026-04-19T06:44:04Z</time></trkpt><trkpt lat="45.033709923949" lon="8.633374087737815"><ele>85.42857142857143</ele><time>2026-04-19T06:44:05Z</time></trkpt><trkpt lat="45.03376248236225" lon="8.633306785905235"><ele>85.28571428571428</ele><time>2026-04-19T06:44:06Z</time></trkpt><trkpt lat="45.033815556304404" lon="8.633235347593612"><ele>85.14285714285715</ele><time>2026-04-19T06:44:07Z</time></trkpt><trkpt lat="45.033867395214074" lon="8.63317460538612"><ele>85.0</ele><time>2026-04-19T06:44:08Z</time></trkpt><trkpt lat="45.033932270749986" lon="8.633085338757876"><ele>85.0</ele><time>2026-04-19T06:44:09Z</time></trkpt><trkpt lat="45.03399648746421" lon="8.632999650443708"><ele>85.0</ele><time>2026-04-19T06:44:10Z</time></trkpt><trkpt lat="45.03404850728608" lon="8.632941304400743"><ele>85.0</ele><time>2026-04-19T06:44:11Z</time></trkpt><trkpt lat="45.034103121794175" lon="8.632870859520922"><ele>85.0</ele><time>2026-04-19T06:44:12Z</time></trkpt><trkpt lat="45.03416352476218" lon="8.632800123520244"><ele>85.0</ele><time>2026-04-19T06:44:13Z</time></trkpt><trkpt lat="45.034217137016604" lon="8.63272314762476"><ele>85.0</ele><time>2026-04-19T06:44:14Z</time></trkpt><trkpt lat="45.034272897546394" lon="8.632659209214498"><ele>84.83333333333333</ele><time>2026-04-19T06:44:15Z</time></trkpt><trkpt lat="45.03432669586154" lon="8.632577175296428"><ele>84.66666666666666</ele><time>2026-04-19T06:44:16Z</time></trkpt><trkpt lat="45.034385690976706" lon="8.632510606531925"><ele>84.5</ele><time>2026-04-19T06:44:17Z</time></trkpt><trkpt lat="45.03444767514853" lon="8.632430123597691"><ele>84.33333333333333</ele><time>2026-04-19T06:44:18Z</time></trkpt><trkpt lat="45.03450861366894" lon="8.632356247231025"><ele>84.16666666666667</ele><time>2026-04-19T06:44:19Z</time></trkpt><trkpt lat="45.03456871213292" lon="8.63227613151165"><ele>84.0</ele><time>2026-04-19T06:44:20Z</time></trkpt><trkpt lat="45.03461880489942" lon="8.63220225960276"><ele>84.0</ele><time>2026-04-19T06:44:21Z</time></trkpt><trkpt lat="45.03467679313696" lon="8.632130532346462"><ele>84.0</ele><time>2026-04-19T06:44:21.999Z</time></trkpt><trkpt lat="45.03472979778183" lon="8.632057790955026"><ele>84.0</ele><time>2026-04-19T06:44:22.999Z</time></trkpt><trkpt lat="45.0347728609323" lon="8.631992009496823"><ele>84.0</ele><time>2026-04-19T06:44:23.999Z</time></trkpt><trkpt lat="45.034837260929656" lon="8.631905926292092"><ele>84.0</ele><time>2026-04-19T06:44:24.999Z</time></trkpt><trkpt lat="45.03490068060787" lon="8.631826287971078"><ele>84.0</ele><time>2026-04-19T06:44:25.999Z</time></trkpt><trkpt lat="45.035014324638546" lon="8.631735024553489"><ele>84.4</ele><time>2026-04-19T06:44:27.999Z</time></trkpt><trkpt lat="45.03509282191512" lon="8.631709836660544"><ele>84.80000000000001</ele><time>2026-04-19T06:44:28.999Z</time></trkpt><trkpt lat="45.03517486611926" lon="8.631699355635629"><ele>85.19999999999999</ele><time>2026-04-19T06:44:29.999Z</time></trkpt><trkpt lat="45.035265828150024" lon="8.631688632523057"><ele>85.6</ele><time>2026-04-19T06:44:30.999Z</time></trkpt><trkpt lat="45.03536281577477" lon="8.631662332861369"><ele>86.0</ele><time>2026-04-19T06:44:31.999Z</time></trkpt><trkpt lat="45.03546213091303" lon="8.631645694705222"><ele>86.0</ele><time>2026-04-19T06:44:32.999Z</time></trkpt><trkpt lat="45.035554943871006" lon="8.631628013012548"><ele>86.0</ele><time>2026-04-19T06:44:33.999Z</time></trkpt><trkpt lat="45.03563503502877" lon="8.631616521047935"><ele>86.0</ele><time>2026-04-19T06:44:34.999Z</time></trkpt><trkpt lat="45.03572126251887" lon="8.631591411822976"><ele>86.0</ele><time>2026-04-19T06:44:35.999Z</time></trkpt><trkpt lat="45.03579994861304" lon="8.631578875241313"><ele>86.0</ele><time>2026-04-19T06:44:36.999Z</time></trkpt><trkpt lat="45.03588626974073" lon="8.631564016235945"><ele>86.0</ele><time>2026-04-19T06:44:37.999Z</time></trkpt><trkpt lat="45.03598133432573" lon="8.631545805297144"><ele>86.00000000000001</ele><time>2026-04-19T06:44:38.999Z</time></trkpt><trkpt lat="45.03604888240802" lon="8.631539723883725"><ele>86.0</ele><time>2026-04-19T06:44:39.999Z</time></trkpt><trkpt lat="45.036127259643465" lon="8.63151509667658"><ele>86.0</ele><time>2026-04-19T06:44:40.999Z</time></trkpt><trkpt lat="45.036198210766784" lon="8.631491902412057"><ele>86.0</ele><time>2026-04-19T06:44:41.999Z</time></trkpt><trkpt lat="45.03627062860591" lon="8.631421572194888"><ele>86.0</ele><time>2026-04-19T06:44:42.999Z</time></trkpt><trkpt lat="45.03633203872507" lon="8.631372687365673"><ele>86.00000000000001</ele><time>2026-04-19T06:44:43.999Z</time></trkpt><trkpt lat="45.03638980391842" lon="8.631317978238052"><ele>86.0</ele><time>2026-04-19T06:44:44.999Z</time></trkpt><trkpt lat="45.03646145096316" lon="8.63125898959535"><ele>86.0</ele><time>2026-04-19T06:44:45.999Z</time></trkpt><trkpt lat="45.036535659908424" lon="8.631203139265143"><ele>86.0</ele><time>2026-04-19T06:44:46.999Z</time></trkpt><trkpt lat="45.03660871638139" lon="8.63114716433725"><ele>86.0</ele><time>2026-04-19T06:44:47.999Z</time></trkpt><trkpt lat="45.03667883051479" lon="8.631089348443567"><ele>86.0</ele><time>2026-04-19T06:44:48.999Z</time></trkpt><trkpt lat="45.03674407915354" lon="8.631045741048224"><ele>86.0</ele><time>2026-04-19T06:44:49.999Z</time></trkpt><trkpt lat="45.03680041136149" lon="8.630970442173753"><ele>86.0</ele><time>2026-04-19T06:44:50.999Z</time></trkpt><trkpt lat="45.036853664652995" lon="8.630884917603478"><ele>85.66666666666667</ele><time>2026-04-19T06:44:51.999Z</time></trkpt><trkpt lat="45.036944859468704" lon="8.630875695652888"><ele>85.33333333333334</ele><time>2026-04-19T06:44:52.999Z</time></trkpt><trkpt lat="45.03702031459007" lon="8.63081374557032"><ele>85.0</ele><time>2026-04-19T06:44:53.999Z</time></trkpt><trkpt lat="45.03709058933035" lon="8.63075673951998"><ele>84.66666666666667</ele><time>2026-04-19T06:44:54.999Z</time></trkpt><trkpt lat="45.037159320285184" lon="8.630706930909898"><ele>84.33333333333333</ele><time>2026-04-19T06:44:55.999Z</time></trkpt><trkpt lat="45.03722546528761" lon="8.630660801916202"><ele>84.0</ele><time>2026-04-19T06:44:56.999Z</time></trkpt><trkpt lat="45.03729080803743" lon="8.63060464064464"><ele>84.0</ele><time>2026-04-19T06:44:57.999Z</time></trkpt><trkpt lat="45.03736565940673" lon="8.630539564192956"><ele>84.0</ele><time>2026-04-19T06:44:58.999Z</time></trkpt><trkpt lat="45.03744794201854" lon="8.630483463397047"><ele>84.0</ele><time>2026-04-19T06:44:59.999Z</time></trkpt><trkpt lat="45.037519993578975" lon="8.630436746831"><ele>84.0</ele><time>2026-04-19T06:45:00.999Z</time></trkpt><trkpt lat="45.037594131827845" lon="8.630385086190621"><ele>84.0</ele><time>2026-04-19T06:45:01.999Z</time></trkpt><trkpt lat="45.03766238771882" lon="8.63034430178848"><ele>84.0</ele><time>2026-04-19T06:45:02.999Z</time></trkpt><trkpt lat="45.03772502445519" lon="8.630290334884329"><ele>84.16666666666667</ele><time>2026-04-19T06:45:03.999Z</time></trkpt><trkpt lat="45.03779217951575" lon="8.630245011103048"><ele>84.33333333333333</ele><time>2026-04-19T06:45:04.999Z</time></trkpt><trkpt lat="45.037865539880315" lon="8.630196216791765"><ele>84.5</ele><time>2026-04-19T06:45:05.999Z</time></trkpt><trkpt lat="45.03793936179488" lon="8.630156820489344"><ele>84.66666666666666</ele><time>2026-04-19T06:45:06.999Z</time></trkpt><trkpt lat="45.038007919138856" lon="8.630112818866902"><ele>84.83333333333333</ele><time>2026-04-19T06:45:07.999Z</time></trkpt><trkpt lat="45.03808099043836" lon="8.630066814072606"><ele>85.0</ele><time>2026-04-19T06:45:08.999Z</time></trkpt><trkpt lat="45.038149772044946" lon="8.630027497737228"><ele>85.0</ele><time>2026-04-19T06:45:10Z</time></trkpt><trkpt lat="45.038220582391006" lon="8.629980284621364"><ele>85.0</ele><time>2026-04-19T06:45:11Z</time></trkpt><trkpt lat="45.03829797280475" lon="8.629933188286431"><ele>85.0</ele><time>2026-04-19T06:45:12Z</time></trkpt><trkpt lat="45.0383739165581" lon="8.629883929431813"><ele>85.0</ele><time>2026-04-19T06:45:13Z</time></trkpt><trkpt lat="45.03845146472605" lon="8.629833196927724"><ele>85.0</ele><time>2026-04-19T06:45:14Z</time></trkpt><trkpt lat="45.03853227313274" lon="8.629781337188582"><ele>85.0</ele><time>2026-04-19T06:45:15Z</time></trkpt><trkpt lat="45.03861293990556" lon="8.629731411824556"><ele>85.16666666666666</ele><time>2026-04-19T06:45:16Z</time></trkpt><trkpt lat="45.03869226265596" lon="8.629676885867093"><ele>85.33333333333333</ele><time>2026-04-19T06:45:17Z</time></trkpt><trkpt lat="45.03877459455529" lon="8.629624501225994"><ele>85.5</ele><time>2026-04-19T06:45:18Z</time></trkpt><trkpt lat="45.03886006956868" lon="8.629573562680084"><ele>85.66666666666667</ele><time>2026-04-19T06:45:19Z</time></trkpt><trkpt lat="45.038943027227866" lon="8.629518646665986"><ele>85.83333333333334</ele><time>2026-04-19T06:45:20Z</time></trkpt><trkpt lat="45.03901543159442" lon="8.629466958737185"><ele>86.0</ele><time>2026-04-19T06:45:21Z</time></trkpt><trkpt lat="45.03908368470538" lon="8.629428610578184"><ele>86.16666666666667</ele><time>2026-04-19T06:45:22Z</time></trkpt><trkpt lat="45.0391563108763" lon="8.629387502518338"><ele>86.33333333333334</ele><time>2026-04-19T06:45:23Z</time></trkpt><trkpt lat="45.03922665210186" lon="8.629343817117853"><ele>86.5</ele><time>2026-04-19T06:45:24Z</time></trkpt><trkpt lat="45.03930089398514" lon="8.629293051979833"><ele>86.66666666666667</ele><time>2026-04-19T06:45:25Z</time></trkpt><trkpt lat="45.039373797462" lon="8.629241288704494"><ele>86.83333333333333</ele><time>2026-04-19T06:45:26Z</time></trkpt><trkpt lat="45.03945011841059" lon="8.62919778385149"><ele>87.0</ele><time>2026-04-19T06:45:27Z</time></trkpt><trkpt lat="45.03953476378047" lon="8.629137787231498"><ele>87.0</ele><time>2026-04-19T06:45:28Z</time></trkpt><trkpt lat="45.039626407780446" lon="8.629084741093278"><ele>87.0</ele><time>2026-04-19T06:45:29Z</time></trkpt><trkpt lat="45.03971482642551" lon="8.629026370909566"><ele>87.0</ele><time>2026-04-19T06:45:30Z</time></trkpt><trkpt lat="45.03978154044373" lon="8.628985453354336"><ele>87.0</ele><time>2026-04-19T06:45:31Z</time></trkpt><trkpt lat="45.03988473102557" lon="8.628918125489022"><ele>87.0</ele><time>2026-04-19T06:45:33Z</time></trkpt><trkpt lat="45.040003562871355" lon="8.628840609292947"><ele>87.0</ele><time>2026-04-19T06:45:35Z</time></trkpt><trkpt lat="45.04007216706297" lon="8.628797604103816"><ele>87.0</ele><time>2026-04-19T06:45:36Z</time></trkpt><trkpt lat="45.04014686814716" lon="8.628745061534596"><ele>87.0</ele><time>2026-04-19T06:45:37Z</time></trkpt><trkpt lat="45.040214823656726" lon="8.628704680820178"><ele>87.0</ele><time>2026-04-19T06:45:38Z</time></trkpt><trkpt lat="45.04033099688669" lon="8.628630433522794"><ele>87.0</ele><time>2026-04-19T06:45:40Z</time></trkpt><trkpt lat="45.04040286035486" lon="8.628579600688447"><ele>87.0</ele><time>2026-04-19T06:45:41Z</time></trkpt><trkpt lat="45.04047048860735" lon="8.628545224460813"><ele>87.0</ele><time>2026-04-19T06:45:42Z</time></trkpt><trkpt lat="45.04054039991447" lon="8.628495658432566"><ele>87.0</ele><time>2026-04-19T06:45:43Z</time></trkpt><trkpt lat="45.04061659642987" lon="8.628441265829174"><ele>87.0</ele><time>2026-04-19T06:45:44Z</time></trkpt><trkpt lat="45.04068867585251" lon="8.628399622503588"><ele>87.0</ele><time>2026-04-19T06:45:45Z</time></trkpt><trkpt lat="45.04076337033471" lon="8.62835160415343"><ele>87.0</ele><time>2026-04-19T06:45:46Z</time></trkpt><trkpt lat="45.04084254216118" lon="8.62830427880129"><ele>87.0</ele><time>2026-04-19T06:45:47Z</time></trkpt><trkpt lat="45.040924678929755" lon="8.628241150462298"><ele>87.16666666666667</ele><time>2026-04-19T06:45:48Z</time></trkpt><trkpt lat="45.041003006483436" lon="8.628200019663828"><ele>87.33333333333333</ele><time>2026-04-19T06:45:49Z</time></trkpt><trkpt lat="45.04108460340724" lon="8.628144642244479"><ele>87.5</ele><time>2026-04-19T06:45:50Z</time></trkpt><trkpt lat="45.04117049873189" lon="8.62809091730792"><ele>87.66666666666666</ele><time>2026-04-19T06:45:51Z</time></trkpt><trkpt lat="45.04125055379526" lon="8.628034038528527"><ele>87.83333333333333</ele><time>2026-04-19T06:45:52Z</time></trkpt><trkpt lat="45.04133371657953" lon="8.627980996425247"><ele>88.0</ele><time>2026-04-19T06:45:53Z</time></trkpt><trkpt lat="45.04141358397395" lon="8.627934549457837"><ele>88.0</ele><time>2026-04-19T06:45:54Z</time></trkpt><trkpt lat="45.04149853622009" lon="8.627885963040518"><ele>88.0</ele><time>2026-04-19T06:45:55Z</time></trkpt><trkpt lat="45.04157629519047" lon="8.627838536349643"><ele>88.0</ele><time>2026-04-19T06:45:56Z</time></trkpt><trkpt lat="45.04165773495381" lon="8.627790583997514"><ele>88.0</ele><time>2026-04-19T06:45:57Z</time></trkpt><trkpt lat="45.041730875384836" lon="8.627740519513429"><ele>88.0</ele><time>2026-04-19T06:45:58Z</time></trkpt><trkpt lat="45.041805936042245" lon="8.627687902252767"><ele>88.0</ele><time>2026-04-19T06:45:59Z</time></trkpt><trkpt lat="45.04188361349541" lon="8.627646867780337"><ele>87.83333333333333</ele><time>2026-04-19T06:46:00Z</time></trkpt><trkpt lat="45.04196386080188" lon="8.627611254825831"><ele>87.66666666666666</ele><time>2026-04-19T06:46:01Z</time></trkpt><trkpt lat="45.04204162525003" lon="8.627584570949336"><ele>87.5</ele><time>2026-04-19T06:46:02Z</time></trkpt><trkpt lat="45.042123086835865" lon="8.627556243757963"><ele>87.33333333333333</ele><time>2026-04-19T06:46:03Z</time></trkpt><trkpt lat="45.04220757854697" lon="8.627527509336316"><ele>87.16666666666667</ele><time>2026-04-19T06:46:04Z</time></trkpt><trkpt lat="45.04229453653442" lon="8.627500093668525"><ele>87.0</ele><time>2026-04-19T06:46:05Z</time></trkpt><trkpt lat="45.04237520785706" lon="8.627471420172688"><ele>87.0</ele><time>2026-04-19T06:46:06Z</time></trkpt><trkpt lat="45.04245374382287" lon="8.627444708707767"><ele>87.0</ele><time>2026-04-19T06:46:07Z</time></trkpt><trkpt lat="45.04253704920734" lon="8.627413080148521"><ele>87.0</ele><time>2026-04-19T06:46:08Z</time></trkpt><trkpt lat="45.04261173063557" lon="8.627386113690982"><ele>87.0</ele><time>2026-04-19T06:46:09Z</time></trkpt><trkpt lat="45.04268618427189" lon="8.627358385044396"><ele>87.0</ele><time>2026-04-19T06:46:10Z</time></trkpt><trkpt lat="45.042761861693954" lon="8.627332985741852"><ele>87.0</ele><time>2026-04-19T06:46:11Z</time></trkpt><trkpt lat="45.04283432097916" lon="8.627306910399415"><ele>87.16666666666667</ele><time>2026-04-19T06:46:12Z</time></trkpt><trkpt lat="45.042900337735716" lon="8.627289291962521"><ele>87.33333333333333</ele><time>2026-04-19T06:46:13Z</time></trkpt><trkpt lat="45.04301388336614" lon="8.627275279341704"><ele>87.5</ele><time>2026-04-19T06:46:15Z</time></trkpt><trkpt lat="45.04308372655495" lon="8.627243029554283"><ele>87.66666666666666</ele><time>2026-04-19T06:46:16Z</time></trkpt><trkpt lat="45.043167599122114" lon="8.627215939408991"><ele>87.83333333333333</ele><time>2026-04-19T06:46:17Z</time></trkpt><trkpt lat="45.043246646067544" lon="8.6271823543898"><ele>88.0</ele><time>2026-04-19T06:46:18Z</time></trkpt><trkpt lat="45.04332428585297" lon="8.627153354994498"><ele>88.14285714285714</ele><time>2026-04-19T06:46:19Z</time></trkpt><trkpt lat="45.04338801820186" lon="8.627137012072938"><ele>88.28571428571428</ele><time>2026-04-19T06:46:20Z</time></trkpt><trkpt lat="45.043452220488106" lon="8.627109280785577"><ele>88.42857142857142</ele><time>2026-04-19T06:46:21Z</time></trkpt><trkpt lat="45.043523147099" lon="8.62708085883671"><ele>88.57142857142857</ele><time>2026-04-19T06:46:22Z</time></trkpt><trkpt lat="45.04359570800309" lon="8.627058264676087"><ele>88.71428571428571</ele><time>2026-04-19T06:46:23Z</time></trkpt><trkpt lat="45.04366764884341" lon="8.627032082296536"><ele>88.85714285714285</ele><time>2026-04-19T06:46:23.999Z</time></trkpt><trkpt lat="45.04374001072051" lon="8.62700817856286"><ele>89.0</ele><time>2026-04-19T06:46:24.999Z</time></trkpt><trkpt lat="45.04381086208058" lon="8.626983737391674"><ele>89.0</ele><time>2026-04-19T06:46:25.999Z</time></trkpt><trkpt lat="45.043929509546224" lon="8.626939760277729"><ele>89.0</ele><time>2026-04-19T06:46:27.999Z</time></trkpt><trkpt lat="45.04405531774599" lon="8.626899084966219"><ele>89.0</ele><time>2026-04-19T06:46:29.999Z</time></trkpt><trkpt lat="45.044120716408464" lon="8.626875692991806"><ele>89.0</ele><time>2026-04-19T06:46:30.999Z</time></trkpt><trkpt lat="45.04419196512805" lon="8.62685485693981"><ele>89.0</ele><time>2026-04-19T06:46:31.999Z</time></trkpt><trkpt lat="45.04430755864693" lon="8.626811457903422"><ele>89.0</ele><time>2026-04-19T06:46:33.999Z</time></trkpt><trkpt lat="45.04440245212299" lon="8.62676788219396"><ele>89.0</ele><time>2026-04-19T06:46:35.999Z</time></trkpt><trkpt lat="45.04446640346279" lon="8.626739407787452"><ele>89.0</ele><time>2026-04-19T06:46:38.999Z</time></trkpt><trkpt lat="45.044486906618374" lon="8.626846673632096"><ele>89.0</ele><time>2026-04-19T06:46:57.999Z</time></trkpt><trkpt lat="45.044487083088036" lon="8.626956910503695"><ele>89.0</ele><time>2026-04-19T06:46:59.999Z</time></trkpt><trkpt lat="45.0445072049762" lon="8.627053161424467"><ele>89.0</ele><time>2026-04-19T06:47:00.999Z</time></trkpt><trkpt lat="45.0445304884661" lon="8.627147306297893"><ele>88.80000000000001</ele><time>2026-04-19T06:47:01.999Z</time></trkpt><trkpt lat="45.044557180837245" lon="8.627329857395466"><ele>88.60000000000001</ele><time>2026-04-19T06:47:03.999Z</time></trkpt><trkpt lat="45.04457835203782" lon="8.627453212992746"><ele>88.4</ele><time>2026-04-19T06:47:04.999Z</time></trkpt><trkpt lat="45.04460629138433" lon="8.62759567225227"><ele>88.2</ele><time>2026-04-19T06:47:05.999Z</time></trkpt><trkpt lat="45.0446298136159" lon="8.627724647419772"><ele>88.0</ele><time>2026-04-19T06:47:06.999Z</time></trkpt><trkpt lat="45.04465536961588" lon="8.627851285068123"><ele>87.80000000000001</ele><time>2026-04-19T06:47:07.999Z</time></trkpt><trkpt lat="45.044678080420034" lon="8.627965130609637"><ele>87.6</ele><time>2026-04-19T06:47:08.999Z</time></trkpt><trkpt lat="45.044701955029204" lon="8.628109302997442"><ele>87.4</ele><time>2026-04-19T06:47:09.999Z</time></trkpt><trkpt lat="45.04471800025415" lon="8.628229233920115"><ele>87.19999999999999</ele><time>2026-04-19T06:47:10.999Z</time></trkpt><trkpt lat="45.04473790378513" lon="8.628359812721268"><ele>87.0</ele><time>2026-04-19T06:47:11.999Z</time></trkpt><trkpt lat="45.04477083950044" lon="8.628515045656384"><ele>87.0</ele><time>2026-04-19T06:47:12.999Z</time></trkpt><trkpt lat="45.04479047184195" lon="8.628647874951819"><ele>87.0</ele><time>2026-04-19T06:47:13.999Z</time></trkpt><trkpt lat="45.044809703388" lon="8.628773065141862"><ele>87.0</ele><time>2026-04-19T06:47:14.999Z</time></trkpt><trkpt lat="45.04483612350944" lon="8.628884411286943"><ele>87.0</ele><time>2026-04-19T06:47:16Z</time></trkpt><trkpt lat="45.04485615804648" lon="8.62902709553278"><ele>87.0</ele><time>2026-04-19T06:47:17Z</time></trkpt><trkpt lat="45.04488073792542" lon="8.629150531994007"><ele>87.0</ele><time>2026-04-19T06:47:18Z</time></trkpt><trkpt lat="45.04490010466068" lon="8.629258825168343"><ele>87.0</ele><time>2026-04-19T06:47:19Z</time></trkpt><trkpt lat="45.04492048444406" lon="8.629356568171984"><ele>87.0</ele><time>2026-04-19T06:47:20Z</time></trkpt><trkpt lat="45.04493509640048" lon="8.629473180272925"><ele>87.0</ele><time>2026-04-19T06:47:21Z</time></trkpt><trkpt lat="45.0449521986745" lon="8.62956190067454"><ele>87.0</ele><time>2026-04-19T06:47:22Z</time></trkpt><trkpt lat="45.04497941763931" lon="8.629734091230898"><ele>87.0</ele><time>2026-04-19T06:47:24Z</time></trkpt><trkpt lat="45.045013281067554" lon="8.629827611464552"><ele>87.0</ele><time>2026-04-19T06:47:26Z</time></trkpt><trkpt lat="45.04498915011675" lon="8.629915026600427"><ele>87.0</ele><time>2026-04-19T06:47:46Z</time></trkpt><trkpt lat="45.044927668968285" lon="8.629891894772722"><ele>87.0</ele><time>2026-04-19T06:47:59Z</time></trkpt><trkpt lat="45.04498234402634" lon="8.6298140525369"><ele>87.0</ele><time>2026-04-19T06:48:03Z</time></trkpt><trkpt lat="45.04504070312887" lon="8.62985846809814"><ele>87.0</ele><time>2026-04-19T06:48:05Z</time></trkpt><trkpt lat="45.04509271857668" lon="8.629916907720064"><ele>87.0</ele><time>2026-04-19T06:48:06Z</time></trkpt><trkpt lat="45.045206780558175" lon="8.629909645253422"><ele>87.0</ele><time>2026-04-19T06:48:08Z</time></trkpt><trkpt lat="45.045286283604256" lon="8.629887039665356"><ele>87.0</ele><time>2026-04-19T06:48:09Z</time></trkpt><trkpt lat="45.04537333768059" lon="8.629866979786742"><ele>87.0</ele><time>2026-04-19T06:48:10Z</time></trkpt><trkpt lat="45.04547014782866" lon="8.629846770601992"><ele>87.0</ele><time>2026-04-19T06:48:11Z</time></trkpt><trkpt lat="45.04554365069484" lon="8.629836174449066"><ele>87.0</ele><time>2026-04-19T06:48:12Z</time></trkpt><trkpt lat="45.045614170697995" lon="8.629824875621035"><ele>87.0</ele><time>2026-04-19T06:48:13Z</time></trkpt><trkpt lat="45.04570191110166" lon="8.629807330251161"><ele>87.0</ele><time>2026-04-19T06:48:14Z</time></trkpt><trkpt lat="45.04578407598819" lon="8.62979207623617"><ele>87.0</ele><time>2026-04-19T06:48:15Z</time></trkpt><trkpt lat="45.045868502542916" lon="8.629774800656095"><ele>87.0</ele><time>2026-04-19T06:48:16Z</time></trkpt><trkpt lat="45.04594988320506" lon="8.629769760712914"><ele>87.0</ele><time>2026-04-19T06:48:17Z</time></trkpt><trkpt lat="45.04603767549305" lon="8.629757744865474"><ele>87.0</ele><time>2026-04-19T06:48:18Z</time></trkpt><trkpt lat="45.04611877618937" lon="8.629751281528534"><ele>87.0</ele><time>2026-04-19T06:48:19Z</time></trkpt><trkpt lat="45.04619599055428" lon="8.62973856459329"><ele>87.16666666666667</ele><time>2026-04-19T06:48:20Z</time></trkpt><trkpt lat="45.04628260136383" lon="8.629732345624173"><ele>87.33333333333333</ele><time>2026-04-19T06:48:21Z</time></trkpt><trkpt lat="45.04637205901716" lon="8.629727336599675"><ele>87.5</ele><time>2026-04-19T06:48:22Z</time></trkpt><trkpt lat="45.046452077438936" lon="8.629724174769867"><ele>87.66666666666666</ele><time>2026-04-19T06:48:23Z</time></trkpt><trkpt lat="45.04654123013013" lon="8.629707535587542"><ele>87.83333333333333</ele><time>2026-04-19T06:48:24Z</time></trkpt><trkpt lat="45.04662192332765" lon="8.629714336315464"><ele>88.0</ele><time>2026-04-19T06:48:25Z</time></trkpt><trkpt lat="45.046694011015504" lon="8.629694679485148"><ele>87.66666666666666</ele><time>2026-04-19T06:48:26Z</time></trkpt><trkpt lat="45.046812307366714" lon="8.629692929745495"><ele>87.33333333333333</ele><time>2026-04-19T06:48:28Z</time></trkpt><trkpt lat="45.04693191423288" lon="8.62968446024986"><ele>87.0</ele><time>2026-04-19T06:48:30Z</time></trkpt><trkpt lat="45.0470000665835" lon="8.629682041513275"><ele>86.66666666666667</ele><time>2026-04-19T06:48:31Z</time></trkpt><trkpt lat="45.04707185924598" lon="8.629680079517861"><ele>86.33333333333334</ele><time>2026-04-19T06:48:32Z</time></trkpt><trkpt lat="45.04713496613229" lon="8.62967784335263"><ele>86.0</ele><time>2026-04-19T06:48:32.999Z</time></trkpt><trkpt lat="45.04720106640773" lon="8.629654829994262"><ele>86.0</ele><time>2026-04-19T06:48:33.999Z</time></trkpt><trkpt lat="45.047270348961305" lon="8.629647102356401"><ele>86.0</ele><time>2026-04-19T06:48:34.999Z</time></trkpt><trkpt lat="45.04739182358425" lon="8.629641813997857"><ele>86.0</ele><time>2026-04-19T06:48:36.999Z</time></trkpt><trkpt lat="45.047492137726124" lon="8.629632135950919"><ele>86.0</ele><time>2026-04-19T06:48:38.999Z</time></trkpt><trkpt lat="45.047567442289676" lon="8.629627011660276"><ele>86.0</ele><time>2026-04-19T06:48:39.999Z</time></trkpt><trkpt lat="45.047654980241994" lon="8.62962121069274"><ele>86.0</ele><time>2026-04-19T06:48:40.999Z</time></trkpt><trkpt lat="45.04774816461269" lon="8.62962160952585"><ele>86.0</ele><time>2026-04-19T06:48:41.999Z</time></trkpt><trkpt lat="45.047831896975346" lon="8.629624105405318"><ele>86.0</ele><time>2026-04-19T06:48:42.999Z</time></trkpt><trkpt lat="45.047915443229364" lon="8.629628746538264"><ele>86.0</ele><time>2026-04-19T06:48:43.999Z</time></trkpt><trkpt lat="45.0479974202849" lon="8.629619043095209"><ele>86.0</ele><time>2026-04-19T06:48:44.999Z</time></trkpt><trkpt lat="45.04808086654256" lon="8.629614059856094"><ele>86.0</ele><time>2026-04-19T06:48:45.999Z</time></trkpt><trkpt lat="45.04816538860308" lon="8.629603119415798"><ele>86.0</ele><time>2026-04-19T06:48:46.999Z</time></trkpt><trkpt lat="45.04823959282324" lon="8.629600998971293"><ele>86.0</ele><time>2026-04-19T06:48:47.999Z</time></trkpt><trkpt lat="45.0483218523475" lon="8.629588499518066"><ele>86.0</ele><time>2026-04-19T06:48:48.999Z</time></trkpt><trkpt lat="45.048398191283674" lon="8.629586791204066"><ele>86.0</ele><time>2026-04-19T06:48:49.999Z</time></trkpt><trkpt lat="45.04848985140581" lon="8.629578362532722"><ele>86.0</ele><time>2026-04-19T06:48:50.999Z</time></trkpt><trkpt lat="45.04859590583571" lon="8.62956646496495"><ele>86.0</ele><time>2026-04-19T06:48:51.999Z</time></trkpt><trkpt lat="45.04868830299806" lon="8.62957500489243"><ele>86.0</ele><time>2026-04-19T06:48:52.999Z</time></trkpt><trkpt lat="45.04881866087985" lon="8.629611120638835"><ele>86.0</ele><time>2026-04-19T06:48:54.999Z</time></trkpt><trkpt lat="45.0488954065454" lon="8.6296372640226"><ele>86.0</ele><time>2026-04-19T06:48:55.999Z</time></trkpt><trkpt lat="45.04897833722201" lon="8.629643236439897"><ele>86.0</ele><time>2026-04-19T06:48:56.999Z</time></trkpt><trkpt lat="45.04904761554161" lon="8.62964011838718"><ele>86.0</ele><time>2026-04-19T06:48:57.999Z</time></trkpt><trkpt lat="45.049127459090315" lon="8.629640579132237"><ele>86.0</ele><time>2026-04-19T06:48:58.999Z</time></trkpt><trkpt lat="45.0492177671617" lon="8.629640442997996"><ele>86.0</ele><time>2026-04-19T06:48:59.999Z</time></trkpt><trkpt lat="45.049298198918066" lon="8.629643928823068"><ele>86.0</ele><time>2026-04-19T06:49:00.999Z</time></trkpt><trkpt lat="45.04937256967862" lon="8.629637807637907"><ele>86.0</ele><time>2026-04-19T06:49:01.999Z</time></trkpt><trkpt lat="45.04943906078788" lon="8.62963672913362"><ele>86.0</ele><time>2026-04-19T06:49:02.999Z</time></trkpt><trkpt lat="45.04952245295475" lon="8.629652362244316"><ele>86.0</ele><time>2026-04-19T06:49:03.999Z</time></trkpt><trkpt lat="45.0496041113486" lon="8.629647399069452"><ele>86.0</ele><time>2026-04-19T06:49:04.999Z</time></trkpt><trkpt lat="45.04967872778419" lon="8.629635433958281"><ele>86.0</ele><time>2026-04-19T06:49:05.999Z</time></trkpt><trkpt lat="45.04974519691453" lon="8.629619646131848"><ele>86.0</ele><time>2026-04-19T06:49:06.999Z</time></trkpt><trkpt lat="45.049812869524395" lon="8.629601647414813"><ele>86.0</ele><time>2026-04-19T06:49:07.999Z</time></trkpt><trkpt lat="45.04991570411711" lon="8.629569827639669"><ele>86.0</ele><time>2026-04-19T06:49:09.999Z</time></trkpt><trkpt lat="45.04998744218667" lon="8.629545915085103"><ele>86.0</ele><time>2026-04-19T06:49:11.999Z</time></trkpt><trkpt lat="45.05006293183347" lon="8.629500321241284"><ele>86.0</ele><time>2026-04-19T06:49:13.999Z</time></trkpt><trkpt lat="45.05012544422631" lon="8.629436363989344"><ele>92.0</ele><time>2026-04-19T06:49:15.999Z</time></trkpt><trkpt lat="45.05017540905867" lon="8.629363564380265"><ele>92.0</ele><time>2026-04-19T06:49:17.999Z</time></trkpt></trkseg><trkseg><trkpt lat="45.06100554416351" lon="8.619474808321792"><ele>90.0</ele><time>2026-04-19T06:59:28Z</time></trkpt><trkpt lat="45.06104718703016" lon="8.619407523416667"><ele>90.0</ele><time>2026-04-19T06:59:30Z</time></trkpt><trkpt lat="45.061092134918766" lon="8.61929208995338"><ele>90.0</ele><time>2026-04-19T06:59:32Z</time></trkpt><trkpt lat="45.06116486856121" lon="8.619147787470322"><ele>90.0</ele><time>2026-04-19T06:59:34Z</time></trkpt><trkpt lat="45.06121594456532" lon="8.619047535882085"><ele>90.0</ele><time>2026-04-19T06:59:35Z</time></trkpt><trkpt lat="45.06128828416765" lon="8.618925752589961"><ele>90.0</ele><time>2026-04-19T06:59:36Z</time></trkpt><trkpt lat="45.061354447489734" lon="8.618835295694627"><ele>90.0</ele><time>2026-04-19T06:59:37Z</time></trkpt><trkpt lat="45.06144446239406" lon="8.618738375588439"><ele>90.0</ele><time>2026-04-19T06:59:38Z</time></trkpt><trkpt lat="45.06154830034948" lon="8.618652391096798"><ele>90.0</ele><time>2026-04-19T06:59:39Z</time></trkpt><trkpt lat="45.06166831425537" lon="8.618584089655254"><ele>89.75</ele><time>2026-04-19T06:59:40Z</time></trkpt><trkpt lat="45.06178657932244" lon="8.618530978149272"><ele>89.5</ele><time>2026-04-19T06:59:41Z</time></trkpt><trkpt lat="45.06190907087977" lon="8.618485281282966"><ele>89.25</ele><time>2026-04-19T06:59:42Z</time></trkpt><trkpt lat="45.0620215000636" lon="8.618458074652175"><ele>89.0</ele><time>2026-04-19T06:59:43Z</time></trkpt><trkpt lat="45.06212142216713" lon="8.618449984252404"><ele>89.0</ele><time>2026-04-19T06:59:44Z</time></trkpt><trkpt lat="45.062207507997115" lon="8.618447383155187"><ele>89.0</ele><time>2026-04-19T06:59:45Z</time></trkpt><trkpt lat="45.062329415961784" lon="8.618441736719998"><ele>89.0</ele><time>2026-04-19T06:59:47Z</time></trkpt><trkpt lat="45.062426620886974" lon="8.61843411184323"><ele>89.0</ele><time>2026-04-19T06:59:48Z</time></trkpt><trkpt lat="45.062540552533" lon="8.618424843809287"><ele>89.0</ele><time>2026-04-19T06:59:49Z</time></trkpt><trkpt lat="45.06266202837351" lon="8.618413778579828"><ele>89.0</ele><time>2026-04-19T06:59:50Z</time></trkpt><trkpt lat="45.062793023852734" lon="8.618408082238222"><ele>89.0</ele><time>2026-04-19T06:59:51Z</time></trkpt><trkpt lat="45.06293128890784" lon="8.618409584240105"><ele>89.0</ele><time>2026-04-19T06:59:52Z</time></trkpt><trkpt lat="45.063070672989895" lon="8.61842010401113"><ele>89.0</ele><time>2026-04-19T06:59:53Z</time></trkpt><trkpt lat="45.063206629750056" lon="8.618427875803228"><ele>89.0</ele><time>2026-04-19T06:59:54Z</time></trkpt><trkpt lat="45.0633460987915" lon="8.618425630979171"><ele>89.0</ele><time>2026-04-19T06:59:55Z</time></trkpt><trkpt lat="45.063484634955394" lon="8.61842603949072"><ele>89.0</ele><time>2026-04-19T06:59:56Z</time></trkpt><trkpt lat="45.06363072228726" lon="8.61843115835653"><ele>89.0</ele><time>2026-04-19T06:59:57Z</time></trkpt><trkpt lat="45.06377700217971" lon="8.61844056388912"><ele>89.0</ele><time>2026-04-19T06:59:58Z</time></trkpt><trkpt lat="45.06392525105852" lon="8.618443449703312"><ele>89.0</ele><time>2026-04-19T06:59:59Z</time></trkpt><trkpt lat="45.06405474195572" lon="8.618444933051743"><ele>89.0</ele><time>2026-04-19T07:00:00Z</time></trkpt><trkpt lat="45.064186020496585" lon="8.61844599939553"><ele>89.0</ele><time>2026-04-19T07:00:01Z</time></trkpt><trkpt lat="45.06430843518552" lon="8.618449403155715"><ele>89.25</ele><time>2026-04-19T07:00:02Z</time></trkpt><trkpt lat="45.06443175555454" lon="8.618457503642734"><ele>89.5</ele><time>2026-04-19T07:00:03Z</time></trkpt><trkpt lat="45.06454183185461" lon="8.618466088348082"><ele>89.75</ele><time>2026-04-19T07:00:04Z</time></trkpt><trkpt lat="45.06465252195095" lon="8.618472421101611"><ele>90.0</ele><time>2026-04-19T07:00:05Z</time></trkpt><trkpt lat="45.06476194440359" lon="8.618480110645804"><ele>90.0</ele><time>2026-04-19T07:00:06Z</time></trkpt><trkpt lat="45.06487940512154" lon="8.618487984471571"><ele>90.0</ele><time>2026-04-19T07:00:07Z</time></trkpt><trkpt lat="45.06499833335741" lon="8.618494459469815"><ele>90.0</ele><time>2026-04-19T07:00:08Z</time></trkpt><trkpt lat="45.0651102333726" lon="8.618505946008439"><ele>90.0</ele><time>2026-04-19T07:00:09Z</time></trkpt><trkpt lat="45.06520255526003" lon="8.618504993364667"><ele>90.0</ele><time>2026-04-19T07:00:10Z</time></trkpt><trkpt lat="45.06529406731838" lon="8.618514110255862"><ele>90.0</ele><time>2026-04-19T07:00:11Z</time></trkpt><trkpt lat="45.065367443969926" lon="8.618519613727035"><ele>90.0</ele><time>2026-04-19T07:00:12Z</time></trkpt><trkpt lat="45.065455151524894" lon="8.61848772589513"><ele>90.0</ele><time>2026-04-19T07:00:14Z</time></trkpt><trkpt lat="45.065507409370525" lon="8.618402826485255"><ele>90.0</ele><time>2026-04-19T07:00:16Z</time></trkpt><trkpt lat="45.065492330361266" lon="8.618291164751705"><ele>90.0</ele><time>2026-04-19T07:00:20Z</time></trkpt><trkpt lat="45.06550360844609" lon="8.61818550191694"><ele>90.0</ele><time>2026-04-19T07:00:22Z</time></trkpt><trkpt lat="45.065494689846936" lon="8.618091900813335"><ele>90.0</ele><time>2026-04-19T07:00:23Z</time></trkpt><trkpt lat="45.06548493596411" lon="8.617997253834819"><ele>90.0</ele><time>2026-04-19T07:00:24Z</time></trkpt><trkpt lat="45.065459816750455" lon="8.617896172354646"><ele>90.0</ele><time>2026-04-19T07:00:25Z</time></trkpt><trkpt lat="45.06546152261831" lon="8.617749322138446"><ele>90.0</ele><time>2026-04-19T07:00:26Z</time></trkpt><trkpt lat="45.0654468927586" lon="8.617591448281312"><ele>90.0</ele><time>2026-04-19T07:00:27Z</time></trkpt><trkpt lat="45.06543087391089" lon="8.617413213667666"><ele>89.75</ele><time>2026-04-19T07:00:28Z</time></trkpt><trkpt lat="45.06541504392235" lon="8.617222364498227"><ele>89.5</ele><time>2026-04-19T07:00:29Z</time></trkpt><trkpt lat="45.06540039267578" lon="8.617045726441505"><ele>89.25</ele><time>2026-04-19T07:00:30Z</time></trkpt><trkpt lat="45.06538523459391" lon="8.616862977873623"><ele>89.0</ele><time>2026-04-19T07:00:31Z</time></trkpt><trkpt lat="45.06536982661593" lon="8.616677216511325"><ele>89.0</ele><time>2026-04-19T07:00:32Z</time></trkpt><trkpt lat="45.06535385814519" lon="8.616484697767342"><ele>89.0</ele><time>2026-04-19T07:00:33Z</time></trkpt><trkpt lat="45.065337652771674" lon="8.616294181995542"><ele>89.0</ele><time>2026-04-19T07:00:34Z</time></trkpt><trkpt lat="45.06532078364732" lon="8.616100476371548"><ele>89.0</ele><time>2026-04-19T07:00:35Z</time></trkpt><trkpt lat="45.06530404527017" lon="8.615908272102285"><ele>89.25</ele><time>2026-04-19T07:00:36Z</time></trkpt><trkpt lat="45.06528726845304" lon="8.615715626451381"><ele>89.5</ele><time>2026-04-19T07:00:37Z</time></trkpt><trkpt lat="45.06527043188126" lon="8.615522203018195"><ele>89.75</ele><time>2026-04-19T07:00:38Z</time></trkpt><trkpt lat="45.06525296400328" lon="8.615335119044571"><ele>90.0</ele><time>2026-04-19T07:00:39Z</time></trkpt><trkpt lat="45.06522103102621" lon="8.615154508742563"><ele>90.25</ele><time>2026-04-19T07:00:40Z</time></trkpt><trkpt lat="45.06521868192833" lon="8.614967952096077"><ele>90.5</ele><time>2026-04-19T07:00:41Z</time></trkpt><trkpt lat="45.06519225718456" lon="8.614783377608283"><ele>90.75</ele><time>2026-04-19T07:00:41.999Z</time></trkpt><trkpt lat="45.06516984456392" lon="8.614601310902023"><ele>91.0</ele><time>2026-04-19T07:00:42.999Z</time></trkpt><trkpt lat="45.06514415458876" lon="8.614426959297068"><ele>91.0</ele><time>2026-04-19T07:00:43.999Z</time></trkpt><trkpt lat="45.06512430662236" lon="8.614256777862566"><ele>91.0</ele><time>2026-04-19T07:00:44.999Z</time></trkpt><trkpt lat="45.06510527014113" lon="8.614084806771356"><ele>91.0</ele><time>2026-04-19T07:00:45.999Z</time></trkpt><trkpt lat="45.06508903601739" lon="8.613927821688009"><ele>91.0</ele><time>2026-04-19T07:00:46.999Z</time></trkpt><trkpt lat="45.065073360558834" lon="8.61376594263981"><ele>91.0</ele><time>2026-04-19T07:00:47.999Z</time></trkpt><trkpt lat="45.065059665156866" lon="8.613613203286677"><ele>91.0</ele><time>2026-04-19T07:00:48.999Z</time></trkpt><trkpt lat="45.06504826811411" lon="8.613460233120726"><ele>91.0</ele><time>2026-04-19T07:00:49.999Z</time></trkpt><trkpt lat="45.06504466994676" lon="8.61329621499586"><ele>91.0</ele><time>2026-04-19T07:00:50.999Z</time></trkpt><trkpt lat="45.06504762333958" lon="8.613139175940082"><ele>91.0</ele><time>2026-04-19T07:00:51.999Z</time></trkpt><trkpt lat="45.06505060358062" lon="8.612980709178757"><ele>91.0</ele><time>2026-04-19T07:00:52.999Z</time></trkpt><trkpt lat="45.065036809176085" lon="8.612890026912277"><ele>91.0</ele><time>2026-04-19T07:00:53.999Z</time></trkpt><trkpt lat="45.06503871365281" lon="8.612755838500393"><ele>91.0</ele><time>2026-04-19T07:00:54.999Z</time></trkpt><trkpt lat="45.06553788408384" lon="8.612561205720928"><ele>90.75</ele><time>2026-04-19T07:00:55.999Z</time></trkpt><trkpt lat="45.065646914534064" lon="8.612442956598782"><ele>90.5</ele><time>2026-04-19T07:00:56.999Z</time></trkpt><trkpt lat="45.065763524484545" lon="8.612339937620002"><ele>90.25</ele><time>2026-04-19T07:00:57.999Z</time></trkpt><trkpt lat="45.065882948845974" lon="8.61224476016017"><ele>90.0</ele><time>2026-04-19T07:00:58.999Z</time></trkpt><trkpt lat="45.06599317406946" lon="8.612166481880113"><ele>89.75</ele><time>2026-04-19T07:00:59.999Z</time></trkpt><trkpt lat="45.06610198877483" lon="8.612088312038411"><ele>89.5</ele><time>2026-04-19T07:01:00.999Z</time></trkpt><trkpt lat="45.06620052811746" lon="8.61200423243519"><ele>89.25</ele><time>2026-04-19T07:01:01.999Z</time></trkpt><trkpt lat="45.06630476981307" lon="8.61192631269439"><ele>89.0</ele><time>2026-04-19T07:01:02.999Z</time></trkpt><trkpt lat="45.066411336004265" lon="8.611849736327489"><ele>89.0</ele><time>2026-04-19T07:01:03.999Z</time></trkpt><trkpt lat="45.06651268323238" lon="8.611771649294703"><ele>89.0</ele><time>2026-04-19T07:01:04.999Z</time></trkpt><trkpt lat="45.066615534919535" lon="8.611694924738407"><ele>89.0</ele><time>2026-04-19T07:01:05.999Z</time></trkpt><trkpt lat="45.066709977986044" lon="8.611624965474151"><ele>89.0</ele><time>2026-04-19T07:01:06.999Z</time></trkpt><trkpt lat="45.066805356114955" lon="8.611545069863336"><ele>89.0</ele><time>2026-04-19T07:01:07.999Z</time></trkpt><trkpt lat="45.066908608833025" lon="8.611465332447999"><ele>89.2</ele><time>2026-04-19T07:01:08.999Z</time></trkpt><trkpt lat="45.06700648503516" lon="8.611386036456254"><ele>89.4</ele><time>2026-04-19T07:01:09.999Z</time></trkpt><trkpt lat="45.06709927853782" lon="8.611316936117912"><ele>89.6</ele><time>2026-04-19T07:01:10.999Z</time></trkpt><trkpt lat="45.06719508797871" lon="8.611244872464507"><ele>89.8</ele><time>2026-04-19T07:01:11.999Z</time></trkpt><trkpt lat="45.06728769912624" lon="8.611175657565424"><ele>90.0</ele><time>2026-04-19T07:01:12.999Z</time></trkpt><trkpt lat="45.067368565961985" lon="8.611112108677572"><ele>90.16666666666667</ele><time>2026-04-19T07:01:13.999Z</time></trkpt><trkpt lat="45.067444840310294" lon="8.611052322967902"><ele>90.33333333333333</ele><time>2026-04-19T07:01:14.999Z</time></trkpt><trkpt lat="45.06751600018872" lon="8.61100430932392"><ele>90.5</ele><time>2026-04-19T07:01:15.999Z</time></trkpt><trkpt lat="45.067586587788576" lon="8.61094957047801"><ele>90.66666666666666</ele><time>2026-04-19T07:01:16.999Z</time></trkpt><trkpt lat="45.06764773626483" lon="8.610893517190286"><ele>90.83333333333333</ele><time>2026-04-19T07:01:17.999Z</time></trkpt><trkpt lat="45.06771101716682" lon="8.610851223387883"><ele>91.0</ele><time>2026-04-19T07:01:18.999Z</time></trkpt><trkpt lat="45.067767214519264" lon="8.610801872588334"><ele>91.0</ele><time>2026-04-19T07:01:19.999Z</time></trkpt><trkpt lat="45.06787972439002" lon="8.610731868371545"><ele>91.0</ele><time>2026-04-19T07:01:21.999Z</time></trkpt><trkpt lat="45.0679704827931" lon="8.610657677974283"><ele>91.0</ele><time>2026-04-19T07:01:24Z</time></trkpt><trkpt lat="45.06804136554175" lon="8.610576577239472"><ele>91.0</ele><time>2026-04-19T07:01:26Z</time></trkpt><trkpt lat="45.06815416224302" lon="8.610465676503457"><ele>91.0</ele><time>2026-04-19T07:01:28Z</time></trkpt><trkpt lat="45.06824069105148" lon="8.610409645137345"><ele>91.0</ele><time>2026-04-19T07:01:29Z</time></trkpt><trkpt lat="45.06832735520741" lon="8.610345473990666"><ele>91.0</ele><time>2026-04-19T07:01:30Z</time></trkpt><trkpt lat="45.068423220674894" lon="8.61026590043228"><ele>91.0</ele><time>2026-04-19T07:01:31Z</time></trkpt><trkpt lat="45.06853136155777" lon="8.610183366245307"><ele>91.0</ele><time>2026-04-19T07:01:32Z</time></trkpt><trkpt lat="45.0686571090143" lon="8.610090595462783"><ele>91.0</ele><time>2026-04-19T07:01:33Z</time></trkpt><trkpt lat="45.0687750579183" lon="8.609998806876563"><ele>91.0</ele><time>2026-04-19T07:01:34Z</time></trkpt><trkpt lat="45.06888772851395" lon="8.609913693841648"><ele>91.0</ele><time>2026-04-19T07:01:35Z</time></trkpt><trkpt lat="45.06899337048371" lon="8.609830120290601"><ele>91.0</ele><time>2026-04-19T07:01:36Z</time></trkpt><trkpt lat="45.06910229698259" lon="8.609747178449561"><ele>91.19999999999999</ele><time>2026-04-19T07:01:37Z</time></trkpt><trkpt lat="45.06919504669235" lon="8.60967516163055"><ele>91.39999999999999</ele><time>2026-04-19T07:01:38Z</time></trkpt><trkpt lat="45.06928857554989" lon="8.609616163088946"><ele>91.6</ele><time>2026-04-19T07:01:39Z</time></trkpt><trkpt lat="45.069388825024454" lon="8.609575917157473"><ele>91.8</ele><time>2026-04-19T07:01:40Z</time></trkpt><trkpt lat="45.06949968568866" lon="8.60956422716929"><ele>92.0</ele><time>2026-04-19T07:01:41Z</time></trkpt><trkpt lat="45.06961185653696" lon="8.609596107997515"><ele>92.0</ele><time>2026-04-19T07:01:42Z</time></trkpt><trkpt lat="45.069725191271" lon="8.609650512259785"><ele>92.0</ele><time>2026-04-19T07:01:43Z</time></trkpt><trkpt lat="45.069840891314996" lon="8.609713696264244"><ele>92.0</ele><time>2026-04-19T07:01:44Z</time></trkpt><trkpt lat="45.06995836162246" lon="8.609754745923835"><ele>92.0</ele><time>2026-04-19T07:01:45Z</time></trkpt><trkpt lat="45.07006545015219" lon="8.60974925608271"><ele>91.8</ele><time>2026-04-19T07:01:46Z</time></trkpt><trkpt lat="45.07016076117744" lon="8.609700974235675"><ele>91.6</ele><time>2026-04-19T07:01:47Z</time></trkpt><trkpt lat="45.07024774613447" lon="8.609617948228287"><ele>91.39999999999999</ele><time>2026-04-19T07:01:48Z</time></trkpt><trkpt lat="45.07032499624357" lon="8.609533458345537"><ele>91.19999999999999</ele><time>2026-04-19T07:01:49Z</time></trkpt><trkpt lat="45.07040780130223" lon="8.60946305357624"><ele>91.0</ele><time>2026-04-19T07:01:50Z</time></trkpt><trkpt lat="45.07049660590503" lon="8.609377724498149"><ele>91.0</ele><time>2026-04-19T07:01:51Z</time></trkpt><trkpt lat="45.07059335151079" lon="8.609282152449525"><ele>91.0</ele><time>2026-04-19T07:01:52Z</time></trkpt><trkpt lat="45.07068873185895" lon="8.609176298419149"><ele>91.0</ele><time>2026-04-19T07:01:53Z</time></trkpt><trkpt lat="45.07078424957712" lon="8.609067440977503"><ele>91.0</ele><time>2026-04-19T07:01:54Z</time></trkpt><trkpt lat="45.070882739106395" lon="8.60895340117249"><ele>91.0</ele><time>2026-04-19T07:01:55Z</time></trkpt><trkpt lat="45.070978510183316" lon="8.608837502044281"><ele>91.0</ele><time>2026-04-19T07:01:56Z</time></trkpt><trkpt lat="45.071074269850065" lon="8.608721657784125"><ele>91.0</ele><time>2026-04-19T07:01:57Z</time></trkpt><trkpt lat="45.07117318876715" lon="8.608611411900458"><ele>91.0</ele><time>2026-04-19T07:01:58Z</time></trkpt><trkpt lat="45.07127243399768" lon="8.60849677445787"><ele>91.0</ele><time>2026-04-19T07:01:59Z</time></trkpt><trkpt lat="45.07137023111141" lon="8.608382679195048"><ele>91.0</ele><time>2026-04-19T07:02:00Z</time></trkpt><trkpt lat="45.07146727991689" lon="8.608269856448064"><ele>91.0</ele><time>2026-04-19T07:02:01Z</time></trkpt><trkpt lat="45.071561047646085" lon="8.60816214712397"><ele>91.0</ele><time>2026-04-19T07:02:02Z</time></trkpt><trkpt lat="45.07165211549443" lon="8.608058532214107"><ele>91.0</ele><time>2026-04-19T07:02:03Z</time></trkpt><trkpt lat="45.07173480799868" lon="8.60796019763726"><ele>91.0</ele><time>2026-04-19T07:02:04Z</time></trkpt><trkpt lat="45.07181788061661" lon="8.60785859064003"><ele>91.0</ele><time>2026-04-19T07:02:05Z</time></trkpt><trkpt lat="45.071907853784325" lon="8.607756080008134"><ele>91.0</ele><time>2026-04-19T07:02:06Z</time></trkpt><trkpt lat="45.07199652506609" lon="8.607652354354519"><ele>91.0</ele><time>2026-04-19T07:02:07Z</time></trkpt><trkpt lat="45.07208600589568" lon="8.607547606051629"><ele>91.0</ele><time>2026-04-19T07:02:08Z</time></trkpt><trkpt lat="45.07217359093282" lon="8.607436390520624"><ele>91.0</ele><time>2026-04-19T07:02:09Z</time></trkpt><trkpt lat="45.07225988796246" lon="8.60732246292732"><ele>91.0</ele><time>2026-04-19T07:02:10Z</time></trkpt><trkpt lat="45.072341853575274" lon="8.607222235936062"><ele>91.0</ele><time>2026-04-19T07:02:11Z</time></trkpt><trkpt lat="45.07241367446359" lon="8.60713120586179"><ele>91.0</ele><time>2026-04-19T07:02:12Z</time></trkpt><trkpt lat="45.072494804508025" lon="8.607034190210175"><ele>91.0</ele><time>2026-04-19T07:02:13Z</time></trkpt><trkpt lat="45.07258238729038" lon="8.606938582938888"><ele>91.0</ele><time>2026-04-19T07:02:14Z</time></trkpt><trkpt lat="45.07267121945968" lon="8.60684201550992"><ele>91.0</ele><time>2026-04-19T07:02:15Z</time></trkpt><trkpt lat="45.072755586376346" lon="8.606757724330988"><ele>91.0</ele><time>2026-04-19T07:02:16Z</time></trkpt><trkpt lat="45.07283886035454" lon="8.606688168937405"><ele>91.0</ele><time>2026-04-19T07:02:17Z</time></trkpt><trkpt lat="45.07291454696621" lon="8.606644577651105"><ele>91.0</ele><time>2026-04-19T07:02:18Z</time></trkpt><trkpt lat="45.07300131634338" lon="8.606563743262821"><ele>91.0</ele><time>2026-04-19T07:02:20Z</time></trkpt><trkpt lat="45.0730845387993" lon="8.60657572416165"><ele>91.0</ele><time>2026-04-19T07:02:23Z</time></trkpt><trkpt lat="45.073186690214726" lon="8.606588384395614"><ele>91.0</ele><time>2026-04-19T07:02:25Z</time></trkpt><trkpt lat="45.07325604683128" lon="8.606598333326108"><ele>91.0</ele><time>2026-04-19T07:02:27Z</time></trkpt><trkpt lat="45.073330323079034" lon="8.606610534637463"><ele>91.0</ele><time>2026-04-19T07:02:31Z</time></trkpt><trkpt lat="45.07326776668651" lon="8.606600268114827"><ele>91.0</ele><time>2026-04-19T07:03:06.999Z</time></trkpt><trkpt lat="45.07318786583703" lon="8.606588553032653"><ele>91.0</ele><time>2026-04-19T07:03:09.999Z</time></trkpt><trkpt lat="45.07310280721457" lon="8.606556521228923"><ele>91.0</ele><time>2026-04-19T07:03:12.999Z</time></trkpt><trkpt lat="45.07300147420242" lon="8.606558172654065"><ele>91.0</ele><time>2026-04-19T07:03:15.999Z</time></trkpt><trkpt lat="45.072917446746985" lon="8.606553197436932"><ele>91.0</ele><time>2026-04-19T07:03:17.999Z</time></trkpt><trkpt lat="45.07282579194015" lon="8.606612441121339"><ele>91.0</ele><time>2026-04-19T07:03:19.999Z</time></trkpt><trkpt lat="45.072765599305875" lon="8.606655121590393"><ele>91.0</ele><time>2026-04-19T07:03:20.999Z</time></trkpt><trkpt lat="45.072663389082564" lon="8.606732262335841"><ele>91.0</ele><time>2026-04-19T07:03:22.999Z</time></trkpt><trkpt lat="45.07260917539839" lon="8.606782148266603"><ele>91.0</ele><time>2026-04-19T07:03:23.999Z</time></trkpt><trkpt lat="45.072509826173075" lon="8.606825464622098"><ele>91.0</ele><time>2026-04-19T07:03:25.999Z</time></trkpt><trkpt lat="45.072403716902194" lon="8.606797310506167"><ele>91.14285714285714</ele><time>2026-04-19T07:03:27.999Z</time></trkpt><trkpt lat="45.07234552013455" lon="8.606760502662546"><ele>91.28571428571428</ele><time>2026-04-19T07:03:29Z</time></trkpt><trkpt lat="45.07228200374833" lon="8.606723143285645"><ele>91.42857142857143</ele><time>2026-04-19T07:03:30Z</time></trkpt><trkpt lat="45.072218577844794" lon="8.606687817725733"><ele>91.57142857142857</ele><time>2026-04-19T07:03:31Z</time></trkpt><trkpt lat="45.0721760289369" lon="8.606613550941963"><ele>91.71428571428571</ele><time>2026-04-19T07:03:32Z</time></trkpt><trkpt lat="45.07211144256365" lon="8.606596110685604"><ele>91.85714285714286</ele><time>2026-04-19T07:03:33Z</time></trkpt><trkpt lat="45.07206063532931" lon="8.606536430203219"><ele>92.0</ele><time>2026-04-19T07:03:34Z</time></trkpt><trkpt lat="45.07197856745293" lon="8.606479767807407"><ele>92.0</ele><time>2026-04-19T07:03:36Z</time></trkpt><trkpt lat="45.07192373661955" lon="8.606427579229775"><ele>92.0</ele><time>2026-04-19T07:03:38Z</time></trkpt><trkpt lat="45.07187906078041" lon="8.606354261383785"><ele>92.0</ele><time>2026-04-19T07:03:40Z</time></trkpt><trkpt lat="45.07181327250715" lon="8.606343082297682"><ele>92.0</ele><time>2026-04-19T07:03:41Z</time></trkpt><trkpt lat="45.07173552835476" lon="8.606358597571809"><ele>92.0</ele><time>2026-04-19T07:03:42Z</time></trkpt><trkpt lat="45.07165484238893" lon="8.606322934866965"><ele>92.0</ele><time>2026-04-19T07:03:43Z</time></trkpt><trkpt lat="45.07158910881157" lon="8.606300173672839"><ele>92.0</ele><time>2026-04-19T07:03:44Z</time></trkpt><trkpt lat="45.07151482837152" lon="8.60627516221049"><ele>92.0</ele><time>2026-04-19T07:03:45Z</time></trkpt><trkpt lat="45.07144641779721" lon="8.606274260604522"><ele>92.0</ele><time>2026-04-19T07:03:46Z</time></trkpt><trkpt lat="45.071340959032945" lon="8.606196960343999"><ele>92.0</ele><time>2026-04-19T07:03:48Z</time></trkpt><trkpt lat="45.07131281637827" lon="8.606071738431272"><ele>92.0</ele><time>2026-04-19T07:03:49Z</time></trkpt><trkpt lat="45.07124037413361" lon="8.605964425089436"><ele>92.0</ele><time>2026-04-19T07:03:50Z</time></trkpt><trkpt lat="45.071177033594225" lon="8.605873558901466"><ele>92.25</ele><time>2026-04-19T07:03:51Z</time></trkpt><trkpt lat="45.071075208212584" lon="8.605811205840944"><ele>92.5</ele><time>2026-04-19T07:03:52Z</time></trkpt><trkpt lat="45.0709711968754" lon="8.605746788031682"><ele>92.75</ele><time>2026-04-19T07:03:53Z</time></trkpt><trkpt lat="45.070867102552945" lon="8.605679645300576"><ele>93.0</ele><time>2026-04-19T07:03:54Z</time></trkpt><trkpt lat="45.07076788532968" lon="8.605600328983218"><ele>93.0</ele><time>2026-04-19T07:03:55Z</time></trkpt><trkpt lat="45.07066222013" lon="8.605544501454833"><ele>93.0</ele><time>2026-04-19T07:03:56Z</time></trkpt><trkpt lat="45.07056536971914" lon="8.60550319921878"><ele>93.0</ele><time>2026-04-19T07:03:57Z</time></trkpt><trkpt lat="45.07045445879619" lon="8.60549796300253"><ele>93.0</ele><time>2026-04-19T07:03:58Z</time></trkpt><trkpt lat="45.07033989860706" lon="8.605487293095155"><ele>93.0</ele><time>2026-04-19T07:03:59Z</time></trkpt><trkpt lat="45.07021970544158" lon="8.605478478367527"><ele>93.0</ele><time>2026-04-19T07:04:00Z</time></trkpt><trkpt lat="45.07009901195626" lon="8.605478017150363"><ele>93.0</ele><time>2026-04-19T07:04:01Z</time></trkpt><trkpt lat="45.06998650030185" lon="8.605460841102385"><ele>93.0</ele><time>2026-04-19T07:04:02Z</time></trkpt><trkpt lat="45.06989445677146" lon="8.605479622589835"><ele>93.0</ele><time>2026-04-19T07:04:03Z</time></trkpt><trkpt lat="45.06981628264233" lon="8.605462081497704"><ele>93.0</ele><time>2026-04-19T07:04:04Z</time></trkpt><trkpt lat="45.069641271383844" lon="8.605507301100415"><ele>93.0</ele><time>2026-04-19T07:04:06Z</time></trkpt><trkpt lat="45.06954294000244" lon="8.605504831300713"><ele>93.0</ele><time>2026-04-19T07:04:07Z</time></trkpt><trkpt lat="45.06944955060822" lon="8.605456780005783"><ele>93.0</ele><time>2026-04-19T07:04:08Z</time></trkpt><trkpt lat="45.06935047026511" lon="8.605402844928111"><ele>93.0</ele><time>2026-04-19T07:04:09Z</time></trkpt><trkpt lat="45.06924393044424" lon="8.605343471723682"><ele>93.0</ele><time>2026-04-19T07:04:10Z</time></trkpt><trkpt lat="45.06913081200206" lon="8.605278977845284"><ele>92.75</ele><time>2026-04-19T07:04:11Z</time></trkpt><trkpt lat="45.06900916963262" lon="8.605209624091751"><ele>92.5</ele><time>2026-04-19T07:04:12Z</time></trkpt><trkpt lat="45.0688826333889" lon="8.605137480122892"><ele>92.25</ele><time>2026-04-19T07:04:13Z</time></trkpt><trkpt lat="45.068762942071636" lon="8.605069238752007"><ele>92.0</ele><time>2026-04-19T07:04:14Z</time></trkpt><trkpt lat="45.06865711300951" lon="8.605008900871285"><ele>92.0</ele><time>2026-04-19T07:04:15Z</time></trkpt><trkpt lat="45.068558622372024" lon="8.60495327408706"><ele>92.0</ele><time>2026-04-19T07:04:16Z</time></trkpt><trkpt lat="45.06847579135868" lon="8.604910621457002"><ele>92.0</ele><time>2026-04-19T07:04:17Z</time></trkpt><trkpt lat="45.068413567924246" lon="8.604873598356512"><ele>92.0</ele><time>2026-04-19T07:04:18Z</time></trkpt><trkpt lat="45.06832715217553" lon="8.604713039481961"><ele>92.0</ele><time>2026-04-19T07:04:20Z</time></trkpt><trkpt lat="45.068310590319676" lon="8.6045786426519"><ele>92.0</ele><time>2026-04-19T07:04:21Z</time></trkpt><trkpt lat="45.06832085120656" lon="8.604416000615988"><ele>92.0</ele><time>2026-04-19T07:04:22Z</time></trkpt><trkpt lat="45.06837924662135" lon="8.604233082381713"><ele>92.0</ele><time>2026-04-19T07:04:23Z</time></trkpt><trkpt lat="45.06844458694011" lon="8.603998659018153"><ele>92.0</ele><time>2026-04-19T07:04:24Z</time></trkpt><trkpt lat="45.068522836182744" lon="8.603707980007101"><ele>91.75</ele><time>2026-04-19T07:04:25Z</time></trkpt><trkpt lat="45.06858815055347" lon="8.603479273500446"><ele>91.5</ele><time>2026-04-19T07:04:26Z</time></trkpt><trkpt lat="45.068635270959696" lon="8.603280840817249"><ele>91.25</ele><time>2026-04-19T07:04:27Z</time></trkpt><trkpt lat="45.06868537459832" lon="8.603133930273462"><ele>91.0</ele><time>2026-04-19T07:04:28Z</time></trkpt><trkpt lat="45.06871654497046" lon="8.602996405157219"><ele>91.0</ele><time>2026-04-19T07:04:29Z</time></trkpt><trkpt lat="45.06871794036532" lon="8.60287464688966"><ele>91.0</ele><time>2026-04-19T07:04:30Z</time></trkpt><trkpt lat="45.0687183808662" lon="8.602774853663457"><ele>91.0</ele><time>2026-04-19T07:04:31Z</time></trkpt><trkpt lat="45.06871750335767" lon="8.602645589107501"><ele>91.0</ele><time>2026-04-19T07:04:33Z</time></trkpt><trkpt lat="45.068722446456505" lon="8.602490607309466"><ele>91.0</ele><time>2026-04-19T07:04:38Z</time></trkpt><trkpt lat="45.06859641781126" lon="8.60243081165393"><ele>91.0</ele><time>2026-04-19T07:04:39Z</time></trkpt><trkpt lat="45.068509623863875" lon="8.602356066154998"><ele>91.0</ele><time>2026-04-19T07:04:40Z</time></trkpt><trkpt lat="45.068406746884605" lon="8.602253047521046"><ele>91.0</ele><time>2026-04-19T07:04:41Z</time></trkpt><trkpt lat="45.06828923924965" lon="8.602115289067356"><ele>91.0</ele><time>2026-04-19T07:04:42Z</time></trkpt><trkpt lat="45.06815724155552" lon="8.601934255780039"><ele>91.0</ele><time>2026-04-19T07:04:43Z</time></trkpt><trkpt lat="45.06800304496769" lon="8.601750583173226"><ele>91.0</ele><time>2026-04-19T07:04:44Z</time></trkpt><trkpt lat="45.06782678454748" lon="8.601567058097709"><ele>91.0</ele><time>2026-04-19T07:04:45Z</time></trkpt><trkpt lat="45.067646317052194" lon="8.601347507832635"><ele>91.0</ele><time>2026-04-19T07:04:46Z</time></trkpt><trkpt lat="45.067439939603865" lon="8.601097949511303"><ele>91.0</ele><time>2026-04-19T07:04:47Z</time></trkpt><trkpt lat="45.0672448301294" lon="8.600863878427798"><ele>91.0</ele><time>2026-04-19T07:04:48Z</time></trkpt><trkpt lat="45.06705967073884" lon="8.600689221282881"><ele>91.0</ele><time>2026-04-19T07:04:49Z</time></trkpt><trkpt lat="45.06690221116495" lon="8.600538790161565"><ele>91.0</ele><time>2026-04-19T07:04:50Z</time></trkpt><trkpt lat="45.06675400523869" lon="8.600383613110314"><ele>91.33333333333333</ele><time>2026-04-19T07:04:51Z</time></trkpt><trkpt lat="45.06658744761347" lon="8.6002490986243"><ele>91.66666666666667</ele><time>2026-04-19T07:04:52Z</time></trkpt><trkpt lat="45.06639198338471" lon="8.600130151677018"><ele>92.0</ele><time>2026-04-19T07:04:53Z</time></trkpt><trkpt lat="45.066204829977416" lon="8.600003772921452"><ele>92.0</ele><time>2026-04-19T07:04:54Z</time></trkpt><trkpt lat="45.066030452204025" lon="8.599915075718583"><ele>92.0</ele><time>2026-04-19T07:04:55Z</time></trkpt><trkpt lat="45.06587134396798" lon="8.599807371536606"><ele>92.0</ele><time>2026-04-19T07:04:56Z</time></trkpt><trkpt lat="45.06570701037467" lon="8.599725506392426"><ele>91.5</ele><time>2026-04-19T07:04:57Z</time></trkpt><trkpt lat="45.06556779981366" lon="8.599665777487148"><ele>91.0</ele><time>2026-04-19T07:04:58Z</time></trkpt><trkpt lat="45.06542787919088" lon="8.599619380305025"><ele>90.5</ele><time>2026-04-19T07:04:58.999Z</time></trkpt><trkpt lat="45.06529691051243" lon="8.599607939513389"><ele>90.0</ele><time>2026-04-19T07:04:59.999Z</time></trkpt><trkpt lat="45.065179511466326" lon="8.599559879503346"><ele>90.0</ele><time>2026-04-19T07:05:00.999Z</time></trkpt><trkpt lat="45.06507108859199" lon="8.599536061290042"><ele>90.0</ele><time>2026-04-19T07:05:01.999Z</time></trkpt><trkpt lat="45.06496715651659" lon="8.59951256216957"><ele>90.0</ele><time>2026-04-19T07:05:02.999Z</time></trkpt><trkpt lat="45.06487284052683" lon="8.599489145142138"><ele>90.0</ele><time>2026-04-19T07:05:03.999Z</time></trkpt><trkpt lat="45.064789313402926" lon="8.599470756495375"><ele>90.0</ele><time>2026-04-19T07:05:04.999Z</time></trkpt><trkpt lat="45.06472768283221" lon="8.599416200377652"><ele>90.2</ele><time>2026-04-19T07:05:05.999Z</time></trkpt><trkpt lat="45.0646995507176" lon="8.599331819579177"><ele>90.4</ele><time>2026-04-19T07:05:06.999Z</time></trkpt><trkpt lat="45.06464676153527" lon="8.599259810113077"><ele>90.6</ele><time>2026-04-19T07:05:08.999Z</time></trkpt><trkpt lat="45.06455906007165" lon="8.59924141919969"><ele>90.8</ele><time>2026-04-19T07:05:19.999Z</time></trkpt><trkpt lat="45.06445723392877" lon="8.599270280306095"><ele>91.0</ele><time>2026-04-19T07:05:21.999Z</time></trkpt><trkpt lat="45.0643192293449" lon="8.599308813795174"><ele>91.0</ele><time>2026-04-19T07:05:23.999Z</time></trkpt><trkpt lat="45.06423532399983" lon="8.599298535366227"><ele>91.0</ele><time>2026-04-19T07:05:24.999Z</time></trkpt><trkpt lat="45.0641337105974" lon="8.599271833659552"><ele>91.0</ele><time>2026-04-19T07:05:25.999Z</time></trkpt><trkpt lat="45.06403121574472" lon="8.599238301704688"><ele>91.0</ele><time>2026-04-19T07:05:26.999Z</time></trkpt><trkpt lat="45.06393261009124" lon="8.59916968589035"><ele>91.0</ele><time>2026-04-19T07:05:27.999Z</time></trkpt><trkpt lat="45.063821708613965" lon="8.599116872029187"><ele>92.0</ele><time>2026-04-19T07:05:28.999Z</time></trkpt><trkpt lat="45.06370855569805" lon="8.599057903205994"><ele>93.0</ele><time>2026-04-19T07:05:29.999Z</time></trkpt><trkpt lat="45.06358557303566" lon="8.59900178926915"><ele>94.0</ele><time>2026-04-19T07:05:30.999Z</time></trkpt><trkpt lat="45.06345617156355" lon="8.598979141174556"><ele>95.0</ele><time>2026-04-19T07:05:31.999Z</time></trkpt><trkpt lat="45.063334701675615" lon="8.598962715687726"><ele>96.5</ele><time>2026-04-19T07:05:32.999Z</time></trkpt><trkpt lat="45.06320462460424" lon="8.598978362086333"><ele>98.0</ele><time>2026-04-19T07:05:34Z</time></trkpt><trkpt lat="45.06307782847853" lon="8.599032164203708"><ele>99.5</ele><time>2026-04-19T07:05:35Z</time></trkpt><trkpt lat="45.06296121851648" lon="8.599099825797396"><ele>101.0</ele><time>2026-04-19T07:05:36Z</time></trkpt><trkpt lat="45.06284684158467" lon="8.599167168199005"><ele>101.0</ele><time>2026-04-19T07:05:37Z</time></trkpt><trkpt lat="45.06273139290205" lon="8.599233367032294"><ele>101.0</ele><time>2026-04-19T07:05:38Z</time></trkpt><trkpt lat="45.06260688629371" lon="8.599277136537715"><ele>101.0</ele><time>2026-04-19T07:05:39Z</time></trkpt><trkpt lat="45.06249345183463" lon="8.599353778194027"><ele>101.0</ele><time>2026-04-19T07:05:40Z</time></trkpt><trkpt lat="45.06236027386241" lon="8.599400857864904"><ele>100.25</ele><time>2026-04-19T07:05:41Z</time></trkpt><trkpt lat="45.06221564287246" lon="8.599445152872754"><ele>99.5</ele><time>2026-04-19T07:05:42Z</time></trkpt><trkpt lat="45.06213619331073" lon="8.599538465254795"><ele>98.75</ele><time>2026-04-19T07:05:43Z</time></trkpt><trkpt lat="45.062031168061516" lon="8.599570688366002"><ele>98.0</ele><time>2026-04-19T07:05:44Z</time></trkpt><trkpt lat="45.061941452204294" lon="8.599619724512976"><ele>98.0</ele><time>2026-04-19T07:05:45Z</time></trkpt><trkpt lat="45.06185054915832" lon="8.599597870605328"><ele>98.0</ele><time>2026-04-19T07:05:46Z</time></trkpt><trkpt lat="45.06175929373761" lon="8.599511571481743"><ele>98.0</ele><time>2026-04-19T07:05:47Z</time></trkpt><trkpt lat="45.0616718466693" lon="8.599361417741184"><ele>98.0</ele><time>2026-04-19T07:05:48Z</time></trkpt><trkpt lat="45.061594419049065" lon="8.599161122264746"><ele>98.0</ele><time>2026-04-19T07:05:49Z</time></trkpt><trkpt lat="45.061469169380544" lon="8.598977790667576"><ele>98.0</ele><time>2026-04-19T07:05:50Z</time></trkpt><trkpt lat="45.06132950286259" lon="8.598778354553323"><ele>98.0</ele><time>2026-04-19T07:05:51Z</time></trkpt><trkpt lat="45.06118602623929" lon="8.598573477931618"><ele>97.5</ele><time>2026-04-19T07:05:52Z</time></trkpt><trkpt lat="45.06107657468969" lon="8.598416340705201"><ele>97.0</ele><time>2026-04-19T07:05:53Z</time></trkpt><trkpt lat="45.06098984341378" lon="8.59827568935862"><ele>96.5</ele><time>2026-04-19T07:05:54Z</time></trkpt><trkpt lat="45.060929752949185" lon="8.598133343988241"><ele>96.0</ele><time>2026-04-19T07:05:55Z</time></trkpt><trkpt lat="45.06090127606826" lon="8.597975398500468"><ele>97.0</ele><time>2026-04-19T07:05:56Z</time></trkpt><trkpt lat="45.06089191833091" lon="8.597802604549882"><ele>98.0</ele><time>2026-04-19T07:05:57Z</time></trkpt><trkpt lat="45.06090378076874" lon="8.597615062920724"><ele>99.0</ele><time>2026-04-19T07:05:58Z</time></trkpt><trkpt lat="45.06096457065118" lon="8.597435471683706"><ele>100.0</ele><time>2026-04-19T07:05:59Z</time></trkpt><trkpt lat="45.06103414868273" lon="8.597254651067518"><ele>100.0</ele><time>2026-04-19T07:06:00Z</time></trkpt><trkpt lat="45.06111623528336" lon="8.597069764730275"><ele>100.0</ele><time>2026-04-19T07:06:01Z</time></trkpt><trkpt lat="45.06120426866588" lon="8.596874730409453"><ele>100.0</ele><time>2026-04-19T07:06:02Z</time></trkpt><trkpt lat="45.06129240471004" lon="8.59668841414533"><ele>100.4</ele><time>2026-04-19T07:06:03Z</time></trkpt><trkpt lat="45.06136156208416" lon="8.596533289837467"><ele>100.8</ele><time>2026-04-19T07:06:04Z</time></trkpt><trkpt lat="45.061412310115855" lon="8.596399763144325"><ele>101.19999999999999</ele><time>2026-04-19T07:06:05Z</time></trkpt><trkpt lat="45.06145564068595" lon="8.596277962080148"><ele>101.6</ele><time>2026-04-19T07:06:06Z</time></trkpt><trkpt lat="45.061464588491184" lon="8.596170472223678"><ele>102.0</ele><time>2026-04-19T07:06:07Z</time></trkpt><trkpt lat="45.06143561990813" lon="8.596069866583896"><ele>103.39999999999999</ele><time>2026-04-19T07:06:08Z</time></trkpt><trkpt lat="45.06136417281306" lon="8.595988682342137"><ele>104.8</ele><time>2026-04-19T07:06:09Z</time></trkpt><trkpt lat="45.06126040851454" lon="8.595956222839941"><ele>106.2</ele><time>2026-04-19T07:06:10Z</time></trkpt><trkpt lat="45.06114560644676" lon="8.595974187102426"><ele>107.6</ele><time>2026-04-19T07:06:11Z</time></trkpt><trkpt lat="45.061025134054404" lon="8.596043523848119"><ele>109.0</ele><time>2026-04-19T07:06:12Z</time></trkpt><trkpt lat="45.06089220492318" lon="8.596143946465354"><ele>108.0</ele><time>2026-04-19T07:06:13Z</time></trkpt><trkpt lat="45.06077887134299" lon="8.596197536183007"><ele>107.0</ele><time>2026-04-19T07:06:14Z</time></trkpt><trkpt lat="45.06066117072749" lon="8.596216688614646"><ele>106.0</ele><time>2026-04-19T07:06:15Z</time></trkpt><trkpt lat="45.06053919569279" lon="8.596215427726104"><ele>105.0</ele><time>2026-04-19T07:06:16Z</time></trkpt><trkpt lat="45.060408127889964" lon="8.596200594736706"><ele>105.5</ele><time>2026-04-19T07:06:17Z</time></trkpt><trkpt lat="45.06027223527999" lon="8.596169557344753"><ele>106.0</ele><time>2026-04-19T07:06:18Z</time></trkpt><trkpt lat="45.06014441679094" lon="8.596124443711265"><ele>106.5</ele><time>2026-04-19T07:06:19Z</time></trkpt><trkpt lat="45.06000891735529" lon="8.596054699476538"><ele>107.0</ele><time>2026-04-19T07:06:20Z</time></trkpt><trkpt lat="45.059876055660816" lon="8.595959021966898"><ele>107.0</ele><time>2026-04-19T07:06:21Z</time></trkpt><trkpt lat="45.059762141063736" lon="8.595836415658288"><ele>107.0</ele><time>2026-04-19T07:06:22Z</time></trkpt><trkpt lat="45.05964404230358" lon="8.59569796982736"><ele>107.0</ele><time>2026-04-19T07:06:23Z</time></trkpt><trkpt lat="45.05952170228259" lon="8.5955533956332"><ele>107.0</ele><time>2026-04-19T07:06:24Z</time></trkpt><trkpt lat="45.05940230886947" lon="8.595412303571228"><ele>107.0</ele><time>2026-04-19T07:06:25Z</time></trkpt><trkpt lat="45.059268821912035" lon="8.59528317783263"><ele>107.0</ele><time>2026-04-19T07:06:26Z</time></trkpt><trkpt lat="45.05916103913964" lon="8.595126535650767"><ele>107.33333333333333</ele><time>2026-04-19T07:06:27Z</time></trkpt><trkpt lat="45.05902881170885" lon="8.594992062061497"><ele>107.66666666666666</ele><time>2026-04-19T07:06:28Z</time></trkpt><trkpt lat="45.058920127632874" lon="8.594838441733732"><ele>108.0</ele><time>2026-04-19T07:06:29Z</time></trkpt><trkpt lat="45.05879571591281" lon="8.594715174414546"><ele>108.0</ele><time>2026-04-19T07:06:30Z</time></trkpt><trkpt lat="45.05867988864665" lon="8.594565836239859"><ele>108.0</ele><time>2026-04-19T07:06:31Z</time></trkpt><trkpt lat="45.05856907572933" lon="8.594411661875668"><ele>108.0</ele><time>2026-04-19T07:06:32Z</time></trkpt><trkpt lat="45.0584632290473" lon="8.594233969807073"><ele>108.0</ele><time>2026-04-19T07:06:33Z</time></trkpt><trkpt lat="45.0583654407781" lon="8.594067271782624"><ele>108.0</ele><time>2026-04-19T07:06:34Z</time></trkpt><trkpt lat="45.058272782868045" lon="8.593896638811813"><ele>108.0</ele><time>2026-04-19T07:06:35Z</time></trkpt><trkpt lat="45.058166153395824" lon="8.593740700813214"><ele>109.25</ele><time>2026-04-19T07:06:36Z</time></trkpt><trkpt lat="45.05805441841391" lon="8.593605968203391"><ele>110.5</ele><time>2026-04-19T07:06:37Z</time></trkpt><trkpt lat="45.0579496297032" lon="8.59348529163476"><ele>111.75</ele><time>2026-04-19T07:06:38Z</time></trkpt><trkpt lat="45.05784225627963" lon="8.593375048215192"><ele>113.0</ele><time>2026-04-19T07:06:39Z</time></trkpt><trkpt lat="45.05774542836261" lon="8.593264181944702"><ele>112.99999999999999</ele><time>2026-04-19T07:06:40Z</time></trkpt><trkpt lat="45.05766364962499" lon="8.593165710885897"><ele>113.0</ele><time>2026-04-19T07:06:41Z</time></trkpt><trkpt lat="45.05759234543905" lon="8.593082798430766"><ele>113.0</ele><time>2026-04-19T07:06:42Z</time></trkpt><trkpt lat="45.057533128071206" lon="8.59300664529962"><ele>113.0</ele><time>2026-04-19T07:06:43Z</time></trkpt><trkpt lat="45.0574801187926" lon="8.59293150292552"><ele>112.99999999999999</ele><time>2026-04-19T07:06:44Z</time></trkpt><trkpt lat="45.05743458152372" lon="8.592867726297117"><ele>113.0</ele><time>2026-04-19T07:06:45Z</time></trkpt><trkpt lat="45.05736688571787" lon="8.592764280160441"><ele>112.99999999999999</ele><time>2026-04-19T07:06:47Z</time></trkpt><trkpt lat="45.05731572758636" lon="8.592696892999994"><ele>113.0</ele><time>2026-04-19T07:06:49Z</time></trkpt><trkpt lat="45.05727913035518" lon="8.592620452987381"><ele>113.0</ele><time>2026-04-19T07:06:52Z</time></trkpt><trkpt lat="45.05734023104895" lon="8.592713519395739"><ele>113.0</ele><time>2026-04-19T07:06:55Z</time></trkpt><trkpt lat="45.0573881713925" lon="8.59278549705102"><ele>112.99999999999999</ele><time>2026-04-19T07:06:56Z</time></trkpt><trkpt lat="45.057428998589856" lon="8.592898352294071"><ele>113.0</ele><time>2026-04-19T07:06:57Z</time></trkpt><trkpt lat="45.05748873413183" lon="8.592995613220513"><ele>113.0</ele><time>2026-04-19T07:06:57.999Z</time></trkpt><trkpt lat="45.05756869036551" lon="8.593104602851502"><ele>113.00000000000001</ele><time>2026-04-19T07:06:58.999Z</time></trkpt><trkpt lat="45.0576540379581" lon="8.593204156247397"><ele>113.00000000000001</ele><time>2026-04-19T07:06:59.999Z</time></trkpt><trkpt lat="45.057739994778885" lon="8.593304697528259"><ele>113.0</ele><time>2026-04-19T07:07:00.999Z</time></trkpt><trkpt lat="45.05783370580618" lon="8.593399365832076"><ele>113.0</ele><time>2026-04-19T07:07:01.999Z</time></trkpt><trkpt lat="45.05791783046365" lon="8.593478063475033"><ele>112.99999999999999</ele><time>2026-04-19T07:07:02.999Z</time></trkpt><trkpt lat="45.057988077240346" lon="8.593564179635107"><ele>113.0</ele><time>2026-04-19T07:07:03.999Z</time></trkpt><trkpt lat="45.05804943211955" lon="8.5936428190795"><ele>113.0</ele><time>2026-04-19T07:07:04.999Z</time></trkpt><trkpt lat="45.05810537074067" lon="8.593709833434566"><ele>113.0</ele><time>2026-04-19T07:07:05.999Z</time></trkpt><trkpt lat="45.05815964653416" lon="8.593780885905526"><ele>112.99999999999999</ele><time>2026-04-19T07:07:06.999Z</time></trkpt><trkpt lat="45.058213331559514" lon="8.593883816139828"><ele>113.0</ele><time>2026-04-19T07:07:08.999Z</time></trkpt><trkpt lat="45.05813251666149" lon="8.594016945704357"><ele>112.16666666666666</ele><time>2026-04-19T07:07:12.999Z</time></trkpt><trkpt lat="45.05808680845643" lon="8.59408228187285"><ele>111.33333333333333</ele><time>2026-04-19T07:07:14.999Z</time></trkpt><trkpt lat="45.058016138503255" lon="8.594167543358129"><ele>110.5</ele><time>2026-04-19T07:07:17.999Z</time></trkpt><trkpt lat="45.05794996634282" lon="8.594247074059421"><ele>109.66666666666666</ele><time>2026-04-19T07:07:20.999Z</time></trkpt><trkpt lat="45.05788771779734" lon="8.594319387907927"><ele>108.83333333333333</ele><time>2026-04-19T07:07:23.999Z</time></trkpt><trkpt lat="45.05780774604009" lon="8.594411740426573"><ele>108.0</ele><time>2026-04-19T07:07:26.999Z</time></trkpt><trkpt lat="45.05768809683186" lon="8.594507742445279"><ele>107.83333333333333</ele><time>2026-04-19T07:07:28.999Z</time></trkpt><trkpt lat="45.05761698198077" lon="8.594549992272334"><ele>107.66666666666666</ele><time>2026-04-19T07:07:29.999Z</time></trkpt><trkpt lat="45.05754810166438" lon="8.594541422419368"><ele>107.5</ele><time>2026-04-19T07:07:30.999Z</time></trkpt><trkpt lat="45.057478780840064" lon="8.594534643579026"><ele>107.33333333333333</ele><time>2026-04-19T07:07:31.999Z</time></trkpt><trkpt lat="45.05740074553913" lon="8.594482577611823"><ele>107.16666666666666</ele><time>2026-04-19T07:07:32.999Z</time></trkpt><trkpt lat="45.057322341653474" lon="8.59442655134471"><ele>107.0</ele><time>2026-04-19T07:07:33.999Z</time></trkpt><trkpt lat="45.05725030276317" lon="8.594354136598216"><ele>107.49999999999999</ele><time>2026-04-19T07:07:34.999Z</time></trkpt><trkpt lat="45.057177067721156" lon="8.594272956263723"><ele>108.0</ele><time>2026-04-19T07:07:35.999Z</time></trkpt><trkpt lat="45.05710619232537" lon="8.594187191329404"><ele>108.5</ele><time>2026-04-19T07:07:36.999Z</time></trkpt><trkpt lat="45.057044124556576" lon="8.59410833894403"><ele>109.0</ele><time>2026-04-19T07:07:37.999Z</time></trkpt><trkpt lat="45.05698415396488" lon="8.59403091161323"><ele>109.49999999999999</ele><time>2026-04-19T07:07:39Z</time></trkpt><trkpt lat="45.056929301905704" lon="8.593956462565384"><ele>110.0</ele><time>2026-04-19T07:07:40Z</time></trkpt><trkpt lat="45.05687669848505" lon="8.593885377791569"><ele>109.99999999999999</ele><time>2026-04-19T07:07:41Z</time></trkpt><trkpt lat="45.05681414313526" lon="8.59380000536694"><ele>110.0</ele><time>2026-04-19T07:07:42Z</time></trkpt><trkpt lat="45.05675531924726" lon="8.593716142251147"><ele>110.0</ele><time>2026-04-19T07:07:43Z</time></trkpt><trkpt lat="45.0566862587525" lon="8.593646776717206"><ele>110.0</ele><time>2026-04-19T07:07:44Z</time></trkpt><trkpt lat="45.05664792463584" lon="8.593560464119168"><ele>109.99999999999999</ele><time>2026-04-19T07:07:45Z</time></trkpt><trkpt lat="45.0565901217957" lon="8.593476673596008"><ele>110.0</ele><time>2026-04-19T07:07:46Z</time></trkpt><trkpt lat="45.0565308651074" lon="8.59339077565998"><ele>110.2</ele><time>2026-04-19T07:07:47Z</time></trkpt><trkpt lat="45.05647265699808" lon="8.59333287959906"><ele>110.4</ele><time>2026-04-19T07:07:48Z</time></trkpt><trkpt lat="45.05638392189206" lon="8.593220113954434"><ele>110.6</ele><time>2026-04-19T07:07:50Z</time></trkpt><trkpt lat="45.05631714851497" lon="8.593120631942561"><ele>110.8</ele><time>2026-04-19T07:07:52Z</time></trkpt><trkpt lat="45.05623527557203" lon="8.59317202964766"><ele>111.0</ele><time>2026-04-19T07:07:53Z</time></trkpt><trkpt lat="45.05615334055059" lon="8.593314923093724"><ele>111.0</ele><time>2026-04-19T07:07:55Z</time></trkpt><trkpt lat="45.056107238252636" lon="8.59338160416295"><ele>111.0</ele><time>2026-04-19T07:07:56Z</time></trkpt><trkpt lat="45.05604239275345" lon="8.593440509675267"><ele>111.0</ele><time>2026-04-19T07:07:57Z</time></trkpt><trkpt lat="45.05599076465732" lon="8.593518584782833"><ele>111.0</ele><time>2026-04-19T07:07:58Z</time></trkpt><trkpt lat="45.055931952189496" lon="8.593584209994848"><ele>111.0</ele><time>2026-04-19T07:08:00Z</time></trkpt><trkpt lat="45.05587046852112" lon="8.593534554386904"><ele>111.0</ele><time>2026-04-19T07:08:02Z</time></trkpt><trkpt lat="45.05581748411829" lon="8.593430395466138"><ele>111.83333333333333</ele><time>2026-04-19T07:08:04Z</time></trkpt><trkpt lat="45.05577194041635" lon="8.593368869554618"><ele>112.66666666666666</ele><time>2026-04-19T07:08:05Z</time></trkpt><trkpt lat="45.055722396589644" lon="8.593303126927042"><ele>113.5</ele><time>2026-04-19T07:08:06Z</time></trkpt><trkpt lat="45.055664641613724" lon="8.593229021812636"><ele>114.33333333333333</ele><time>2026-04-19T07:08:08Z</time></trkpt><trkpt lat="45.05560241134977" lon="8.593179957039789"><ele>115.16666666666666</ele><time>2026-04-19T07:08:11Z</time></trkpt><trkpt lat="45.05554618996464" lon="8.593085590993676"><ele>116.0</ele><time>2026-04-19T07:08:14Z</time></trkpt><trkpt lat="45.05544410951587" lon="8.592962205436368"><ele>115.99999999999999</ele><time>2026-04-19T07:08:16Z</time></trkpt><trkpt lat="45.05537390886107" lon="8.592908361152658"><ele>116.0</ele><time>2026-04-19T07:08:17Z</time></trkpt><trkpt lat="45.055283187423655" lon="8.592871921350518"><ele>116.0</ele><time>2026-04-19T07:08:18Z</time></trkpt><trkpt lat="45.055220504484666" lon="8.59283220910359"><ele>116.0</ele><time>2026-04-19T07:08:19Z</time></trkpt><trkpt lat="45.05513917803503" lon="8.592793164080843"><ele>115.99999999999999</ele><time>2026-04-19T07:08:20Z</time></trkpt><trkpt lat="45.05508573374446" lon="8.592737087402538"><ele>116.0</ele><time>2026-04-19T07:08:21Z</time></trkpt><trkpt lat="45.05498057389482" lon="8.592638098407082"><ele>116.16666666666666</ele><time>2026-04-19T07:08:23Z</time></trkpt><trkpt lat="45.054920890994694" lon="8.592586915407319"><ele>116.33333333333333</ele><time>2026-04-19T07:08:24Z</time></trkpt><trkpt lat="45.05485891134905" lon="8.592546939687018"><ele>116.5</ele><time>2026-04-19T07:08:25Z</time></trkpt><trkpt lat="45.054742844297834" lon="8.592488906469706"><ele>116.66666666666666</ele><time>2026-04-19T07:08:27Z</time></trkpt><trkpt lat="45.054672349621335" lon="8.592469273264989"><ele>116.83333333333333</ele><time>2026-04-19T07:08:28Z</time></trkpt><trkpt lat="45.054602652601496" lon="8.592465666170595"><ele>117.0</ele><time>2026-04-19T07:08:29Z</time></trkpt><trkpt lat="45.05453955198468" lon="8.592457553174956"><ele>117.0</ele><time>2026-04-19T07:08:30Z</time></trkpt><trkpt lat="45.05447085031377" lon="8.59244121886951"><ele>117.0</ele><time>2026-04-19T07:08:31Z</time></trkpt><trkpt lat="45.054390909024995" lon="8.592418944852456"><ele>117.0</ele><time>2026-04-19T07:08:32Z</time></trkpt><trkpt lat="45.05431454970023" lon="8.59239495597084"><ele>117.0</ele><time>2026-04-19T07:08:33Z</time></trkpt><trkpt lat="45.054244201299014" lon="8.592372319848488"><ele>117.0</ele><time>2026-04-19T07:08:34Z</time></trkpt><trkpt lat="45.05418083993599" lon="8.592348035305076"><ele>117.0</ele><time>2026-04-19T07:08:35Z</time></trkpt><trkpt lat="45.05407551424057" lon="8.592277082172906"><ele>117.8</ele><time>2026-04-19T07:08:37Z</time></trkpt><trkpt lat="45.05396811412109" lon="8.59220079236066"><ele>118.6</ele><time>2026-04-19T07:08:39Z</time></trkpt><trkpt lat="45.05387526413635" lon="8.59211138561945"><ele>119.39999999999999</ele><time>2026-04-19T07:08:41Z</time></trkpt><trkpt lat="45.05377538235689" lon="8.592058072862704"><ele>120.19999999999999</ele><time>2026-04-19T07:08:43Z</time></trkpt><trkpt lat="45.05370166929315" lon="8.5920550139153"><ele>121.0</ele><time>2026-04-19T07:08:44Z</time></trkpt><trkpt lat="45.05363696955835" lon="8.592055723060108"><ele>121.00000000000001</ele><time>2026-04-19T07:08:45Z</time></trkpt><trkpt lat="45.053511166507576" lon="8.592072218743727"><ele>121.0</ele><time>2026-04-19T07:08:47Z</time></trkpt><trkpt lat="45.05344018728965" lon="8.592094965742314"><ele>121.0</ele><time>2026-04-19T07:08:48Z</time></trkpt><trkpt lat="45.05337014883941" lon="8.592132179818766"><ele>121.0</ele><time>2026-04-19T07:08:49Z</time></trkpt><trkpt lat="45.053296951043656" lon="8.592183117063001"><ele>121.00000000000001</ele><time>2026-04-19T07:08:50Z</time></trkpt><trkpt lat="45.05323796253071" lon="8.592223069231972"><ele>121.0</ele><time>2026-04-19T07:08:51Z</time></trkpt><trkpt lat="45.05316566854744" lon="8.592269778313655"><ele>121.0</ele><time>2026-04-19T07:08:52Z</time></trkpt><trkpt lat="45.053071235228906" lon="8.592306304792114"><ele>121.0</ele><time>2026-04-19T07:08:54Z</time></trkpt><trkpt lat="45.052975178557666" lon="8.592294908212763"><ele>121.0</ele><time>2026-04-19T07:08:55.999Z</time></trkpt><trkpt lat="45.05288003124695" lon="8.592209650780177"><ele>121.0</ele><time>2026-04-19T07:08:57.999Z</time></trkpt><trkpt lat="45.05276213540608" lon="8.592113867238215"><ele>121.0</ele><time>2026-04-19T07:08:59.999Z</time></trkpt><trkpt lat="45.052694365913666" lon="8.592074865130739"><ele>121.00000000000001</ele><time>2026-04-19T07:09:00.999Z</time></trkpt><trkpt lat="45.052619861332374" lon="8.592045181394957"><ele>121.0</ele><time>2026-04-19T07:09:01.999Z</time></trkpt><trkpt lat="45.05255649173353" lon="8.592002436165163"><ele>121.0</ele><time>2026-04-19T07:09:02.999Z</time></trkpt><trkpt lat="45.05248369792316" lon="8.591991150853337"><ele>121.0</ele><time>2026-04-19T07:09:03.999Z</time></trkpt><trkpt lat="45.052425733439996" lon="8.591943502197934"><ele>121.00000000000001</ele><time>2026-04-19T07:09:04.999Z</time></trkpt><trkpt lat="45.052311735405716" lon="8.591894001362482"><ele>121.0</ele><time>2026-04-19T07:09:06.999Z</time></trkpt><trkpt lat="45.05219568079586" lon="8.591841899011541"><ele>120.5</ele><time>2026-04-19T07:09:08.999Z</time></trkpt><trkpt lat="45.0520784724351" lon="8.591788352940036"><ele>120.0</ele><time>2026-04-19T07:09:10.999Z</time></trkpt><trkpt lat="45.05195450788042" lon="8.591731420500471"><ele>119.5</ele><time>2026-04-19T07:09:12.999Z</time></trkpt><trkpt lat="45.051863919577166" lon="8.591688697000327"><ele>119.0</ele><time>2026-04-19T07:09:14.999Z</time></trkpt><trkpt lat="45.05174262858412" lon="8.591656648238303"><ele>119.0</ele><time>2026-04-19T07:09:16.999Z</time></trkpt><trkpt lat="45.05163561632662" lon="8.591629436984944"><ele>119.0</ele><time>2026-04-19T07:09:18.999Z</time></trkpt><trkpt lat="45.051561319895455" lon="8.59153509487722"><ele>119.0</ele><time>2026-04-19T07:09:20.999Z</time></trkpt><trkpt lat="45.051463351683594" lon="8.591417107779487"><ele>119.0</ele><time>2026-04-19T07:09:22.999Z</time></trkpt><trkpt lat="45.05139161002829" lon="8.591328076989752"><ele>119.0</ele><time>2026-04-19T07:09:24.999Z</time></trkpt><trkpt lat="45.05129536342572" lon="8.591196951390582"><ele>118.80000000000001</ele><time>2026-04-19T07:09:27.999Z</time></trkpt><trkpt lat="45.051246374392804" lon="8.591128233665797"><ele>118.60000000000001</ele><time>2026-04-19T07:09:28.999Z</time></trkpt><trkpt lat="45.0511842565849" lon="8.591014386739694"><ele>118.4</ele><time>2026-04-19T07:09:30.999Z</time></trkpt><trkpt lat="45.05111804278097" lon="8.590866025473035"><ele>118.2</ele><time>2026-04-19T07:09:32.999Z</time></trkpt><trkpt lat="45.051069129322364" lon="8.590698245699073"><ele>118.0</ele><time>2026-04-19T07:09:34.999Z</time></trkpt><trkpt lat="45.051037439614845" lon="8.590606448707454"><ele>118.0</ele><time>2026-04-19T07:09:35.999Z</time></trkpt><trkpt lat="45.05100364318894" lon="8.590510730722228"><ele>118.0</ele><time>2026-04-19T07:09:36.999Z</time></trkpt><trkpt lat="45.05095870383177" lon="8.590427728053454"><ele>118.0</ele><time>2026-04-19T07:09:37.999Z</time></trkpt><trkpt lat="45.05093075393302" lon="8.590318100006677"><ele>118.0</ele><time>2026-04-19T07:09:38.999Z</time></trkpt><trkpt lat="45.050887557219006" lon="8.590252361152363"><ele>118.0</ele><time>2026-04-19T07:09:39.999Z</time></trkpt><trkpt lat="45.05085102567167" lon="8.590157900793292"><ele>118.0</ele><time>2026-04-19T07:09:40.999Z</time></trkpt><trkpt lat="45.05081547729549" lon="8.590064724669219"><ele>118.0</ele><time>2026-04-19T07:09:41.999Z</time></trkpt><trkpt lat="45.050777685799886" lon="8.589967484846758"><ele>118.28571428571428</ele><time>2026-04-19T07:09:42.999Z</time></trkpt><trkpt lat="45.05074017950589" lon="8.589872783550172"><ele>118.57142857142858</ele><time>2026-04-19T07:09:43.999Z</time></trkpt><trkpt lat="45.05070492227183" lon="8.589784518470951"><ele>118.85714285714286</ele><time>2026-04-19T07:09:45Z</time></trkpt><trkpt lat="45.05067310189796" lon="8.589697364581422"><ele>119.14285714285714</ele><time>2026-04-19T07:09:46Z</time></trkpt><trkpt lat="45.050639808812576" lon="8.589612383831696"><ele>119.42857142857142</ele><time>2026-04-19T07:09:47Z</time></trkpt><trkpt lat="45.05060694751659" lon="8.589531035522114"><ele>119.71428571428572</ele><time>2026-04-19T07:09:48Z</time></trkpt><trkpt lat="45.050570391249494" lon="8.589441225930432"><ele>120.0</ele><time>2026-04-19T07:09:49Z</time></trkpt><trkpt lat="45.05053122209898" lon="8.589348512391059"><ele>120.0</ele><time>2026-04-19T07:09:50Z</time></trkpt><trkpt lat="45.05049446254186" lon="8.589269079899443"><ele>120.0</ele><time>2026-04-19T07:09:51Z</time></trkpt><trkpt lat="45.05045760219907" lon="8.589194499423837"><ele>120.0</ele><time>2026-04-19T07:09:52Z</time></trkpt><trkpt lat="45.05042131313749" lon="8.589114035914584"><ele>120.0</ele><time>2026-04-19T07:09:53Z</time></trkpt><trkpt lat="45.05037419645394" lon="8.58899911847382"><ele>120.0</ele><time>2026-04-19T07:09:55Z</time></trkpt><trkpt lat="45.050327099204246" lon="8.588920528107954"><ele>120.0</ele><time>2026-04-19T07:09:56Z</time></trkpt><trkpt lat="45.050274560826104" lon="8.588840494694072"><ele>120.0</ele><time>2026-04-19T07:09:57Z</time></trkpt><trkpt lat="45.05017978800961" lon="8.58872599125881"><ele>120.0</ele><time>2026-04-19T07:09:59Z</time></trkpt><trkpt lat="45.05011997847976" lon="8.588668172840212"><ele>120.0</ele><time>2026-04-19T07:10:00Z</time></trkpt><trkpt lat="45.05005441913451" lon="8.588634476063541"><ele>120.0</ele><time>2026-04-19T07:10:01Z</time></trkpt><trkpt lat="45.04999256842217" lon="8.588608330678651"><ele>120.0</ele><time>2026-04-19T07:10:02Z</time></trkpt><trkpt lat="45.04987456714098" lon="8.588613245985695"><ele>120.0</ele><time>2026-04-19T07:10:04Z</time></trkpt><trkpt lat="45.04975584629913" lon="8.58865182155302"><ele>120.0</ele><time>2026-04-19T07:10:06Z</time></trkpt><trkpt lat="45.04969362337363" lon="8.588669153679813"><ele>119.8</ele><time>2026-04-19T07:10:07Z</time></trkpt><trkpt lat="45.04958915176829" lon="8.5887436857614"><ele>119.6</ele><time>2026-04-19T07:10:09Z</time></trkpt><trkpt lat="45.04952781358413" lon="8.58876955071083"><ele>119.4</ele><time>2026-04-19T07:10:10Z</time></trkpt><trkpt lat="45.04940534067126" lon="8.588826318735553"><ele>119.2</ele><time>2026-04-19T07:10:12Z</time></trkpt><trkpt lat="45.049290331090646" lon="8.588863764581125"><ele>119.0</ele><time>2026-04-19T07:10:14Z</time></trkpt><trkpt lat="45.049223301710775" lon="8.588868845351593"><ele>118.99999999999999</ele><time>2026-04-19T07:10:16Z</time></trkpt><trkpt lat="45.04916014890172" lon="8.588837123744904"><ele>119.0</ele><time>2026-04-19T07:15:25.999Z</time></trkpt><trkpt lat="45.04908183866093" lon="8.588849771958447"><ele>119.0</ele><time>2026-04-19T07:15:28.999Z</time></trkpt><trkpt lat="45.0490157507851" lon="8.588847481331511"><ele>119.0</ele><time>2026-04-19T07:15:30.999Z</time></trkpt><trkpt lat="45.048923229223014" lon="8.5888423229521"><ele>118.99999999999999</ele><time>2026-04-19T07:15:33.999Z</time></trkpt><trkpt lat="45.04883757078821" lon="8.588882850056827"><ele>119.0</ele><time>2026-04-19T07:15:35.999Z</time></trkpt><trkpt lat="45.04876060327164" lon="8.58888981225868"><ele>118.99999999999999</ele><time>2026-04-19T07:15:37.999Z</time></trkpt><trkpt lat="45.0486713857877" lon="8.58890192135471"><ele>119.0</ele><time>2026-04-19T07:15:39.999Z</time></trkpt><trkpt lat="45.048590543909185" lon="8.588910946083523"><ele>119.0</ele><time>2026-04-19T07:15:41.999Z</time></trkpt><trkpt lat="45.04849600492597" lon="8.588925547889627"><ele>119.0</ele><time>2026-04-19T07:15:43.999Z</time></trkpt><trkpt lat="45.04841358603632" lon="8.588933401794876"><ele>118.99999999999999</ele><time>2026-04-19T07:15:45.999Z</time></trkpt><trkpt lat="45.04832022651614" lon="8.58894914700846"><ele>119.0</ele><time>2026-04-19T07:15:47.999Z</time></trkpt><trkpt lat="45.048244892941604" lon="8.588952364966085"><ele>119.0</ele><time>2026-04-19T07:15:49.999Z</time></trkpt><trkpt lat="45.04816173726035" lon="8.588958456717522"><ele>119.0</ele><time>2026-04-19T07:15:51.999Z</time></trkpt><trkpt lat="45.04804737038623" lon="8.588955518824076"><ele>119.0</ele><time>2026-04-19T07:15:53.999Z</time></trkpt><trkpt lat="45.04793817061794" lon="8.588945169137398"><ele>119.0</ele><time>2026-04-19T07:15:55.999Z</time></trkpt><trkpt lat="45.047832211552524" lon="8.58892710232796"><ele>119.0</ele><time>2026-04-19T07:15:57.999Z</time></trkpt><trkpt lat="45.047739216360476" lon="8.588910545823762"><ele>119.0</ele><time>2026-04-19T07:15:59.999Z</time></trkpt><trkpt lat="45.04762493313359" lon="8.58889785463818"><ele>119.0</ele><time>2026-04-19T07:16:01.999Z</time></trkpt><trkpt lat="45.047520168662025" lon="8.588876696715245"><ele>119.0</ele><time>2026-04-19T07:16:04Z</time></trkpt><trkpt lat="45.04741504111298" lon="8.588862733459528"><ele>119.0</ele><time>2026-04-19T07:16:06Z</time></trkpt><trkpt lat="45.04731851242664" lon="8.58884783999364"><ele>119.0</ele><time>2026-04-19T07:16:08Z</time></trkpt><trkpt lat="45.04722408371332" lon="8.58882966674821"><ele>118.80000000000001</ele><time>2026-04-19T07:16:10Z</time></trkpt><trkpt lat="45.04712877238875" lon="8.588812170186364"><ele>118.60000000000001</ele><time>2026-04-19T07:16:12Z</time></trkpt><trkpt lat="45.04703035065771" lon="8.5887946571789"><ele>118.4</ele><time>2026-04-19T07:16:14Z</time></trkpt><trkpt lat="45.04694365954992" lon="8.588771458774495"><ele>118.2</ele><time>2026-04-19T07:16:16Z</time></trkpt><trkpt lat="45.046847254579205" lon="8.588754056085241"><ele>118.0</ele><time>2026-04-19T07:16:18Z</time></trkpt><trkpt lat="45.04673638665001" lon="8.588742782500656"><ele>118.0</ele><time>2026-04-19T07:16:20Z</time></trkpt><trkpt lat="45.04662978352555" lon="8.588786168594845"><ele>118.00000000000001</ele><time>2026-04-19T07:16:22Z</time></trkpt><trkpt lat="45.04651753375919" lon="8.588756036626187"><ele>118.00000000000001</ele><time>2026-04-19T07:16:24Z</time></trkpt><trkpt lat="45.046404929349166" lon="8.588713905300658"><ele>118.0</ele><time>2026-04-19T07:16:26Z</time></trkpt><trkpt lat="45.046309956327256" lon="8.58875976571512"><ele>118.0</ele><time>2026-04-19T07:16:28Z</time></trkpt><trkpt lat="45.0462127469313" lon="8.588847172425478"><ele>117.83333333333334</ele><time>2026-04-19T07:16:30Z</time></trkpt><trkpt lat="45.046165839014506" lon="8.58875391699207"><ele>117.66666666666667</ele><time>2026-04-19T07:16:31Z</time></trkpt><trkpt lat="45.04607581079435" lon="8.588753936636238"><ele>117.5</ele><time>2026-04-19T07:16:33Z</time></trkpt><trkpt lat="45.04596959763973" lon="8.588751379735935"><ele>117.33333333333334</ele><time>2026-04-19T07:16:35Z</time></trkpt><trkpt lat="45.045904083182705" lon="8.588746195350552"><ele>117.16666666666667</ele><time>2026-04-19T07:16:37Z</time></trkpt><trkpt lat="45.0458249135255" lon="8.588720998751462"><ele>117.0</ele><time>2026-04-19T07:16:39Z</time></trkpt><trkpt lat="45.04572892373158" lon="8.588724045797802"><ele>116.6</ele><time>2026-04-19T07:16:41Z</time></trkpt><trkpt lat="45.0456288350201" lon="8.588718131141121"><ele>116.19999999999999</ele><time>2026-04-19T07:16:43Z</time></trkpt><trkpt lat="45.045533289948736" lon="8.588715131891394"><ele>115.8</ele><time>2026-04-19T07:16:44.999Z</time></trkpt><trkpt lat="45.045439923499096" lon="8.58872118170266"><ele>115.4</ele><time>2026-04-19T07:16:47.999Z</time></trkpt><trkpt lat="45.04534463801455" lon="8.588732557187907"><ele>115.0</ele><time>2026-04-19T07:16:49.999Z</time></trkpt><trkpt lat="45.0452625055862" lon="8.58873760799998"><ele>115.00000000000001</ele><time>2026-04-19T07:16:51.999Z</time></trkpt><trkpt lat="45.045196643031595" lon="8.588736832503646"><ele>115.0</ele><time>2026-04-19T07:16:54.999Z</time></trkpt><trkpt lat="45.045171030142434" lon="8.588645788444488"><ele>115.0</ele><time>2026-04-19T07:17:08.999Z</time></trkpt><trkpt lat="45.045219288049324" lon="8.588578667106045"><ele>115.0</ele><time>2026-04-19T07:17:09.999Z</time></trkpt><trkpt lat="45.04524015565602" lon="8.58847404190414"><ele>115.00000000000001</ele><time>2026-04-19T07:17:10.999Z</time></trkpt><trkpt lat="45.0452685582784" lon="8.58831876759159"><ele>115.0</ele><time>2026-04-19T07:17:11.999Z</time></trkpt><trkpt lat="45.04527817393227" lon="8.58818514230732"><ele>115.0</ele><time>2026-04-19T07:17:12.999Z</time></trkpt><trkpt lat="45.04527962214188" lon="8.588053336349054"><ele>115.0</ele><time>2026-04-19T07:17:13.999Z</time></trkpt><trkpt lat="45.04530324799087" lon="8.587923068323438"><ele>115.0</ele><time>2026-04-19T07:17:14.999Z</time></trkpt><trkpt lat="45.045312632754595" lon="8.587785207614543"><ele>115.0</ele><time>2026-04-19T07:17:15.999Z</time></trkpt><trkpt lat="45.04532207484815" lon="8.587634143111334"><ele>115.0</ele><time>2026-04-19T07:17:16.999Z</time></trkpt><trkpt lat="45.04532892355308" lon="8.587498267829867"><ele>115.0</ele><time>2026-04-19T07:17:17.999Z</time></trkpt><trkpt lat="45.04533563985396" lon="8.5873502446118"><ele>115.0</ele><time>2026-04-19T07:17:18.999Z</time></trkpt><trkpt lat="45.045339662140336" lon="8.587208626605529"><ele>115.0</ele><time>2026-04-19T07:17:19.999Z</time></trkpt><trkpt lat="45.04534187409999" lon="8.587057113674154"><ele>115.0</ele><time>2026-04-19T07:17:20.999Z</time></trkpt><trkpt lat="45.045343598921875" lon="8.586893346652275"><ele>115.0</ele><time>2026-04-19T07:17:21.999Z</time></trkpt><trkpt lat="45.045346800780734" lon="8.586748084948566"><ele>115.0</ele><time>2026-04-19T07:17:22.999Z</time></trkpt><trkpt lat="45.04535140803946" lon="8.586620467644655"><ele>115.0</ele><time>2026-04-19T07:17:23.999Z</time></trkpt><trkpt lat="45.04535644624836" lon="8.586480913366207"><ele>115.0</ele><time>2026-04-19T07:17:24.999Z</time></trkpt><trkpt lat="45.04536312081997" lon="8.58634458028765"><ele>115.0</ele><time>2026-04-19T07:17:25.999Z</time></trkpt><trkpt lat="45.045371161550534" lon="8.58621999766397"><ele>115.0</ele><time>2026-04-19T07:17:26.999Z</time></trkpt><trkpt lat="45.04538109874879" lon="8.58610454694329"><ele>114.6</ele><time>2026-04-19T07:17:27.999Z</time></trkpt><trkpt lat="45.04539831178458" lon="8.585965804354052"><ele>114.2</ele><time>2026-04-19T07:17:28.999Z</time></trkpt><trkpt lat="45.04541655190751" lon="8.585846162131219"><ele>113.80000000000001</ele><time>2026-04-19T07:17:29.999Z</time></trkpt><trkpt lat="45.04544547804981" lon="8.585691421558693"><ele>113.4</ele><time>2026-04-19T07:17:30.999Z</time></trkpt><trkpt lat="45.04548111104582" lon="8.585540449314202"><ele>113.0</ele><time>2026-04-19T07:17:31.999Z</time></trkpt><trkpt lat="45.04552574206307" lon="8.585387363283415"><ele>112.80000000000001</ele><time>2026-04-19T07:17:32.999Z</time></trkpt><trkpt lat="45.04557659649328" lon="8.585232115471799"><ele>112.60000000000001</ele><time>2026-04-19T07:17:33.999Z</time></trkpt><trkpt lat="45.0456300570891" lon="8.585089716220896"><ele>112.39999999999999</ele><time>2026-04-19T07:17:34.999Z</time></trkpt><trkpt lat="45.045678158252706" lon="8.584960785247485"><ele>112.19999999999999</ele><time>2026-04-19T07:17:35.999Z</time></trkpt><trkpt lat="45.04571689470871" lon="8.584829090375894"><ele>112.0</ele><time>2026-04-19T07:17:36.999Z</time></trkpt><trkpt lat="45.04574244696377" lon="8.584692457298878"><ele>112.0</ele><time>2026-04-19T07:17:37.999Z</time></trkpt><trkpt lat="45.04575797460912" lon="8.584541570861344"><ele>111.99999999999999</ele><time>2026-04-19T07:17:38.999Z</time></trkpt><trkpt lat="45.04575874144839" lon="8.584370939854887"><ele>111.99999999999999</ele><time>2026-04-19T07:17:39.999Z</time></trkpt><trkpt lat="45.04576583474702" lon="8.584202844177325"><ele>112.0</ele><time>2026-04-19T07:17:40.999Z</time></trkpt><trkpt lat="45.045773041724466" lon="8.584077245663737"><ele>112.0</ele><time>2026-04-19T07:17:41.999Z</time></trkpt><trkpt lat="45.045784127460685" lon="8.583946534817473"><ele>112.0</ele><time>2026-04-19T07:17:42.999Z</time></trkpt><trkpt lat="45.045804232211616" lon="8.583798992960881"><ele>111.99999999999999</ele><time>2026-04-19T07:17:43.999Z</time></trkpt><trkpt lat="45.04581728080226" lon="8.583638815497732"><ele>111.99999999999999</ele><time>2026-04-19T07:17:44.999Z</time></trkpt><trkpt lat="45.045825500098104" lon="8.583500074241897"><ele>112.0</ele><time>2026-04-19T07:17:45.999Z</time></trkpt><trkpt lat="45.04584428957999" lon="8.583357792928187"><ele>112.0</ele><time>2026-04-19T07:17:46.999Z</time></trkpt><trkpt lat="45.04584920394717" lon="8.583201390220154"><ele>111.6</ele><time>2026-04-19T07:17:47.999Z</time></trkpt><trkpt lat="45.04583745330067" lon="8.583062480529474"><ele>111.19999999999999</ele><time>2026-04-19T07:17:48.999Z</time></trkpt><trkpt lat="45.04585675535441" lon="8.582910609023688"><ele>110.8</ele><time>2026-04-19T07:17:49.999Z</time></trkpt><trkpt lat="45.04584338611053" lon="8.582784482539477"><ele>110.4</ele><time>2026-04-19T07:17:50.999Z</time></trkpt><trkpt lat="45.04585051011971" lon="8.582672941757657"><ele>110.0</ele><time>2026-04-19T07:17:51.999Z</time></trkpt><trkpt lat="45.045865883556274" lon="8.582510250906129"><ele>110.0</ele><time>2026-04-19T07:17:53.999Z</time></trkpt><trkpt lat="45.04586935775233" lon="8.582364754967752"><ele>110.0</ele><time>2026-04-19T07:17:55.999Z</time></trkpt><trkpt lat="45.0458702453082" lon="8.582260135667202"><ele>110.0</ele><time>2026-04-19T07:17:57.999Z</time></trkpt><trkpt lat="45.04586732686259" lon="8.582149755977861"><ele>110.0</ele><time>2026-04-19T07:18:16.999Z</time></trkpt><trkpt lat="45.045794571875014" lon="8.582090499259992"><ele>110.0</ele><time>2026-04-19T07:18:17.999Z</time></trkpt><trkpt lat="45.045718153100886" lon="8.581964802754978"><ele>109.6</ele><time>2026-04-19T07:18:19.999Z</time></trkpt><trkpt lat="45.04564019914198" lon="8.581860609847183"><ele>109.2</ele><time>2026-04-19T07:18:21.999Z</time></trkpt><trkpt lat="45.045567057691805" lon="8.581812676317915"><ele>108.80000000000001</ele><time>2026-04-19T07:18:22.999Z</time></trkpt><trkpt lat="45.045513426672564" lon="8.58172875497061"><ele>108.4</ele><time>2026-04-19T07:18:23.999Z</time></trkpt><trkpt lat="45.04543182059414" lon="8.581660824163535"><ele>108.0</ele><time>2026-04-19T07:18:25Z</time></trkpt><trkpt lat="45.04535957270374" lon="8.581562688738718"><ele>108.0</ele><time>2026-04-19T07:18:26Z</time></trkpt><trkpt lat="45.04530374164205" lon="8.581497907709183"><ele>108.0</ele><time>2026-04-19T07:18:27Z</time></trkpt><trkpt lat="45.045248794186946" lon="8.581436077461914"><ele>108.0</ele><time>2026-04-19T07:18:28Z</time></trkpt><trkpt lat="45.04519800823228" lon="8.581382610929682"><ele>108.0</ele><time>2026-04-19T07:18:29Z</time></trkpt><trkpt lat="45.04512492466587" lon="8.581335463955908"><ele>108.0</ele><time>2026-04-19T07:18:30Z</time></trkpt><trkpt lat="45.045058562192445" lon="8.581266249933986"><ele>108.0</ele><time>2026-04-19T07:18:31Z</time></trkpt><trkpt lat="45.045001138752674" lon="8.581214673633642"><ele>108.0</ele><time>2026-04-19T07:18:31.999Z</time></trkpt><trkpt lat="45.04494677641714" lon="8.581167674457673"><ele>108.33333333333333</ele><time>2026-04-19T07:18:32.999Z</time></trkpt><trkpt lat="45.0448554726614" lon="8.581094741411556"><ele>108.66666666666666</ele><time>2026-04-19T07:18:34.999Z</time></trkpt><trkpt lat="45.044792134419815" lon="8.581069182316806"><ele>109.0</ele><time>2026-04-19T07:18:38.999Z</time></trkpt><trkpt lat="45.044725212648046" lon="8.581015545655308"><ele>109.33333333333333</ele><time>2026-04-19T07:18:41.999Z</time></trkpt><trkpt lat="45.04465603274253" lon="8.580979753760118"><ele>109.66666666666666</ele><time>2026-04-19T07:18:43.999Z</time></trkpt><trkpt lat="45.044729364286745" lon="8.581039198923843"><ele>110.0</ele><time>2026-04-19T07:18:51.999Z</time></trkpt><trkpt lat="45.044846376751856" lon="8.581104044093363"><ele>110.0</ele><time>2026-04-19T07:18:53.999Z</time></trkpt><trkpt lat="45.044921303669184" lon="8.58115837722392"><ele>110.0</ele><time>2026-04-19T07:18:54.999Z</time></trkpt><trkpt lat="45.04499190381985" lon="8.581235060423415"><ele>110.0</ele><time>2026-04-19T07:18:55.999Z</time></trkpt><trkpt lat="45.04509956650083" lon="8.581313063119905"><ele>110.0</ele><time>2026-04-19T07:18:56.999Z</time></trkpt><trkpt lat="45.045184513148776" lon="8.581395168723692"><ele>110.0</ele><time>2026-04-19T07:18:57.999Z</time></trkpt><trkpt lat="45.045251197435164" lon="8.581443265850924"><ele>109.6</ele><time>2026-04-19T07:18:58.999Z</time></trkpt><trkpt lat="45.04531648099248" lon="8.581535563198353"><ele>109.2</ele><time>2026-04-19T07:18:59.999Z</time></trkpt><trkpt lat="45.04540302240421" lon="8.581630717299465"><ele>108.80000000000001</ele><time>2026-04-19T07:19:00.999Z</time></trkpt><trkpt lat="45.04548448698717" lon="8.581714016125122"><ele>108.4</ele><time>2026-04-19T07:19:01.999Z</time></trkpt><trkpt lat="45.04554557727518" lon="8.58178349408551"><ele>108.0</ele><time>2026-04-19T07:19:02.999Z</time></trkpt><trkpt lat="45.045607154489794" lon="8.581835159748831"><ele>108.0</ele><time>2026-04-19T07:19:03.999Z</time></trkpt><trkpt lat="45.0456641193358" lon="8.581891333237625"><ele>108.00000000000001</ele><time>2026-04-19T07:19:04.999Z</time></trkpt><trkpt lat="45.045750523805964" lon="8.582002923141514"><ele>108.00000000000001</ele><time>2026-04-19T07:19:06.999Z</time></trkpt><trkpt lat="45.04580225286095" lon="8.58208128433574"><ele>108.0</ele><time>2026-04-19T07:19:08.999Z</time></trkpt><trkpt lat="45.045730096246835" lon="8.582184716861663"><ele>108.0</ele><time>2026-04-19T07:19:11.999Z</time></trkpt><trkpt lat="45.04564051253534" lon="8.582211460546253"><ele>108.0</ele><time>2026-04-19T07:19:12.999Z</time></trkpt><trkpt lat="45.0455468115317" lon="8.58220569514641"><ele>108.00000000000001</ele><time>2026-04-19T07:19:13.999Z</time></trkpt><trkpt lat="45.04546310846507" lon="8.582220744860074"><ele>108.00000000000001</ele><time>2026-04-19T07:19:14.999Z</time></trkpt><trkpt lat="45.045378372662945" lon="8.58226046402158"><ele>108.0</ele><time>2026-04-19T07:19:15.999Z</time></trkpt><trkpt lat="45.04529045298017" lon="8.58230075804799"><ele>108.0</ele><time>2026-04-19T07:19:16.999Z</time></trkpt><trkpt lat="45.04518856261879" lon="8.582339853472787"><ele>108.0</ele><time>2026-04-19T07:19:17.999Z</time></trkpt><trkpt lat="45.04507450100843" lon="8.58238632675155"><ele>108.0</ele><time>2026-04-19T07:19:18.999Z</time></trkpt><trkpt lat="45.04495244472326" lon="8.582432054850441"><ele>108.0</ele><time>2026-04-19T07:19:19.999Z</time></trkpt><trkpt lat="45.0448372224935" lon="8.582472186787678"><ele>108.0</ele><time>2026-04-19T07:19:20.999Z</time></trkpt><trkpt lat="45.04471854933512" lon="8.582517589716744"><ele>108.2</ele><time>2026-04-19T07:19:21.999Z</time></trkpt><trkpt lat="45.04460482465806" lon="8.582557967774264"><ele>108.4</ele><time>2026-04-19T07:19:22.999Z</time></trkpt><trkpt lat="45.04450815827674" lon="8.582574997571783"><ele>108.60000000000001</ele><time>2026-04-19T07:19:23.999Z</time></trkpt><trkpt lat="45.04441998807507" lon="8.582572125255115"><ele>108.80000000000001</ele><time>2026-04-19T07:19:24.999Z</time></trkpt><trkpt lat="45.04432782635024" lon="8.582555063870432"><ele>109.0</ele><time>2026-04-19T07:19:25.999Z</time></trkpt><trkpt lat="45.04422831330023" lon="8.582517343185671"><ele>109.0</ele><time>2026-04-19T07:19:26.999Z</time></trkpt><trkpt lat="45.04413719017592" lon="8.582474005113879"><ele>109.0</ele><time>2026-04-19T07:19:27.999Z</time></trkpt><trkpt lat="45.04407517237774" lon="8.582417672769369"><ele>109.0</ele><time>2026-04-19T07:19:28.999Z</time></trkpt><trkpt lat="45.044010982688604" lon="8.5823680646631"><ele>109.0</ele><time>2026-04-19T07:19:29.999Z</time></trkpt><trkpt lat="45.043895417676225" lon="8.58230517934967"><ele>109.0</ele><time>2026-04-19T07:19:31.999Z</time></trkpt><trkpt lat="45.043785532570496" lon="8.582224033766114"><ele>109.33333333333334</ele><time>2026-04-19T07:19:33.999Z</time></trkpt><trkpt lat="45.043717754409855" lon="8.58217801776297"><ele>109.66666666666667</ele><time>2026-04-19T07:19:34.999Z</time></trkpt><trkpt lat="45.04364932492647" lon="8.582123533444436"><ele>110.0</ele><time>2026-04-19T07:19:35.999Z</time></trkpt><trkpt lat="45.04357687594802" lon="8.582063437465335"><ele>110.33333333333334</ele><time>2026-04-19T07:19:36.999Z</time></trkpt><trkpt lat="45.04350394812166" lon="8.58199599369824"><ele>110.66666666666667</ele><time>2026-04-19T07:19:37.999Z</time></trkpt><trkpt lat="45.043427544177376" lon="8.581917777704549"><ele>111.0</ele><time>2026-04-19T07:19:38.999Z</time></trkpt><trkpt lat="45.0433515562954" lon="8.581836512117135"><ele>111.4</ele><time>2026-04-19T07:19:39.999Z</time></trkpt><trkpt lat="45.04326918851781" lon="8.581738932404232"><ele>111.8</ele><time>2026-04-19T07:19:40.999Z</time></trkpt><trkpt lat="45.04319021061797" lon="8.58164140873992"><ele>112.20000000000002</ele><time>2026-04-19T07:19:41.999Z</time></trkpt><trkpt lat="45.0431136025188" lon="8.581541879839376"><ele>112.60000000000001</ele><time>2026-04-19T07:19:42.999Z</time></trkpt><trkpt lat="45.04303951440272" lon="8.581436685891001"><ele>113.0</ele><time>2026-04-19T07:19:43.999Z</time></trkpt><trkpt lat="45.042979529379586" lon="8.581340707717205"><ele>113.0</ele><time>2026-04-19T07:19:44.999Z</time></trkpt><trkpt lat="45.04293022440539" lon="8.581247457991589"><ele>113.00000000000001</ele><time>2026-04-19T07:19:45.999Z</time></trkpt><trkpt lat="45.04287337883468" lon="8.581151110150635"><ele>113.00000000000001</ele><time>2026-04-19T07:19:46.999Z</time></trkpt><trkpt lat="45.04281273065828" lon="8.581041383192888"><ele>113.0</ele><time>2026-04-19T07:19:47.999Z</time></trkpt><trkpt lat="45.042756695422405" lon="8.580919681121758"><ele>113.0</ele><time>2026-04-19T07:19:48.999Z</time></trkpt><trkpt lat="45.04270844877995" lon="8.580819402640982"><ele>113.0</ele><time>2026-04-19T07:19:49.999Z</time></trkpt><trkpt lat="45.042663716828855" lon="8.580707502490725"><ele>113.00000000000001</ele><time>2026-04-19T07:19:50.999Z</time></trkpt><trkpt lat="45.0426156931564" lon="8.580578909696568"><ele>113.00000000000001</ele><time>2026-04-19T07:19:51.999Z</time></trkpt><trkpt lat="45.04256560536788" lon="8.580430821651031"><ele>113.0</ele><time>2026-04-19T07:19:52.999Z</time></trkpt><trkpt lat="45.042512341696714" lon="8.580256025341562"><ele>113.0</ele><time>2026-04-19T07:19:53.999Z</time></trkpt><trkpt lat="45.0424627072934" lon="8.5800762168634"><ele>113.0</ele><time>2026-04-19T07:19:54.999Z</time></trkpt><trkpt lat="45.04241930637695" lon="8.57988569817522"><ele>113.0</ele><time>2026-04-19T07:19:55.999Z</time></trkpt><trkpt lat="45.04238132468939" lon="8.57969196663652"><ele>113.0</ele><time>2026-04-19T07:19:56.999Z</time></trkpt><trkpt lat="45.04235030753579" lon="8.579499028228408"><ele>113.0</ele><time>2026-04-19T07:19:57.999Z</time></trkpt><trkpt lat="45.042332397997995" lon="8.579323618863897"><ele>113.25</ele><time>2026-04-19T07:19:58.999Z</time></trkpt><trkpt lat="45.04232396457971" lon="8.579147688275418"><ele>113.5</ele><time>2026-04-19T07:19:59.999Z</time></trkpt><trkpt lat="45.04231806592005" lon="8.578968488907426"><ele>113.75</ele><time>2026-04-19T07:20:00.999Z</time></trkpt><trkpt lat="45.04231065646895" lon="8.578790228910016"><ele>114.0</ele><time>2026-04-19T07:20:01.999Z</time></trkpt><trkpt lat="45.042315505733754" lon="8.578623290547565"><ele>114.0</ele><time>2026-04-19T07:20:02.999Z</time></trkpt><trkpt lat="45.04232634874901" lon="8.578479967326958"><ele>114.0</ele><time>2026-04-19T07:20:03.999Z</time></trkpt><trkpt lat="45.04233765691762" lon="8.578337457663688"><ele>114.0</ele><time>2026-04-19T07:20:04.999Z</time></trkpt><trkpt lat="45.04234842618786" lon="8.578210110407516"><ele>114.0</ele><time>2026-04-19T07:20:05.999Z</time></trkpt><trkpt lat="45.0423593486129" lon="8.578079968911991"><ele>114.0</ele><time>2026-04-19T07:20:06.999Z</time></trkpt><trkpt lat="45.042378242751944" lon="8.5779206808058"><ele>113.75</ele><time>2026-04-19T07:20:07.999Z</time></trkpt><trkpt lat="45.04239679694391" lon="8.577750640642156"><ele>113.5</ele><time>2026-04-19T07:20:08.999Z</time></trkpt><trkpt lat="45.04241913631143" lon="8.57757658084406"><ele>113.25</ele><time>2026-04-19T07:20:09.999Z</time></trkpt><trkpt lat="45.04243500924238" lon="8.577386574460881"><ele>113.0</ele><time>2026-04-19T07:20:10.999Z</time></trkpt><trkpt lat="45.04241092174698" lon="8.577238134279494"><ele>113.0</ele><time>2026-04-19T07:20:11.999Z</time></trkpt><trkpt lat="45.042379060297165" lon="8.577049953638674"><ele>113.0</ele><time>2026-04-19T07:20:12.999Z</time></trkpt><trkpt lat="45.04229386035005" lon="8.576891339473809"><ele>113.0</ele><time>2026-04-19T07:20:13.999Z</time></trkpt><trkpt lat="45.0421979474215" lon="8.57672486299624"><ele>113.0</ele><time>2026-04-19T07:20:14.999Z</time></trkpt><trkpt lat="45.042092228008066" lon="8.576562669538857"><ele>113.0</ele><time>2026-04-19T07:20:15.999Z</time></trkpt><trkpt lat="45.04198517344075" lon="8.576395696177078"><ele>113.0</ele><time>2026-04-19T07:20:16.999Z</time></trkpt><trkpt lat="45.041903552481266" lon="8.576238825864118"><ele>113.0</ele><time>2026-04-19T07:20:17.999Z</time></trkpt><trkpt lat="45.04182335872604" lon="8.576108057122713"><ele>113.0</ele><time>2026-04-19T07:20:18.999Z</time></trkpt><trkpt lat="45.04175223785298" lon="8.575992083247218"><ele>113.16666666666666</ele><time>2026-04-19T07:20:19.999Z</time></trkpt><trkpt lat="45.041683550574206" lon="8.57588294524262"><ele>113.33333333333333</ele><time>2026-04-19T07:20:20.999Z</time></trkpt><trkpt lat="45.04162066981904" lon="8.575783356390934"><ele>113.5</ele><time>2026-04-19T07:20:21.999Z</time></trkpt><trkpt lat="45.04156142499349" lon="8.575687875182286"><ele>113.66666666666666</ele><time>2026-04-19T07:20:22.999Z</time></trkpt><trkpt lat="45.0414998969041" lon="8.575615575536562"><ele>113.83333333333333</ele><time>2026-04-19T07:20:24Z</time></trkpt><trkpt lat="45.04146309541676" lon="8.575516118134468"><ele>114.0</ele><time>2026-04-19T07:20:25Z</time></trkpt><trkpt lat="45.041414385461614" lon="8.57544398462301"><ele>113.75</ele><time>2026-04-19T07:20:26Z</time></trkpt><trkpt lat="45.04135487478418" lon="8.5753358801117"><ele>113.5</ele><time>2026-04-19T07:20:27Z</time></trkpt><trkpt lat="45.041287397666316" lon="8.575203098115018"><ele>113.25</ele><time>2026-04-19T07:20:28Z</time></trkpt><trkpt lat="45.04121751514584" lon="8.575059555133116"><ele>113.0</ele><time>2026-04-19T07:20:29Z</time></trkpt><trkpt lat="45.041138008987495" lon="8.574901486956204"><ele>113.0</ele><time>2026-04-19T07:20:30Z</time></trkpt><trkpt lat="45.041056656731406" lon="8.574740067151927"><ele>113.0</ele><time>2026-04-19T07:20:31Z</time></trkpt><trkpt lat="45.04097097679651" lon="8.574561234558345"><ele>113.0</ele><time>2026-04-19T07:20:32Z</time></trkpt><trkpt lat="45.040856468147666" lon="8.5744070572947"><ele>113.5</ele><time>2026-04-19T07:20:33Z</time></trkpt><trkpt lat="45.0407332132439" lon="8.574284358410896"><ele>114.0</ele><time>2026-04-19T07:20:34Z</time></trkpt><trkpt lat="45.04061909060344" lon="8.574210039203708"><ele>114.5</ele><time>2026-04-19T07:20:35Z</time></trkpt><trkpt lat="45.04050327597504" lon="8.574125245659305"><ele>115.0</ele><time>2026-04-19T07:20:36Z</time></trkpt><trkpt lat="45.040383495486644" lon="8.574037630298722"><ele>115.0</ele><time>2026-04-19T07:20:37Z</time></trkpt><trkpt lat="45.04025401762195" lon="8.573949503498778"><ele>115.0</ele><time>2026-04-19T07:20:38Z</time></trkpt><trkpt lat="45.04012264531856" lon="8.573848186318907"><ele>115.0</ele><time>2026-04-19T07:20:39Z</time></trkpt><trkpt lat="45.03999597200243" lon="8.573752312042787"><ele>115.0</ele><time>2026-04-19T07:20:40Z</time></trkpt><trkpt lat="45.03989178927091" lon="8.573672917713154"><ele>115.2</ele><time>2026-04-19T07:20:41Z</time></trkpt><trkpt lat="45.03979354733444" lon="8.573597570318968"><ele>115.4</ele><time>2026-04-19T07:20:42Z</time></trkpt><trkpt lat="45.03969730537435" lon="8.573554495800614"><ele>115.6</ele><time>2026-04-19T07:20:43Z</time></trkpt><trkpt lat="45.039617594335915" lon="8.573491902795272"><ele>115.8</ele><time>2026-04-19T07:20:44Z</time></trkpt><trkpt lat="45.03952213796039" lon="8.573467966703099"><ele>116.0</ele><time>2026-04-19T07:20:45Z</time></trkpt><trkpt lat="45.03944622404587" lon="8.573447097049396"><ele>116.0</ele><time>2026-04-19T07:20:46Z</time></trkpt><trkpt lat="45.03937769701204" lon="8.573414293237134"><ele>116.0</ele><time>2026-04-19T07:20:47Z</time></trkpt><trkpt lat="45.03930748925077" lon="8.573363095877088"><ele>116.0</ele><time>2026-04-19T07:20:48Z</time></trkpt><trkpt lat="45.03927061880702" lon="8.57323596426746"><ele>116.0</ele><time>2026-04-19T07:20:49Z</time></trkpt><trkpt lat="45.03927669138985" lon="8.573085372663932"><ele>116.0</ele><time>2026-04-19T07:20:50Z</time></trkpt><trkpt lat="45.03921554007888" lon="8.57295143296942"><ele>116.19999999999999</ele><time>2026-04-19T07:20:50.999Z</time></trkpt><trkpt lat="45.039154231838744" lon="8.572801260671179"><ele>116.39999999999999</ele><time>2026-04-19T07:20:51.999Z</time></trkpt><trkpt lat="45.03909302006331" lon="8.572678940551459"><ele>116.6</ele><time>2026-04-19T07:20:52.999Z</time></trkpt><trkpt lat="45.03905428837021" lon="8.572573320984862"><ele>116.8</ele><time>2026-04-19T07:20:53.999Z</time></trkpt><trkpt lat="45.039090146577585" lon="8.57242298854489"><ele>117.0</ele><time>2026-04-19T07:20:54.999Z</time></trkpt><trkpt lat="45.03910729403267" lon="8.57225205300331"><ele>117.0</ele><time>2026-04-19T07:20:55.999Z</time></trkpt><trkpt lat="45.03911373776968" lon="8.572061121490886"><ele>117.0</ele><time>2026-04-19T07:20:56.999Z</time></trkpt><trkpt lat="45.039160925699335" lon="8.571874223912415"><ele>117.0</ele><time>2026-04-19T07:20:57.999Z</time></trkpt><trkpt lat="45.03919754052425" lon="8.571685275330228"><ele>117.0</ele><time>2026-04-19T07:20:58.999Z</time></trkpt><trkpt lat="45.0392283648488" lon="8.571508299841003"><ele>117.0</ele><time>2026-04-19T07:20:59.999Z</time></trkpt><trkpt lat="45.039251380866766" lon="8.571356039484048"><ele>116.99999999999999</ele><time>2026-04-19T07:21:00.999Z</time></trkpt><trkpt lat="45.03921660450225" lon="8.571190115117851"><ele>116.99999999999999</ele><time>2026-04-19T07:21:01.999Z</time></trkpt><trkpt lat="45.03922861085343" lon="8.571054254193735"><ele>117.0</ele><time>2026-04-19T07:21:03.999Z</time></trkpt><trkpt lat="45.03918952321071" lon="8.570898993556508"><ele>117.0</ele><time>2026-04-19T07:21:04.999Z</time></trkpt><trkpt lat="45.03916063608101" lon="8.570713649397348"><ele>116.5</ele><time>2026-04-19T07:21:05.999Z</time></trkpt><trkpt lat="45.03913063795788" lon="8.570515938913676"><ele>116.0</ele><time>2026-04-19T07:21:06.999Z</time></trkpt><trkpt lat="45.039108294284894" lon="8.570343531678974"><ele>115.5</ele><time>2026-04-19T07:21:07.999Z</time></trkpt><trkpt lat="45.03907477679462" lon="8.570180397507272"><ele>115.0</ele><time>2026-04-19T07:21:08.999Z</time></trkpt><trkpt lat="45.03905715072488" lon="8.569996436976451"><ele>115.0</ele><time>2026-04-19T07:21:09.999Z</time></trkpt><trkpt lat="45.03902223508823" lon="8.569814654095968"><ele>115.0</ele><time>2026-04-19T07:21:10.999Z</time></trkpt><trkpt lat="45.03898783766148" lon="8.569608809100144"><ele>115.0</ele><time>2026-04-19T07:21:11.999Z</time></trkpt><trkpt lat="45.03895119892064" lon="8.56938379477835"><ele>115.0</ele><time>2026-04-19T07:21:12.999Z</time></trkpt><trkpt lat="45.03891671462999" lon="8.569158793288912"><ele>115.33333333333334</ele><time>2026-04-19T07:21:13.999Z</time></trkpt><trkpt lat="45.038868802528555" lon="8.568930102204336"><ele>115.66666666666666</ele><time>2026-04-19T07:21:14.999Z</time></trkpt><trkpt lat="45.03882455102343" lon="8.56870847227307"><ele>116.0</ele><time>2026-04-19T07:21:15.999Z</time></trkpt><trkpt lat="45.038787629717845" lon="8.568482023102982"><ele>115.5</ele><time>2026-04-19T07:21:16.999Z</time></trkpt><trkpt lat="45.03875295600261" lon="8.568272102012909"><ele>115.0</ele><time>2026-04-19T07:21:17.999Z</time></trkpt><trkpt lat="45.03871907478475" lon="8.568089269037113"><ele>114.5</ele><time>2026-04-19T07:21:18.999Z</time></trkpt><trkpt lat="45.038674919989354" lon="8.567922235608242"><ele>114.0</ele><time>2026-04-19T07:21:19.999Z</time></trkpt><trkpt lat="45.038617096272205" lon="8.567763166264085"><ele>113.75</ele><time>2026-04-19T07:21:20.999Z</time></trkpt><trkpt lat="45.038531255070005" lon="8.567606121334281"><ele>113.5</ele><time>2026-04-19T07:21:21.999Z</time></trkpt><trkpt lat="45.03842519732418" lon="8.56746812024941"><ele>113.25</ele><time>2026-04-19T07:21:22.999Z</time></trkpt><trkpt lat="45.03830748123891" lon="8.567348731627035"><ele>113.0</ele><time>2026-04-19T07:21:23.999Z</time></trkpt><trkpt lat="45.03818590360291" lon="8.567239855799064"><ele>112.75</ele><time>2026-04-19T07:21:24.999Z</time></trkpt><trkpt lat="45.03805675701884" lon="8.567117345114006"><ele>112.5</ele><time>2026-04-19T07:21:25.999Z</time></trkpt><trkpt lat="45.03793536284767" lon="8.567004504946429"><ele>112.25</ele><time>2026-04-19T07:21:26.999Z</time></trkpt><trkpt lat="45.03781841925404" lon="8.566906372220592"><ele>112.0</ele><time>2026-04-19T07:21:27.999Z</time></trkpt><trkpt lat="45.03766975418705" lon="8.566858258472777"><ele>111.75</ele><time>2026-04-19T07:21:28.999Z</time></trkpt><trkpt lat="45.03750838252564" lon="8.56685065507082"><ele>111.5</ele><time>2026-04-19T07:21:29.999Z</time></trkpt><trkpt lat="45.03736231719344" lon="8.566890407513737"><ele>111.25</ele><time>2026-04-19T07:21:30.999Z</time></trkpt><trkpt lat="45.03724317104484" lon="8.566927919344511"><ele>111.0</ele><time>2026-04-19T07:21:31.999Z</time></trkpt><trkpt lat="45.03713269932272" lon="8.56697120252769"><ele>111.0</ele><time>2026-04-19T07:21:32.999Z</time></trkpt><trkpt lat="45.037026684294986" lon="8.567000036245313"><ele>111.0</ele><time>2026-04-19T07:21:33.999Z</time></trkpt><trkpt lat="45.0369351916455" lon="8.567022528133775"><ele>111.0</ele><time>2026-04-19T07:21:34.999Z</time></trkpt><trkpt lat="45.036846791804855" lon="8.567047258887253"><ele>111.0</ele><time>2026-04-19T07:21:35.999Z</time></trkpt><trkpt lat="45.03677021990204" lon="8.567071061166596"><ele>111.0</ele><time>2026-04-19T07:21:36.999Z</time></trkpt><trkpt lat="45.03669339649788" lon="8.567098252729373"><ele>111.0</ele><time>2026-04-19T07:21:37.999Z</time></trkpt><trkpt lat="45.0366245387394" lon="8.567115133565713"><ele>111.66666666666667</ele><time>2026-04-19T07:21:38.999Z</time></trkpt><trkpt lat="45.03655815523171" lon="8.567125842186705"><ele>112.33333333333334</ele><time>2026-04-19T07:21:39.999Z</time></trkpt><trkpt lat="45.036441530004176" lon="8.567167905401137"><ele>113.0</ele><time>2026-04-19T07:21:41.999Z</time></trkpt><trkpt lat="45.03634275886237" lon="8.567191284432662"><ele>113.66666666666667</ele><time>2026-04-19T07:21:43.999Z</time></trkpt><trkpt lat="45.036263985338195" lon="8.56719665332297"><ele>114.33333333333334</ele><time>2026-04-19T07:21:45.999Z</time></trkpt><trkpt lat="45.0361957263472" lon="8.567208785675874"><ele>115.0</ele><time>2026-04-19T07:21:48.999Z</time></trkpt><trkpt lat="45.036083863696" lon="8.56722939666565"><ele>115.0</ele><time>2026-04-19T07:21:53.999Z</time></trkpt><trkpt lat="45.03601785923169" lon="8.567226339463065"><ele>115.0</ele><time>2026-04-19T07:21:54.999Z</time></trkpt><trkpt lat="45.035941607353756" lon="8.567228029780324"><ele>115.0</ele><time>2026-04-19T07:21:55.999Z</time></trkpt><trkpt lat="45.03585184421695" lon="8.567229558472247"><ele>115.0</ele><time>2026-04-19T07:21:56.999Z</time></trkpt><trkpt lat="45.03576213285073" lon="8.567205701951325"><ele>115.0</ele><time>2026-04-19T07:21:57.999Z</time></trkpt><trkpt lat="45.035636164360966" lon="8.567173438465087"><ele>114.25</ele><time>2026-04-19T07:21:58.999Z</time></trkpt><trkpt lat="45.03551311746493" lon="8.567129944050944"><ele>113.5</ele><time>2026-04-19T07:21:59.999Z</time></trkpt><trkpt lat="45.03537427817304" lon="8.567088132909507"><ele>112.75</ele><time>2026-04-19T07:22:00.999Z</time></trkpt><trkpt lat="45.03523300310904" lon="8.567047753499796"><ele>112.0</ele><time>2026-04-19T07:22:01.999Z</time></trkpt><trkpt lat="45.035089166221425" lon="8.56700758583455"><ele>110.5</ele><time>2026-04-19T07:22:02.999Z</time></trkpt><trkpt lat="45.03494718833261" lon="8.56695827713758"><ele>109.0</ele><time>2026-04-19T07:22:03.999Z</time></trkpt><trkpt lat="45.03481835935268" lon="8.566914754543978"><ele>107.5</ele><time>2026-04-19T07:22:04.999Z</time></trkpt><trkpt lat="45.03469034132978" lon="8.566867639502107"><ele>106.0</ele><time>2026-04-19T07:22:05.999Z</time></trkpt><trkpt lat="45.03457052600034" lon="8.566824990754112"><ele>106.0</ele><time>2026-04-19T07:22:06.999Z</time></trkpt><trkpt lat="45.03445197415347" lon="8.566779289456809"><ele>106.0</ele><time>2026-04-19T07:22:07.999Z</time></trkpt><trkpt lat="45.034344109738846" lon="8.56673233639949"><ele>106.0</ele><time>2026-04-19T07:22:08.999Z</time></trkpt><trkpt lat="45.03423730496891" lon="8.566684452135023"><ele>106.0</ele><time>2026-04-19T07:22:09.999Z</time></trkpt><trkpt lat="45.03411496700161" lon="8.566625668498613"><ele>105.75</ele><time>2026-04-19T07:22:10.999Z</time></trkpt><trkpt lat="45.033983841035976" lon="8.56656870113104"><ele>105.5</ele><time>2026-04-19T07:22:11.999Z</time></trkpt><trkpt lat="45.03385056718066" lon="8.566503907246739"><ele>105.25</ele><time>2026-04-19T07:22:12.999Z</time></trkpt><trkpt lat="45.03373582225529" lon="8.56644001915276"><ele>105.0</ele><time>2026-04-19T07:22:13.999Z</time></trkpt><trkpt lat="45.03362869993017" lon="8.566394913895865"><ele>105.0</ele><time>2026-04-19T07:22:14.999Z</time></trkpt><trkpt lat="45.03352726581212" lon="8.56634739084414"><ele>105.0</ele><time>2026-04-19T07:22:15.999Z</time></trkpt><trkpt lat="45.033438800426566" lon="8.566312556115127"><ele>105.0</ele><time>2026-04-19T07:22:16.999Z</time></trkpt><trkpt lat="45.03336016330545" lon="8.566274718676844"><ele>105.0</ele><time>2026-04-19T07:22:17.999Z</time></trkpt><trkpt lat="45.03328282837037" lon="8.56623101599539"><ele>105.0</ele><time>2026-04-19T07:22:18.999Z</time></trkpt><trkpt lat="45.03321089975884" lon="8.566190065407062"><ele>105.0</ele><time>2026-04-19T07:22:19.999Z</time></trkpt><trkpt lat="45.03314170988113" lon="8.566162082201723"><ele>105.2</ele><time>2026-04-19T07:22:21Z</time></trkpt><trkpt lat="45.03306568290869" lon="8.566136008645147"><ele>105.4</ele><time>2026-04-19T07:22:22Z</time></trkpt><trkpt lat="45.03298015151837" lon="8.566096672353684"><ele>105.6</ele><time>2026-04-19T07:22:23Z</time></trkpt><trkpt lat="45.0328884569223" lon="8.56604530511041"><ele>105.8</ele><time>2026-04-19T07:22:24Z</time></trkpt><trkpt lat="45.032794095181075" lon="8.566001018516122"><ele>106.0</ele><time>2026-04-19T07:22:25Z</time></trkpt><trkpt lat="45.03270211004636" lon="8.565960195243036"><ele>106.00000000000001</ele><time>2026-04-19T07:22:26Z</time></trkpt><trkpt lat="45.03261586263495" lon="8.565916762861043"><ele>106.0</ele><time>2026-04-19T07:22:27Z</time></trkpt><trkpt lat="45.03253943932929" lon="8.565884756219061"><ele>106.0</ele><time>2026-04-19T07:22:28Z</time></trkpt><trkpt lat="45.032474449647246" lon="8.565850466628165"><ele>106.0</ele><time>2026-04-19T07:22:29Z</time></trkpt><trkpt lat="45.03237151611638" lon="8.56580214860267"><ele>106.00000000000001</ele><time>2026-04-19T07:22:31Z</time></trkpt><trkpt lat="45.03230070055565" lon="8.565762741228513"><ele>106.0</ele><time>2026-04-19T07:22:33Z</time></trkpt><trkpt lat="45.0322138403055" lon="8.56572671412357"><ele>106.00000000000001</ele><time>2026-04-19T07:22:36Z</time></trkpt><trkpt lat="45.032155156557685" lon="8.56569159440027"><ele>106.0</ele><time>2026-04-19T07:22:38Z</time></trkpt><trkpt lat="45.03208008739926" lon="8.565796274063787"><ele>106.0</ele><time>2026-04-19T07:22:42Z</time></trkpt><trkpt lat="45.032075786183206" lon="8.56589238988912"><ele>106.0</ele><time>2026-04-19T07:22:43Z</time></trkpt><trkpt lat="45.032048659352846" lon="8.565992497474467"><ele>106.00000000000001</ele><time>2026-04-19T07:22:44Z</time></trkpt><trkpt lat="45.03203145077254" lon="8.566090067343904"><ele>106.0</ele><time>2026-04-19T07:22:45Z</time></trkpt><trkpt lat="45.03199028886612" lon="8.56621289865723"><ele>106.19999999999999</ele><time>2026-04-19T07:22:46Z</time></trkpt><trkpt lat="45.03196277332801" lon="8.566338158623141"><ele>106.39999999999999</ele><time>2026-04-19T07:22:47Z</time></trkpt><trkpt lat="45.031912283238476" lon="8.566508729144855"><ele>106.6</ele><time>2026-04-19T07:22:49Z</time></trkpt><trkpt lat="45.0318818255095" lon="8.566604503226205"><ele>106.8</ele><time>2026-04-19T07:22:50Z</time></trkpt><trkpt lat="45.0318537579567" lon="8.566714326386162"><ele>107.0</ele><time>2026-04-19T07:22:51Z</time></trkpt><trkpt lat="45.03183081636948" lon="8.566820257205336"><ele>107.0</ele><time>2026-04-19T07:22:52Z</time></trkpt><trkpt lat="45.03179224266932" lon="8.566993551937435"><ele>106.99999999999999</ele><time>2026-04-19T07:22:54Z</time></trkpt><trkpt lat="45.03175031760103" lon="8.567146709080857"><ele>106.99999999999999</ele><time>2026-04-19T07:22:56Z</time></trkpt><trkpt lat="45.03171084455302" lon="8.567291662365003"><ele>107.0</ele><time>2026-04-19T07:22:58Z</time></trkpt><trkpt lat="45.03168432873445" lon="8.567385460583518"><ele>107.0</ele><time>2026-04-19T07:22:59Z</time></trkpt><trkpt lat="45.031664454955454" lon="8.567478411431903"><ele>106.99999999999999</ele><time>2026-04-19T07:23:00Z</time></trkpt><trkpt lat="45.031628657472076" lon="8.567640965868888"><ele>107.0</ele><time>2026-04-19T07:23:02Z</time></trkpt><trkpt lat="45.03160540405146" lon="8.567749444436167"><ele>107.0</ele><time>2026-04-19T07:23:04Z</time></trkpt><trkpt lat="45.03158896968893" lon="8.567837386432407"><ele>107.0</ele><time>2026-04-19T07:23:05Z</time></trkpt><trkpt lat="45.03156751202242" lon="8.567936888188607"><ele>106.99999999999999</ele><time>2026-04-19T07:23:06Z</time></trkpt><trkpt lat="45.0315481681201" lon="8.568037241601735"><ele>107.0</ele><time>2026-04-19T07:23:07Z</time></trkpt><trkpt lat="45.031524957836005" lon="8.568132242116498"><ele>106.99999999999999</ele><time>2026-04-19T07:23:08Z</time></trkpt><trkpt lat="45.03149607172175" lon="8.568237601562744"><ele>107.0</ele><time>2026-04-19T07:23:09Z</time></trkpt><trkpt lat="45.03147034730416" lon="8.568342071619313"><ele>107.0</ele><time>2026-04-19T07:23:10Z</time></trkpt><trkpt lat="45.031441407334775" lon="8.568446105542403"><ele>107.0</ele><time>2026-04-19T07:23:11Z</time></trkpt><trkpt lat="45.03141487838594" lon="8.568559158484199"><ele>106.99999999999999</ele><time>2026-04-19T07:23:12Z</time></trkpt><trkpt lat="45.03139016580129" lon="8.568658295304221"><ele>107.0</ele><time>2026-04-19T07:23:13Z</time></trkpt><trkpt lat="45.031365988624536" lon="8.568742738825511"><ele>106.83333333333333</ele><time>2026-04-19T07:23:14Z</time></trkpt><trkpt lat="45.03133681826523" lon="8.568850827275105"><ele>106.66666666666666</ele><time>2026-04-19T07:23:16Z</time></trkpt><trkpt lat="45.031312546677576" lon="8.568948655045661"><ele>106.5</ele><time>2026-04-19T07:23:18Z</time></trkpt><trkpt lat="45.031282329739255" lon="8.569076478811429"><ele>106.33333333333334</ele><time>2026-04-19T07:23:20Z</time></trkpt><trkpt lat="45.031251909479025" lon="8.569181775971785"><ele>106.16666666666667</ele><time>2026-04-19T07:23:22Z</time></trkpt><trkpt lat="45.03122872007254" lon="8.56928166341691"><ele>106.0</ele><time>2026-04-19T07:23:22.999Z</time></trkpt><trkpt lat="45.03120718478545" lon="8.569392316112387"><ele>105.83333333333334</ele><time>2026-04-19T07:23:24.999Z</time></trkpt><trkpt lat="45.031171331029384" lon="8.569527838445488"><ele>105.66666666666667</ele><time>2026-04-19T07:23:26.999Z</time></trkpt><trkpt lat="45.03115123466624" lon="8.569613327806477"><ele>105.5</ele><time>2026-04-19T07:23:27.999Z</time></trkpt><trkpt lat="45.03110845883432" lon="8.569787068660505"><ele>105.33333333333334</ele><time>2026-04-19T07:23:29.999Z</time></trkpt><trkpt lat="45.03108245450883" lon="8.569885286590456"><ele>105.16666666666667</ele><time>2026-04-19T07:23:30.999Z</time></trkpt><trkpt lat="45.031060892139905" lon="8.569970804502457"><ele>105.0</ele><time>2026-04-19T07:23:31.999Z</time></trkpt><trkpt lat="45.03104003150194" lon="8.570057987574497"><ele>105.0</ele><time>2026-04-19T07:23:32.999Z</time></trkpt><trkpt lat="45.03101325575757" lon="8.57020798499658"><ele>105.0</ele><time>2026-04-19T07:23:34.999Z</time></trkpt><trkpt lat="45.0309868755475" lon="8.570368072205149"><ele>105.0</ele><time>2026-04-19T07:23:36.999Z</time></trkpt><trkpt lat="45.03094503272815" lon="8.570531028357957"><ele>105.0</ele><time>2026-04-19T07:23:38.999Z</time></trkpt><trkpt lat="45.03091850771192" lon="8.570617181912294"><ele>105.0</ele><time>2026-04-19T07:23:39.999Z</time></trkpt><trkpt lat="45.030895322757026" lon="8.570714251031623"><ele>105.0</ele><time>2026-04-19T07:23:40.999Z</time></trkpt><trkpt lat="45.030871889819615" lon="8.570801681569145"><ele>105.0</ele><time>2026-04-19T07:23:41.999Z</time></trkpt><trkpt lat="45.030831665274285" lon="8.570923409451291"><ele>105.0</ele><time>2026-04-19T07:23:43.999Z</time></trkpt><trkpt lat="45.030793794034274" lon="8.571056667117288"><ele>105.0</ele><time>2026-04-19T07:23:45.999Z</time></trkpt><trkpt lat="45.03078420381551" lon="8.571147950107317"><ele>105.0</ele><time>2026-04-19T07:23:47.999Z</time></trkpt><trkpt lat="45.030752372072286" lon="8.571245826025512"><ele>105.0</ele><time>2026-04-19T07:23:48.999Z</time></trkpt><trkpt lat="45.03071340993769" lon="8.571346176241654"><ele>105.0</ele><time>2026-04-19T07:23:50.999Z</time></trkpt><trkpt lat="45.030654836035275" lon="8.571381907215503"><ele>105.0</ele><time>2026-04-19T07:23:52.999Z</time></trkpt><trkpt lat="45.03057223459703" lon="8.571370326599968"><ele>105.0</ele><time>2026-04-19T07:23:54.999Z</time></trkpt><trkpt lat="45.03049827712292" lon="8.571381803426195"><ele>105.0</ele><time>2026-04-19T07:23:56.999Z</time></trkpt><trkpt lat="45.03046472581696" lon="8.571471875299794"><ele>105.0</ele><time>2026-04-19T07:23:58.999Z</time></trkpt><trkpt lat="45.030447905599246" lon="8.571605844761116"><ele>105.0</ele><time>2026-04-19T07:24:00.999Z</time></trkpt><trkpt lat="45.03042570606785" lon="8.571738056506389"><ele>105.0</ele><time>2026-04-19T07:24:02.999Z</time></trkpt><trkpt lat="45.03039487374441" lon="8.57188296138987"><ele>105.0</ele><time>2026-04-19T07:24:04.999Z</time></trkpt><trkpt lat="45.03036021766651" lon="8.5719854230716"><ele>105.0</ele><time>2026-04-19T07:24:05.999Z</time></trkpt><trkpt lat="45.03035711178183" lon="8.57212411433453"><ele>105.0</ele><time>2026-04-19T07:24:08.999Z</time></trkpt><trkpt lat="45.030336334684236" lon="8.572227313021635"><ele>105.0</ele><time>2026-04-19T07:24:10.999Z</time></trkpt><trkpt lat="45.03031637350901" lon="8.572321749530625"><ele>105.0</ele><time>2026-04-19T07:24:12.999Z</time></trkpt><trkpt lat="45.03030674905562" lon="8.572411133308453"><ele>105.16666666666667</ele><time>2026-04-19T07:24:14.999Z</time></trkpt><trkpt lat="45.03028476772414" lon="8.572541654357382"><ele>105.33333333333334</ele><time>2026-04-19T07:24:16.999Z</time></trkpt><trkpt lat="45.03026256658413" lon="8.572632986981487"><ele>105.5</ele><time>2026-04-19T07:24:18.999Z</time></trkpt><trkpt lat="45.030189238020576" lon="8.572667099128124"><ele>105.66666666666667</ele><time>2026-04-19T07:24:21.999Z</time></trkpt><trkpt lat="45.030100511992906" lon="8.572610057049273"><ele>105.83333333333334</ele><time>2026-04-19T07:24:23.999Z</time></trkpt><trkpt lat="45.03000651874157" lon="8.572561111470904"><ele>106.0</ele><time>2026-04-19T07:24:25.999Z</time></trkpt><trkpt lat="45.02990131254645" lon="8.572495663245776"><ele>106.0</ele><time>2026-04-19T07:24:28Z</time></trkpt><trkpt lat="45.0298131759239" lon="8.572394493148767"><ele>106.0</ele><time>2026-04-19T07:24:30Z</time></trkpt><trkpt lat="45.02974190964022" lon="8.572278202242062"><ele>106.0</ele><time>2026-04-19T07:24:32Z</time></trkpt><trkpt lat="45.02967177638884" lon="8.572169657874182"><ele>106.0</ele><time>2026-04-19T07:24:34Z</time></trkpt><trkpt lat="45.02960430658448" lon="8.572057586079215"><ele>106.0</ele><time>2026-04-19T07:24:36Z</time></trkpt><trkpt lat="45.02952753583944" lon="8.571925957038621"><ele>106.0</ele><time>2026-04-19T07:24:38Z</time></trkpt><trkpt lat="45.02945892056033" lon="8.571802626600354"><ele>106.0</ele><time>2026-04-19T07:24:40Z</time></trkpt><trkpt lat="45.02938490398226" lon="8.571733009611803"><ele>106.0</ele><time>2026-04-19T07:24:43Z</time></trkpt><trkpt lat="45.02930000389265" lon="8.571769105303352"><ele>106.0</ele><time>2026-04-19T07:24:45Z</time></trkpt><trkpt lat="45.02922456808433" lon="8.57187134666546"><ele>106.0</ele><time>2026-04-19T07:24:47Z</time></trkpt><trkpt lat="45.02917864733895" lon="8.571932281738336"><ele>106.4</ele><time>2026-04-19T07:24:48Z</time></trkpt><trkpt lat="45.02910424981704" lon="8.572035318039045"><ele>106.8</ele><time>2026-04-19T07:24:50Z</time></trkpt><trkpt lat="45.02902219128115" lon="8.572139982195852"><ele>107.20000000000002</ele><time>2026-04-19T07:24:52Z</time></trkpt><trkpt lat="45.02893635490237" lon="8.572217250818833"><ele>107.60000000000001</ele><time>2026-04-19T07:24:54Z</time></trkpt><trkpt lat="45.0288613908087" lon="8.572298024907857"><ele>108.0</ele><time>2026-04-19T07:24:56Z</time></trkpt><trkpt lat="45.02877079422894" lon="8.572338478184731"><ele>108.0</ele><time>2026-04-19T07:24:58Z</time></trkpt><trkpt lat="45.028668017278854" lon="8.572296693943747"><ele>108.00000000000001</ele><time>2026-04-19T07:25:00Z</time></trkpt><trkpt lat="45.028600419171134" lon="8.572233965932261"><ele>108.00000000000001</ele><time>2026-04-19T07:25:02Z</time></trkpt><trkpt lat="45.02851945586106" lon="8.572139370928094"><ele>108.0</ele><time>2026-04-19T07:25:04Z</time></trkpt><trkpt lat="45.02844038393009" lon="8.572068949098597"><ele>108.0</ele><time>2026-04-19T07:25:07Z</time></trkpt><trkpt lat="45.02836036367609" lon="8.571963647516766"><ele>108.0</ele><time>2026-04-19T07:25:09Z</time></trkpt><trkpt lat="45.02830631630518" lon="8.57190123945908"><ele>108.0</ele><time>2026-04-19T07:25:10Z</time></trkpt><trkpt lat="45.02825710584426" lon="8.571836185330277"><ele>108.0</ele><time>2026-04-19T07:25:11Z</time></trkpt><trkpt lat="45.028206530203555" lon="8.571772083096835"><ele>108.0</ele><time>2026-04-19T07:25:12Z</time></trkpt><trkpt lat="45.0281562038312" lon="8.571718094130741"><ele>108.0</ele><time>2026-04-19T07:25:13Z</time></trkpt><trkpt lat="45.02806340690462" lon="8.571624915261134"><ele>108.0</ele><time>2026-04-19T07:25:15Z</time></trkpt><trkpt lat="45.02797606550896" lon="8.571546020172727"><ele>108.0</ele><time>2026-04-19T07:25:17Z</time></trkpt><trkpt lat="45.0278840928978" lon="8.571473152624971"><ele>108.00000000000001</ele><time>2026-04-19T07:25:19Z</time></trkpt><trkpt lat="45.02777674238674" lon="8.571408130465175"><ele>108.00000000000001</ele><time>2026-04-19T07:25:21Z</time></trkpt><trkpt lat="45.02766222744504" lon="8.571354027196763"><ele>108.0</ele><time>2026-04-19T07:25:23Z</time></trkpt><trkpt lat="45.02759543978875" lon="8.571334344071072"><ele>108.0</ele><time>2026-04-19T07:25:24Z</time></trkpt><trkpt lat="45.02747460819507" lon="8.571306235075982"><ele>108.83333333333333</ele><time>2026-04-19T07:25:26Z</time></trkpt><trkpt lat="45.02740305343776" lon="8.571295272607784"><ele>109.66666666666666</ele><time>2026-04-19T07:25:27Z</time></trkpt><trkpt lat="45.02733674009674" lon="8.57128327195307"><ele>110.5</ele><time>2026-04-19T07:25:28Z</time></trkpt><trkpt lat="45.02726884584721" lon="8.571270381820344"><ele>111.33333333333333</ele><time>2026-04-19T07:25:29Z</time></trkpt><trkpt lat="45.02715094711841" lon="8.571258113035057"><ele>112.16666666666666</ele><time>2026-04-19T07:25:31Z</time></trkpt><trkpt lat="45.02708819144813" lon="8.571247015462102"><ele>113.0</ele><time>2026-04-19T07:25:32Z</time></trkpt><trkpt lat="45.0270230183233" lon="8.57123734944047"><ele>113.0</ele><time>2026-04-19T07:25:33Z</time></trkpt><trkpt lat="45.026960413549716" lon="8.571226305790214"><ele>113.0</ele><time>2026-04-19T07:25:34Z</time></trkpt><trkpt lat="45.02689421402183" lon="8.571217166953874"><ele>113.0</ele><time>2026-04-19T07:25:35Z</time></trkpt><trkpt lat="45.02681523000383" lon="8.571207754216413"><ele>113.0</ele><time>2026-04-19T07:25:36Z</time></trkpt><trkpt lat="45.026748800792056" lon="8.57119778949095"><ele>113.0</ele><time>2026-04-19T07:25:37Z</time></trkpt><trkpt lat="45.02666130234491" lon="8.571175354895152"><ele>113.0</ele><time>2026-04-19T07:25:39Z</time></trkpt><trkpt lat="45.02658395045301" lon="8.571160051255355"><ele>113.0</ele><time>2026-04-19T07:25:41Z</time></trkpt><trkpt lat="45.026486112937626" lon="8.5711451162588"><ele>112.60000000000001</ele><time>2026-04-19T07:25:43Z</time></trkpt><trkpt lat="45.02639533305681" lon="8.571127329948263"><ele>112.20000000000002</ele><time>2026-04-19T07:25:45Z</time></trkpt><trkpt lat="45.02628946819947" lon="8.571118771570207"><ele>111.8</ele><time>2026-04-19T07:25:46.999Z</time></trkpt><trkpt lat="45.02621807848819" lon="8.571114429835692"><ele>111.4</ele><time>2026-04-19T07:25:48.999Z</time></trkpt><trkpt lat="45.026114169598614" lon="8.571103509380269"><ele>111.0</ele><time>2026-04-19T07:25:50.999Z</time></trkpt><trkpt lat="45.02601153703931" lon="8.571107685935221"><ele>111.0</ele><time>2026-04-19T07:25:53.999Z</time></trkpt><trkpt lat="45.02591062466939" lon="8.571101206043135"><ele>111.0</ele><time>2026-04-19T07:25:56.999Z</time></trkpt><trkpt lat="45.02584337709581" lon="8.571106241633291"><ele>111.0</ele><time>2026-04-19T07:25:58.999Z</time></trkpt><trkpt lat="45.025770836266815" lon="8.571114220163906"><ele>111.0</ele><time>2026-04-19T07:26:00.999Z</time></trkpt><trkpt lat="45.02566817746047" lon="8.57112401701297"><ele>111.0</ele><time>2026-04-19T07:26:02.999Z</time></trkpt><trkpt lat="45.02557419920612" lon="8.571122783175896"><ele>111.0</ele><time>2026-04-19T07:26:04.999Z</time></trkpt><trkpt lat="45.02546465486305" lon="8.571102868607134"><ele>111.0</ele><time>2026-04-19T07:26:06.999Z</time></trkpt><trkpt lat="45.02535353367287" lon="8.571060665719013"><ele>111.0</ele><time>2026-04-19T07:26:08.999Z</time></trkpt><trkpt lat="45.02523648205227" lon="8.571061392771563"><ele>111.0</ele><time>2026-04-19T07:26:10.999Z</time></trkpt><trkpt lat="45.025161065930426" lon="8.571067347793052"><ele>111.0</ele><time>2026-04-19T07:26:12.999Z</time></trkpt><trkpt lat="45.025031034190455" lon="8.571039120909962"><ele>111.0</ele><time>2026-04-19T07:26:14.999Z</time></trkpt><trkpt lat="45.02496772783299" lon="8.571031825232836"><ele>111.0</ele><time>2026-04-19T07:26:15.999Z</time></trkpt><trkpt lat="45.02486935285386" lon="8.571008494649304"><ele>111.0</ele><time>2026-04-19T07:26:17.999Z</time></trkpt><trkpt lat="45.02475750706842" lon="8.570987038690003"><ele>111.0</ele><time>2026-04-19T07:26:19.999Z</time></trkpt><trkpt lat="45.02469611247653" lon="8.570964995449875"><ele>111.0</ele><time>2026-04-19T07:26:20.999Z</time></trkpt><trkpt lat="45.02458943449687" lon="8.570931641832544"><ele>111.0</ele><time>2026-04-19T07:26:22.999Z</time></trkpt><trkpt lat="45.02452792351562" lon="8.570907847024166"><ele>111.0</ele><time>2026-04-19T07:26:23.999Z</time></trkpt><trkpt lat="45.024424230518626" lon="8.570853393327996"><ele>111.0</ele><time>2026-04-19T07:26:25.999Z</time></trkpt><trkpt lat="45.0243212339008" lon="8.570778943390335"><ele>111.0</ele><time>2026-04-19T07:26:27.999Z</time></trkpt><trkpt lat="45.024238377569475" lon="8.570719216826657"><ele>111.0</ele><time>2026-04-19T07:26:29.999Z</time></trkpt><trkpt lat="45.024151031942715" lon="8.570640773885055"><ele>111.0</ele><time>2026-04-19T07:26:31.999Z</time></trkpt><trkpt lat="45.02409134753714" lon="8.570583755996129"><ele>111.0</ele><time>2026-04-19T07:26:33Z</time></trkpt><trkpt lat="45.0239862578407" lon="8.570504022163977"><ele>111.16666666666667</ele><time>2026-04-19T07:26:35Z</time></trkpt><trkpt lat="45.02388345570994" lon="8.570411087051003"><ele>111.33333333333334</ele><time>2026-04-19T07:26:37Z</time></trkpt><trkpt lat="45.023779018177194" lon="8.570330377477658"><ele>111.5</ele><time>2026-04-19T07:26:39Z</time></trkpt><trkpt lat="45.02371801895392" lon="8.570277840922602"><ele>111.66666666666667</ele><time>2026-04-19T07:26:40Z</time></trkpt><trkpt lat="45.023654641016286" lon="8.570234206990284"><ele>111.83333333333334</ele><time>2026-04-19T07:26:41Z</time></trkpt><trkpt lat="45.02359913406099" lon="8.570190527198124"><ele>112.0</ele><time>2026-04-19T07:26:42Z</time></trkpt><trkpt lat="45.02349457075497" lon="8.570128748826283"><ele>112.0</ele><time>2026-04-19T07:26:44Z</time></trkpt><trkpt lat="45.023366802848784" lon="8.570088324106157"><ele>111.99999999999999</ele><time>2026-04-19T07:26:46Z</time></trkpt><trkpt lat="45.023298007643334" lon="8.570084712561847"><ele>111.99999999999999</ele><time>2026-04-19T07:26:47Z</time></trkpt><trkpt lat="45.0231805379033" lon="8.570060381263076"><ele>112.0</ele><time>2026-04-19T07:26:49Z</time></trkpt><trkpt lat="45.02306787109965" lon="8.570040679349393"><ele>112.0</ele><time>2026-04-19T07:26:51Z</time></trkpt><trkpt lat="45.02298760227352" lon="8.570024901914813"><ele>112.50000000000001</ele><time>2026-04-19T07:26:52Z</time></trkpt><trkpt lat="45.02290120334099" lon="8.570000024185514"><ele>113.0</ele><time>2026-04-19T07:26:53Z</time></trkpt><trkpt lat="45.022829063904" lon="8.569980185802317"><ele>113.5</ele><time>2026-04-19T07:26:54Z</time></trkpt><trkpt lat="45.022748981096704" lon="8.56995286016281"><ele>114.0</ele><time>2026-04-19T07:26:55Z</time></trkpt><trkpt lat="45.02268146780151" lon="8.56992883374829"><ele>114.50000000000001</ele><time>2026-04-19T07:26:56Z</time></trkpt><trkpt lat="45.02261191662578" lon="8.569888927174496"><ele>115.0</ele><time>2026-04-19T07:26:57Z</time></trkpt><trkpt lat="45.022498887469304" lon="8.569779654725048"><ele>115.42857142857142</ele><time>2026-04-19T07:26:59Z</time></trkpt><trkpt lat="45.022435285724264" lon="8.56969951669732"><ele>115.85714285714286</ele><time>2026-04-19T07:27:00Z</time></trkpt><trkpt lat="45.022374520800824" lon="8.56964837523551"><ele>116.28571428571428</ele><time>2026-04-19T07:27:01Z</time></trkpt><trkpt lat="45.02231937388964" lon="8.569587083291616"><ele>116.71428571428571</ele><time>2026-04-19T07:27:02Z</time></trkpt><trkpt lat="45.022263424525676" lon="8.569527470313663"><ele>117.14285714285714</ele><time>2026-04-19T07:27:03Z</time></trkpt><trkpt lat="45.02219238855363" lon="8.569462762310874"><ele>117.57142857142857</ele><time>2026-04-19T07:27:04Z</time></trkpt><trkpt lat="45.02213691567611" lon="8.56941953364257"><ele>118.0</ele><time>2026-04-19T07:27:05Z</time></trkpt><trkpt lat="45.022080289640336" lon="8.5693727942127"><ele>118.0</ele><time>2026-04-19T07:27:06Z</time></trkpt><trkpt lat="45.022015424720486" lon="8.569327147947037"><ele>118.00000000000001</ele><time>2026-04-19T07:27:07Z</time></trkpt><trkpt lat="45.02191926271211" lon="8.569246335913778"><ele>118.00000000000001</ele><time>2026-04-19T07:27:09Z</time></trkpt><trkpt lat="45.0218557635784" lon="8.569205193151234"><ele>118.0</ele><time>2026-04-19T07:27:10Z</time></trkpt><trkpt lat="45.02173377194358" lon="8.569178691888455"><ele>118.0</ele><time>2026-04-19T07:27:12Z</time></trkpt><trkpt lat="45.02163146425262" lon="8.56918585982262"><ele>117.80000000000001</ele><time>2026-04-19T07:27:14Z</time></trkpt><trkpt lat="45.021539974726906" lon="8.569269392918516"><ele>117.60000000000001</ele><time>2026-04-19T07:27:16Z</time></trkpt><trkpt lat="45.0214809558496" lon="8.569303529989686"><ele>117.39999999999999</ele><time>2026-04-19T07:27:17Z</time></trkpt><trkpt lat="45.021381551728986" lon="8.569336191241142"><ele>117.19999999999999</ele><time>2026-04-19T07:27:19Z</time></trkpt><trkpt lat="45.021264663839865" lon="8.56932547151681"><ele>117.0</ele><time>2026-04-19T07:27:21Z</time></trkpt><trkpt lat="45.02120073591043" lon="8.569328596764908"><ele>117.0</ele><time>2026-04-19T07:27:22Z</time></trkpt><trkpt lat="45.021078028373985" lon="8.569296473950132"><ele>116.99999999999999</ele><time>2026-04-19T07:27:24Z</time></trkpt><trkpt lat="45.021013582134366" lon="8.569273961940441"><ele>116.99999999999999</ele><time>2026-04-19T07:27:25Z</time></trkpt><trkpt lat="45.020894286684005" lon="8.56920804597523"><ele>117.0</ele><time>2026-04-19T07:27:27Z</time></trkpt><trkpt lat="45.020832880005145" lon="8.569169278079833"><ele>117.0</ele><time>2026-04-19T07:27:28Z</time></trkpt><trkpt lat="45.02074734449447" lon="8.569125819345665"><ele>116.66666666666667</ele><time>2026-04-19T07:27:30Z</time></trkpt><trkpt lat="45.020682828161" lon="8.569115551117957"><ele>116.33333333333334</ele><time>2026-04-19T07:27:32Z</time></trkpt><trkpt lat="45.020623329434876" lon="8.569157621523495"><ele>116.0</ele><time>2026-04-19T07:27:34Z</time></trkpt><trkpt lat="45.020531633782035" lon="8.569158782822301"><ele>115.66666666666667</ele><time>2026-04-19T07:27:37Z</time></trkpt><trkpt lat="45.02043543132151" lon="8.569110344881524"><ele>115.33333333333334</ele><time>2026-04-19T07:27:39Z</time></trkpt><trkpt lat="45.0203377687429" lon="8.56903624321061"><ele>115.0</ele><time>2026-04-19T07:27:41Z</time></trkpt><trkpt lat="45.020237977556924" lon="8.568966023762647"><ele>115.0</ele><time>2026-04-19T07:27:43Z</time></trkpt><trkpt lat="45.02016460331026" lon="8.568922032880621"><ele>115.0</ele><time>2026-04-19T07:27:46Z</time></trkpt><trkpt lat="45.02024303101507" lon="8.568924658773268"><ele>115.0</ele><time>2026-04-19T07:27:57Z</time></trkpt><trkpt lat="45.020365860991035" lon="8.569015083006697"><ele>115.0</ele><time>2026-04-19T07:27:58.999Z</time></trkpt><trkpt lat="45.02043178591583" lon="8.56906233424573"><ele>115.0</ele><time>2026-04-19T07:27:59.999Z</time></trkpt><trkpt lat="45.020531219925" lon="8.569129533459693"><ele>115.00000000000001</ele><time>2026-04-19T07:28:01.999Z</time></trkpt><trkpt lat="45.02060885590442" lon="8.569138138286439"><ele>115.0</ele><time>2026-04-19T07:28:03.999Z</time></trkpt><trkpt lat="45.02063684813408" lon="8.569050015903253"><ele>115.0</ele><time>2026-04-19T07:28:07.999Z</time></trkpt><trkpt lat="45.02055745105087" lon="8.568956136731684"><ele>115.0</ele><time>2026-04-19T07:28:09.999Z</time></trkpt><trkpt lat="45.02047562629806" lon="8.568882909425897"><ele>115.00000000000001</ele><time>2026-04-19T07:28:11.999Z</time></trkpt><trkpt lat="45.02041354353751" lon="8.568851238094801"><ele>115.0</ele><time>2026-04-19T07:28:12.999Z</time></trkpt><trkpt lat="45.02033340221372" lon="8.568790403524401"><ele>115.0</ele><time>2026-04-19T07:28:14.999Z</time></trkpt><trkpt lat="45.02024839784688" lon="8.568702807110759"><ele>115.0</ele><time>2026-04-19T07:28:16.999Z</time></trkpt><trkpt lat="45.020149953201326" lon="8.568628056600703"><ele>115.0</ele><time>2026-04-19T07:28:18.999Z</time></trkpt><trkpt lat="45.02009387624273" lon="8.568578116045545"><ele>115.0</ele><time>2026-04-19T07:28:19.999Z</time></trkpt><trkpt lat="45.02003184146789" lon="8.568539293051339"><ele>115.0</ele><time>2026-04-19T07:28:20.999Z</time></trkpt><trkpt lat="45.01992156222603" lon="8.568467162731833"><ele>115.33333333333334</ele><time>2026-04-19T07:28:22.999Z</time></trkpt><trkpt lat="45.01981396973247" lon="8.568401175146"><ele>115.66666666666667</ele><time>2026-04-19T07:28:24.999Z</time></trkpt><trkpt lat="45.0197493606615" lon="8.56836207713726"><ele>116.0</ele><time>2026-04-19T07:28:25.999Z</time></trkpt><trkpt lat="45.01968422191021" lon="8.568322363450628"><ele>116.33333333333334</ele><time>2026-04-19T07:28:26.999Z</time></trkpt><trkpt lat="45.01962456099092" lon="8.56827807052447"><ele>116.66666666666667</ele><time>2026-04-19T07:28:27.999Z</time></trkpt><trkpt lat="45.0195578161418" lon="8.568242610927507"><ele>117.0</ele><time>2026-04-19T07:28:28.999Z</time></trkpt><trkpt lat="45.01949001158919" lon="8.568199999480683"><ele>117.0</ele><time>2026-04-19T07:28:29.999Z</time></trkpt><trkpt lat="45.01941909779531" lon="8.56816577163475"><ele>116.99999999999999</ele><time>2026-04-19T07:28:30.999Z</time></trkpt><trkpt lat="45.019333022484574" lon="8.568117166717009"><ele>116.99999999999999</ele><time>2026-04-19T07:28:32.999Z</time></trkpt><trkpt lat="45.01924600096307" lon="8.568050550995565"><ele>117.0</ele><time>2026-04-19T07:28:35.999Z</time></trkpt><trkpt lat="45.01913121393494" lon="8.568000308914806"><ele>117.0</ele><time>2026-04-19T07:28:37.999Z</time></trkpt><trkpt lat="45.019065703351615" lon="8.567944500929876"><ele>117.0</ele><time>2026-04-19T07:28:39Z</time></trkpt><trkpt lat="45.01895654113735" lon="8.567882575917006"><ele>116.99999999999999</ele><time>2026-04-19T07:28:41Z</time></trkpt><trkpt lat="45.018879149442974" lon="8.567831288419146"><ele>116.99999999999999</ele><time>2026-04-19T07:28:42Z</time></trkpt><trkpt lat="45.01879646221994" lon="8.567790448133962"><ele>117.0</ele><time>2026-04-19T07:28:43Z</time></trkpt><trkpt lat="45.01869290159104" lon="8.567726128121143"><ele>117.0</ele><time>2026-04-19T07:28:44Z</time></trkpt><trkpt lat="45.01858817005746" lon="8.567692508634218"><ele>117.16666666666667</ele><time>2026-04-19T07:28:45Z</time></trkpt><trkpt lat="45.018507733061604" lon="8.56761320653282"><ele>117.33333333333334</ele><time>2026-04-19T07:28:47Z</time></trkpt><trkpt lat="45.018434103042935" lon="8.567572944149006"><ele>117.5</ele><time>2026-04-19T07:28:48Z</time></trkpt><trkpt lat="45.01835792458234" lon="8.567530356970664"><ele>117.66666666666667</ele><time>2026-04-19T07:28:49Z</time></trkpt><trkpt lat="45.01829678047382" lon="8.56748065504091"><ele>117.83333333333334</ele><time>2026-04-19T07:28:50Z</time></trkpt><trkpt lat="45.0182265742842" lon="8.567429052503256"><ele>118.0</ele><time>2026-04-19T07:28:51Z</time></trkpt><trkpt lat="45.01816951437794" lon="8.567370603971403"><ele>118.00000000000001</ele><time>2026-04-19T07:28:52Z</time></trkpt><trkpt lat="45.01808201193928" lon="8.567302142283062"><ele>118.0</ele><time>2026-04-19T07:28:53Z</time></trkpt><trkpt lat="45.01803365376395" lon="8.567230506094754"><ele>118.0</ele><time>2026-04-19T07:28:54Z</time></trkpt><trkpt lat="45.01794985556112" lon="8.56713291223942"><ele>118.0</ele><time>2026-04-19T07:28:56Z</time></trkpt><trkpt lat="45.01788225539856" lon="8.567089320324481"><ele>118.00000000000001</ele><time>2026-04-19T07:28:57Z</time></trkpt><trkpt lat="45.01780931223719" lon="8.567059738866691"><ele>118.0</ele><time>2026-04-19T07:28:58Z</time></trkpt><trkpt lat="45.017734969120326" lon="8.567015736176016"><ele>118.16666666666667</ele><time>2026-04-19T07:28:59Z</time></trkpt><trkpt lat="45.017667070726134" lon="8.56698103857916"><ele>118.33333333333334</ele><time>2026-04-19T07:29:00Z</time></trkpt><trkpt lat="45.01759178405359" lon="8.56695466935268"><ele>118.5</ele><time>2026-04-19T07:29:01Z</time></trkpt><trkpt lat="45.01751899876477" lon="8.566915856113583"><ele>118.66666666666666</ele><time>2026-04-19T07:29:02Z</time></trkpt><trkpt lat="45.01744329779275" lon="8.566873420797233"><ele>118.83333333333333</ele><time>2026-04-19T07:29:03Z</time></trkpt><trkpt lat="45.017370167097816" lon="8.566833412846051"><ele>119.0</ele><time>2026-04-19T07:29:04Z</time></trkpt><trkpt lat="45.01729939528657" lon="8.566792541972157"><ele>119.80000000000001</ele><time>2026-04-19T07:29:05Z</time></trkpt><trkpt lat="45.01722771057575" lon="8.566755167535675"><ele>120.60000000000001</ele><time>2026-04-19T07:29:06Z</time></trkpt><trkpt lat="45.01715374346439" lon="8.566726585358715"><ele>121.4</ele><time>2026-04-19T07:29:07Z</time></trkpt><trkpt lat="45.01703249656502" lon="8.56666001685919"><ele>122.2</ele><time>2026-04-19T07:29:09Z</time></trkpt><trkpt lat="45.01693463386099" lon="8.56656293943864"><ele>123.0</ele><time>2026-04-19T07:29:11Z</time></trkpt><trkpt lat="45.01687602139478" lon="8.566511227752594"><ele>123.0</ele><time>2026-04-19T07:29:12Z</time></trkpt><trkpt lat="45.016794448466044" lon="8.566410103603058"><ele>123.00000000000001</ele><time>2026-04-19T07:29:14Z</time></trkpt><trkpt lat="45.01673317396459" lon="8.56631511622637"><ele>123.00000000000001</ele><time>2026-04-19T07:29:16Z</time></trkpt><trkpt lat="45.01667552772472" lon="8.566222138156332"><ele>123.0</ele><time>2026-04-19T07:29:18Z</time></trkpt><trkpt lat="45.01663520787829" lon="8.56607877194851"><ele>123.0</ele><time>2026-04-19T07:29:20Z</time></trkpt><trkpt lat="45.016581591828064" lon="8.565983187016958"><ele>123.4</ele><time>2026-04-19T07:29:22Z</time></trkpt><trkpt lat="45.01644690182807" lon="8.565950901125428"><ele>123.80000000000001</ele><time>2026-04-19T07:29:24Z</time></trkpt><trkpt lat="45.01635705907957" lon="8.565940131993118"><ele>124.2</ele><time>2026-04-19T07:29:25Z</time></trkpt><trkpt lat="45.01625920862816" lon="8.56593197297741"><ele>124.6</ele><time>2026-04-19T07:29:26Z</time></trkpt><trkpt lat="45.016158420721695" lon="8.565875988039371"><ele>125.0</ele><time>2026-04-19T07:29:27Z</time></trkpt><trkpt lat="45.01603858026569" lon="8.565852547989028"><ele>125.0</ele><time>2026-04-19T07:29:28Z</time></trkpt><trkpt lat="45.01592415402459" lon="8.565822157012523"><ele>125.0</ele><time>2026-04-19T07:29:29Z</time></trkpt><trkpt lat="45.015787197882865" lon="8.565789524639648"><ele>125.0</ele><time>2026-04-19T07:29:30Z</time></trkpt><trkpt lat="45.0156322211619" lon="8.565776232179463"><ele>125.0</ele><time>2026-04-19T07:29:31Z</time></trkpt><trkpt lat="45.01545601480549" lon="8.565729003660792"><ele>124.66666666666666</ele><time>2026-04-19T07:29:32Z</time></trkpt><trkpt lat="45.01526437322508" lon="8.565720120296495"><ele>124.33333333333334</ele><time>2026-04-19T07:29:33Z</time></trkpt><trkpt lat="45.01507068806963" lon="8.565688131073738"><ele>124.0</ele><time>2026-04-19T07:29:34Z</time></trkpt><trkpt lat="45.01486877853894" lon="8.56565768020036"><ele>124.0</ele><time>2026-04-19T07:29:35Z</time></trkpt><trkpt lat="45.01466512896086" lon="8.565623243422772"><ele>124.0</ele><time>2026-04-19T07:29:36Z</time></trkpt><trkpt lat="45.01449344680176" lon="8.565601628310796"><ele>124.0</ele><time>2026-04-19T07:29:37Z</time></trkpt><trkpt lat="45.01434547544961" lon="8.565548867723914"><ele>124.0</ele><time>2026-04-19T07:29:38Z</time></trkpt><trkpt lat="45.01420694905638" lon="8.565539211133535"><ele>124.0</ele><time>2026-04-19T07:29:39Z</time></trkpt><trkpt lat="45.014089152235115" lon="8.565481694058823"><ele>124.0</ele><time>2026-04-19T07:29:40Z</time></trkpt><trkpt lat="45.01397667286467" lon="8.56544269321084"><ele>124.0</ele><time>2026-04-19T07:29:41Z</time></trkpt><trkpt lat="45.013848582426824" lon="8.565416127979267"><ele>124.6</ele><time>2026-04-19T07:29:42Z</time></trkpt><trkpt lat="45.01372568537523" lon="8.565373166288676"><ele>125.2</ele><time>2026-04-19T07:29:43Z</time></trkpt><trkpt lat="45.01361779929373" lon="8.565331126921556"><ele>125.79999999999998</ele><time>2026-04-19T07:29:44Z</time></trkpt><trkpt lat="45.013520056056656" lon="8.56529847076059"><ele>126.39999999999999</ele><time>2026-04-19T07:29:45Z</time></trkpt><trkpt lat="45.01343153126477" lon="8.565271751621118"><ele>127.0</ele><time>2026-04-19T07:29:46Z</time></trkpt><trkpt lat="45.013363059318976" lon="8.565253496586177"><ele>127.8</ele><time>2026-04-19T07:29:47Z</time></trkpt><trkpt lat="45.01328881903398" lon="8.565244311174554"><ele>128.6</ele><time>2026-04-19T07:29:49Z</time></trkpt><trkpt lat="45.013219305569606" lon="8.565242513937312"><ele>129.39999999999998</ele><time>2026-04-19T07:29:50Z</time></trkpt><trkpt lat="45.01310911516871" lon="8.565236931680209"><ele>130.2</ele><time>2026-04-19T07:29:51Z</time></trkpt><trkpt lat="45.012975972706165" lon="8.565234447891292"><ele>131.0</ele><time>2026-04-19T07:29:52Z</time></trkpt><trkpt lat="45.012828556908076" lon="8.565214689416289"><ele>131.0</ele><time>2026-04-19T07:29:53Z</time></trkpt><trkpt lat="45.01267417915881" lon="8.565190958645246"><ele>131.0</ele><time>2026-04-19T07:29:54Z</time></trkpt><trkpt lat="45.01255916897802" lon="8.56514766890703"><ele>131.0</ele><time>2026-04-19T07:29:55Z</time></trkpt><trkpt lat="45.01247035898485" lon="8.56509094426324"><ele>131.0</ele><time>2026-04-19T07:29:56Z</time></trkpt><trkpt lat="45.012381893901505" lon="8.565023259671857"><ele>132.0</ele><time>2026-04-19T07:29:57Z</time></trkpt><trkpt lat="45.01230845802478" lon="8.564947673947412"><ele>133.0</ele><time>2026-04-19T07:29:58Z</time></trkpt><trkpt lat="45.01224612538204" lon="8.56488386775033"><ele>134.0</ele><time>2026-04-19T07:29:59Z</time></trkpt><trkpt lat="45.01218528163534" lon="8.56480273460609"><ele>135.0</ele><time>2026-04-19T07:30:00.999Z</time></trkpt><trkpt lat="45.0121253793229" lon="8.56472552046412"><ele>136.0</ele><time>2026-04-19T07:30:03.999Z</time></trkpt><trkpt lat="45.0120062064523" lon="8.564791029809264"><ele>136.0</ele><time>2026-04-19T07:30:04.999Z</time></trkpt><trkpt lat="45.01191162802063" lon="8.56478740175695"><ele>136.0</ele><time>2026-04-19T07:30:05.999Z</time></trkpt><trkpt lat="45.0117970320683" lon="8.5647756518968"><ele>136.0</ele><time>2026-04-19T07:30:06.999Z</time></trkpt><trkpt lat="45.01166275509249" lon="8.564763335805484"><ele>136.0</ele><time>2026-04-19T07:30:07.999Z</time></trkpt><trkpt lat="45.01152291272518" lon="8.5647522073642"><ele>137.0</ele><time>2026-04-19T07:30:08.999Z</time></trkpt><trkpt lat="45.0113677643924" lon="8.564716279018672"><ele>138.0</ele><time>2026-04-19T07:30:09.999Z</time></trkpt><trkpt lat="45.01120073499667" lon="8.564711082612865"><ele>139.0</ele><time>2026-04-19T07:30:10.999Z</time></trkpt><trkpt lat="45.01102884152814" lon="8.56468411808867"><ele>139.0</ele><time>2026-04-19T07:30:11.999Z</time></trkpt><trkpt lat="45.010851057491806" lon="8.564666453034537"><ele>139.0</ele><time>2026-04-19T07:30:12.999Z</time></trkpt><trkpt lat="45.010674093979155" lon="8.564644044904957"><ele>139.0</ele><time>2026-04-19T07:30:13.999Z</time></trkpt><trkpt lat="45.01049189224999" lon="8.56462755728358"><ele>140.0</ele><time>2026-04-19T07:30:14.999Z</time></trkpt><trkpt lat="45.01030700256886" lon="8.56460536514006"><ele>141.0</ele><time>2026-04-19T07:30:15.999Z</time></trkpt><trkpt lat="45.01012190009262" lon="8.564578541485618"><ele>142.0</ele><time>2026-04-19T07:30:16.999Z</time></trkpt><trkpt lat="45.009934968492026" lon="8.564561808738073"><ele>143.33333333333334</ele><time>2026-04-19T07:30:17.999Z</time></trkpt><trkpt lat="45.00975078577662" lon="8.564519149523742"><ele>144.66666666666666</ele><time>2026-04-19T07:30:18.999Z</time></trkpt><trkpt lat="45.00956331584899" lon="8.564517092176"><ele>146.0</ele><time>2026-04-19T07:30:19.999Z</time></trkpt><trkpt lat="45.00937884188762" lon="8.564492852845563"><ele>146.0</ele><time>2026-04-19T07:30:20.999Z</time></trkpt><trkpt lat="45.00919300237759" lon="8.564470642383016"><ele>146.0</ele><time>2026-04-19T07:30:21.999Z</time></trkpt><trkpt lat="45.009011764437105" lon="8.564435200535897"><ele>146.0</ele><time>2026-04-19T07:30:22.999Z</time></trkpt><trkpt lat="45.00884264749163" lon="8.564357603437838"><ele>148.33333333333331</ele><time>2026-04-19T07:30:23.999Z</time></trkpt><trkpt lat="45.00867536829399" lon="8.564306917830674"><ele>150.66666666666666</ele><time>2026-04-19T07:30:24.999Z</time></trkpt><trkpt lat="45.008521912092846" lon="8.564200713151479"><ele>153.0</ele><time>2026-04-19T07:30:25.999Z</time></trkpt><trkpt lat="45.00836937057998" lon="8.56409492734749"><ele>153.33333333333334</ele><time>2026-04-19T07:30:26.999Z</time></trkpt><trkpt lat="45.00823308678895" lon="8.563987613359227"><ele>153.66666666666669</ele><time>2026-04-19T07:30:27.999Z</time></trkpt><trkpt lat="45.00808139635563" lon="8.563858927931934"><ele>154.0</ele><time>2026-04-19T07:30:28.999Z</time></trkpt><trkpt lat="45.00792869064892" lon="8.563753588429849"><ele>155.0</ele><time>2026-04-19T07:30:29.999Z</time></trkpt><trkpt lat="45.00778323526867" lon="8.5636190675115"><ele>156.0</ele><time>2026-04-19T07:30:30.999Z</time></trkpt><trkpt lat="45.007632896199965" lon="8.563493798204464"><ele>157.0</ele><time>2026-04-19T07:30:31.999Z</time></trkpt><trkpt lat="45.007489771634276" lon="8.563345532300934"><ele>157.0</ele><time>2026-04-19T07:30:32.999Z</time></trkpt><trkpt lat="45.00733001989276" lon="8.563206638847857"><ele>157.0</ele><time>2026-04-19T07:30:33.999Z</time></trkpt><trkpt lat="45.00716946452942" lon="8.56306616973012"><ele>157.0</ele><time>2026-04-19T07:30:34.999Z</time></trkpt><trkpt lat="45.00700189498584" lon="8.562919563942854"><ele>159.33333333333334</ele><time>2026-04-19T07:30:35.999Z</time></trkpt><trkpt lat="45.0068288392337" lon="8.562768158214878"><ele>161.66666666666666</ele><time>2026-04-19T07:30:36.999Z</time></trkpt><trkpt lat="45.00664455816452" lon="8.562627096168764"><ele>164.0</ele><time>2026-04-19T07:30:37.999Z</time></trkpt><trkpt lat="45.00644950470853" lon="8.562463692527428"><ele>164.0</ele><time>2026-04-19T07:30:38.999Z</time></trkpt><trkpt lat="45.00624357837613" lon="8.562256116116089"><ele>164.0</ele><time>2026-04-19T07:30:39.999Z</time></trkpt><trkpt lat="45.00600357438446" lon="8.562046517658"><ele>170.0</ele><time>2026-04-19T07:30:40.999Z</time></trkpt><trkpt lat="45.005757865443016" lon="8.561856337590157"><ele>176.0</ele><time>2026-04-19T07:30:41.999Z</time></trkpt><trkpt lat="45.00556542303249" lon="8.561685452578002"><ele>176.0</ele><time>2026-04-19T07:30:42.999Z</time></trkpt><trkpt lat="45.005401767130735" lon="8.561516882510412"><ele>176.0</ele><time>2026-04-19T07:30:43.999Z</time></trkpt><trkpt lat="45.005244799830095" lon="8.561407883457958"><ele>176.0</ele><time>2026-04-19T07:30:45Z</time></trkpt><trkpt lat="45.0051105157385" lon="8.561290072278027"><ele>176.75</ele><time>2026-04-19T07:30:46Z</time></trkpt><trkpt lat="45.00499066042613" lon="8.56120484059222"><ele>177.5</ele><time>2026-04-19T07:30:47Z</time></trkpt><trkpt lat="45.0048739112544" lon="8.56114625254793"><ele>178.25</ele><time>2026-04-19T07:30:48Z</time></trkpt><trkpt lat="45.00475707000574" lon="8.561132318945372"><ele>179.0</ele><time>2026-04-19T07:30:49Z</time></trkpt><trkpt lat="45.00465258692229" lon="8.561110663442138"><ele>179.0</ele><time>2026-04-19T07:30:50Z</time></trkpt><trkpt lat="45.00457336945404" lon="8.561061000792314"><ele>179.0</ele><time>2026-04-19T07:30:51Z</time></trkpt><trkpt lat="45.00454520585153" lon="8.560946702775691"><ele>179.0</ele><time>2026-04-19T07:30:52Z</time></trkpt><trkpt lat="45.004525271830694" lon="8.560824799402061"><ele>179.0</ele><time>2026-04-19T07:30:53Z</time></trkpt><trkpt lat="45.004534683057095" lon="8.560720753358613"><ele>179.0</ele><time>2026-04-19T07:30:54Z</time></trkpt><trkpt lat="45.00455850038366" lon="8.560630453598431"><ele>179.0</ele><time>2026-04-19T07:30:56Z</time></trkpt><trkpt lat="45.00451082756895" lon="8.560487162126686"><ele>179.0</ele><time>2026-04-19T07:31:00Z</time></trkpt><trkpt lat="45.00442916529101" lon="8.560451950004383"><ele>179.0</ele><time>2026-04-19T07:31:01Z</time></trkpt><trkpt lat="45.004358782983175" lon="8.560405228007133"><ele>179.0</ele><time>2026-04-19T07:31:02Z</time></trkpt><trkpt lat="45.00425498340665" lon="8.560301457364506"><ele>179.0</ele><time>2026-04-19T07:31:03Z</time></trkpt><trkpt lat="45.00411713005409" lon="8.560193991203972"><ele>179.0</ele><time>2026-04-19T07:31:04Z</time></trkpt><trkpt lat="45.00388031561357" lon="8.560027187755365"><ele>181.0</ele><time>2026-04-19T07:31:05Z</time></trkpt><trkpt lat="45.003691298714394" lon="8.559855258786373"><ele>183.0</ele><time>2026-04-19T07:31:06Z</time></trkpt><trkpt lat="45.00351088603841" lon="8.559693243720702"><ele>185.0</ele><time>2026-04-19T07:31:07Z</time></trkpt><trkpt lat="45.00332049193963" lon="8.559535471046564"><ele>187.33333333333331</ele><time>2026-04-19T07:31:08Z</time></trkpt><trkpt lat="45.00315137562483" lon="8.559387327331306"><ele>189.66666666666666</ele><time>2026-04-19T07:31:09Z</time></trkpt><trkpt lat="45.00298862993562" lon="8.559300479701998"><ele>192.0</ele><time>2026-04-19T07:31:10Z</time></trkpt><trkpt lat="45.00280008983755" lon="8.559252773037736"><ele>192.0</ele><time>2026-04-19T07:31:11Z</time></trkpt><trkpt lat="45.00260202723755" lon="8.559273667675324"><ele>192.0</ele><time>2026-04-19T07:31:12Z</time></trkpt><trkpt lat="45.00241835610697" lon="8.559320418222457"><ele>192.0</ele><time>2026-04-19T07:31:13Z</time></trkpt><trkpt lat="45.00225356732213" lon="8.559386644798208"><ele>192.33333333333331</ele><time>2026-04-19T07:31:14Z</time></trkpt><trkpt lat="45.00207235451465" lon="8.5595012003004"><ele>192.66666666666666</ele><time>2026-04-19T07:31:15Z</time></trkpt><trkpt lat="45.00186339205297" lon="8.559609780298642"><ele>193.0</ele><time>2026-04-19T07:31:16Z</time></trkpt><trkpt lat="45.00165769995615" lon="8.559733407813292"><ele>196.0</ele><time>2026-04-19T07:31:17Z</time></trkpt><trkpt lat="45.00146330287361" lon="8.559864356840995"><ele>199.0</ele><time>2026-04-19T07:31:18Z</time></trkpt><trkpt lat="45.001298688893385" lon="8.559976339483239"><ele>202.0</ele><time>2026-04-19T07:31:19Z</time></trkpt><trkpt lat="45.00112547940527" lon="8.560056772832093"><ele>202.0</ele><time>2026-04-19T07:31:20Z</time></trkpt><trkpt lat="45.000962606511095" lon="8.56017348129827"><ele>202.0</ele><time>2026-04-19T07:31:21Z</time></trkpt><trkpt lat="45.000802166497536" lon="8.560304963551257"><ele>202.0</ele><time>2026-04-19T07:31:22Z</time></trkpt><trkpt lat="45.00066224069394" lon="8.560495162112584"><ele>203.0</ele><time>2026-04-19T07:31:23Z</time></trkpt><trkpt lat="45.00054435564927" lon="8.560749781951593"><ele>204.0</ele><time>2026-04-19T07:31:24Z</time></trkpt><trkpt lat="45.00042889915766" lon="8.56103536057541"><ele>205.0</ele><time>2026-04-19T07:31:25Z</time></trkpt><trkpt lat="45.00029603129968" lon="8.561300939748229"><ele>205.0</ele><time>2026-04-19T07:31:26Z</time></trkpt><trkpt lat="45.00015247094975" lon="8.56148396724597"><ele>205.0</ele><time>2026-04-19T07:31:27Z</time></trkpt><trkpt lat="45.00001113872207" lon="8.561674096675041"><ele>205.0</ele><time>2026-04-19T07:31:28Z</time></trkpt><trkpt lat="44.99985252216922" lon="8.561848309526424"><ele>205.0</ele><time>2026-04-19T07:31:29Z</time></trkpt><trkpt lat="44.99968627502171" lon="8.56201225132513"><ele>205.0</ele><time>2026-04-19T07:31:30Z</time></trkpt><trkpt lat="44.99951061884667" lon="8.56215714290544"><ele>205.0</ele><time>2026-04-19T07:31:31Z</time></trkpt><trkpt lat="44.99932283270707" lon="8.562291884972144"><ele>206.0</ele><time>2026-04-19T07:31:32Z</time></trkpt><trkpt lat="44.99915290235928" lon="8.562443583087994"><ele>207.0</ele><time>2026-04-19T07:31:33Z</time></trkpt><trkpt lat="44.99899403002068" lon="8.562519246887968"><ele>208.0</ele><time>2026-04-19T07:31:34Z</time></trkpt><trkpt lat="44.99884785302875" lon="8.562595060562128"><ele>208.0</ele><time>2026-04-19T07:31:35Z</time></trkpt><trkpt lat="44.99870600000344" lon="8.562681726753722"><ele>208.0</ele><time>2026-04-19T07:31:36Z</time></trkpt><trkpt lat="44.998556244401996" lon="8.562768630330828"><ele>208.0</ele><time>2026-04-19T07:31:37Z</time></trkpt><trkpt lat="44.99841738726751" lon="8.562857410326757"><ele>209.25</ele><time>2026-04-19T07:31:38Z</time></trkpt><trkpt lat="44.99829105959373" lon="8.562934703063135"><ele>210.5</ele><time>2026-04-19T07:31:39Z</time></trkpt><trkpt lat="44.998164814885044" lon="8.563004713240616"><ele>211.75</ele><time>2026-04-19T07:31:40Z</time></trkpt><trkpt lat="44.99805597267904" lon="8.56307669381813"><ele>213.0</ele><time>2026-04-19T07:31:41Z</time></trkpt><trkpt lat="44.99795788553653" lon="8.563137732533919"><ele>213.0</ele><time>2026-04-19T07:31:42Z</time></trkpt><trkpt lat="44.9978648947409" lon="8.563194139394307"><ele>213.0</ele><time>2026-04-19T07:31:43Z</time></trkpt><trkpt lat="44.9977604397611" lon="8.563253456684093"><ele>213.0</ele><time>2026-04-19T07:31:44Z</time></trkpt><trkpt lat="44.997659342295776" lon="8.563301008912472"><ele>213.0</ele><time>2026-04-19T07:31:45Z</time></trkpt><trkpt lat="44.9975529694431" lon="8.563335126158542"><ele>213.0</ele><time>2026-04-19T07:31:46Z</time></trkpt><trkpt lat="44.997450752857425" lon="8.563328819664132"><ele>213.66666666666666</ele><time>2026-04-19T07:31:47Z</time></trkpt><trkpt lat="44.99735622789946" lon="8.563311224449018"><ele>214.33333333333331</ele><time>2026-04-19T07:31:48Z</time></trkpt><trkpt lat="44.997281826369026" lon="8.563273765370099"><ele>215.0</ele><time>2026-04-19T07:31:49Z</time></trkpt><trkpt lat="44.99719835003349" lon="8.563268206802595"><ele>215.66666666666666</ele><time>2026-04-19T07:31:50Z</time></trkpt><trkpt lat="44.99713004497047" lon="8.563312510328448"><ele>216.33333333333331</ele><time>2026-04-19T07:31:51Z</time></trkpt><trkpt lat="44.99707606574322" lon="8.56338073708217"><ele>217.0</ele><time>2026-04-19T07:31:52Z</time></trkpt><trkpt lat="44.99695037125142" lon="8.56346619340582"><ele>217.0</ele><time>2026-04-19T07:31:53Z</time></trkpt><trkpt lat="44.99688489375662" lon="8.56356311008674"><ele>217.0</ele><time>2026-04-19T07:31:54Z</time></trkpt><trkpt lat="44.99681010745003" lon="8.563665177613426"><ele>217.0</ele><time>2026-04-19T07:31:55Z</time></trkpt><trkpt lat="44.99672915404029" lon="8.56377146371404"><ele>217.0</ele><time>2026-04-19T07:31:56Z</time></trkpt><trkpt lat="44.9966495595093" lon="8.563878996538627"><ele>217.0</ele><time>2026-04-19T07:31:57Z</time></trkpt><trkpt lat="44.99658364089595" lon="8.563978877044189"><ele>217.6</ele><time>2026-04-19T07:31:58Z</time></trkpt><trkpt lat="44.99652074024266" lon="8.564075802198426"><ele>218.2</ele><time>2026-04-19T07:31:59Z</time></trkpt><trkpt lat="44.99645686795338" lon="8.564182013881254"><ele>218.8</ele><time>2026-04-19T07:32:00Z</time></trkpt><trkpt lat="44.996384248638144" lon="8.564292797844269"><ele>219.4</ele><time>2026-04-19T07:32:00.999Z</time></trkpt><trkpt lat="44.996314912842074" lon="8.564409205128303"><ele>220.0</ele><time>2026-04-19T07:32:01.999Z</time></trkpt><trkpt lat="44.99624400697951" lon="8.564536784461103"><ele>220.0</ele><time>2026-04-19T07:32:02.999Z</time></trkpt><trkpt lat="44.9961560710377" lon="8.564647235822772"><ele>220.0</ele><time>2026-04-19T07:32:03.999Z</time></trkpt><trkpt lat="44.99609143837396" lon="8.564767490309883"><ele>220.0</ele><time>2026-04-19T07:32:04.999Z</time></trkpt><trkpt lat="44.996027892253686" lon="8.564888813746755"><ele>220.0</ele><time>2026-04-19T07:32:05.999Z</time></trkpt><trkpt lat="44.995969046127115" lon="8.56500310168747"><ele>220.0</ele><time>2026-04-19T07:32:06.999Z</time></trkpt><trkpt lat="44.995919077170406" lon="8.565111564997972"><ele>219.99999999999997</ele><time>2026-04-19T07:32:07.999Z</time></trkpt><trkpt lat="44.99586874547812" lon="8.565230596248787"><ele>220.0</ele><time>2026-04-19T07:32:08.999Z</time></trkpt><trkpt lat="44.99582660390454" lon="8.565332901608658"><ele>220.0</ele><time>2026-04-19T07:32:09.999Z</time></trkpt><trkpt lat="44.995787797601004" lon="8.565423627060788"><ele>220.0</ele><time>2026-04-19T07:32:10.999Z</time></trkpt><trkpt lat="44.99574924822644" lon="8.56551276757388"><ele>219.99999999999997</ele><time>2026-04-19T07:32:11.999Z</time></trkpt><trkpt lat="44.995705105156524" lon="8.565614843727317"><ele>220.0</ele><time>2026-04-19T07:32:12.999Z</time></trkpt><trkpt lat="44.99566528185746" lon="8.565706916157199"><ele>220.49999999999997</ele><time>2026-04-19T07:32:13.999Z</time></trkpt><trkpt lat="44.99562810767184" lon="8.565792867854245"><ele>221.0</ele><time>2026-04-19T07:32:14.999Z</time></trkpt><trkpt lat="44.99556037595063" lon="8.565942146841023"><ele>221.5</ele><time>2026-04-19T07:32:16.999Z</time></trkpt><trkpt lat="44.99552377905589" lon="8.566020022910243"><ele>222.0</ele><time>2026-04-19T07:32:17.999Z</time></trkpt><trkpt lat="44.995467042163334" lon="8.56613119390274"><ele>222.49999999999997</ele><time>2026-04-19T07:32:19.999Z</time></trkpt><trkpt lat="44.99541751938929" lon="8.566210350553257"><ele>223.0</ele><time>2026-04-19T07:32:21.999Z</time></trkpt><trkpt lat="44.99534948783553" lon="8.566300749569296"><ele>222.99999999999997</ele><time>2026-04-19T07:32:23.999Z</time></trkpt><trkpt lat="44.99527139071031" lon="8.566392339960396"><ele>223.0</ele><time>2026-04-19T07:32:25.999Z</time></trkpt><trkpt lat="44.99521432513734" lon="8.566453691151878"><ele>223.0</ele><time>2026-04-19T07:32:27.999Z</time></trkpt><trkpt lat="44.995133064364445" lon="8.566527217697336"><ele>223.0</ele><time>2026-04-19T07:32:29.999Z</time></trkpt><trkpt lat="44.99504650093345" lon="8.566562523711724"><ele>222.99999999999997</ele><time>2026-04-19T07:32:39.999Z</time></trkpt><trkpt lat="44.99504049866751" lon="8.566680999233785"><ele>223.0</ele><time>2026-04-19T07:32:40.999Z</time></trkpt><trkpt lat="44.995023852873494" lon="8.566768937849519"><ele>223.25</ele><time>2026-04-19T07:32:42.999Z</time></trkpt><trkpt lat="44.99500219316445" lon="8.566917626378789"><ele>223.5</ele><time>2026-04-19T07:32:44.999Z</time></trkpt><trkpt lat="44.99499611850399" lon="8.56708623188998"><ele>223.75</ele><time>2026-04-19T07:32:46.999Z</time></trkpt><trkpt lat="44.99496564917563" lon="8.567203120728195"><ele>224.0</ele><time>2026-04-19T07:32:48.999Z</time></trkpt><trkpt lat="44.99516083566032" lon="8.567231510004143"><ele>224.0</ele><time>2026-04-19T07:32:54Z</time></trkpt><trkpt lat="44.99525939554261" lon="8.567206933299206"><ele>223.99999999999997</ele><time>2026-04-19T07:32:55Z</time></trkpt><trkpt lat="44.99536482919624" lon="8.56718771762337"><ele>223.99999999999997</ele><time>2026-04-19T07:32:56Z</time></trkpt><trkpt lat="44.9954544221261" lon="8.567177082219873"><ele>224.0</ele><time>2026-04-19T07:32:57Z</time></trkpt><trkpt lat="44.99552135017941" lon="8.567176519255304"><ele>224.0</ele><time>2026-04-19T07:32:58Z</time></trkpt><trkpt lat="44.99560405507344" lon="8.56734769189095"><ele>224.0</ele><time>2026-04-19T07:33:00Z</time></trkpt><trkpt lat="44.99565638724782" lon="8.567461396992465"><ele>223.99999999999997</ele><time>2026-04-19T07:33:01Z</time></trkpt><trkpt lat="44.995737785362174" lon="8.567522530351232"><ele>223.99999999999997</ele><time>2026-04-19T07:33:02Z</time></trkpt><trkpt lat="44.995836344698304" lon="8.567543717735077"><ele>224.0</ele><time>2026-04-19T07:33:03Z</time></trkpt><trkpt lat="44.995962042001075" lon="8.567560302438842"><ele>224.0</ele><time>2026-04-19T07:33:04Z</time></trkpt><trkpt lat="44.99609000942378" lon="8.567510393733977"><ele>225.50000000000003</ele><time>2026-04-19T07:33:05Z</time></trkpt><trkpt lat="44.996214078259015" lon="8.567484932655466"><ele>227.0</ele><time>2026-04-19T07:33:06Z</time></trkpt><trkpt lat="44.99631098545494" lon="8.567482041571253"><ele>228.5</ele><time>2026-04-19T07:33:07Z</time></trkpt><trkpt lat="44.99637765992197" lon="8.567477953522685"><ele>230.0</ele><time>2026-04-19T07:33:08Z</time></trkpt><trkpt lat="44.99645057295165" lon="8.567475255533626"><ele>231.50000000000003</ele><time>2026-04-19T07:33:10Z</time></trkpt><trkpt lat="44.99645737880262" lon="8.567355529589735"><ele>233.0</ele><time>2026-04-19T07:33:12Z</time></trkpt><trkpt lat="44.996430487953766" lon="8.567230886806415"><ele>233.00000000000003</ele><time>2026-04-19T07:33:13Z</time></trkpt><trkpt lat="44.99642120587473" lon="8.567121194592755"><ele>233.0</ele><time>2026-04-19T07:33:14Z</time></trkpt><trkpt lat="44.99643555206909" lon="8.566986451487889"><ele>233.0</ele><time>2026-04-19T07:33:15Z</time></trkpt><trkpt lat="44.99646772061025" lon="8.566820657249473"><ele>233.0</ele><time>2026-04-19T07:33:17Z</time></trkpt><trkpt lat="44.99649117555424" lon="8.566733159700048"><ele>233.00000000000003</ele><time>2026-04-19T07:33:18Z</time></trkpt><trkpt lat="44.99652528255433" lon="8.566619980404155"><ele>233.0</ele><time>2026-04-19T07:33:19Z</time></trkpt><trkpt lat="44.99659221618689" lon="8.566474486775636"><ele>233.75</ele><time>2026-04-19T07:33:21Z</time></trkpt><trkpt lat="44.99663206250682" lon="8.566383767081913"><ele>234.5</ele><time>2026-04-19T07:33:23Z</time></trkpt><trkpt lat="44.996521097061105" lon="8.566382631036223"><ele>235.25</ele><time>2026-04-19T07:33:27Z</time></trkpt><trkpt lat="44.99646211224435" lon="8.566489515642335"><ele>236.0</ele><time>2026-04-19T07:33:29Z</time></trkpt><trkpt lat="44.996679015033564" lon="8.566696372482564"><ele>245.0</ele><time>2026-04-19T07:33:32Z</time></trkpt><trkpt lat="44.996731531248884" lon="8.566639756087481"><ele>245.0</ele><time>2026-04-19T07:33:34Z</time></trkpt><trkpt lat="44.99679623511919" lon="8.56656999154235"><ele>245.0</ele><time>2026-04-19T07:33:52Z</time></trkpt><trkpt lat="44.996859211049795" lon="8.566574037641871"><ele>245.0</ele><time>2026-04-19T07:33:57Z</time></trkpt></trkseg></trk></gpx>